<?xml version="1.0" encoding="UTF-8" standalone="no" ?>
<gpx xmlns="http://www.topografix.com/GPX/1/1" xmlns:xsi="http://www.w3.org/2001/XMLSchema-instance" xsi:schemaLocation="http://www.topografix.com/GPX/1/1 http://www.topografix.com/GPX/1/1/gpx.xsd" version="1.1" creator="VisuGPX - https://www.visugpx.com">
  <metadata>
    <name>lundi 2015 02</name>
    <desc><![CDATA[cumul février 2015]]></desc>
  </metadata>
  <trk>
    <name><![CDATA[02/02/2015 20:16]]></name>
    <extensions>
      <line xmlns="http://www.topografix.com/GPX/gpx_style/0/2">
        <color>000000</color>
      </line>
    </extensions>
    <trkseg>
      <trkpt lat="48.85737" lon="2.34744">
        <ele>91.1</ele>
        <time>2015-02-02T19:16:47.806Z</time>
      </trkpt>
      <trkpt lat="48.85731" lon="2.3475">
        <ele>95.1</ele>
        <time>2015-02-02T19:17:20.574Z</time>
      </trkpt>
      <trkpt lat="48.85731" lon="2.3475">
        <ele>95.1</ele>
        <time>2015-02-02T19:17:21.581Z</time>
      </trkpt>
      <trkpt lat="48.85731" lon="2.3475">
        <ele>95.2</ele>
        <time>2015-02-02T19:17:22.646Z</time>
      </trkpt>
      <trkpt lat="48.85733" lon="2.3475">
        <ele>95.4</ele>
        <time>2015-02-02T19:17:24.566Z</time>
      </trkpt>
      <trkpt lat="48.85732" lon="2.3475">
        <ele>95.5</ele>
        <time>2015-02-02T19:17:25.574Z</time>
      </trkpt>
      <trkpt lat="48.85732" lon="2.34751">
        <ele>95</ele>
        <time>2015-02-02T19:18:28.596Z</time>
      </trkpt>
      <trkpt lat="48.85732" lon="2.34749">
        <ele>94.8</ele>
        <time>2015-02-02T19:18:29.597Z</time>
      </trkpt>
      <trkpt lat="48.85732" lon="2.3475">
        <ele>94.5</ele>
        <time>2015-02-02T19:18:30.608Z</time>
      </trkpt>
      <trkpt lat="48.85732" lon="2.3475">
        <ele>94.4</ele>
        <time>2015-02-02T19:18:31.617Z</time>
      </trkpt>
      <trkpt lat="48.85732" lon="2.3475">
        <ele>94.4</ele>
        <time>2015-02-02T19:18:35.657Z</time>
      </trkpt>
      <trkpt lat="48.85731" lon="2.34752">
        <ele>94.1</ele>
        <time>2015-02-02T19:18:36.565Z</time>
      </trkpt>
      <trkpt lat="48.8573" lon="2.34751">
        <ele>93.9</ele>
        <time>2015-02-02T19:18:40.632Z</time>
      </trkpt>
      <trkpt lat="48.8573" lon="2.34751">
        <ele>94.2</ele>
        <time>2015-02-02T19:18:41.652Z</time>
      </trkpt>
      <trkpt lat="48.85731" lon="2.3475">
        <ele>94.3</ele>
        <time>2015-02-02T19:19:04.651Z</time>
      </trkpt>
      <trkpt lat="48.85732" lon="2.34748">
        <ele>93.3</ele>
        <time>2015-02-02T19:19:05.670Z</time>
      </trkpt>
      <trkpt lat="48.85731" lon="2.34752">
        <ele>94.7</ele>
        <time>2015-02-02T19:19:46.619Z</time>
      </trkpt>
      <trkpt lat="48.85732" lon="2.34752">
        <ele>94.8</ele>
        <time>2015-02-02T19:19:47.718Z</time>
      </trkpt>
      <trkpt lat="48.85731" lon="2.34752">
        <ele>94.8</ele>
        <time>2015-02-02T19:20:10.623Z</time>
      </trkpt>
      <trkpt lat="48.85731" lon="2.34752">
        <ele>94.8</ele>
        <time>2015-02-02T19:20:11.579Z</time>
      </trkpt>
      <trkpt lat="48.85731" lon="2.34753">
        <ele>94.6</ele>
        <time>2015-02-02T19:20:14.576Z</time>
      </trkpt>
      <trkpt lat="48.8573" lon="2.34753">
        <ele>94.6</ele>
        <time>2015-02-02T19:20:15.585Z</time>
      </trkpt>
      <trkpt lat="48.85731" lon="2.34753">
        <ele>94.6</ele>
        <time>2015-02-02T19:20:25.610Z</time>
      </trkpt>
      <trkpt lat="48.85731" lon="2.34752">
        <ele>94</ele>
        <time>2015-02-02T19:20:26.632Z</time>
      </trkpt>
      <trkpt lat="48.85732" lon="2.34752">
        <ele>94.2</ele>
        <time>2015-02-02T19:20:28.660Z</time>
      </trkpt>
      <trkpt lat="48.85732" lon="2.34752">
        <ele>94.3</ele>
        <time>2015-02-02T19:20:29.603Z</time>
      </trkpt>
      <trkpt lat="48.85732" lon="2.34752">
        <ele>94.4</ele>
        <time>2015-02-02T19:20:59.636Z</time>
      </trkpt>
      <trkpt lat="48.85734" lon="2.3475">
        <ele>92.9</ele>
        <time>2015-02-02T19:21:00.652Z</time>
      </trkpt>
      <trkpt lat="48.85732" lon="2.34752">
        <ele>92.5</ele>
        <time>2015-02-02T19:21:22.632Z</time>
      </trkpt>
      <trkpt lat="48.85734" lon="2.34751">
        <ele>92.7</ele>
        <time>2015-02-02T19:21:23.664Z</time>
      </trkpt>
      <trkpt lat="48.85735" lon="2.34751">
        <ele>92.6</ele>
        <time>2015-02-02T19:21:24.565Z</time>
      </trkpt>
      <trkpt lat="48.85736" lon="2.3475">
        <ele>92.7</ele>
        <time>2015-02-02T19:21:25.565Z</time>
      </trkpt>
      <trkpt lat="48.85737" lon="2.34737">
        <ele>91.3</ele>
        <time>2015-02-02T19:21:29.639Z</time>
      </trkpt>
      <trkpt lat="48.85737" lon="2.34733">
        <ele>91.1</ele>
        <time>2015-02-02T19:21:30.641Z</time>
      </trkpt>
      <trkpt lat="48.85738" lon="2.34723">
        <ele>89.5</ele>
        <time>2015-02-02T19:21:34.634Z</time>
      </trkpt>
      <trkpt lat="48.85736" lon="2.34717">
        <ele>89.5</ele>
        <time>2015-02-02T19:21:35.642Z</time>
      </trkpt>
      <trkpt lat="48.85736" lon="2.34706">
        <ele>88.3</ele>
        <time>2015-02-02T19:21:39.610Z</time>
      </trkpt>
      <trkpt lat="48.85736" lon="2.34703">
        <ele>88</ele>
        <time>2015-02-02T19:21:40.630Z</time>
      </trkpt>
      <trkpt lat="48.85738" lon="2.3469">
        <ele>87.2</ele>
        <time>2015-02-02T19:21:46.606Z</time>
      </trkpt>
      <trkpt lat="48.85738" lon="2.34689">
        <ele>87.1</ele>
        <time>2015-02-02T19:21:47.610Z</time>
      </trkpt>
      <trkpt lat="48.85731" lon="2.34686">
        <ele>86.1</ele>
        <time>2015-02-02T19:21:52.619Z</time>
      </trkpt>
      <trkpt lat="48.85729" lon="2.34687">
        <ele>85.9</ele>
        <time>2015-02-02T19:21:53.623Z</time>
      </trkpt>
      <trkpt lat="48.85722" lon="2.34688">
        <ele>85.2</ele>
        <time>2015-02-02T19:21:56.539Z</time>
      </trkpt>
      <trkpt lat="48.85718" lon="2.34687">
        <ele>85.2</ele>
        <time>2015-02-02T19:21:57.574Z</time>
      </trkpt>
      <trkpt lat="48.85711" lon="2.34686">
        <ele>85.3</ele>
        <time>2015-02-02T19:21:59.567Z</time>
      </trkpt>
      <trkpt lat="48.85708" lon="2.34685">
        <ele>85.4</ele>
        <time>2015-02-02T19:22:00.572Z</time>
      </trkpt>
      <trkpt lat="48.85702" lon="2.34681">
        <ele>85.2</ele>
        <time>2015-02-02T19:22:02.597Z</time>
      </trkpt>
      <trkpt lat="48.857" lon="2.34679">
        <ele>84.9</ele>
        <time>2015-02-02T19:22:03.621Z</time>
      </trkpt>
      <trkpt lat="48.85693" lon="2.34674">
        <ele>84.5</ele>
        <time>2015-02-02T19:22:05.662Z</time>
      </trkpt>
      <trkpt lat="48.8569" lon="2.34672">
        <ele>84.3</ele>
        <time>2015-02-02T19:22:06.573Z</time>
      </trkpt>
      <trkpt lat="48.85683" lon="2.34669">
        <ele>84</ele>
        <time>2015-02-02T19:22:08.609Z</time>
      </trkpt>
      <trkpt lat="48.8568" lon="2.34667">
        <ele>83.9</ele>
        <time>2015-02-02T19:22:09.622Z</time>
      </trkpt>
      <trkpt lat="48.85673" lon="2.34663">
        <ele>83.5</ele>
        <time>2015-02-02T19:22:11.559Z</time>
      </trkpt>
      <trkpt lat="48.8567" lon="2.34661">
        <ele>83.4</ele>
        <time>2015-02-02T19:22:12.572Z</time>
      </trkpt>
      <trkpt lat="48.85664" lon="2.34658">
        <ele>83.4</ele>
        <time>2015-02-02T19:22:14.643Z</time>
      </trkpt>
      <trkpt lat="48.85661" lon="2.34656">
        <ele>83.3</ele>
        <time>2015-02-02T19:22:15.651Z</time>
      </trkpt>
      <trkpt lat="48.85653" lon="2.34652">
        <ele>83</ele>
        <time>2015-02-02T19:22:17.575Z</time>
      </trkpt>
      <trkpt lat="48.85649" lon="2.34651">
        <ele>83.1</ele>
        <time>2015-02-02T19:22:18.624Z</time>
      </trkpt>
      <trkpt lat="48.85642" lon="2.34647">
        <ele>83.1</ele>
        <time>2015-02-02T19:22:20.567Z</time>
      </trkpt>
      <trkpt lat="48.85638" lon="2.34645">
        <ele>83</ele>
        <time>2015-02-02T19:22:21.626Z</time>
      </trkpt>
      <trkpt lat="48.8563" lon="2.34641">
        <ele>83</ele>
        <time>2015-02-02T19:22:24.640Z</time>
      </trkpt>
      <trkpt lat="48.85629" lon="2.3464">
        <ele>82.9</ele>
        <time>2015-02-02T19:22:25.657Z</time>
      </trkpt>
      <trkpt lat="48.85632" lon="2.34628">
        <ele>82.5</ele>
        <time>2015-02-02T19:22:28.599Z</time>
      </trkpt>
      <trkpt lat="48.85635" lon="2.34623">
        <ele>82.4</ele>
        <time>2015-02-02T19:22:29.556Z</time>
      </trkpt>
      <trkpt lat="48.85638" lon="2.34617">
        <ele>82.4</ele>
        <time>2015-02-02T19:22:30.548Z</time>
      </trkpt>
      <trkpt lat="48.85651" lon="2.34588">
        <ele>82.5</ele>
        <time>2015-02-02T19:22:35.609Z</time>
      </trkpt>
      <trkpt lat="48.85653" lon="2.34581">
        <ele>82.4</ele>
        <time>2015-02-02T19:22:36.632Z</time>
      </trkpt>
      <trkpt lat="48.85655" lon="2.34574">
        <ele>82.4</ele>
        <time>2015-02-02T19:22:37.620Z</time>
      </trkpt>
      <trkpt lat="48.85657" lon="2.34567">
        <ele>82.4</ele>
        <time>2015-02-02T19:22:38.544Z</time>
      </trkpt>
      <trkpt lat="48.85657" lon="2.34559">
        <ele>82.3</ele>
        <time>2015-02-02T19:22:39.558Z</time>
      </trkpt>
      <trkpt lat="48.85658" lon="2.34551">
        <ele>82.2</ele>
        <time>2015-02-02T19:22:40.583Z</time>
      </trkpt>
      <trkpt lat="48.85659" lon="2.34543">
        <ele>82</ele>
        <time>2015-02-02T19:22:41.605Z</time>
      </trkpt>
      <trkpt lat="48.8566" lon="2.34535">
        <ele>81.9</ele>
        <time>2015-02-02T19:22:42.539Z</time>
      </trkpt>
      <trkpt lat="48.85662" lon="2.34527">
        <ele>81.6</ele>
        <time>2015-02-02T19:22:43.547Z</time>
      </trkpt>
      <trkpt lat="48.85664" lon="2.3452">
        <ele>81.4</ele>
        <time>2015-02-02T19:22:44.558Z</time>
      </trkpt>
      <trkpt lat="48.85665" lon="2.34512">
        <ele>81.5</ele>
        <time>2015-02-02T19:22:45.565Z</time>
      </trkpt>
      <trkpt lat="48.85667" lon="2.34505">
        <ele>81.5</ele>
        <time>2015-02-02T19:22:46.602Z</time>
      </trkpt>
      <trkpt lat="48.85668" lon="2.34498">
        <ele>81.6</ele>
        <time>2015-02-02T19:22:47.622Z</time>
      </trkpt>
      <trkpt lat="48.85669" lon="2.34491">
        <ele>81.8</ele>
        <time>2015-02-02T19:22:48.541Z</time>
      </trkpt>
      <trkpt lat="48.8567" lon="2.34484">
        <ele>81.8</ele>
        <time>2015-02-02T19:22:49.536Z</time>
      </trkpt>
      <trkpt lat="48.85671" lon="2.34477">
        <ele>81.7</ele>
        <time>2015-02-02T19:22:50.553Z</time>
      </trkpt>
      <trkpt lat="48.85672" lon="2.3447">
        <ele>81.8</ele>
        <time>2015-02-02T19:22:51.582Z</time>
      </trkpt>
      <trkpt lat="48.85675" lon="2.34458">
        <ele>81.8</ele>
        <time>2015-02-02T19:22:53.668Z</time>
      </trkpt>
      <trkpt lat="48.85676" lon="2.34452">
        <ele>81.7</ele>
        <time>2015-02-02T19:22:54.544Z</time>
      </trkpt>
      <trkpt lat="48.85679" lon="2.34441">
        <ele>81.6</ele>
        <time>2015-02-02T19:22:56.552Z</time>
      </trkpt>
      <trkpt lat="48.8568" lon="2.34435">
        <ele>81.6</ele>
        <time>2015-02-02T19:22:57.572Z</time>
      </trkpt>
      <trkpt lat="48.85682" lon="2.34422">
        <ele>81.4</ele>
        <time>2015-02-02T19:22:59.505Z</time>
      </trkpt>
      <trkpt lat="48.85683" lon="2.34416">
        <ele>81.4</ele>
        <time>2015-02-02T19:23:00.587Z</time>
      </trkpt>
      <trkpt lat="48.85686" lon="2.34405">
        <ele>81.3</ele>
        <time>2015-02-02T19:23:02.613Z</time>
      </trkpt>
      <trkpt lat="48.85687" lon="2.34398">
        <ele>81.2</ele>
        <time>2015-02-02T19:23:03.658Z</time>
      </trkpt>
      <trkpt lat="48.8569" lon="2.34386">
        <ele>81.2</ele>
        <time>2015-02-02T19:23:05.546Z</time>
      </trkpt>
      <trkpt lat="48.85691" lon="2.3438">
        <ele>81.1</ele>
        <time>2015-02-02T19:23:06.564Z</time>
      </trkpt>
      <trkpt lat="48.85693" lon="2.34368">
        <ele>80.8</ele>
        <time>2015-02-02T19:23:08.614Z</time>
      </trkpt>
      <trkpt lat="48.85694" lon="2.34363">
        <ele>80.7</ele>
        <time>2015-02-02T19:23:09.632Z</time>
      </trkpt>
      <trkpt lat="48.85694" lon="2.34352">
        <ele>80.2</ele>
        <time>2015-02-02T19:23:11.522Z</time>
      </trkpt>
      <trkpt lat="48.85694" lon="2.34348">
        <ele>80</ele>
        <time>2015-02-02T19:23:12.586Z</time>
      </trkpt>
      <trkpt lat="48.85687" lon="2.34339">
        <ele>79</ele>
        <time>2015-02-02T19:23:15.652Z</time>
      </trkpt>
      <trkpt lat="48.85684" lon="2.34337">
        <ele>78.8</ele>
        <time>2015-02-02T19:23:16.656Z</time>
      </trkpt>
      <trkpt lat="48.85678" lon="2.34332">
        <ele>78.6</ele>
        <time>2015-02-02T19:23:18.668Z</time>
      </trkpt>
      <trkpt lat="48.85675" lon="2.3433">
        <ele>78.4</ele>
        <time>2015-02-02T19:23:19.597Z</time>
      </trkpt>
      <trkpt lat="48.85668" lon="2.34325">
        <ele>77.7</ele>
        <time>2015-02-02T19:23:21.525Z</time>
      </trkpt>
      <trkpt lat="48.85664" lon="2.34323">
        <ele>77.5</ele>
        <time>2015-02-02T19:23:22.603Z</time>
      </trkpt>
      <trkpt lat="48.85657" lon="2.34318">
        <ele>77.5</ele>
        <time>2015-02-02T19:23:25.097Z</time>
      </trkpt>
      <trkpt lat="48.85654" lon="2.34316">
        <ele>77.6</ele>
        <time>2015-02-02T19:23:25.674Z</time>
      </trkpt>
      <trkpt lat="48.85647" lon="2.34312">
        <ele>77.3</ele>
        <time>2015-02-02T19:23:27.546Z</time>
      </trkpt>
      <trkpt lat="48.85643" lon="2.3431">
        <ele>77.3</ele>
        <time>2015-02-02T19:23:28.635Z</time>
      </trkpt>
      <trkpt lat="48.85635" lon="2.34306">
        <ele>77.3</ele>
        <time>2015-02-02T19:23:31.285Z</time>
      </trkpt>
      <trkpt lat="48.85632" lon="2.34304">
        <ele>77.2</ele>
        <time>2015-02-02T19:23:31.584Z</time>
      </trkpt>
      <trkpt lat="48.85624" lon="2.343">
        <ele>77.1</ele>
        <time>2015-02-02T19:23:33.607Z</time>
      </trkpt>
      <trkpt lat="48.8562" lon="2.34299">
        <ele>77.1</ele>
        <time>2015-02-02T19:23:34.625Z</time>
      </trkpt>
      <trkpt lat="48.85613" lon="2.34295">
        <ele>77.2</ele>
        <time>2015-02-02T19:23:36.525Z</time>
      </trkpt>
      <trkpt lat="48.8561" lon="2.34293">
        <ele>77.3</ele>
        <time>2015-02-02T19:23:37.552Z</time>
      </trkpt>
      <trkpt lat="48.85603" lon="2.34291">
        <ele>77.3</ele>
        <time>2015-02-02T19:23:40.248Z</time>
      </trkpt>
      <trkpt lat="48.856" lon="2.3429">
        <ele>77.3</ele>
        <time>2015-02-02T19:23:40.665Z</time>
      </trkpt>
      <trkpt lat="48.85591" lon="2.34286">
        <ele>77.4</ele>
        <time>2015-02-02T19:23:43.583Z</time>
      </trkpt>
      <trkpt lat="48.85589" lon="2.34284">
        <ele>77.4</ele>
        <time>2015-02-02T19:23:44.696Z</time>
      </trkpt>
      <trkpt lat="48.85584" lon="2.34274">
        <ele>77.5</ele>
        <time>2015-02-02T19:23:46.590Z</time>
      </trkpt>
      <trkpt lat="48.85582" lon="2.34268">
        <ele>77.3</ele>
        <time>2015-02-02T19:23:47.599Z</time>
      </trkpt>
      <trkpt lat="48.85584" lon="2.34257">
        <ele>76.8</ele>
        <time>2015-02-02T19:23:49.558Z</time>
      </trkpt>
      <trkpt lat="48.85586" lon="2.34252">
        <ele>76.5</ele>
        <time>2015-02-02T19:23:50.602Z</time>
      </trkpt>
      <trkpt lat="48.85591" lon="2.34244">
        <ele>75.8</ele>
        <time>2015-02-02T19:23:52.979Z</time>
      </trkpt>
      <trkpt lat="48.85594" lon="2.34241">
        <ele>75.9</ele>
        <time>2015-02-02T19:23:53.543Z</time>
      </trkpt>
      <trkpt lat="48.856" lon="2.34233">
        <ele>75.7</ele>
        <time>2015-02-02T19:23:55.563Z</time>
      </trkpt>
      <trkpt lat="48.85603" lon="2.3423">
        <ele>75.7</ele>
        <time>2015-02-02T19:23:56.576Z</time>
      </trkpt>
      <trkpt lat="48.85609" lon="2.34223">
        <ele>75.6</ele>
        <time>2015-02-02T19:23:58.594Z</time>
      </trkpt>
      <trkpt lat="48.85613" lon="2.34219">
        <ele>75.6</ele>
        <time>2015-02-02T19:23:59.609Z</time>
      </trkpt>
      <trkpt lat="48.85619" lon="2.34211">
        <ele>75.4</ele>
        <time>2015-02-02T19:24:01.634Z</time>
      </trkpt>
      <trkpt lat="48.85622" lon="2.34207">
        <ele>75.4</ele>
        <time>2015-02-02T19:24:02.634Z</time>
      </trkpt>
      <trkpt lat="48.85629" lon="2.34198">
        <ele>75</ele>
        <time>2015-02-02T19:24:04.648Z</time>
      </trkpt>
      <trkpt lat="48.85632" lon="2.34195">
        <ele>75</ele>
        <time>2015-02-02T19:24:05.703Z</time>
      </trkpt>
      <trkpt lat="48.85637" lon="2.34188">
        <ele>75.1</ele>
        <time>2015-02-02T19:24:08.085Z</time>
      </trkpt>
      <trkpt lat="48.8564" lon="2.34184">
        <ele>75</ele>
        <time>2015-02-02T19:24:08.551Z</time>
      </trkpt>
      <trkpt lat="48.85646" lon="2.34177">
        <ele>75.1</ele>
        <time>2015-02-02T19:24:10.572Z</time>
      </trkpt>
      <trkpt lat="48.85648" lon="2.34173">
        <ele>75.4</ele>
        <time>2015-02-02T19:24:11.638Z</time>
      </trkpt>
      <trkpt lat="48.85656" lon="2.34166">
        <ele>75.9</ele>
        <time>2015-02-02T19:24:14.594Z</time>
      </trkpt>
      <trkpt lat="48.85659" lon="2.34164">
        <ele>76.1</ele>
        <time>2015-02-02T19:24:15.672Z</time>
      </trkpt>
      <trkpt lat="48.85665" lon="2.34158">
        <ele>75.9</ele>
        <time>2015-02-02T19:24:18.579Z</time>
      </trkpt>
      <trkpt lat="48.85667" lon="2.34157">
        <ele>75.6</ele>
        <time>2015-02-02T19:24:19.547Z</time>
      </trkpt>
      <trkpt lat="48.85672" lon="2.34147">
        <ele>75.9</ele>
        <time>2015-02-02T19:24:23.322Z</time>
      </trkpt>
      <trkpt lat="48.85673" lon="2.34145">
        <ele>75.8</ele>
        <time>2015-02-02T19:24:23.554Z</time>
      </trkpt>
      <trkpt lat="48.85678" lon="2.34133">
        <ele>75.7</ele>
        <time>2015-02-02T19:24:27.594Z</time>
      </trkpt>
      <trkpt lat="48.85679" lon="2.3413">
        <ele>75.8</ele>
        <time>2015-02-02T19:24:28.598Z</time>
      </trkpt>
      <trkpt lat="48.85676" lon="2.3412">
        <ele>75.8</ele>
        <time>2015-02-02T19:24:33.520Z</time>
      </trkpt>
      <trkpt lat="48.85674" lon="2.34118">
        <ele>75.9</ele>
        <time>2015-02-02T19:24:33.580Z</time>
      </trkpt>
      <trkpt lat="48.85668" lon="2.34112">
        <ele>75.9</ele>
        <time>2015-02-02T19:24:36.592Z</time>
      </trkpt>
      <trkpt lat="48.85666" lon="2.3411">
        <ele>76.1</ele>
        <time>2015-02-02T19:24:37.615Z</time>
      </trkpt>
      <trkpt lat="48.85659" lon="2.34105">
        <ele>76.8</ele>
        <time>2015-02-02T19:24:40.649Z</time>
      </trkpt>
      <trkpt lat="48.85656" lon="2.34103">
        <ele>77</ele>
        <time>2015-02-02T19:24:41.661Z</time>
      </trkpt>
      <trkpt lat="48.85649" lon="2.34096">
        <ele>77.3</ele>
        <time>2015-02-02T19:24:44.602Z</time>
      </trkpt>
      <trkpt lat="48.85646" lon="2.34094">
        <ele>77.2</ele>
        <time>2015-02-02T19:24:45.616Z</time>
      </trkpt>
      <trkpt lat="48.85641" lon="2.34089">
        <ele>77.2</ele>
        <time>2015-02-02T19:24:47.564Z</time>
      </trkpt>
      <trkpt lat="48.85638" lon="2.34087">
        <ele>77.3</ele>
        <time>2015-02-02T19:24:48.594Z</time>
      </trkpt>
      <trkpt lat="48.85632" lon="2.34081">
        <ele>77.6</ele>
        <time>2015-02-02T19:24:50.567Z</time>
      </trkpt>
      <trkpt lat="48.85629" lon="2.34079">
        <ele>78</ele>
        <time>2015-02-02T19:24:51.564Z</time>
      </trkpt>
      <trkpt lat="48.85622" lon="2.34073">
        <ele>78.6</ele>
        <time>2015-02-02T19:24:54.530Z</time>
      </trkpt>
      <trkpt lat="48.8562" lon="2.34072">
        <ele>78.8</ele>
        <time>2015-02-02T19:24:55.556Z</time>
      </trkpt>
      <trkpt lat="48.85613" lon="2.34066">
        <ele>79.4</ele>
        <time>2015-02-02T19:24:59.664Z</time>
      </trkpt>
      <trkpt lat="48.85611" lon="2.34063">
        <ele>79.6</ele>
        <time>2015-02-02T19:25:00.566Z</time>
      </trkpt>
      <trkpt lat="48.85607" lon="2.34056">
        <ele>80.3</ele>
        <time>2015-02-02T19:25:06.571Z</time>
      </trkpt>
      <trkpt lat="48.85607" lon="2.34055">
        <ele>80.4</ele>
        <time>2015-02-02T19:25:07.565Z</time>
      </trkpt>
      <trkpt lat="48.85607" lon="2.34055">
        <ele>80.4</ele>
        <time>2015-02-02T19:25:08.538Z</time>
      </trkpt>
      <trkpt lat="48.85607" lon="2.34053">
        <ele>80.3</ele>
        <time>2015-02-02T19:25:08.587Z</time>
      </trkpt>
      <trkpt lat="48.85607" lon="2.34051">
        <ele>80.6</ele>
        <time>2015-02-02T19:25:10.778Z</time>
      </trkpt>
      <trkpt lat="48.85607" lon="2.3405">
        <ele>80.7</ele>
        <time>2015-02-02T19:25:11.516Z</time>
      </trkpt>
      <trkpt lat="48.85607" lon="2.34049">
        <ele>81</ele>
        <time>2015-02-02T19:25:13.645Z</time>
      </trkpt>
      <trkpt lat="48.85606" lon="2.34046">
        <ele>81.8</ele>
        <time>2015-02-02T19:25:14.543Z</time>
      </trkpt>
      <trkpt lat="48.8561" lon="2.34036">
        <ele>82.3</ele>
        <time>2015-02-02T19:25:18.498Z</time>
      </trkpt>
      <trkpt lat="48.85612" lon="2.34033">
        <ele>82.3</ele>
        <time>2015-02-02T19:25:19.560Z</time>
      </trkpt>
      <trkpt lat="48.85615" lon="2.34022">
        <ele>82.2</ele>
        <time>2015-02-02T19:25:21.581Z</time>
      </trkpt>
      <trkpt lat="48.85617" lon="2.34017">
        <ele>82.4</ele>
        <time>2015-02-02T19:25:22.597Z</time>
      </trkpt>
      <trkpt lat="48.85528" lon="2.33877">
        <ele>74.8</ele>
        <time>2015-02-02T19:26:22.691Z</time>
      </trkpt>
      <trkpt lat="48.85528" lon="2.33877">
        <ele>74.8</ele>
        <time>2015-02-02T19:26:25.571Z</time>
      </trkpt>
      <trkpt lat="48.85521" lon="2.33897">
        <ele>71.7</ele>
        <time>2015-02-02T19:26:26.565Z</time>
      </trkpt>
      <trkpt lat="48.85518" lon="2.33902">
        <ele>71.9</ele>
        <time>2015-02-02T19:26:27.575Z</time>
      </trkpt>
      <trkpt lat="48.85299" lon="2.34082">
        <ele>81.2</ele>
        <time>2015-02-02T19:27:53.571Z</time>
      </trkpt>
      <trkpt lat="48.85293" lon="2.34083">
        <ele>80.8</ele>
        <time>2015-02-02T19:27:55.629Z</time>
      </trkpt>
      <trkpt lat="48.85289" lon="2.34083">
        <ele>80.6</ele>
        <time>2015-02-02T19:27:56.538Z</time>
      </trkpt>
      <trkpt lat="48.85282" lon="2.34082">
        <ele>80.5</ele>
        <time>2015-02-02T19:27:58.591Z</time>
      </trkpt>
      <trkpt lat="48.85279" lon="2.34082">
        <ele>80.4</ele>
        <time>2015-02-02T19:27:59.621Z</time>
      </trkpt>
      <trkpt lat="48.85272" lon="2.34076">
        <ele>79.3</ele>
        <time>2015-02-02T19:28:03.221Z</time>
      </trkpt>
      <trkpt lat="48.85268" lon="2.34074">
        <ele>79.1</ele>
        <time>2015-02-02T19:28:03.562Z</time>
      </trkpt>
      <trkpt lat="48.85265" lon="2.34073">
        <ele>78.9</ele>
        <time>2015-02-02T19:28:04.592Z</time>
      </trkpt>
      <trkpt lat="48.85221" lon="2.34056">
        <ele>81</ele>
        <time>2015-02-02T19:28:17.562Z</time>
      </trkpt>
      <trkpt lat="48.85216" lon="2.3405">
        <ele>81.4</ele>
        <time>2015-02-02T19:28:19.627Z</time>
      </trkpt>
      <trkpt lat="48.85212" lon="2.34036">
        <ele>83.3</ele>
        <time>2015-02-02T19:28:20.534Z</time>
      </trkpt>
      <trkpt lat="48.85207" lon="2.34025">
        <ele>86.8</ele>
        <time>2015-02-02T19:28:23.562Z</time>
      </trkpt>
      <trkpt lat="48.85207" lon="2.34023">
        <ele>87</ele>
        <time>2015-02-02T19:28:24.512Z</time>
      </trkpt>
      <trkpt lat="48.85207" lon="2.3401">
        <ele>85.3</ele>
        <time>2015-02-02T19:28:27.547Z</time>
      </trkpt>
      <trkpt lat="48.85206" lon="2.34006">
        <ele>85.1</ele>
        <time>2015-02-02T19:28:28.587Z</time>
      </trkpt>
      <trkpt lat="48.85205" lon="2.33993">
        <ele>85.2</ele>
        <time>2015-02-02T19:28:31.624Z</time>
      </trkpt>
      <trkpt lat="48.85205" lon="2.33989">
        <ele>85.9</ele>
        <time>2015-02-02T19:28:32.540Z</time>
      </trkpt>
      <trkpt lat="48.85201" lon="2.33978">
        <ele>88.7</ele>
        <time>2015-02-02T19:28:34.573Z</time>
      </trkpt>
      <trkpt lat="48.85195" lon="2.33976">
        <ele>87.8</ele>
        <time>2015-02-02T19:28:35.614Z</time>
      </trkpt>
      <trkpt lat="48.85188" lon="2.33972">
        <ele>87.5</ele>
        <time>2015-02-02T19:28:37.542Z</time>
      </trkpt>
      <trkpt lat="48.85185" lon="2.3397">
        <ele>87.5</ele>
        <time>2015-02-02T19:28:38.547Z</time>
      </trkpt>
      <trkpt lat="48.85179" lon="2.33963">
        <ele>87.3</ele>
        <time>2015-02-02T19:28:41.609Z</time>
      </trkpt>
      <trkpt lat="48.85178" lon="2.33962">
        <ele>87.2</ele>
        <time>2015-02-02T19:28:42.622Z</time>
      </trkpt>
      <trkpt lat="48.8517" lon="2.33961">
        <ele>87.4</ele>
        <time>2015-02-02T19:28:48.008Z</time>
      </trkpt>
      <trkpt lat="48.85167" lon="2.33961">
        <ele>87.1</ele>
        <time>2015-02-02T19:28:48.559Z</time>
      </trkpt>
      <trkpt lat="48.85159" lon="2.33962">
        <ele>87.4</ele>
        <time>2015-02-02T19:28:53.127Z</time>
      </trkpt>
      <trkpt lat="48.85157" lon="2.33964">
        <ele>87.6</ele>
        <time>2015-02-02T19:28:53.590Z</time>
      </trkpt>
      <trkpt lat="48.85149" lon="2.33972">
        <ele>88.1</ele>
        <time>2015-02-02T19:28:58.146Z</time>
      </trkpt>
      <trkpt lat="48.85146" lon="2.3398">
        <ele>88.6</ele>
        <time>2015-02-02T19:29:00.533Z</time>
      </trkpt>
      <trkpt lat="48.85141" lon="2.3399">
        <ele>88.7</ele>
        <time>2015-02-02T19:29:03.550Z</time>
      </trkpt>
      <trkpt lat="48.85139" lon="2.33993">
        <ele>88.5</ele>
        <time>2015-02-02T19:29:04.576Z</time>
      </trkpt>
      <trkpt lat="48.85133" lon="2.34">
        <ele>88.4</ele>
        <time>2015-02-02T19:29:08.238Z</time>
      </trkpt>
      <trkpt lat="48.85132" lon="2.34003">
        <ele>88.4</ele>
        <time>2015-02-02T19:29:08.608Z</time>
      </trkpt>
      <trkpt lat="48.85131" lon="2.34006">
        <ele>88.5</ele>
        <time>2015-02-02T19:29:09.543Z</time>
      </trkpt>
      <trkpt lat="48.85127" lon="2.34017">
        <ele>89.2</ele>
        <time>2015-02-02T19:29:10.629Z</time>
      </trkpt>
      <trkpt lat="48.85124" lon="2.34029">
        <ele>89.4</ele>
        <time>2015-02-02T19:29:13.314Z</time>
      </trkpt>
      <trkpt lat="48.85122" lon="2.34035">
        <ele>89.6</ele>
        <time>2015-02-02T19:29:13.499Z</time>
      </trkpt>
      <trkpt lat="48.8512" lon="2.34042">
        <ele>89.8</ele>
        <time>2015-02-02T19:29:14.520Z</time>
      </trkpt>
      <trkpt lat="48.85116" lon="2.34052">
        <ele>90.4</ele>
        <time>2015-02-02T19:29:15.576Z</time>
      </trkpt>
      <trkpt lat="48.85112" lon="2.34062">
        <ele>90.9</ele>
        <time>2015-02-02T19:29:16.578Z</time>
      </trkpt>
      <trkpt lat="48.85109" lon="2.34076">
        <ele>90.4</ele>
        <time>2015-02-02T19:29:17.584Z</time>
      </trkpt>
      <trkpt lat="48.85107" lon="2.34087">
        <ele>90.1</ele>
        <time>2015-02-02T19:29:18.598Z</time>
      </trkpt>
      <trkpt lat="48.85106" lon="2.34094">
        <ele>89.9</ele>
        <time>2015-02-02T19:29:19.611Z</time>
      </trkpt>
      <trkpt lat="48.85104" lon="2.34107">
        <ele>89.9</ele>
        <time>2015-02-02T19:29:21.540Z</time>
      </trkpt>
      <trkpt lat="48.85102" lon="2.34116">
        <ele>90.1</ele>
        <time>2015-02-02T19:29:22.589Z</time>
      </trkpt>
      <trkpt lat="48.85096" lon="2.34122">
        <ele>90.8</ele>
        <time>2015-02-02T19:29:26.600Z</time>
      </trkpt>
      <trkpt lat="48.85093" lon="2.34127">
        <ele>91.8</ele>
        <time>2015-02-02T19:29:27.633Z</time>
      </trkpt>
      <trkpt lat="48.85085" lon="2.34129">
        <ele>92.7</ele>
        <time>2015-02-02T19:29:33.679Z</time>
      </trkpt>
      <trkpt lat="48.85083" lon="2.34131">
        <ele>92.8</ele>
        <time>2015-02-02T19:29:34.561Z</time>
      </trkpt>
      <trkpt lat="48.85076" lon="2.34138">
        <ele>91.9</ele>
        <time>2015-02-02T19:29:37.620Z</time>
      </trkpt>
      <trkpt lat="48.85075" lon="2.3414">
        <ele>92</ele>
        <time>2015-02-02T19:29:38.533Z</time>
      </trkpt>
      <trkpt lat="48.85074" lon="2.34152">
        <ele>92.3</ele>
        <time>2015-02-02T19:29:44.619Z</time>
      </trkpt>
      <trkpt lat="48.85074" lon="2.34155">
        <ele>92.4</ele>
        <time>2015-02-02T19:29:45.627Z</time>
      </trkpt>
      <trkpt lat="48.85071" lon="2.34167">
        <ele>92.8</ele>
        <time>2015-02-02T19:29:48.536Z</time>
      </trkpt>
      <trkpt lat="48.85068" lon="2.34171">
        <ele>92.5</ele>
        <time>2015-02-02T19:29:49.542Z</time>
      </trkpt>
      <trkpt lat="48.85069" lon="2.34185">
        <ele>92.8</ele>
        <time>2015-02-02T19:29:54.582Z</time>
      </trkpt>
      <trkpt lat="48.85069" lon="2.34187">
        <ele>92.9</ele>
        <time>2015-02-02T19:29:55.590Z</time>
      </trkpt>
      <trkpt lat="48.85066" lon="2.34195">
        <ele>92.9</ele>
        <time>2015-02-02T19:29:58.612Z</time>
      </trkpt>
      <trkpt lat="48.85063" lon="2.34199">
        <ele>92.8</ele>
        <time>2015-02-02T19:29:59.614Z</time>
      </trkpt>
      <trkpt lat="48.85061" lon="2.34207">
        <ele>92.5</ele>
        <time>2015-02-02T19:30:01.550Z</time>
      </trkpt>
      <trkpt lat="48.8506" lon="2.34213">
        <ele>91.5</ele>
        <time>2015-02-02T19:30:02.567Z</time>
      </trkpt>
      <trkpt lat="48.85052" lon="2.34216">
        <ele>90.9</ele>
        <time>2015-02-02T19:30:04.619Z</time>
      </trkpt>
      <trkpt lat="48.85049" lon="2.3422">
        <ele>90.3</ele>
        <time>2015-02-02T19:30:05.522Z</time>
      </trkpt>
      <trkpt lat="48.85043" lon="2.34227">
        <ele>88.9</ele>
        <time>2015-02-02T19:30:08.481Z</time>
      </trkpt>
      <trkpt lat="48.8504" lon="2.34232">
        <ele>87.7</ele>
        <time>2015-02-02T19:30:08.570Z</time>
      </trkpt>
      <trkpt lat="48.85034" lon="2.34239">
        <ele>86.8</ele>
        <time>2015-02-02T19:30:10.622Z</time>
      </trkpt>
      <trkpt lat="48.85032" lon="2.34242">
        <ele>86.5</ele>
        <time>2015-02-02T19:30:11.544Z</time>
      </trkpt>
      <trkpt lat="48.85029" lon="2.34252">
        <ele>86.5</ele>
        <time>2015-02-02T19:30:14.577Z</time>
      </trkpt>
      <trkpt lat="48.85028" lon="2.34255">
        <ele>86.9</ele>
        <time>2015-02-02T19:30:15.608Z</time>
      </trkpt>
      <trkpt lat="48.85022" lon="2.34264">
        <ele>88.6</ele>
        <time>2015-02-02T19:30:19.601Z</time>
      </trkpt>
      <trkpt lat="48.8502" lon="2.34267">
        <ele>88.9</ele>
        <time>2015-02-02T19:30:20.609Z</time>
      </trkpt>
      <trkpt lat="48.85017" lon="2.34275">
        <ele>89.6</ele>
        <time>2015-02-02T19:30:22.624Z</time>
      </trkpt>
      <trkpt lat="48.85016" lon="2.3428">
        <ele>90</ele>
        <time>2015-02-02T19:30:23.652Z</time>
      </trkpt>
      <trkpt lat="48.85011" lon="2.34289">
        <ele>91.6</ele>
        <time>2015-02-02T19:30:28.972Z</time>
      </trkpt>
      <trkpt lat="48.84884" lon="2.34251">
        <ele>89.8</ele>
        <time>2015-02-02T19:31:06.526Z</time>
      </trkpt>
      <trkpt lat="48.84878" lon="2.34241">
        <ele>91.2</ele>
        <time>2015-02-02T19:31:08.402Z</time>
      </trkpt>
      <trkpt lat="48.84871" lon="2.34224">
        <ele>95.8</ele>
        <time>2015-02-02T19:31:08.540Z</time>
      </trkpt>
      <trkpt lat="48.84865" lon="2.34219">
        <ele>100</ele>
        <time>2015-02-02T19:31:09.550Z</time>
      </trkpt>
      <trkpt lat="48.84862" lon="2.34216">
        <ele>102.9</ele>
        <time>2015-02-02T19:31:10.564Z</time>
      </trkpt>
      <trkpt lat="48.84856" lon="2.34224">
        <ele>108.5</ele>
        <time>2015-02-02T19:31:14.582Z</time>
      </trkpt>
      <trkpt lat="48.84855" lon="2.34225">
        <ele>110.2</ele>
        <time>2015-02-02T19:31:15.593Z</time>
      </trkpt>
      <trkpt lat="48.84853" lon="2.34236">
        <ele>117.8</ele>
        <time>2015-02-02T19:31:19.562Z</time>
      </trkpt>
      <trkpt lat="48.84852" lon="2.34239">
        <ele>119.4</ele>
        <time>2015-02-02T19:31:20.559Z</time>
      </trkpt>
      <trkpt lat="48.84849" lon="2.34251">
        <ele>123.9</ele>
        <time>2015-02-02T19:31:31.617Z</time>
      </trkpt>
      <trkpt lat="48.84849" lon="2.34252">
        <ele>123.8</ele>
        <time>2015-02-02T19:31:32.541Z</time>
      </trkpt>
      <trkpt lat="48.84841" lon="2.34254">
        <ele>120.1</ele>
        <time>2015-02-02T19:31:46.589Z</time>
      </trkpt>
      <trkpt lat="48.84838" lon="2.34253">
        <ele>119.5</ele>
        <time>2015-02-02T19:31:47.598Z</time>
      </trkpt>
      <trkpt lat="48.84831" lon="2.34248">
        <ele>118.5</ele>
        <time>2015-02-02T19:31:50.536Z</time>
      </trkpt>
      <trkpt lat="48.84829" lon="2.34246">
        <ele>118.4</ele>
        <time>2015-02-02T19:31:51.539Z</time>
      </trkpt>
      <trkpt lat="48.84822" lon="2.34244">
        <ele>118</ele>
        <time>2015-02-02T19:31:54.595Z</time>
      </trkpt>
      <trkpt lat="48.84819" lon="2.34244">
        <ele>118</ele>
        <time>2015-02-02T19:31:55.567Z</time>
      </trkpt>
      <trkpt lat="48.84812" lon="2.34241">
        <ele>118.1</ele>
        <time>2015-02-02T19:31:58.658Z</time>
      </trkpt>
      <trkpt lat="48.8481" lon="2.34241">
        <ele>117.7</ele>
        <time>2015-02-02T19:31:59.507Z</time>
      </trkpt>
      <trkpt lat="48.84803" lon="2.34232">
        <ele>118.6</ele>
        <time>2015-02-02T19:32:06.517Z</time>
      </trkpt>
      <trkpt lat="48.84803" lon="2.34231">
        <ele>118.8</ele>
        <time>2015-02-02T19:32:07.525Z</time>
      </trkpt>
      <trkpt lat="48.84796" lon="2.34225">
        <ele>119</ele>
        <time>2015-02-02T19:32:13.482Z</time>
      </trkpt>
      <trkpt lat="48.84794" lon="2.34224">
        <ele>118.8</ele>
        <time>2015-02-02T19:32:13.544Z</time>
      </trkpt>
      <trkpt lat="48.84787" lon="2.34216">
        <ele>118.7</ele>
        <time>2015-02-02T19:32:18.598Z</time>
      </trkpt>
      <trkpt lat="48.84785" lon="2.34212">
        <ele>119</ele>
        <time>2015-02-02T19:32:18.647Z</time>
      </trkpt>
      <trkpt lat="48.84777" lon="2.34206">
        <ele>119</ele>
        <time>2015-02-02T19:32:22.574Z</time>
      </trkpt>
      <trkpt lat="48.84775" lon="2.34205">
        <ele>118.8</ele>
        <time>2015-02-02T19:32:23.575Z</time>
      </trkpt>
      <trkpt lat="48.84768" lon="2.34203">
        <ele>117.6</ele>
        <time>2015-02-02T19:32:25.886Z</time>
      </trkpt>
      <trkpt lat="48.84761" lon="2.34205">
        <ele>115.8</ele>
        <time>2015-02-02T19:32:26.600Z</time>
      </trkpt>
      <trkpt lat="48.84756" lon="2.34206">
        <ele>115.1</ele>
        <time>2015-02-02T19:32:27.508Z</time>
      </trkpt>
      <trkpt lat="48.84749" lon="2.34209">
        <ele>113.6</ele>
        <time>2015-02-02T19:32:28.623Z</time>
      </trkpt>
      <trkpt lat="48.84741" lon="2.34209">
        <ele>113.5</ele>
        <time>2015-02-02T19:32:29.523Z</time>
      </trkpt>
      <trkpt lat="48.84736" lon="2.34205">
        <ele>114.6</ele>
        <time>2015-02-02T19:32:30.524Z</time>
      </trkpt>
      <trkpt lat="48.84732" lon="2.34199">
        <ele>116.3</ele>
        <time>2015-02-02T19:32:31.547Z</time>
      </trkpt>
      <trkpt lat="48.84728" lon="2.34193">
        <ele>118.5</ele>
        <time>2015-02-02T19:32:32.563Z</time>
      </trkpt>
      <trkpt lat="48.84726" lon="2.34187">
        <ele>120.8</ele>
        <time>2015-02-02T19:32:37.634Z</time>
      </trkpt>
      <trkpt lat="48.84726" lon="2.34187">
        <ele>121.2</ele>
        <time>2015-02-02T19:32:38.659Z</time>
      </trkpt>
      <trkpt lat="48.84726" lon="2.34187">
        <ele>121.2</ele>
        <time>2015-02-02T19:32:39.115Z</time>
      </trkpt>
      <trkpt lat="48.84725" lon="2.34187">
        <ele>121.9</ele>
        <time>2015-02-02T19:32:39.575Z</time>
      </trkpt>
      <trkpt lat="48.84724" lon="2.34186">
        <ele>126.5</ele>
        <time>2015-02-02T19:32:48.012Z</time>
      </trkpt>
      <trkpt lat="48.84713" lon="2.34174">
        <ele>125.4</ele>
        <time>2015-02-02T19:32:52.621Z</time>
      </trkpt>
      <trkpt lat="48.84707" lon="2.34172">
        <ele>125</ele>
        <time>2015-02-02T19:32:54.571Z</time>
      </trkpt>
      <trkpt lat="48.84704" lon="2.34171">
        <ele>125</ele>
        <time>2015-02-02T19:32:55.580Z</time>
      </trkpt>
      <trkpt lat="48.84698" lon="2.34162">
        <ele>124.6</ele>
        <time>2015-02-02T19:32:58.639Z</time>
      </trkpt>
      <trkpt lat="48.84697" lon="2.3416">
        <ele>124.5</ele>
        <time>2015-02-02T19:32:59.541Z</time>
      </trkpt>
      <trkpt lat="48.84692" lon="2.34169">
        <ele>124.5</ele>
        <time>2015-02-02T19:33:08.209Z</time>
      </trkpt>
      <trkpt lat="48.8469" lon="2.34174">
        <ele>124.7</ele>
        <time>2015-02-02T19:33:08.629Z</time>
      </trkpt>
      <trkpt lat="48.84684" lon="2.34183">
        <ele>124.6</ele>
        <time>2015-02-02T19:33:13.569Z</time>
      </trkpt>
      <trkpt lat="48.84683" lon="2.34184">
        <ele>124.5</ele>
        <time>2015-02-02T19:33:14.613Z</time>
      </trkpt>
      <trkpt lat="48.84677" lon="2.34191">
        <ele>124.7</ele>
        <time>2015-02-02T19:33:20.554Z</time>
      </trkpt>
      <trkpt lat="48.84676" lon="2.34193">
        <ele>124.7</ele>
        <time>2015-02-02T19:33:21.565Z</time>
      </trkpt>
      <trkpt lat="48.84672" lon="2.34204">
        <ele>124.9</ele>
        <time>2015-02-02T19:33:28.592Z</time>
      </trkpt>
      <trkpt lat="48.84671" lon="2.34206">
        <ele>125</ele>
        <time>2015-02-02T19:33:29.612Z</time>
      </trkpt>
      <trkpt lat="48.84668" lon="2.34215">
        <ele>124</ele>
        <time>2015-02-02T19:33:33.542Z</time>
      </trkpt>
      <trkpt lat="48.84665" lon="2.34218">
        <ele>123.4</ele>
        <time>2015-02-02T19:33:33.584Z</time>
      </trkpt>
      <trkpt lat="48.8466" lon="2.34227">
        <ele>122.3</ele>
        <time>2015-02-02T19:33:35.608Z</time>
      </trkpt>
      <trkpt lat="48.84659" lon="2.34229">
        <ele>122.4</ele>
        <time>2015-02-02T19:33:36.640Z</time>
      </trkpt>
      <trkpt lat="48.84655" lon="2.3424">
        <ele>124.1</ele>
        <time>2015-02-02T19:33:44.617Z</time>
      </trkpt>
      <trkpt lat="48.84654" lon="2.34241">
        <ele>124.1</ele>
        <time>2015-02-02T19:33:45.636Z</time>
      </trkpt>
      <trkpt lat="48.84653" lon="2.34242">
        <ele>124.1</ele>
        <time>2015-02-02T19:33:46.646Z</time>
      </trkpt>
      <trkpt lat="48.84653" lon="2.34242">
        <ele>124.2</ele>
        <time>2015-02-02T19:33:47.534Z</time>
      </trkpt>
      <trkpt lat="48.84653" lon="2.34242">
        <ele>124.2</ele>
        <time>2015-02-02T19:33:48.164Z</time>
      </trkpt>
      <trkpt lat="48.84653" lon="2.34243">
        <ele>124.3</ele>
        <time>2015-02-02T19:33:48.546Z</time>
      </trkpt>
      <trkpt lat="48.84647" lon="2.34251">
        <ele>124.6</ele>
        <time>2015-02-02T19:33:53.202Z</time>
      </trkpt>
      <trkpt lat="48.84646" lon="2.34253">
        <ele>124.7</ele>
        <time>2015-02-02T19:33:53.630Z</time>
      </trkpt>
      <trkpt lat="48.8464" lon="2.34262">
        <ele>124.7</ele>
        <time>2015-02-02T19:33:58.289Z</time>
      </trkpt>
      <trkpt lat="48.84637" lon="2.34265">
        <ele>124.2</ele>
        <time>2015-02-02T19:33:58.580Z</time>
      </trkpt>
      <trkpt lat="48.84631" lon="2.3427">
        <ele>122.6</ele>
        <time>2015-02-02T19:33:59.585Z</time>
      </trkpt>
      <trkpt lat="48.84627" lon="2.34273">
        <ele>121.8</ele>
        <time>2015-02-02T19:34:00.512Z</time>
      </trkpt>
      <trkpt lat="48.84623" lon="2.34285">
        <ele>121.5</ele>
        <time>2015-02-02T19:34:06.529Z</time>
      </trkpt>
      <trkpt lat="48.84623" lon="2.34286">
        <ele>121.2</ele>
        <time>2015-02-02T19:34:07.541Z</time>
      </trkpt>
      <trkpt lat="48.84623" lon="2.34287">
        <ele>121</ele>
        <time>2015-02-02T19:34:08.553Z</time>
      </trkpt>
      <trkpt lat="48.84623" lon="2.34286">
        <ele>121</ele>
        <time>2015-02-02T19:34:09.577Z</time>
      </trkpt>
      <trkpt lat="48.84623" lon="2.34286">
        <ele>121</ele>
        <time>2015-02-02T19:34:10.580Z</time>
      </trkpt>
      <trkpt lat="48.84623" lon="2.34285">
        <ele>121</ele>
        <time>2015-02-02T19:34:11.592Z</time>
      </trkpt>
      <trkpt lat="48.84623" lon="2.34285">
        <ele>121.1</ele>
        <time>2015-02-02T19:34:12.606Z</time>
      </trkpt>
      <trkpt lat="48.84623" lon="2.34286">
        <ele>120.9</ele>
        <time>2015-02-02T19:34:13.503Z</time>
      </trkpt>
      <trkpt lat="48.84623" lon="2.34287">
        <ele>120.7</ele>
        <time>2015-02-02T19:34:14.569Z</time>
      </trkpt>
      <trkpt lat="48.84622" lon="2.34287">
        <ele>120.6</ele>
        <time>2015-02-02T19:34:15.625Z</time>
      </trkpt>
      <trkpt lat="48.84622" lon="2.34287">
        <ele>120.6</ele>
        <time>2015-02-02T19:34:16.605Z</time>
      </trkpt>
      <trkpt lat="48.84622" lon="2.34287">
        <ele>120.5</ele>
        <time>2015-02-02T19:34:17.531Z</time>
      </trkpt>
      <trkpt lat="48.84621" lon="2.34287">
        <ele>120.3</ele>
        <time>2015-02-02T19:34:18.560Z</time>
      </trkpt>
      <trkpt lat="48.84624" lon="2.343">
        <ele>121.5</ele>
        <time>2015-02-02T19:34:39.590Z</time>
      </trkpt>
      <trkpt lat="48.84624" lon="2.34301">
        <ele>121.4</ele>
        <time>2015-02-02T19:34:40.714Z</time>
      </trkpt>
      <trkpt lat="48.84622" lon="2.34312">
        <ele>121.9</ele>
        <time>2015-02-02T19:34:46.585Z</time>
      </trkpt>
      <trkpt lat="48.84621" lon="2.34315">
        <ele>121.9</ele>
        <time>2015-02-02T19:34:47.581Z</time>
      </trkpt>
      <trkpt lat="48.84619" lon="2.34322">
        <ele>121.9</ele>
        <time>2015-02-02T19:34:49.606Z</time>
      </trkpt>
      <trkpt lat="48.84558" lon="2.34443">
        <ele>121.2</ele>
        <time>2015-02-02T19:35:19.542Z</time>
      </trkpt>
      <trkpt lat="48.8455" lon="2.34444">
        <ele>122.5</ele>
        <time>2015-02-02T19:35:44.497Z</time>
      </trkpt>
      <trkpt lat="48.84548" lon="2.34447">
        <ele>122.6</ele>
        <time>2015-02-02T19:35:45.516Z</time>
      </trkpt>
      <trkpt lat="48.84544" lon="2.34454">
        <ele>123.1</ele>
        <time>2015-02-02T19:35:48.553Z</time>
      </trkpt>
      <trkpt lat="48.84542" lon="2.34457">
        <ele>123.3</ele>
        <time>2015-02-02T19:35:49.554Z</time>
      </trkpt>
      <trkpt lat="48.84539" lon="2.34467">
        <ele>123.1</ele>
        <time>2015-02-02T19:35:53.558Z</time>
      </trkpt>
      <trkpt lat="48.84536" lon="2.34472">
        <ele>122.9</ele>
        <time>2015-02-02T19:35:54.585Z</time>
      </trkpt>
      <trkpt lat="48.84534" lon="2.34477">
        <ele>122.9</ele>
        <time>2015-02-02T19:35:55.602Z</time>
      </trkpt>
      <trkpt lat="48.8453" lon="2.34486">
        <ele>122.4</ele>
        <time>2015-02-02T19:35:57.520Z</time>
      </trkpt>
      <trkpt lat="48.8453" lon="2.34486">
        <ele>122.4</ele>
        <time>2015-02-02T19:35:58.177Z</time>
      </trkpt>
      <trkpt lat="48.84508" lon="2.3452">
        <ele>117.3</ele>
        <time>2015-02-02T19:36:02.592Z</time>
      </trkpt>
      <trkpt lat="48.84502" lon="2.34528">
        <ele>116.5</ele>
        <time>2015-02-02T19:36:03.605Z</time>
      </trkpt>
      <trkpt lat="48.84497" lon="2.34537">
        <ele>116.5</ele>
        <time>2015-02-02T19:36:04.612Z</time>
      </trkpt>
      <trkpt lat="48.84491" lon="2.34547">
        <ele>117.2</ele>
        <time>2015-02-02T19:36:06.522Z</time>
      </trkpt>
      <trkpt lat="48.84486" lon="2.34545">
        <ele>117.4</ele>
        <time>2015-02-02T19:36:07.531Z</time>
      </trkpt>
      <trkpt lat="48.84481" lon="2.34548">
        <ele>117</ele>
        <time>2015-02-02T19:36:09.539Z</time>
      </trkpt>
      <trkpt lat="48.84475" lon="2.34546">
        <ele>115.8</ele>
        <time>2015-02-02T19:36:10.554Z</time>
      </trkpt>
      <trkpt lat="48.84473" lon="2.34541">
        <ele>115.8</ele>
        <time>2015-02-02T19:36:11.565Z</time>
      </trkpt>
      <trkpt lat="48.8447" lon="2.34531">
        <ele>115.3</ele>
        <time>2015-02-02T19:36:12.579Z</time>
      </trkpt>
      <trkpt lat="48.84466" lon="2.34522">
        <ele>115.4</ele>
        <time>2015-02-02T19:36:14.531Z</time>
      </trkpt>
      <trkpt lat="48.84463" lon="2.34513">
        <ele>114.8</ele>
        <time>2015-02-02T19:36:15.528Z</time>
      </trkpt>
      <trkpt lat="48.84455" lon="2.34507">
        <ele>115.1</ele>
        <time>2015-02-02T19:36:18.528Z</time>
      </trkpt>
      <trkpt lat="48.84452" lon="2.34505">
        <ele>115.1</ele>
        <time>2015-02-02T19:36:19.618Z</time>
      </trkpt>
      <trkpt lat="48.84445" lon="2.34501">
        <ele>115.3</ele>
        <time>2015-02-02T19:36:21.643Z</time>
      </trkpt>
      <trkpt lat="48.84443" lon="2.34499">
        <ele>115.4</ele>
        <time>2015-02-02T19:36:22.660Z</time>
      </trkpt>
      <trkpt lat="48.84437" lon="2.34496">
        <ele>115.4</ele>
        <time>2015-02-02T19:36:24.568Z</time>
      </trkpt>
      <trkpt lat="48.84433" lon="2.34495">
        <ele>115.3</ele>
        <time>2015-02-02T19:36:25.711Z</time>
      </trkpt>
      <trkpt lat="48.84427" lon="2.34496">
        <ele>114.5</ele>
        <time>2015-02-02T19:36:26.545Z</time>
      </trkpt>
      <trkpt lat="48.8442" lon="2.34497">
        <ele>114.1</ele>
        <time>2015-02-02T19:36:27.547Z</time>
      </trkpt>
      <trkpt lat="48.84412" lon="2.34492">
        <ele>114.3</ele>
        <time>2015-02-02T19:36:29.591Z</time>
      </trkpt>
      <trkpt lat="48.84409" lon="2.3449">
        <ele>114.3</ele>
        <time>2015-02-02T19:36:30.590Z</time>
      </trkpt>
      <trkpt lat="48.84404" lon="2.34488">
        <ele>114.9</ele>
        <time>2015-02-02T19:36:31.611Z</time>
      </trkpt>
      <trkpt lat="48.84399" lon="2.34486">
        <ele>114.7</ele>
        <time>2015-02-02T19:36:32.627Z</time>
      </trkpt>
      <trkpt lat="48.84395" lon="2.34484">
        <ele>114.6</ele>
        <time>2015-02-02T19:36:33.539Z</time>
      </trkpt>
      <trkpt lat="48.84388" lon="2.34482">
        <ele>114</ele>
        <time>2015-02-02T19:36:34.604Z</time>
      </trkpt>
      <trkpt lat="48.84382" lon="2.34479">
        <ele>113.7</ele>
        <time>2015-02-02T19:36:35.797Z</time>
      </trkpt>
      <trkpt lat="48.84376" lon="2.34477">
        <ele>113.5</ele>
        <time>2015-02-02T19:36:36.510Z</time>
      </trkpt>
      <trkpt lat="48.84371" lon="2.34475">
        <ele>113.2</ele>
        <time>2015-02-02T19:36:37.516Z</time>
      </trkpt>
      <trkpt lat="48.84366" lon="2.34473">
        <ele>113.2</ele>
        <time>2015-02-02T19:36:38.563Z</time>
      </trkpt>
      <trkpt lat="48.8436" lon="2.34471">
        <ele>113</ele>
        <time>2015-02-02T19:36:39.574Z</time>
      </trkpt>
      <trkpt lat="48.84355" lon="2.3447">
        <ele>113</ele>
        <time>2015-02-02T19:36:40.581Z</time>
      </trkpt>
      <trkpt lat="48.8435" lon="2.34469">
        <ele>112.9</ele>
        <time>2015-02-02T19:36:41.616Z</time>
      </trkpt>
      <trkpt lat="48.84345" lon="2.34469">
        <ele>113</ele>
        <time>2015-02-02T19:36:42.558Z</time>
      </trkpt>
      <trkpt lat="48.84341" lon="2.34469">
        <ele>113</ele>
        <time>2015-02-02T19:36:43.572Z</time>
      </trkpt>
      <trkpt lat="48.84336" lon="2.34468">
        <ele>112.9</ele>
        <time>2015-02-02T19:36:44.602Z</time>
      </trkpt>
      <trkpt lat="48.84331" lon="2.34466">
        <ele>112.9</ele>
        <time>2015-02-02T19:36:45.663Z</time>
      </trkpt>
      <trkpt lat="48.84326" lon="2.34464">
        <ele>112.9</ele>
        <time>2015-02-02T19:36:46.577Z</time>
      </trkpt>
      <trkpt lat="48.84321" lon="2.34461">
        <ele>113</ele>
        <time>2015-02-02T19:36:47.494Z</time>
      </trkpt>
      <trkpt lat="48.84317" lon="2.34458">
        <ele>113</ele>
        <time>2015-02-02T19:36:48.515Z</time>
      </trkpt>
      <trkpt lat="48.84309" lon="2.34453">
        <ele>113</ele>
        <time>2015-02-02T19:36:50.532Z</time>
      </trkpt>
      <trkpt lat="48.84305" lon="2.3445">
        <ele>112.9</ele>
        <time>2015-02-02T19:36:51.564Z</time>
      </trkpt>
      <trkpt lat="48.84299" lon="2.34449">
        <ele>112.3</ele>
        <time>2015-02-02T19:36:52.575Z</time>
      </trkpt>
      <trkpt lat="48.84294" lon="2.34449">
        <ele>111.8</ele>
        <time>2015-02-02T19:36:53.659Z</time>
      </trkpt>
      <trkpt lat="48.8429" lon="2.34449">
        <ele>111.4</ele>
        <time>2015-02-02T19:36:54.528Z</time>
      </trkpt>
      <trkpt lat="48.84285" lon="2.3445">
        <ele>111.1</ele>
        <time>2015-02-02T19:36:55.538Z</time>
      </trkpt>
      <trkpt lat="48.84277" lon="2.34451">
        <ele>110.9</ele>
        <time>2015-02-02T19:36:57.538Z</time>
      </trkpt>
      <trkpt lat="48.84272" lon="2.3445">
        <ele>110.6</ele>
        <time>2015-02-02T19:36:58.553Z</time>
      </trkpt>
      <trkpt lat="48.84267" lon="2.34448">
        <ele>110.6</ele>
        <time>2015-02-02T19:36:59.568Z</time>
      </trkpt>
      <trkpt lat="48.84263" lon="2.34446">
        <ele>110.8</ele>
        <time>2015-02-02T19:37:00.605Z</time>
      </trkpt>
      <trkpt lat="48.84256" lon="2.34443">
        <ele>110.8</ele>
        <time>2015-02-02T19:37:02.532Z</time>
      </trkpt>
      <trkpt lat="48.84251" lon="2.34441">
        <ele>110.8</ele>
        <time>2015-02-02T19:37:03.554Z</time>
      </trkpt>
      <trkpt lat="48.84247" lon="2.34439">
        <ele>110.6</ele>
        <time>2015-02-02T19:37:04.589Z</time>
      </trkpt>
      <trkpt lat="48.84242" lon="2.34435">
        <ele>110.6</ele>
        <time>2015-02-02T19:37:05.590Z</time>
      </trkpt>
      <trkpt lat="48.84237" lon="2.34431">
        <ele>111</ele>
        <time>2015-02-02T19:37:06.516Z</time>
      </trkpt>
      <trkpt lat="48.84231" lon="2.34428">
        <ele>111.2</ele>
        <time>2015-02-02T19:37:07.524Z</time>
      </trkpt>
      <trkpt lat="48.84225" lon="2.34426">
        <ele>111.2</ele>
        <time>2015-02-02T19:37:08.534Z</time>
      </trkpt>
      <trkpt lat="48.84218" lon="2.34424">
        <ele>111.1</ele>
        <time>2015-02-02T19:37:09.540Z</time>
      </trkpt>
      <trkpt lat="48.84212" lon="2.34423">
        <ele>110.9</ele>
        <time>2015-02-02T19:37:10.548Z</time>
      </trkpt>
      <trkpt lat="48.84207" lon="2.34421">
        <ele>111.1</ele>
        <time>2015-02-02T19:37:11.556Z</time>
      </trkpt>
      <trkpt lat="48.84202" lon="2.34419">
        <ele>111.3</ele>
        <time>2015-02-02T19:37:12.594Z</time>
      </trkpt>
      <trkpt lat="48.84197" lon="2.34417">
        <ele>111.3</ele>
        <time>2015-02-02T19:37:13.605Z</time>
      </trkpt>
      <trkpt lat="48.84191" lon="2.34416">
        <ele>111.2</ele>
        <time>2015-02-02T19:37:14.523Z</time>
      </trkpt>
      <trkpt lat="48.84186" lon="2.34415">
        <ele>111.2</ele>
        <time>2015-02-02T19:37:15.539Z</time>
      </trkpt>
      <trkpt lat="48.84182" lon="2.34413">
        <ele>111.4</ele>
        <time>2015-02-02T19:37:16.547Z</time>
      </trkpt>
      <trkpt lat="48.84177" lon="2.34411">
        <ele>111.5</ele>
        <time>2015-02-02T19:37:17.548Z</time>
      </trkpt>
      <trkpt lat="48.84172" lon="2.34409">
        <ele>111.6</ele>
        <time>2015-02-02T19:37:18.562Z</time>
      </trkpt>
      <trkpt lat="48.84168" lon="2.34407">
        <ele>111.7</ele>
        <time>2015-02-02T19:37:19.577Z</time>
      </trkpt>
      <trkpt lat="48.84163" lon="2.34403">
        <ele>111.8</ele>
        <time>2015-02-02T19:37:20.583Z</time>
      </trkpt>
      <trkpt lat="48.84159" lon="2.34399">
        <ele>111.7</ele>
        <time>2015-02-02T19:37:21.604Z</time>
      </trkpt>
      <trkpt lat="48.84151" lon="2.34392">
        <ele>111.6</ele>
        <time>2015-02-02T19:37:23.514Z</time>
      </trkpt>
      <trkpt lat="48.84148" lon="2.3439">
        <ele>111.5</ele>
        <time>2015-02-02T19:37:24.529Z</time>
      </trkpt>
      <trkpt lat="48.84141" lon="2.34385">
        <ele>111.4</ele>
        <time>2015-02-02T19:37:26.551Z</time>
      </trkpt>
      <trkpt lat="48.84138" lon="2.34383">
        <ele>111.5</ele>
        <time>2015-02-02T19:37:27.591Z</time>
      </trkpt>
      <trkpt lat="48.84133" lon="2.34373">
        <ele>111</ele>
        <time>2015-02-02T19:37:31.603Z</time>
      </trkpt>
      <trkpt lat="48.84132" lon="2.34371">
        <ele>111</ele>
        <time>2015-02-02T19:37:32.554Z</time>
      </trkpt>
      <trkpt lat="48.84129" lon="2.34359">
        <ele>115.3</ele>
        <time>2015-02-02T19:37:38.527Z</time>
      </trkpt>
      <trkpt lat="48.84129" lon="2.34358">
        <ele>115.6</ele>
        <time>2015-02-02T19:37:39.560Z</time>
      </trkpt>
      <trkpt lat="48.84135" lon="2.34348">
        <ele>116</ele>
        <time>2015-02-02T19:37:45.597Z</time>
      </trkpt>
      <trkpt lat="48.84136" lon="2.34345">
        <ele>116</ele>
        <time>2015-02-02T19:37:46.535Z</time>
      </trkpt>
      <trkpt lat="48.84142" lon="2.34336">
        <ele>115.7</ele>
        <time>2015-02-02T19:37:50.560Z</time>
      </trkpt>
      <trkpt lat="48.84144" lon="2.34334">
        <ele>115.7</ele>
        <time>2015-02-02T19:37:51.590Z</time>
      </trkpt>
      <trkpt lat="48.84152" lon="2.34327">
        <ele>115.4</ele>
        <time>2015-02-02T19:37:55.589Z</time>
      </trkpt>
      <trkpt lat="48.84154" lon="2.34325">
        <ele>115.3</ele>
        <time>2015-02-02T19:37:56.609Z</time>
      </trkpt>
      <trkpt lat="48.84161" lon="2.34317">
        <ele>114.8</ele>
        <time>2015-02-02T19:37:59.575Z</time>
      </trkpt>
      <trkpt lat="48.84163" lon="2.34314">
        <ele>114.6</ele>
        <time>2015-02-02T19:38:00.515Z</time>
      </trkpt>
      <trkpt lat="48.84168" lon="2.34304">
        <ele>114</ele>
        <time>2015-02-02T19:38:03.532Z</time>
      </trkpt>
      <trkpt lat="48.84168" lon="2.34301">
        <ele>113.8</ele>
        <time>2015-02-02T19:38:04.659Z</time>
      </trkpt>
      <trkpt lat="48.84172" lon="2.34289">
        <ele>113.1</ele>
        <time>2015-02-02T19:38:09.574Z</time>
      </trkpt>
      <trkpt lat="48.84172" lon="2.34287">
        <ele>113.1</ele>
        <time>2015-02-02T19:38:10.636Z</time>
      </trkpt>
      <trkpt lat="48.84175" lon="2.34277">
        <ele>112.9</ele>
        <time>2015-02-02T19:38:14.542Z</time>
      </trkpt>
      <trkpt lat="48.84178" lon="2.34273">
        <ele>112.7</ele>
        <time>2015-02-02T19:38:15.554Z</time>
      </trkpt>
      <trkpt lat="48.84181" lon="2.34264">
        <ele>112.5</ele>
        <time>2015-02-02T19:38:17.546Z</time>
      </trkpt>
      <trkpt lat="48.84182" lon="2.3426">
        <ele>112.5</ele>
        <time>2015-02-02T19:38:18.549Z</time>
      </trkpt>
      <trkpt lat="48.84185" lon="2.34248">
        <ele>112.2</ele>
        <time>2015-02-02T19:38:21.529Z</time>
      </trkpt>
      <trkpt lat="48.84187" lon="2.34246">
        <ele>112.1</ele>
        <time>2015-02-02T19:38:22.529Z</time>
      </trkpt>
      <trkpt lat="48.84193" lon="2.34239">
        <ele>111.8</ele>
        <time>2015-02-02T19:38:25.600Z</time>
      </trkpt>
      <trkpt lat="48.84194" lon="2.34235">
        <ele>111.7</ele>
        <time>2015-02-02T19:38:26.520Z</time>
      </trkpt>
      <trkpt lat="48.84199" lon="2.34229">
        <ele>111.6</ele>
        <time>2015-02-02T19:38:29.602Z</time>
      </trkpt>
      <trkpt lat="48.84201" lon="2.34226">
        <ele>111.8</ele>
        <time>2015-02-02T19:38:30.522Z</time>
      </trkpt>
      <trkpt lat="48.84206" lon="2.34215">
        <ele>112.1</ele>
        <time>2015-02-02T19:38:33.528Z</time>
      </trkpt>
      <trkpt lat="48.84207" lon="2.34212">
        <ele>112.2</ele>
        <time>2015-02-02T19:38:34.707Z</time>
      </trkpt>
      <trkpt lat="48.84212" lon="2.34203">
        <ele>113.7</ele>
        <time>2015-02-02T19:38:36.513Z</time>
      </trkpt>
      <trkpt lat="48.84214" lon="2.34197">
        <ele>115.1</ele>
        <time>2015-02-02T19:38:37.524Z</time>
      </trkpt>
      <trkpt lat="48.84213" lon="2.34184">
        <ele>116.9</ele>
        <time>2015-02-02T19:38:42.523Z</time>
      </trkpt>
      <trkpt lat="48.84213" lon="2.34182">
        <ele>117.2</ele>
        <time>2015-02-02T19:38:43.555Z</time>
      </trkpt>
      <trkpt lat="48.84213" lon="2.34181">
        <ele>117.3</ele>
        <time>2015-02-02T19:38:44.594Z</time>
      </trkpt>
      <trkpt lat="48.84212" lon="2.34179">
        <ele>117.5</ele>
        <time>2015-02-02T19:38:45.612Z</time>
      </trkpt>
      <trkpt lat="48.84213" lon="2.34178">
        <ele>117.8</ele>
        <time>2015-02-02T19:38:46.631Z</time>
      </trkpt>
      <trkpt lat="48.84209" lon="2.34167">
        <ele>119.8</ele>
        <time>2015-02-02T19:38:57.528Z</time>
      </trkpt>
      <trkpt lat="48.84208" lon="2.34166">
        <ele>119.9</ele>
        <time>2015-02-02T19:38:58.552Z</time>
      </trkpt>
      <trkpt lat="48.84208" lon="2.34166">
        <ele>120</ele>
        <time>2015-02-02T19:38:59.570Z</time>
      </trkpt>
      <trkpt lat="48.84208" lon="2.34166">
        <ele>120.1</ele>
        <time>2015-02-02T19:39:00.490Z</time>
      </trkpt>
      <trkpt lat="48.84203" lon="2.34157">
        <ele>124.4</ele>
        <time>2015-02-02T19:40:14.517Z</time>
      </trkpt>
      <trkpt lat="48.84199" lon="2.34153">
        <ele>130.1</ele>
        <time>2015-02-02T19:40:15.525Z</time>
      </trkpt>
      <trkpt lat="48.84199" lon="2.34151">
        <ele>130.5</ele>
        <time>2015-02-02T19:40:16.560Z</time>
      </trkpt>
      <trkpt lat="48.84199" lon="2.34151">
        <ele>130.7</ele>
        <time>2015-02-02T19:40:17.542Z</time>
      </trkpt>
      <trkpt lat="48.84199" lon="2.3415">
        <ele>131.1</ele>
        <time>2015-02-02T19:40:20.526Z</time>
      </trkpt>
      <trkpt lat="48.84198" lon="2.34149">
        <ele>131.5</ele>
        <time>2015-02-02T19:40:21.605Z</time>
      </trkpt>
      <trkpt lat="48.84203" lon="2.3414">
        <ele>130.2</ele>
        <time>2015-02-02T19:40:40.641Z</time>
      </trkpt>
      <trkpt lat="48.84204" lon="2.34138">
        <ele>130.2</ele>
        <time>2015-02-02T19:40:41.593Z</time>
      </trkpt>
      <trkpt lat="48.84208" lon="2.34129">
        <ele>129</ele>
        <time>2015-02-02T19:40:44.595Z</time>
      </trkpt>
      <trkpt lat="48.8421" lon="2.34126">
        <ele>128.6</ele>
        <time>2015-02-02T19:40:45.634Z</time>
      </trkpt>
      <trkpt lat="48.84216" lon="2.34117">
        <ele>127.6</ele>
        <time>2015-02-02T19:40:47.584Z</time>
      </trkpt>
      <trkpt lat="48.8422" lon="2.3411">
        <ele>125.6</ele>
        <time>2015-02-02T19:40:48.601Z</time>
      </trkpt>
      <trkpt lat="48.84226" lon="2.34101">
        <ele>124.8</ele>
        <time>2015-02-02T19:40:50.530Z</time>
      </trkpt>
      <trkpt lat="48.84229" lon="2.34095">
        <ele>123.8</ele>
        <time>2015-02-02T19:40:51.544Z</time>
      </trkpt>
      <trkpt lat="48.84232" lon="2.34057">
        <ele>118.4</ele>
        <time>2015-02-02T19:40:56.515Z</time>
      </trkpt>
      <trkpt lat="48.8423" lon="2.34047">
        <ele>118.1</ele>
        <time>2015-02-02T19:40:58.568Z</time>
      </trkpt>
      <trkpt lat="48.84229" lon="2.34041">
        <ele>117.8</ele>
        <time>2015-02-02T19:40:59.567Z</time>
      </trkpt>
      <trkpt lat="48.84226" lon="2.34031">
        <ele>117.5</ele>
        <time>2015-02-02T19:41:01.590Z</time>
      </trkpt>
      <trkpt lat="48.84223" lon="2.34028">
        <ele>117.3</ele>
        <time>2015-02-02T19:41:02.600Z</time>
      </trkpt>
      <trkpt lat="48.84169" lon="2.33993">
        <ele>116.8</ele>
        <time>2015-02-02T19:41:15.534Z</time>
      </trkpt>
      <trkpt lat="48.8416" lon="2.33989">
        <ele>116.3</ele>
        <time>2015-02-02T19:41:17.577Z</time>
      </trkpt>
      <trkpt lat="48.84156" lon="2.33987">
        <ele>116</ele>
        <time>2015-02-02T19:41:18.587Z</time>
      </trkpt>
      <trkpt lat="48.84147" lon="2.33985">
        <ele>115.3</ele>
        <time>2015-02-02T19:41:20.625Z</time>
      </trkpt>
      <trkpt lat="48.84142" lon="2.33985">
        <ele>115.2</ele>
        <time>2015-02-02T19:41:21.525Z</time>
      </trkpt>
      <trkpt lat="48.84135" lon="2.33983">
        <ele>115</ele>
        <time>2015-02-02T19:41:23.548Z</time>
      </trkpt>
      <trkpt lat="48.84132" lon="2.33981">
        <ele>115</ele>
        <time>2015-02-02T19:41:24.561Z</time>
      </trkpt>
      <trkpt lat="48.84127" lon="2.33977">
        <ele>115</ele>
        <time>2015-02-02T19:41:26.508Z</time>
      </trkpt>
      <trkpt lat="48.84122" lon="2.33973">
        <ele>114.9</ele>
        <time>2015-02-02T19:41:28.547Z</time>
      </trkpt>
      <trkpt lat="48.84114" lon="2.33968">
        <ele>114.6</ele>
        <time>2015-02-02T19:41:30.569Z</time>
      </trkpt>
      <trkpt lat="48.8411" lon="2.33964">
        <ele>114.3</ele>
        <time>2015-02-02T19:41:31.725Z</time>
      </trkpt>
      <trkpt lat="48.84106" lon="2.33959">
        <ele>114.1</ele>
        <time>2015-02-02T19:41:32.543Z</time>
      </trkpt>
      <trkpt lat="48.84102" lon="2.33956">
        <ele>114</ele>
        <time>2015-02-02T19:41:33.554Z</time>
      </trkpt>
      <trkpt lat="48.84094" lon="2.3395">
        <ele>113.8</ele>
        <time>2015-02-02T19:41:35.566Z</time>
      </trkpt>
      <trkpt lat="48.84061" lon="2.33925">
        <ele>113.5</ele>
        <time>2015-02-02T19:41:43.517Z</time>
      </trkpt>
      <trkpt lat="48.84056" lon="2.33922">
        <ele>113.4</ele>
        <time>2015-02-02T19:41:44.561Z</time>
      </trkpt>
      <trkpt lat="48.84049" lon="2.33914">
        <ele>113.3</ele>
        <time>2015-02-02T19:41:46.542Z</time>
      </trkpt>
      <trkpt lat="48.84042" lon="2.33906">
        <ele>113.2</ele>
        <time>2015-02-02T19:41:48.530Z</time>
      </trkpt>
      <trkpt lat="48.84039" lon="2.33902">
        <ele>113.1</ele>
        <time>2015-02-02T19:41:49.517Z</time>
      </trkpt>
      <trkpt lat="48.84034" lon="2.33899">
        <ele>112.9</ele>
        <time>2015-02-02T19:41:50.540Z</time>
      </trkpt>
      <trkpt lat="48.84029" lon="2.33896">
        <ele>112.9</ele>
        <time>2015-02-02T19:41:51.535Z</time>
      </trkpt>
      <trkpt lat="48.84024" lon="2.33893">
        <ele>112.9</ele>
        <time>2015-02-02T19:41:53.378Z</time>
      </trkpt>
      <trkpt lat="48.84019" lon="2.33892">
        <ele>112.9</ele>
        <time>2015-02-02T19:41:53.550Z</time>
      </trkpt>
      <trkpt lat="48.84015" lon="2.3389">
        <ele>112.9</ele>
        <time>2015-02-02T19:41:54.568Z</time>
      </trkpt>
      <trkpt lat="48.8401" lon="2.33888">
        <ele>113</ele>
        <time>2015-02-02T19:41:55.589Z</time>
      </trkpt>
      <trkpt lat="48.84004" lon="2.33885">
        <ele>113.1</ele>
        <time>2015-02-02T19:41:56.603Z</time>
      </trkpt>
      <trkpt lat="48.83995" lon="2.33878">
        <ele>113.4</ele>
        <time>2015-02-02T19:41:58.527Z</time>
      </trkpt>
      <trkpt lat="48.83989" lon="2.33876">
        <ele>113.6</ele>
        <time>2015-02-02T19:41:59.535Z</time>
      </trkpt>
      <trkpt lat="48.83984" lon="2.33874">
        <ele>113.7</ele>
        <time>2015-02-02T19:42:00.557Z</time>
      </trkpt>
      <trkpt lat="48.83979" lon="2.33872">
        <ele>113.9</ele>
        <time>2015-02-02T19:42:01.570Z</time>
      </trkpt>
      <trkpt lat="48.83974" lon="2.33867">
        <ele>113.9</ele>
        <time>2015-02-02T19:42:02.583Z</time>
      </trkpt>
      <trkpt lat="48.8397" lon="2.33864">
        <ele>114</ele>
        <time>2015-02-02T19:42:03.551Z</time>
      </trkpt>
      <trkpt lat="48.83966" lon="2.33861">
        <ele>114.2</ele>
        <time>2015-02-02T19:42:04.554Z</time>
      </trkpt>
      <trkpt lat="48.83963" lon="2.33859">
        <ele>114.4</ele>
        <time>2015-02-02T19:42:05.561Z</time>
      </trkpt>
      <trkpt lat="48.83957" lon="2.33858">
        <ele>114.3</ele>
        <time>2015-02-02T19:42:06.494Z</time>
      </trkpt>
      <trkpt lat="48.83949" lon="2.33858">
        <ele>114</ele>
        <time>2015-02-02T19:42:07.518Z</time>
      </trkpt>
      <trkpt lat="48.83944" lon="2.33855">
        <ele>113.8</ele>
        <time>2015-02-02T19:42:08.531Z</time>
      </trkpt>
      <trkpt lat="48.83937" lon="2.3385">
        <ele>113.9</ele>
        <time>2015-02-02T19:42:10.586Z</time>
      </trkpt>
      <trkpt lat="48.83933" lon="2.33849">
        <ele>114.1</ele>
        <time>2015-02-02T19:42:11.517Z</time>
      </trkpt>
      <trkpt lat="48.83926" lon="2.3384">
        <ele>114.5</ele>
        <time>2015-02-02T19:42:15.602Z</time>
      </trkpt>
      <trkpt lat="48.83928" lon="2.33842">
        <ele>113.4</ele>
        <time>2015-02-02T19:42:16.615Z</time>
      </trkpt>
      <trkpt lat="48.8393" lon="2.33842">
        <ele>112</ele>
        <time>2015-02-02T19:42:21.530Z</time>
      </trkpt>
      <trkpt lat="48.83931" lon="2.33835">
        <ele>110.9</ele>
        <time>2015-02-02T19:42:22.566Z</time>
      </trkpt>
      <trkpt lat="48.83935" lon="2.33825">
        <ele>108.8</ele>
        <time>2015-02-02T19:42:26.525Z</time>
      </trkpt>
      <trkpt lat="48.83936" lon="2.33821">
        <ele>108.3</ele>
        <time>2015-02-02T19:42:27.537Z</time>
      </trkpt>
      <trkpt lat="48.83937" lon="2.33809">
        <ele>107.5</ele>
        <time>2015-02-02T19:42:30.575Z</time>
      </trkpt>
      <trkpt lat="48.83938" lon="2.33805">
        <ele>107.2</ele>
        <time>2015-02-02T19:42:31.591Z</time>
      </trkpt>
      <trkpt lat="48.8394" lon="2.33796">
        <ele>106</ele>
        <time>2015-02-02T19:42:33.521Z</time>
      </trkpt>
      <trkpt lat="48.8394" lon="2.33792">
        <ele>105.7</ele>
        <time>2015-02-02T19:42:34.580Z</time>
      </trkpt>
      <trkpt lat="48.83942" lon="2.33778">
        <ele>105</ele>
        <time>2015-02-02T19:42:38.537Z</time>
      </trkpt>
      <trkpt lat="48.83942" lon="2.33775">
        <ele>104.8</ele>
        <time>2015-02-02T19:42:39.537Z</time>
      </trkpt>
      <trkpt lat="48.83941" lon="2.33772">
        <ele>103.9</ele>
        <time>2015-02-02T19:42:41.587Z</time>
      </trkpt>
      <trkpt lat="48.8394" lon="2.33773">
        <ele>103.2</ele>
        <time>2015-02-02T19:42:42.601Z</time>
      </trkpt>
      <trkpt lat="48.83939" lon="2.33772">
        <ele>102.9</ele>
        <time>2015-02-02T19:42:43.624Z</time>
      </trkpt>
      <trkpt lat="48.83935" lon="2.33764">
        <ele>103.1</ele>
        <time>2015-02-02T19:42:47.591Z</time>
      </trkpt>
      <trkpt lat="48.83933" lon="2.33761">
        <ele>103.8</ele>
        <time>2015-02-02T19:42:48.554Z</time>
      </trkpt>
      <trkpt lat="48.83927" lon="2.33752">
        <ele>106</ele>
        <time>2015-02-02T19:42:52.596Z</time>
      </trkpt>
      <trkpt lat="48.83925" lon="2.33749">
        <ele>106.9</ele>
        <time>2015-02-02T19:42:53.522Z</time>
      </trkpt>
      <trkpt lat="48.83922" lon="2.33745">
        <ele>109.3</ele>
        <time>2015-02-02T19:42:57.623Z</time>
      </trkpt>
      <trkpt lat="48.83921" lon="2.33744">
        <ele>109.7</ele>
        <time>2015-02-02T19:42:58.649Z</time>
      </trkpt>
      <trkpt lat="48.83921" lon="2.33741">
        <ele>110</ele>
        <time>2015-02-02T19:42:59.643Z</time>
      </trkpt>
      <trkpt lat="48.83918" lon="2.3373">
        <ele>109.6</ele>
        <time>2015-02-02T19:43:01.611Z</time>
      </trkpt>
      <trkpt lat="48.83915" lon="2.33724">
        <ele>109.4</ele>
        <time>2015-02-02T19:43:02.615Z</time>
      </trkpt>
      <trkpt lat="48.8391" lon="2.33717">
        <ele>109.2</ele>
        <time>2015-02-02T19:43:04.632Z</time>
      </trkpt>
      <trkpt lat="48.83908" lon="2.33713">
        <ele>109</ele>
        <time>2015-02-02T19:43:05.613Z</time>
      </trkpt>
      <trkpt lat="48.83901" lon="2.33705">
        <ele>108.6</ele>
        <time>2015-02-02T19:43:07.536Z</time>
      </trkpt>
      <trkpt lat="48.83898" lon="2.33702">
        <ele>108.4</ele>
        <time>2015-02-02T19:43:08.550Z</time>
      </trkpt>
      <trkpt lat="48.83893" lon="2.33693">
        <ele>108.1</ele>
        <time>2015-02-02T19:43:10.564Z</time>
      </trkpt>
      <trkpt lat="48.83889" lon="2.3369">
        <ele>108.1</ele>
        <time>2015-02-02T19:43:11.562Z</time>
      </trkpt>
      <trkpt lat="48.83882" lon="2.33688">
        <ele>107.9</ele>
        <time>2015-02-02T19:43:13.588Z</time>
      </trkpt>
      <trkpt lat="48.83879" lon="2.33688">
        <ele>107.7</ele>
        <time>2015-02-02T19:43:14.605Z</time>
      </trkpt>
      <trkpt lat="48.83873" lon="2.33689">
        <ele>107.4</ele>
        <time>2015-02-02T19:43:16.640Z</time>
      </trkpt>
      <trkpt lat="48.8387" lon="2.3369">
        <ele>107.3</ele>
        <time>2015-02-02T19:43:17.526Z</time>
      </trkpt>
      <trkpt lat="48.83863" lon="2.33688">
        <ele>107</ele>
        <time>2015-02-02T19:43:19.563Z</time>
      </trkpt>
      <trkpt lat="48.8386" lon="2.33684">
        <ele>106.8</ele>
        <time>2015-02-02T19:43:20.591Z</time>
      </trkpt>
      <trkpt lat="48.83857" lon="2.33679">
        <ele>106.6</ele>
        <time>2015-02-02T19:43:21.594Z</time>
      </trkpt>
      <trkpt lat="48.83853" lon="2.33674">
        <ele>106.3</ele>
        <time>2015-02-02T19:43:22.629Z</time>
      </trkpt>
      <trkpt lat="48.83849" lon="2.33663">
        <ele>105.5</ele>
        <time>2015-02-02T19:43:24.526Z</time>
      </trkpt>
      <trkpt lat="48.83849" lon="2.33657">
        <ele>105.2</ele>
        <time>2015-02-02T19:43:25.538Z</time>
      </trkpt>
      <trkpt lat="48.83848" lon="2.33644">
        <ele>105</ele>
        <time>2015-02-02T19:43:27.503Z</time>
      </trkpt>
      <trkpt lat="48.83847" lon="2.3364">
        <ele>104.9</ele>
        <time>2015-02-02T19:43:28.578Z</time>
      </trkpt>
      <trkpt lat="48.83841" lon="2.33636">
        <ele>105</ele>
        <time>2015-02-02T19:43:30.520Z</time>
      </trkpt>
      <trkpt lat="48.83838" lon="2.33633">
        <ele>105.3</ele>
        <time>2015-02-02T19:43:31.568Z</time>
      </trkpt>
      <trkpt lat="48.83833" lon="2.33625">
        <ele>105.9</ele>
        <time>2015-02-02T19:43:33.504Z</time>
      </trkpt>
      <trkpt lat="48.8383" lon="2.3362">
        <ele>106.1</ele>
        <time>2015-02-02T19:43:34.579Z</time>
      </trkpt>
      <trkpt lat="48.83828" lon="2.33615">
        <ele>106.3</ele>
        <time>2015-02-02T19:43:35.575Z</time>
      </trkpt>
      <trkpt lat="48.83824" lon="2.3361">
        <ele>106.4</ele>
        <time>2015-02-02T19:43:36.615Z</time>
      </trkpt>
      <trkpt lat="48.8382" lon="2.33608">
        <ele>106.8</ele>
        <time>2015-02-02T19:43:37.538Z</time>
      </trkpt>
      <trkpt lat="48.83815" lon="2.33604">
        <ele>107.1</ele>
        <time>2015-02-02T19:43:38.575Z</time>
      </trkpt>
      <trkpt lat="48.83809" lon="2.33601">
        <ele>107.4</ele>
        <time>2015-02-02T19:43:39.602Z</time>
      </trkpt>
      <trkpt lat="48.83804" lon="2.33597">
        <ele>107.5</ele>
        <time>2015-02-02T19:43:40.610Z</time>
      </trkpt>
      <trkpt lat="48.83799" lon="2.33593">
        <ele>107.8</ele>
        <time>2015-02-02T19:43:41.509Z</time>
      </trkpt>
      <trkpt lat="48.83794" lon="2.33589">
        <ele>108</ele>
        <time>2015-02-02T19:43:42.524Z</time>
      </trkpt>
      <trkpt lat="48.83788" lon="2.33586">
        <ele>107.9</ele>
        <time>2015-02-02T19:43:44.174Z</time>
      </trkpt>
      <trkpt lat="48.83783" lon="2.33583">
        <ele>107.6</ele>
        <time>2015-02-02T19:43:44.554Z</time>
      </trkpt>
      <trkpt lat="48.83777" lon="2.33579">
        <ele>107.5</ele>
        <time>2015-02-02T19:43:45.567Z</time>
      </trkpt>
      <trkpt lat="48.83773" lon="2.33576">
        <ele>107.3</ele>
        <time>2015-02-02T19:43:46.583Z</time>
      </trkpt>
      <trkpt lat="48.83769" lon="2.33571">
        <ele>107.2</ele>
        <time>2015-02-02T19:43:47.598Z</time>
      </trkpt>
      <trkpt lat="48.83764" lon="2.33567">
        <ele>107.1</ele>
        <time>2015-02-02T19:43:48.604Z</time>
      </trkpt>
      <trkpt lat="48.83759" lon="2.33562">
        <ele>107.1</ele>
        <time>2015-02-02T19:43:49.527Z</time>
      </trkpt>
      <trkpt lat="48.83754" lon="2.33556">
        <ele>107</ele>
        <time>2015-02-02T19:43:50.522Z</time>
      </trkpt>
      <trkpt lat="48.83749" lon="2.33551">
        <ele>107</ele>
        <time>2015-02-02T19:43:51.535Z</time>
      </trkpt>
      <trkpt lat="48.83745" lon="2.33545">
        <ele>107</ele>
        <time>2015-02-02T19:43:52.574Z</time>
      </trkpt>
      <trkpt lat="48.83739" lon="2.3354">
        <ele>106.9</ele>
        <time>2015-02-02T19:43:53.598Z</time>
      </trkpt>
      <trkpt lat="48.83734" lon="2.33535">
        <ele>107</ele>
        <time>2015-02-02T19:43:54.505Z</time>
      </trkpt>
      <trkpt lat="48.8373" lon="2.33529">
        <ele>107.1</ele>
        <time>2015-02-02T19:43:55.535Z</time>
      </trkpt>
      <trkpt lat="48.83724" lon="2.33524">
        <ele>107.2</ele>
        <time>2015-02-02T19:43:56.538Z</time>
      </trkpt>
      <trkpt lat="48.83719" lon="2.3352">
        <ele>107.3</ele>
        <time>2015-02-02T19:43:57.565Z</time>
      </trkpt>
      <trkpt lat="48.83714" lon="2.33516">
        <ele>107.3</ele>
        <time>2015-02-02T19:43:58.580Z</time>
      </trkpt>
      <trkpt lat="48.83709" lon="2.33512">
        <ele>107.4</ele>
        <time>2015-02-02T19:43:59.594Z</time>
      </trkpt>
      <trkpt lat="48.83705" lon="2.33508">
        <ele>107.5</ele>
        <time>2015-02-02T19:44:00.505Z</time>
      </trkpt>
      <trkpt lat="48.837" lon="2.33504">
        <ele>107.7</ele>
        <time>2015-02-02T19:44:01.522Z</time>
      </trkpt>
      <trkpt lat="48.83696" lon="2.33499">
        <ele>107.9</ele>
        <time>2015-02-02T19:44:02.546Z</time>
      </trkpt>
      <trkpt lat="48.83691" lon="2.33493">
        <ele>108.3</ele>
        <time>2015-02-02T19:44:03.570Z</time>
      </trkpt>
      <trkpt lat="48.83685" lon="2.33488">
        <ele>108.8</ele>
        <time>2015-02-02T19:44:04.603Z</time>
      </trkpt>
      <trkpt lat="48.8368" lon="2.33483">
        <ele>109.3</ele>
        <time>2015-02-02T19:44:05.601Z</time>
      </trkpt>
      <trkpt lat="48.83675" lon="2.3348">
        <ele>109.5</ele>
        <time>2015-02-02T19:44:06.612Z</time>
      </trkpt>
      <trkpt lat="48.8367" lon="2.33476">
        <ele>109.6</ele>
        <time>2015-02-02T19:44:07.520Z</time>
      </trkpt>
      <trkpt lat="48.83666" lon="2.33471">
        <ele>109.8</ele>
        <time>2015-02-02T19:44:08.522Z</time>
      </trkpt>
      <trkpt lat="48.83662" lon="2.33465">
        <ele>110.2</ele>
        <time>2015-02-02T19:44:09.547Z</time>
      </trkpt>
      <trkpt lat="48.83658" lon="2.33459">
        <ele>110.2</ele>
        <time>2015-02-02T19:44:10.668Z</time>
      </trkpt>
      <trkpt lat="48.83654" lon="2.33453">
        <ele>110.3</ele>
        <time>2015-02-02T19:44:11.571Z</time>
      </trkpt>
      <trkpt lat="48.8365" lon="2.33449">
        <ele>110.4</ele>
        <time>2015-02-02T19:44:12.579Z</time>
      </trkpt>
      <trkpt lat="48.83646" lon="2.33444">
        <ele>110.6</ele>
        <time>2015-02-02T19:44:13.586Z</time>
      </trkpt>
      <trkpt lat="48.83641" lon="2.33439">
        <ele>110.9</ele>
        <time>2015-02-02T19:44:14.591Z</time>
      </trkpt>
      <trkpt lat="48.83636" lon="2.33434">
        <ele>111.1</ele>
        <time>2015-02-02T19:44:15.611Z</time>
      </trkpt>
      <trkpt lat="48.8363" lon="2.33429">
        <ele>111.3</ele>
        <time>2015-02-02T19:44:16.623Z</time>
      </trkpt>
      <trkpt lat="48.83625" lon="2.33424">
        <ele>111.5</ele>
        <time>2015-02-02T19:44:17.523Z</time>
      </trkpt>
      <trkpt lat="48.83619" lon="2.33419">
        <ele>111.8</ele>
        <time>2015-02-02T19:44:18.537Z</time>
      </trkpt>
      <trkpt lat="48.8361" lon="2.33416">
        <ele>112</ele>
        <time>2015-02-02T19:44:19.547Z</time>
      </trkpt>
      <trkpt lat="48.83602" lon="2.33411">
        <ele>112.7</ele>
        <time>2015-02-02T19:44:20.568Z</time>
      </trkpt>
      <trkpt lat="48.83595" lon="2.33406">
        <ele>113.5</ele>
        <time>2015-02-02T19:44:21.574Z</time>
      </trkpt>
      <trkpt lat="48.83588" lon="2.33401">
        <ele>113.9</ele>
        <time>2015-02-02T19:44:22.597Z</time>
      </trkpt>
      <trkpt lat="48.83582" lon="2.33397">
        <ele>114.6</ele>
        <time>2015-02-02T19:44:23.611Z</time>
      </trkpt>
      <trkpt lat="48.83577" lon="2.33394">
        <ele>115.6</ele>
        <time>2015-02-02T19:44:24.520Z</time>
      </trkpt>
      <trkpt lat="48.83572" lon="2.33388">
        <ele>116.1</ele>
        <time>2015-02-02T19:44:25.523Z</time>
      </trkpt>
      <trkpt lat="48.83567" lon="2.33384">
        <ele>116.5</ele>
        <time>2015-02-02T19:44:26.533Z</time>
      </trkpt>
      <trkpt lat="48.83562" lon="2.33378">
        <ele>116.8</ele>
        <time>2015-02-02T19:44:27.554Z</time>
      </trkpt>
      <trkpt lat="48.83556" lon="2.33373">
        <ele>117.4</ele>
        <time>2015-02-02T19:44:28.559Z</time>
      </trkpt>
      <trkpt lat="48.83551" lon="2.33367">
        <ele>117.8</ele>
        <time>2015-02-02T19:44:29.564Z</time>
      </trkpt>
      <trkpt lat="48.83544" lon="2.3336">
        <ele>118.5</ele>
        <time>2015-02-02T19:44:31.590Z</time>
      </trkpt>
      <trkpt lat="48.83542" lon="2.33356">
        <ele>118.6</ele>
        <time>2015-02-02T19:44:32.596Z</time>
      </trkpt>
      <trkpt lat="48.83534" lon="2.33351">
        <ele>118.3</ele>
        <time>2015-02-02T19:44:34.628Z</time>
      </trkpt>
      <trkpt lat="48.83531" lon="2.33348">
        <ele>118.4</ele>
        <time>2015-02-02T19:44:35.533Z</time>
      </trkpt>
      <trkpt lat="48.83525" lon="2.33341">
        <ele>118.6</ele>
        <time>2015-02-02T19:44:37.560Z</time>
      </trkpt>
      <trkpt lat="48.83523" lon="2.33339">
        <ele>118.6</ele>
        <time>2015-02-02T19:44:38.567Z</time>
      </trkpt>
      <trkpt lat="48.83515" lon="2.33334">
        <ele>119</ele>
        <time>2015-02-02T19:44:40.612Z</time>
      </trkpt>
      <trkpt lat="48.83511" lon="2.33331">
        <ele>119.2</ele>
        <time>2015-02-02T19:44:41.628Z</time>
      </trkpt>
      <trkpt lat="48.83505" lon="2.33331">
        <ele>118</ele>
        <time>2015-02-02T19:44:42.528Z</time>
      </trkpt>
      <trkpt lat="48.835" lon="2.3333">
        <ele>117.6</ele>
        <time>2015-02-02T19:44:43.529Z</time>
      </trkpt>
      <trkpt lat="48.83493" lon="2.33324">
        <ele>117.7</ele>
        <time>2015-02-02T19:44:45.550Z</time>
      </trkpt>
      <trkpt lat="48.83489" lon="2.33322">
        <ele>117.8</ele>
        <time>2015-02-02T19:44:46.571Z</time>
      </trkpt>
      <trkpt lat="48.83483" lon="2.33317">
        <ele>117.9</ele>
        <time>2015-02-02T19:44:48.598Z</time>
      </trkpt>
      <trkpt lat="48.8348" lon="2.33315">
        <ele>117.9</ele>
        <time>2015-02-02T19:44:49.646Z</time>
      </trkpt>
      <trkpt lat="48.83476" lon="2.33307">
        <ele>118.3</ele>
        <time>2015-02-02T19:44:51.536Z</time>
      </trkpt>
      <trkpt lat="48.83474" lon="2.33303">
        <ele>118.7</ele>
        <time>2015-02-02T19:44:52.572Z</time>
      </trkpt>
      <trkpt lat="48.83471" lon="2.33292">
        <ele>119.1</ele>
        <time>2015-02-02T19:44:54.606Z</time>
      </trkpt>
      <trkpt lat="48.8347" lon="2.33289">
        <ele>119.4</ele>
        <time>2015-02-02T19:44:55.674Z</time>
      </trkpt>
      <trkpt lat="48.83472" lon="2.33288">
        <ele>118.5</ele>
        <time>2015-02-02T19:44:58.575Z</time>
      </trkpt>
      <trkpt lat="48.83472" lon="2.33288">
        <ele>118.7</ele>
        <time>2015-02-02T19:44:59.621Z</time>
      </trkpt>
      <trkpt lat="48.83472" lon="2.33288">
        <ele>118.7</ele>
        <time>2015-02-02T19:45:07.534Z</time>
      </trkpt>
      <trkpt lat="48.83471" lon="2.33293">
        <ele>118.1</ele>
        <time>2015-02-02T19:45:08.533Z</time>
      </trkpt>
      <trkpt lat="48.83471" lon="2.33292">
        <ele>118.2</ele>
        <time>2015-02-02T19:45:09.571Z</time>
      </trkpt>
      <trkpt lat="48.83471" lon="2.33292">
        <ele>118.4</ele>
        <time>2015-02-02T19:45:10.639Z</time>
      </trkpt>
      <trkpt lat="48.83471" lon="2.33294">
        <ele>119.1</ele>
        <time>2015-02-02T19:45:17.534Z</time>
      </trkpt>
      <trkpt lat="48.8347" lon="2.33297">
        <ele>118</ele>
        <time>2015-02-02T19:45:18.546Z</time>
      </trkpt>
      <trkpt lat="48.83471" lon="2.33284">
        <ele>114.9</ele>
        <time>2015-02-02T19:45:33.585Z</time>
      </trkpt>
      <trkpt lat="48.83472" lon="2.33283">
        <ele>114.6</ele>
        <time>2015-02-02T19:45:34.631Z</time>
      </trkpt>
      <trkpt lat="48.83473" lon="2.33283">
        <ele>114.3</ele>
        <time>2015-02-02T19:45:35.529Z</time>
      </trkpt>
      <trkpt lat="48.83473" lon="2.33284">
        <ele>114.3</ele>
        <time>2015-02-02T19:45:36.546Z</time>
      </trkpt>
      <trkpt lat="48.83472" lon="2.33286">
        <ele>114.7</ele>
        <time>2015-02-02T19:45:50.548Z</time>
      </trkpt>
      <trkpt lat="48.8347" lon="2.33286">
        <ele>113.4</ele>
        <time>2015-02-02T19:45:51.569Z</time>
      </trkpt>
      <trkpt lat="48.83471" lon="2.33277">
        <ele>112</ele>
        <time>2015-02-02T19:45:55.531Z</time>
      </trkpt>
      <trkpt lat="48.83471" lon="2.33276">
        <ele>111.6</ele>
        <time>2015-02-02T19:45:56.582Z</time>
      </trkpt>
      <trkpt lat="48.83471" lon="2.33276">
        <ele>111.1</ele>
        <time>2015-02-02T19:46:11.569Z</time>
      </trkpt>
      <trkpt lat="48.83471" lon="2.33274">
        <ele>109.5</ele>
        <time>2015-02-02T19:46:12.599Z</time>
      </trkpt>
      <trkpt lat="48.83467" lon="2.33284">
        <ele>109.2</ele>
        <time>2015-02-02T19:46:20.682Z</time>
      </trkpt>
      <trkpt lat="48.83466" lon="2.33285">
        <ele>109.2</ele>
        <time>2015-02-02T19:46:21.539Z</time>
      </trkpt>
      <trkpt lat="48.83459" lon="2.33284">
        <ele>109.2</ele>
        <time>2015-02-02T19:46:24.583Z</time>
      </trkpt>
      <trkpt lat="48.83457" lon="2.33285">
        <ele>109.3</ele>
        <time>2015-02-02T19:46:25.597Z</time>
      </trkpt>
      <trkpt lat="48.83448" lon="2.33286">
        <ele>109</ele>
        <time>2015-02-02T19:46:28.652Z</time>
      </trkpt>
      <trkpt lat="48.83446" lon="2.33288">
        <ele>109</ele>
        <time>2015-02-02T19:46:29.524Z</time>
      </trkpt>
      <trkpt lat="48.8344" lon="2.33295">
        <ele>108.9</ele>
        <time>2015-02-02T19:46:32.688Z</time>
      </trkpt>
      <trkpt lat="48.83438" lon="2.33297">
        <ele>108.8</ele>
        <time>2015-02-02T19:46:33.564Z</time>
      </trkpt>
      <trkpt lat="48.83434" lon="2.33306">
        <ele>110.5</ele>
        <time>2015-02-02T19:46:41.609Z</time>
      </trkpt>
      <trkpt lat="48.83432" lon="2.33311">
        <ele>111.3</ele>
        <time>2015-02-02T19:46:42.628Z</time>
      </trkpt>
      <trkpt lat="48.83428" lon="2.33315">
        <ele>111.6</ele>
        <time>2015-02-02T19:46:43.522Z</time>
      </trkpt>
      <trkpt lat="48.83423" lon="2.3332">
        <ele>111.9</ele>
        <time>2015-02-02T19:46:44.527Z</time>
      </trkpt>
      <trkpt lat="48.83415" lon="2.33322">
        <ele>111.1</ele>
        <time>2015-02-02T19:46:48.606Z</time>
      </trkpt>
      <trkpt lat="48.83414" lon="2.33323">
        <ele>111</ele>
        <time>2015-02-02T19:46:49.626Z</time>
      </trkpt>
      <trkpt lat="48.8341" lon="2.33327">
        <ele>110.6</ele>
        <time>2015-02-02T19:46:52.585Z</time>
      </trkpt>
      <trkpt lat="48.8341" lon="2.33328">
        <ele>110.4</ele>
        <time>2015-02-02T19:46:53.583Z</time>
      </trkpt>
      <trkpt lat="48.83409" lon="2.33329">
        <ele>110.2</ele>
        <time>2015-02-02T19:47:01.546Z</time>
      </trkpt>
      <trkpt lat="48.83408" lon="2.33339">
        <ele>108.1</ele>
        <time>2015-02-02T19:47:02.542Z</time>
      </trkpt>
      <trkpt lat="48.83402" lon="2.33346">
        <ele>107.5</ele>
        <time>2015-02-02T19:47:06.624Z</time>
      </trkpt>
      <trkpt lat="48.834" lon="2.33346">
        <ele>107.4</ele>
        <time>2015-02-02T19:47:07.543Z</time>
      </trkpt>
      <trkpt lat="48.83393" lon="2.33355">
        <ele>106.5</ele>
        <time>2015-02-02T19:47:12.546Z</time>
      </trkpt>
      <trkpt lat="48.83391" lon="2.33356">
        <ele>106.5</ele>
        <time>2015-02-02T19:47:13.601Z</time>
      </trkpt>
      <trkpt lat="48.83383" lon="2.33356">
        <ele>106.2</ele>
        <time>2015-02-02T19:47:17.622Z</time>
      </trkpt>
      <trkpt lat="48.83381" lon="2.33355">
        <ele>106.4</ele>
        <time>2015-02-02T19:47:18.545Z</time>
      </trkpt>
      <trkpt lat="48.83372" lon="2.33352">
        <ele>107.3</ele>
        <time>2015-02-02T19:47:22.630Z</time>
      </trkpt>
      <trkpt lat="48.8337" lon="2.33351">
        <ele>107.4</ele>
        <time>2015-02-02T19:47:23.530Z</time>
      </trkpt>
      <trkpt lat="48.83362" lon="2.33345">
        <ele>108</ele>
        <time>2015-02-02T19:47:27.580Z</time>
      </trkpt>
      <trkpt lat="48.83359" lon="2.33344">
        <ele>107.8</ele>
        <time>2015-02-02T19:47:28.668Z</time>
      </trkpt>
      <trkpt lat="48.83351" lon="2.33338">
        <ele>107.7</ele>
        <time>2015-02-02T19:47:31.545Z</time>
      </trkpt>
      <trkpt lat="48.83348" lon="2.33336">
        <ele>107.7</ele>
        <time>2015-02-02T19:47:32.549Z</time>
      </trkpt>
      <trkpt lat="48.8334" lon="2.33332">
        <ele>107.8</ele>
        <time>2015-02-02T19:47:35.541Z</time>
      </trkpt>
      <trkpt lat="48.83338" lon="2.3333">
        <ele>107.8</ele>
        <time>2015-02-02T19:47:36.542Z</time>
      </trkpt>
      <trkpt lat="48.8333" lon="2.33325">
        <ele>107.8</ele>
        <time>2015-02-02T19:47:40.624Z</time>
      </trkpt>
      <trkpt lat="48.83328" lon="2.33324">
        <ele>107.6</ele>
        <time>2015-02-02T19:47:41.509Z</time>
      </trkpt>
      <trkpt lat="48.83324" lon="2.33314">
        <ele>108.8</ele>
        <time>2015-02-02T19:47:46.663Z</time>
      </trkpt>
      <trkpt lat="48.83322" lon="2.33312">
        <ele>108.9</ele>
        <time>2015-02-02T19:47:47.511Z</time>
      </trkpt>
      <trkpt lat="48.83319" lon="2.33299">
        <ele>109.6</ele>
        <time>2015-02-02T19:47:52.636Z</time>
      </trkpt>
      <trkpt lat="48.83319" lon="2.33297">
        <ele>109.8</ele>
        <time>2015-02-02T19:47:53.540Z</time>
      </trkpt>
      <trkpt lat="48.83322" lon="2.33293">
        <ele>108.9</ele>
        <time>2015-02-02T19:47:58.638Z</time>
      </trkpt>
      <trkpt lat="48.83321" lon="2.33291">
        <ele>109.4</ele>
        <time>2015-02-02T19:47:59.541Z</time>
      </trkpt>
      <trkpt lat="48.83321" lon="2.33291">
        <ele>109.5</ele>
        <time>2015-02-02T19:48:25.520Z</time>
      </trkpt>
      <trkpt lat="48.83319" lon="2.33289">
        <ele>109.7</ele>
        <time>2015-02-02T19:48:26.534Z</time>
      </trkpt>
      <trkpt lat="48.83313" lon="2.33281">
        <ele>108.5</ele>
        <time>2015-02-02T19:48:30.524Z</time>
      </trkpt>
      <trkpt lat="48.8331" lon="2.33279">
        <ele>108.2</ele>
        <time>2015-02-02T19:48:31.521Z</time>
      </trkpt>
      <trkpt lat="48.83304" lon="2.33275">
        <ele>107.7</ele>
        <time>2015-02-02T19:48:36.524Z</time>
      </trkpt>
      <trkpt lat="48.83302" lon="2.33275">
        <ele>107.7</ele>
        <time>2015-02-02T19:48:37.526Z</time>
      </trkpt>
      <trkpt lat="48.83295" lon="2.33275">
        <ele>107.5</ele>
        <time>2015-02-02T19:48:39.586Z</time>
      </trkpt>
      <trkpt lat="48.83291" lon="2.33275">
        <ele>106.7</ele>
        <time>2015-02-02T19:48:40.592Z</time>
      </trkpt>
      <trkpt lat="48.83286" lon="2.33275">
        <ele>105.9</ele>
        <time>2015-02-02T19:48:41.515Z</time>
      </trkpt>
      <trkpt lat="48.83281" lon="2.33274">
        <ele>105.2</ele>
        <time>2015-02-02T19:48:42.521Z</time>
      </trkpt>
      <trkpt lat="48.83273" lon="2.33271">
        <ele>104.2</ele>
        <time>2015-02-02T19:48:44.559Z</time>
      </trkpt>
      <trkpt lat="48.83269" lon="2.3327">
        <ele>103.8</ele>
        <time>2015-02-02T19:48:45.581Z</time>
      </trkpt>
      <trkpt lat="48.83265" lon="2.33269">
        <ele>103.5</ele>
        <time>2015-02-02T19:48:46.612Z</time>
      </trkpt>
      <trkpt lat="48.8326" lon="2.33269">
        <ele>103.1</ele>
        <time>2015-02-02T19:48:47.521Z</time>
      </trkpt>
      <trkpt lat="48.83255" lon="2.33272">
        <ele>103</ele>
        <time>2015-02-02T19:48:48.585Z</time>
      </trkpt>
      <trkpt lat="48.83251" lon="2.33275">
        <ele>102.9</ele>
        <time>2015-02-02T19:48:49.559Z</time>
      </trkpt>
      <trkpt lat="48.83242" lon="2.33279">
        <ele>102.7</ele>
        <time>2015-02-02T19:48:51.532Z</time>
      </trkpt>
      <trkpt lat="48.83238" lon="2.33282">
        <ele>102.7</ele>
        <time>2015-02-02T19:48:52.566Z</time>
      </trkpt>
      <trkpt lat="48.83232" lon="2.33284">
        <ele>102.6</ele>
        <time>2015-02-02T19:48:53.590Z</time>
      </trkpt>
      <trkpt lat="48.83227" lon="2.33288">
        <ele>102.7</ele>
        <time>2015-02-02T19:48:54.595Z</time>
      </trkpt>
      <trkpt lat="48.83222" lon="2.33292">
        <ele>103</ele>
        <time>2015-02-02T19:48:55.529Z</time>
      </trkpt>
      <trkpt lat="48.83218" lon="2.33296">
        <ele>103</ele>
        <time>2015-02-02T19:48:56.541Z</time>
      </trkpt>
      <trkpt lat="48.83213" lon="2.333">
        <ele>103.1</ele>
        <time>2015-02-02T19:48:57.584Z</time>
      </trkpt>
      <trkpt lat="48.83208" lon="2.33304">
        <ele>103.1</ele>
        <time>2015-02-02T19:48:58.593Z</time>
      </trkpt>
      <trkpt lat="48.83204" lon="2.33306">
        <ele>103.1</ele>
        <time>2015-02-02T19:48:59.633Z</time>
      </trkpt>
      <trkpt lat="48.832" lon="2.33309">
        <ele>103</ele>
        <time>2015-02-02T19:49:00.504Z</time>
      </trkpt>
      <trkpt lat="48.83196" lon="2.33312">
        <ele>103.1</ele>
        <time>2015-02-02T19:49:01.546Z</time>
      </trkpt>
      <trkpt lat="48.83191" lon="2.33314">
        <ele>103</ele>
        <time>2015-02-02T19:49:02.553Z</time>
      </trkpt>
      <trkpt lat="48.83184" lon="2.33317">
        <ele>103.1</ele>
        <time>2015-02-02T19:49:04.626Z</time>
      </trkpt>
      <trkpt lat="48.83181" lon="2.3332">
        <ele>103.1</ele>
        <time>2015-02-02T19:49:05.597Z</time>
      </trkpt>
      <trkpt lat="48.83174" lon="2.33321">
        <ele>103.4</ele>
        <time>2015-02-02T19:49:07.586Z</time>
      </trkpt>
      <trkpt lat="48.8317" lon="2.33321">
        <ele>103.8</ele>
        <time>2015-02-02T19:49:08.573Z</time>
      </trkpt>
      <trkpt lat="48.83166" lon="2.3332">
        <ele>104</ele>
        <time>2015-02-02T19:49:09.605Z</time>
      </trkpt>
      <trkpt lat="48.8316" lon="2.3332">
        <ele>103.5</ele>
        <time>2015-02-02T19:49:10.633Z</time>
      </trkpt>
      <trkpt lat="48.83154" lon="2.33321">
        <ele>103.5</ele>
        <time>2015-02-02T19:49:11.518Z</time>
      </trkpt>
      <trkpt lat="48.83149" lon="2.33322">
        <ele>103.4</ele>
        <time>2015-02-02T19:49:12.519Z</time>
      </trkpt>
      <trkpt lat="48.83143" lon="2.33324">
        <ele>103.1</ele>
        <time>2015-02-02T19:49:13.542Z</time>
      </trkpt>
      <trkpt lat="48.83138" lon="2.33326">
        <ele>102.9</ele>
        <time>2015-02-02T19:49:14.557Z</time>
      </trkpt>
      <trkpt lat="48.83132" lon="2.3333">
        <ele>102.8</ele>
        <time>2015-02-02T19:49:15.566Z</time>
      </trkpt>
      <trkpt lat="48.83127" lon="2.33336">
        <ele>102.9</ele>
        <time>2015-02-02T19:49:16.606Z</time>
      </trkpt>
      <trkpt lat="48.83121" lon="2.33344">
        <ele>102.9</ele>
        <time>2015-02-02T19:49:17.586Z</time>
      </trkpt>
      <trkpt lat="48.83116" lon="2.33351">
        <ele>102.9</ele>
        <time>2015-02-02T19:49:18.605Z</time>
      </trkpt>
      <trkpt lat="48.8311" lon="2.33359">
        <ele>103.1</ele>
        <time>2015-02-02T19:49:19.526Z</time>
      </trkpt>
      <trkpt lat="48.83104" lon="2.33366">
        <ele>103</ele>
        <time>2015-02-02T19:49:20.537Z</time>
      </trkpt>
      <trkpt lat="48.83099" lon="2.33372">
        <ele>102.9</ele>
        <time>2015-02-02T19:49:21.632Z</time>
      </trkpt>
      <trkpt lat="48.83094" lon="2.33376">
        <ele>102.8</ele>
        <time>2015-02-02T19:49:22.655Z</time>
      </trkpt>
      <trkpt lat="48.8309" lon="2.33379">
        <ele>103</ele>
        <time>2015-02-02T19:49:23.561Z</time>
      </trkpt>
      <trkpt lat="48.83085" lon="2.33382">
        <ele>102.9</ele>
        <time>2015-02-02T19:49:24.572Z</time>
      </trkpt>
      <trkpt lat="48.8308" lon="2.33385">
        <ele>102.9</ele>
        <time>2015-02-02T19:49:25.583Z</time>
      </trkpt>
      <trkpt lat="48.83075" lon="2.33386">
        <ele>102.7</ele>
        <time>2015-02-02T19:49:26.615Z</time>
      </trkpt>
      <trkpt lat="48.8307" lon="2.33386">
        <ele>102.5</ele>
        <time>2015-02-02T19:49:27.531Z</time>
      </trkpt>
      <trkpt lat="48.83066" lon="2.33387">
        <ele>102.4</ele>
        <time>2015-02-02T19:49:28.565Z</time>
      </trkpt>
      <trkpt lat="48.83058" lon="2.33388">
        <ele>102.7</ele>
        <time>2015-02-02T19:49:30.540Z</time>
      </trkpt>
      <trkpt lat="48.83053" lon="2.33387">
        <ele>103.2</ele>
        <time>2015-02-02T19:49:31.557Z</time>
      </trkpt>
      <trkpt lat="48.83045" lon="2.33386">
        <ele>103.9</ele>
        <time>2015-02-02T19:49:33.525Z</time>
      </trkpt>
      <trkpt lat="48.83042" lon="2.33388">
        <ele>104.2</ele>
        <time>2015-02-02T19:49:34.582Z</time>
      </trkpt>
      <trkpt lat="48.83034" lon="2.33392">
        <ele>104.7</ele>
        <time>2015-02-02T19:49:36.506Z</time>
      </trkpt>
      <trkpt lat="48.83029" lon="2.33394">
        <ele>105</ele>
        <time>2015-02-02T19:49:37.548Z</time>
      </trkpt>
      <trkpt lat="48.83024" lon="2.33396">
        <ele>105.3</ele>
        <time>2015-02-02T19:49:38.563Z</time>
      </trkpt>
      <trkpt lat="48.8302" lon="2.33398">
        <ele>105.5</ele>
        <time>2015-02-02T19:49:39.604Z</time>
      </trkpt>
      <trkpt lat="48.83012" lon="2.33399">
        <ele>106.4</ele>
        <time>2015-02-02T19:49:41.590Z</time>
      </trkpt>
      <trkpt lat="48.83009" lon="2.33399">
        <ele>106.7</ele>
        <time>2015-02-02T19:49:42.521Z</time>
      </trkpt>
      <trkpt lat="48.83004" lon="2.33399">
        <ele>106.8</ele>
        <time>2015-02-02T19:49:43.541Z</time>
      </trkpt>
      <trkpt lat="48.82999" lon="2.334">
        <ele>106.8</ele>
        <time>2015-02-02T19:49:44.546Z</time>
      </trkpt>
      <trkpt lat="48.82994" lon="2.334">
        <ele>106.7</ele>
        <time>2015-02-02T19:49:45.565Z</time>
      </trkpt>
      <trkpt lat="48.8299" lon="2.33401">
        <ele>106.7</ele>
        <time>2015-02-02T19:49:46.582Z</time>
      </trkpt>
      <trkpt lat="48.82982" lon="2.33405">
        <ele>107.2</ele>
        <time>2015-02-02T19:49:48.599Z</time>
      </trkpt>
      <trkpt lat="48.82978" lon="2.33408">
        <ele>107.4</ele>
        <time>2015-02-02T19:49:49.517Z</time>
      </trkpt>
      <trkpt lat="48.82972" lon="2.33414">
        <ele>107.5</ele>
        <time>2015-02-02T19:49:51.504Z</time>
      </trkpt>
      <trkpt lat="48.82969" lon="2.33417">
        <ele>107.7</ele>
        <time>2015-02-02T19:49:52.559Z</time>
      </trkpt>
      <trkpt lat="48.82961" lon="2.33421">
        <ele>107.8</ele>
        <time>2015-02-02T19:49:54.547Z</time>
      </trkpt>
      <trkpt lat="48.82957" lon="2.33424">
        <ele>107.8</ele>
        <time>2015-02-02T19:49:55.580Z</time>
      </trkpt>
      <trkpt lat="48.82953" lon="2.33426">
        <ele>107.9</ele>
        <time>2015-02-02T19:49:56.507Z</time>
      </trkpt>
      <trkpt lat="48.82948" lon="2.3343">
        <ele>107.8</ele>
        <time>2015-02-02T19:49:57.509Z</time>
      </trkpt>
      <trkpt lat="48.82943" lon="2.33433">
        <ele>107.7</ele>
        <time>2015-02-02T19:49:58.536Z</time>
      </trkpt>
      <trkpt lat="48.82938" lon="2.33436">
        <ele>107.7</ele>
        <time>2015-02-02T19:49:59.541Z</time>
      </trkpt>
      <trkpt lat="48.82934" lon="2.33439">
        <ele>107.6</ele>
        <time>2015-02-02T19:50:00.547Z</time>
      </trkpt>
      <trkpt lat="48.82929" lon="2.33441">
        <ele>107.5</ele>
        <time>2015-02-02T19:50:01.563Z</time>
      </trkpt>
      <trkpt lat="48.82924" lon="2.33442">
        <ele>107.5</ele>
        <time>2015-02-02T19:50:02.506Z</time>
      </trkpt>
      <trkpt lat="48.8292" lon="2.33444">
        <ele>107.5</ele>
        <time>2015-02-02T19:50:03.505Z</time>
      </trkpt>
      <trkpt lat="48.82911" lon="2.33447">
        <ele>107.5</ele>
        <time>2015-02-02T19:50:05.573Z</time>
      </trkpt>
      <trkpt lat="48.82907" lon="2.33449">
        <ele>107.7</ele>
        <time>2015-02-02T19:50:06.613Z</time>
      </trkpt>
      <trkpt lat="48.82899" lon="2.33453">
        <ele>108.4</ele>
        <time>2015-02-02T19:50:08.526Z</time>
      </trkpt>
      <trkpt lat="48.82895" lon="2.33456">
        <ele>108.6</ele>
        <time>2015-02-02T19:50:09.593Z</time>
      </trkpt>
      <trkpt lat="48.8289" lon="2.3346">
        <ele>108.9</ele>
        <time>2015-02-02T19:50:10.632Z</time>
      </trkpt>
      <trkpt lat="48.82886" lon="2.33464">
        <ele>109.2</ele>
        <time>2015-02-02T19:50:11.533Z</time>
      </trkpt>
      <trkpt lat="48.82882" lon="2.33468">
        <ele>109.3</ele>
        <time>2015-02-02T19:50:12.550Z</time>
      </trkpt>
      <trkpt lat="48.82877" lon="2.3347">
        <ele>109.6</ele>
        <time>2015-02-02T19:50:13.549Z</time>
      </trkpt>
      <trkpt lat="48.82873" lon="2.33472">
        <ele>109.7</ele>
        <time>2015-02-02T19:50:14.569Z</time>
      </trkpt>
      <trkpt lat="48.82869" lon="2.33474">
        <ele>109.8</ele>
        <time>2015-02-02T19:50:15.573Z</time>
      </trkpt>
      <trkpt lat="48.82861" lon="2.33475">
        <ele>110.4</ele>
        <time>2015-02-02T19:50:17.593Z</time>
      </trkpt>
      <trkpt lat="48.82857" lon="2.33475">
        <ele>110.6</ele>
        <time>2015-02-02T19:50:18.508Z</time>
      </trkpt>
      <trkpt lat="48.82849" lon="2.33478">
        <ele>110.8</ele>
        <time>2015-02-02T19:50:20.522Z</time>
      </trkpt>
      <trkpt lat="48.82845" lon="2.3348">
        <ele>111.1</ele>
        <time>2015-02-02T19:50:21.538Z</time>
      </trkpt>
      <trkpt lat="48.82839" lon="2.33483">
        <ele>111.1</ele>
        <time>2015-02-02T19:50:22.572Z</time>
      </trkpt>
      <trkpt lat="48.82834" lon="2.33485">
        <ele>111.1</ele>
        <time>2015-02-02T19:50:23.589Z</time>
      </trkpt>
      <trkpt lat="48.82826" lon="2.33486">
        <ele>110.6</ele>
        <time>2015-02-02T19:50:24.690Z</time>
      </trkpt>
      <trkpt lat="48.82817" lon="2.33487">
        <ele>110.4</ele>
        <time>2015-02-02T19:50:25.528Z</time>
      </trkpt>
      <trkpt lat="48.82811" lon="2.33488">
        <ele>110.2</ele>
        <time>2015-02-02T19:50:26.567Z</time>
      </trkpt>
      <trkpt lat="48.82805" lon="2.33489">
        <ele>110</ele>
        <time>2015-02-02T19:50:27.572Z</time>
      </trkpt>
      <trkpt lat="48.82798" lon="2.33489">
        <ele>109.6</ele>
        <time>2015-02-02T19:50:28.596Z</time>
      </trkpt>
      <trkpt lat="48.82793" lon="2.3349">
        <ele>109.5</ele>
        <time>2015-02-02T19:50:29.510Z</time>
      </trkpt>
      <trkpt lat="48.82787" lon="2.3349">
        <ele>109.1</ele>
        <time>2015-02-02T19:50:30.509Z</time>
      </trkpt>
      <trkpt lat="48.82783" lon="2.3349">
        <ele>108.9</ele>
        <time>2015-02-02T19:50:31.522Z</time>
      </trkpt>
      <trkpt lat="48.82774" lon="2.33493">
        <ele>108</ele>
        <time>2015-02-02T19:50:33.547Z</time>
      </trkpt>
      <trkpt lat="48.8277" lon="2.33496">
        <ele>107.5</ele>
        <time>2015-02-02T19:50:34.649Z</time>
      </trkpt>
      <trkpt lat="48.82761" lon="2.33496">
        <ele>107.4</ele>
        <time>2015-02-02T19:50:36.512Z</time>
      </trkpt>
      <trkpt lat="48.82757" lon="2.33496">
        <ele>107.3</ele>
        <time>2015-02-02T19:50:37.541Z</time>
      </trkpt>
      <trkpt lat="48.82749" lon="2.33498">
        <ele>107.6</ele>
        <time>2015-02-02T19:50:39.505Z</time>
      </trkpt>
      <trkpt lat="48.82745" lon="2.33498">
        <ele>108.2</ele>
        <time>2015-02-02T19:50:40.550Z</time>
      </trkpt>
      <trkpt lat="48.82738" lon="2.33502">
        <ele>110.1</ele>
        <time>2015-02-02T19:50:42.565Z</time>
      </trkpt>
      <trkpt lat="48.82736" lon="2.33502">
        <ele>110.3</ele>
        <time>2015-02-02T19:50:43.584Z</time>
      </trkpt>
      <trkpt lat="48.82732" lon="2.33496">
        <ele>112.6</ele>
        <time>2015-02-02T19:50:49.527Z</time>
      </trkpt>
      <trkpt lat="48.82732" lon="2.33497">
        <ele>112.8</ele>
        <time>2015-02-02T19:50:50.561Z</time>
      </trkpt>
      <trkpt lat="48.82731" lon="2.33498">
        <ele>112.9</ele>
        <time>2015-02-02T19:50:51.599Z</time>
      </trkpt>
      <trkpt lat="48.82724" lon="2.33504">
        <ele>113.9</ele>
        <time>2015-02-02T19:50:58.606Z</time>
      </trkpt>
      <trkpt lat="48.82722" lon="2.33505">
        <ele>114</ele>
        <time>2015-02-02T19:50:59.527Z</time>
      </trkpt>
      <trkpt lat="48.8272" lon="2.33505">
        <ele>114.1</ele>
        <time>2015-02-02T19:51:04.408Z</time>
      </trkpt>
      <trkpt lat="48.8272" lon="2.33505">
        <ele>114.3</ele>
        <time>2015-02-02T19:51:04.599Z</time>
      </trkpt>
      <trkpt lat="48.82721" lon="2.33506">
        <ele>114.4</ele>
        <time>2015-02-02T19:51:14.503Z</time>
      </trkpt>
      <trkpt lat="48.8272" lon="2.33507">
        <ele>116.4</ele>
        <time>2015-02-02T19:51:15.545Z</time>
      </trkpt>
      <trkpt lat="48.82719" lon="2.33494">
        <ele>115</ele>
        <time>2015-02-02T19:51:21.877Z</time>
      </trkpt>
      <trkpt lat="48.82718" lon="2.33493">
        <ele>114.8</ele>
        <time>2015-02-02T19:51:22.549Z</time>
      </trkpt>
      <trkpt lat="48.8271" lon="2.33492">
        <ele>114.5</ele>
        <time>2015-02-02T19:51:30.625Z</time>
      </trkpt>
      <trkpt lat="48.82707" lon="2.33493">
        <ele>114.7</ele>
        <time>2015-02-02T19:51:32.541Z</time>
      </trkpt>
      <trkpt lat="48.82701" lon="2.33496">
        <ele>114.4</ele>
        <time>2015-02-02T19:51:36.937Z</time>
      </trkpt>
      <trkpt lat="48.82698" lon="2.33496">
        <ele>114.4</ele>
        <time>2015-02-02T19:51:37.586Z</time>
      </trkpt>
      <trkpt lat="48.82692" lon="2.33494">
        <ele>114.6</ele>
        <time>2015-02-02T19:51:40.545Z</time>
      </trkpt>
      <trkpt lat="48.82689" lon="2.33493">
        <ele>114.6</ele>
        <time>2015-02-02T19:51:41.610Z</time>
      </trkpt>
      <trkpt lat="48.82683" lon="2.33487">
        <ele>113.6</ele>
        <time>2015-02-02T19:51:43.556Z</time>
      </trkpt>
      <trkpt lat="48.82681" lon="2.33485">
        <ele>113.5</ele>
        <time>2015-02-02T19:51:44.564Z</time>
      </trkpt>
      <trkpt lat="48.82675" lon="2.33478">
        <ele>113</ele>
        <time>2015-02-02T19:51:48.043Z</time>
      </trkpt>
      <trkpt lat="48.82674" lon="2.33473">
        <ele>112.4</ele>
        <time>2015-02-02T19:51:48.530Z</time>
      </trkpt>
      <trkpt lat="48.82669" lon="2.33467">
        <ele>111.1</ele>
        <time>2015-02-02T19:51:51.581Z</time>
      </trkpt>
      <trkpt lat="48.82663" lon="2.33467">
        <ele>109.4</ele>
        <time>2015-02-02T19:51:52.601Z</time>
      </trkpt>
      <trkpt lat="48.82654" lon="2.33467">
        <ele>107.8</ele>
        <time>2015-02-02T19:51:54.600Z</time>
      </trkpt>
      <trkpt lat="48.82651" lon="2.33467">
        <ele>107.1</ele>
        <time>2015-02-02T19:51:55.546Z</time>
      </trkpt>
      <trkpt lat="48.82644" lon="2.33468">
        <ele>106.3</ele>
        <time>2015-02-02T19:51:58.084Z</time>
      </trkpt>
      <trkpt lat="48.8264" lon="2.33467">
        <ele>105.9</ele>
        <time>2015-02-02T19:51:58.586Z</time>
      </trkpt>
      <trkpt lat="48.82633" lon="2.33467">
        <ele>105.6</ele>
        <time>2015-02-02T19:52:00.483Z</time>
      </trkpt>
      <trkpt lat="48.82629" lon="2.33467">
        <ele>105.3</ele>
        <time>2015-02-02T19:52:01.486Z</time>
      </trkpt>
      <trkpt lat="48.82621" lon="2.33466">
        <ele>104.6</ele>
        <time>2015-02-02T19:52:03.590Z</time>
      </trkpt>
      <trkpt lat="48.82617" lon="2.33466">
        <ele>104.5</ele>
        <time>2015-02-02T19:52:04.612Z</time>
      </trkpt>
      <trkpt lat="48.82611" lon="2.33463">
        <ele>104.6</ele>
        <time>2015-02-02T19:52:06.513Z</time>
      </trkpt>
      <trkpt lat="48.82608" lon="2.33462">
        <ele>104.7</ele>
        <time>2015-02-02T19:52:07.524Z</time>
      </trkpt>
      <trkpt lat="48.826" lon="2.33457">
        <ele>105</ele>
        <time>2015-02-02T19:52:10.523Z</time>
      </trkpt>
      <trkpt lat="48.82597" lon="2.33456">
        <ele>105.2</ele>
        <time>2015-02-02T19:52:11.510Z</time>
      </trkpt>
      <trkpt lat="48.82594" lon="2.33455">
        <ele>105.2</ele>
        <time>2015-02-02T19:52:13.552Z</time>
      </trkpt>
      <trkpt lat="48.82586" lon="2.33453">
        <ele>105.2</ele>
        <time>2015-02-02T19:52:15.516Z</time>
      </trkpt>
      <trkpt lat="48.82579" lon="2.33453">
        <ele>104.8</ele>
        <time>2015-02-02T19:52:18.573Z</time>
      </trkpt>
      <trkpt lat="48.82577" lon="2.33453">
        <ele>104.8</ele>
        <time>2015-02-02T19:52:19.534Z</time>
      </trkpt>
      <trkpt lat="48.82576" lon="2.33452">
        <ele>104</ele>
        <time>2015-02-02T19:52:23.768Z</time>
      </trkpt>
      <trkpt lat="48.82576" lon="2.33451">
        <ele>103.9</ele>
        <time>2015-02-02T19:52:24.601Z</time>
      </trkpt>
      <trkpt lat="48.82576" lon="2.33451">
        <ele>103.9</ele>
        <time>2015-02-02T19:52:31.599Z</time>
      </trkpt>
      <trkpt lat="48.82575" lon="2.33454">
        <ele>104</ele>
        <time>2015-02-02T19:52:32.570Z</time>
      </trkpt>
      <trkpt lat="48.82571" lon="2.33465">
        <ele>105.4</ele>
        <time>2015-02-02T19:52:41.534Z</time>
      </trkpt>
      <trkpt lat="48.8257" lon="2.33468">
        <ele>105.9</ele>
        <time>2015-02-02T19:52:42.654Z</time>
      </trkpt>
      <trkpt lat="48.82567" lon="2.33479">
        <ele>106.4</ele>
        <time>2015-02-02T19:52:46.575Z</time>
      </trkpt>
      <trkpt lat="48.82565" lon="2.33482">
        <ele>106.4</ele>
        <time>2015-02-02T19:52:47.587Z</time>
      </trkpt>
      <trkpt lat="48.82561" lon="2.33494">
        <ele>106.8</ele>
        <time>2015-02-02T19:52:50.586Z</time>
      </trkpt>
      <trkpt lat="48.82561" lon="2.33498">
        <ele>106.8</ele>
        <time>2015-02-02T19:52:51.597Z</time>
      </trkpt>
      <trkpt lat="48.82559" lon="2.33509">
        <ele>107.1</ele>
        <time>2015-02-02T19:52:54.565Z</time>
      </trkpt>
      <trkpt lat="48.82558" lon="2.33513">
        <ele>107</ele>
        <time>2015-02-02T19:52:55.578Z</time>
      </trkpt>
      <trkpt lat="48.82553" lon="2.33518">
        <ele>106.6</ele>
        <time>2015-02-02T19:52:58.566Z</time>
      </trkpt>
      <trkpt lat="48.82549" lon="2.33519">
        <ele>106.6</ele>
        <time>2015-02-02T19:52:59.581Z</time>
      </trkpt>
      <trkpt lat="48.82541" lon="2.33519">
        <ele>106.5</ele>
        <time>2015-02-02T19:53:01.519Z</time>
      </trkpt>
      <trkpt lat="48.82537" lon="2.33519">
        <ele>106.5</ele>
        <time>2015-02-02T19:53:02.548Z</time>
      </trkpt>
      <trkpt lat="48.82532" lon="2.3352">
        <ele>106.4</ele>
        <time>2015-02-02T19:53:03.561Z</time>
      </trkpt>
      <trkpt lat="48.82527" lon="2.3352">
        <ele>106.3</ele>
        <time>2015-02-02T19:53:04.621Z</time>
      </trkpt>
      <trkpt lat="48.82522" lon="2.33522">
        <ele>106.5</ele>
        <time>2015-02-02T19:53:05.515Z</time>
      </trkpt>
      <trkpt lat="48.82517" lon="2.33525">
        <ele>106.6</ele>
        <time>2015-02-02T19:53:06.519Z</time>
      </trkpt>
      <trkpt lat="48.82512" lon="2.33528">
        <ele>106.7</ele>
        <time>2015-02-02T19:53:07.523Z</time>
      </trkpt>
      <trkpt lat="48.82507" lon="2.3353">
        <ele>106.9</ele>
        <time>2015-02-02T19:53:08.547Z</time>
      </trkpt>
      <trkpt lat="48.82501" lon="2.33533">
        <ele>106.9</ele>
        <time>2015-02-02T19:53:09.542Z</time>
      </trkpt>
      <trkpt lat="48.82496" lon="2.33535">
        <ele>106.9</ele>
        <time>2015-02-02T19:53:10.553Z</time>
      </trkpt>
      <trkpt lat="48.8249" lon="2.33536">
        <ele>107.1</ele>
        <time>2015-02-02T19:53:11.567Z</time>
      </trkpt>
      <trkpt lat="48.82485" lon="2.33538">
        <ele>107.2</ele>
        <time>2015-02-02T19:53:12.580Z</time>
      </trkpt>
      <trkpt lat="48.8248" lon="2.3354">
        <ele>107.4</ele>
        <time>2015-02-02T19:53:13.602Z</time>
      </trkpt>
      <trkpt lat="48.82474" lon="2.33542">
        <ele>107.4</ele>
        <time>2015-02-02T19:53:14.607Z</time>
      </trkpt>
      <trkpt lat="48.82469" lon="2.33546">
        <ele>107.5</ele>
        <time>2015-02-02T19:53:15.586Z</time>
      </trkpt>
      <trkpt lat="48.82464" lon="2.33549">
        <ele>107.6</ele>
        <time>2015-02-02T19:53:16.562Z</time>
      </trkpt>
      <trkpt lat="48.8246" lon="2.33553">
        <ele>107.6</ele>
        <time>2015-02-02T19:53:17.526Z</time>
      </trkpt>
      <trkpt lat="48.82456" lon="2.33557">
        <ele>107.7</ele>
        <time>2015-02-02T19:53:18.535Z</time>
      </trkpt>
      <trkpt lat="48.82449" lon="2.33562">
        <ele>108.1</ele>
        <time>2015-02-02T19:53:20.547Z</time>
      </trkpt>
      <trkpt lat="48.82446" lon="2.33564">
        <ele>108.1</ele>
        <time>2015-02-02T19:53:21.574Z</time>
      </trkpt>
      <trkpt lat="48.82437" lon="2.33567">
        <ele>108</ele>
        <time>2015-02-02T19:53:24.522Z</time>
      </trkpt>
      <trkpt lat="48.82434" lon="2.33568">
        <ele>107.9</ele>
        <time>2015-02-02T19:53:25.525Z</time>
      </trkpt>
      <trkpt lat="48.82429" lon="2.33562">
        <ele>109.9</ele>
        <time>2015-02-02T19:53:31.515Z</time>
      </trkpt>
      <trkpt lat="48.82427" lon="2.33559">
        <ele>110.6</ele>
        <time>2015-02-02T19:53:32.582Z</time>
      </trkpt>
      <trkpt lat="48.82424" lon="2.33549">
        <ele>111.5</ele>
        <time>2015-02-02T19:53:34.623Z</time>
      </trkpt>
      <trkpt lat="48.82422" lon="2.33544">
        <ele>111.6</ele>
        <time>2015-02-02T19:53:35.512Z</time>
      </trkpt>
      <trkpt lat="48.82421" lon="2.33537">
        <ele>111.9</ele>
        <time>2015-02-02T19:53:36.535Z</time>
      </trkpt>
      <trkpt lat="48.82419" lon="2.33531">
        <ele>112</ele>
        <time>2015-02-02T19:53:37.587Z</time>
      </trkpt>
      <trkpt lat="48.82417" lon="2.33518">
        <ele>111.8</ele>
        <time>2015-02-02T19:53:39.507Z</time>
      </trkpt>
      <trkpt lat="48.82416" lon="2.33512">
        <ele>111.8</ele>
        <time>2015-02-02T19:53:40.652Z</time>
      </trkpt>
      <trkpt lat="48.82415" lon="2.33506">
        <ele>111.9</ele>
        <time>2015-02-02T19:53:41.506Z</time>
      </trkpt>
      <trkpt lat="48.82414" lon="2.33499">
        <ele>111.8</ele>
        <time>2015-02-02T19:53:42.547Z</time>
      </trkpt>
      <trkpt lat="48.82412" lon="2.33492">
        <ele>112</ele>
        <time>2015-02-02T19:53:43.521Z</time>
      </trkpt>
      <trkpt lat="48.8241" lon="2.33485">
        <ele>112.1</ele>
        <time>2015-02-02T19:53:44.574Z</time>
      </trkpt>
      <trkpt lat="48.82408" lon="2.33478">
        <ele>112.2</ele>
        <time>2015-02-02T19:53:45.978Z</time>
      </trkpt>
      <trkpt lat="48.82406" lon="2.33472">
        <ele>112.3</ele>
        <time>2015-02-02T19:53:46.548Z</time>
      </trkpt>
      <trkpt lat="48.82404" lon="2.33461">
        <ele>112.6</ele>
        <time>2015-02-02T19:53:48.563Z</time>
      </trkpt>
      <trkpt lat="48.82403" lon="2.33456">
        <ele>112.8</ele>
        <time>2015-02-02T19:53:49.572Z</time>
      </trkpt>
      <trkpt lat="48.82401" lon="2.33443">
        <ele>113.3</ele>
        <time>2015-02-02T19:53:51.514Z</time>
      </trkpt>
      <trkpt lat="48.82398" lon="2.33436">
        <ele>113.4</ele>
        <time>2015-02-02T19:53:52.574Z</time>
      </trkpt>
      <trkpt lat="48.82396" lon="2.3343">
        <ele>113.5</ele>
        <time>2015-02-02T19:53:53.482Z</time>
      </trkpt>
      <trkpt lat="48.82393" lon="2.33424">
        <ele>113.7</ele>
        <time>2015-02-02T19:53:54.511Z</time>
      </trkpt>
      <trkpt lat="48.82392" lon="2.33417">
        <ele>113.9</ele>
        <time>2015-02-02T19:53:55.506Z</time>
      </trkpt>
      <trkpt lat="48.8239" lon="2.3341">
        <ele>113.9</ele>
        <time>2015-02-02T19:53:56.517Z</time>
      </trkpt>
      <trkpt lat="48.82389" lon="2.33401">
        <ele>113.4</ele>
        <time>2015-02-02T19:53:58.246Z</time>
      </trkpt>
      <trkpt lat="48.82388" lon="2.33394">
        <ele>113.5</ele>
        <time>2015-02-02T19:53:58.537Z</time>
      </trkpt>
      <trkpt lat="48.82387" lon="2.3338">
        <ele>113.5</ele>
        <time>2015-02-02T19:54:00.497Z</time>
      </trkpt>
      <trkpt lat="48.82386" lon="2.33372">
        <ele>113.1</ele>
        <time>2015-02-02T19:54:01.581Z</time>
      </trkpt>
      <trkpt lat="48.82384" lon="2.33365">
        <ele>112.8</ele>
        <time>2015-02-02T19:54:03.303Z</time>
      </trkpt>
      <trkpt lat="48.82382" lon="2.33358">
        <ele>112.3</ele>
        <time>2015-02-02T19:54:03.485Z</time>
      </trkpt>
      <trkpt lat="48.82381" lon="2.33352">
        <ele>112.1</ele>
        <time>2015-02-02T19:54:04.556Z</time>
      </trkpt>
      <trkpt lat="48.8238" lon="2.33344">
        <ele>111.8</ele>
        <time>2015-02-02T19:54:05.613Z</time>
      </trkpt>
      <trkpt lat="48.8238" lon="2.33336">
        <ele>111.2</ele>
        <time>2015-02-02T19:54:06.601Z</time>
      </trkpt>
      <trkpt lat="48.82379" lon="2.33328">
        <ele>110.9</ele>
        <time>2015-02-02T19:54:07.623Z</time>
      </trkpt>
      <trkpt lat="48.82378" lon="2.33319">
        <ele>110.8</ele>
        <time>2015-02-02T19:54:08.475Z</time>
      </trkpt>
      <trkpt lat="48.82377" lon="2.33311">
        <ele>110.5</ele>
        <time>2015-02-02T19:54:09.498Z</time>
      </trkpt>
      <trkpt lat="48.82376" lon="2.33302">
        <ele>110.5</ele>
        <time>2015-02-02T19:54:10.511Z</time>
      </trkpt>
      <trkpt lat="48.82374" lon="2.33293">
        <ele>110.5</ele>
        <time>2015-02-02T19:54:11.521Z</time>
      </trkpt>
      <trkpt lat="48.82373" lon="2.33283">
        <ele>109.8</ele>
        <time>2015-02-02T19:54:13.417Z</time>
      </trkpt>
      <trkpt lat="48.82372" lon="2.33274">
        <ele>109.6</ele>
        <time>2015-02-02T19:54:13.528Z</time>
      </trkpt>
      <trkpt lat="48.82372" lon="2.33266">
        <ele>109.4</ele>
        <time>2015-02-02T19:54:14.541Z</time>
      </trkpt>
      <trkpt lat="48.82371" lon="2.33258">
        <ele>109.5</ele>
        <time>2015-02-02T19:54:15.552Z</time>
      </trkpt>
      <trkpt lat="48.82371" lon="2.33249">
        <ele>109.6</ele>
        <time>2015-02-02T19:54:16.558Z</time>
      </trkpt>
      <trkpt lat="48.8237" lon="2.33241">
        <ele>109.4</ele>
        <time>2015-02-02T19:54:17.564Z</time>
      </trkpt>
      <trkpt lat="48.8237" lon="2.33232">
        <ele>109.4</ele>
        <time>2015-02-02T19:54:18.566Z</time>
      </trkpt>
      <trkpt lat="48.8237" lon="2.33225">
        <ele>109.8</ele>
        <time>2015-02-02T19:54:19.574Z</time>
      </trkpt>
      <trkpt lat="48.82369" lon="2.33217">
        <ele>110.4</ele>
        <time>2015-02-02T19:54:20.503Z</time>
      </trkpt>
      <trkpt lat="48.82369" lon="2.3321">
        <ele>110.8</ele>
        <time>2015-02-02T19:54:21.505Z</time>
      </trkpt>
      <trkpt lat="48.82371" lon="2.33197">
        <ele>112.2</ele>
        <time>2015-02-02T19:54:23.647Z</time>
      </trkpt>
      <trkpt lat="48.82373" lon="2.33191">
        <ele>112.6</ele>
        <time>2015-02-02T19:54:24.505Z</time>
      </trkpt>
      <trkpt lat="48.82376" lon="2.33179">
        <ele>113.8</ele>
        <time>2015-02-02T19:54:26.602Z</time>
      </trkpt>
      <trkpt lat="48.82378" lon="2.33173">
        <ele>114.2</ele>
        <time>2015-02-02T19:54:27.516Z</time>
      </trkpt>
      <trkpt lat="48.8238" lon="2.33163">
        <ele>114.6</ele>
        <time>2015-02-02T19:54:29.530Z</time>
      </trkpt>
      <trkpt lat="48.82381" lon="2.33157">
        <ele>114.6</ele>
        <time>2015-02-02T19:54:30.551Z</time>
      </trkpt>
      <trkpt lat="48.82384" lon="2.33148">
        <ele>114.5</ele>
        <time>2015-02-02T19:54:32.570Z</time>
      </trkpt>
      <trkpt lat="48.82384" lon="2.33143">
        <ele>114.5</ele>
        <time>2015-02-02T19:54:33.575Z</time>
      </trkpt>
      <trkpt lat="48.82387" lon="2.33133">
        <ele>114.8</ele>
        <time>2015-02-02T19:54:35.515Z</time>
      </trkpt>
      <trkpt lat="48.82388" lon="2.33128">
        <ele>114.9</ele>
        <time>2015-02-02T19:54:36.513Z</time>
      </trkpt>
      <trkpt lat="48.82391" lon="2.33117">
        <ele>115.2</ele>
        <time>2015-02-02T19:54:39.525Z</time>
      </trkpt>
      <trkpt lat="48.82391" lon="2.33113">
        <ele>115.3</ele>
        <time>2015-02-02T19:54:40.538Z</time>
      </trkpt>
      <trkpt lat="48.82392" lon="2.33108">
        <ele>116.2</ele>
        <time>2015-02-02T19:54:43.526Z</time>
      </trkpt>
      <trkpt lat="48.82392" lon="2.33108">
        <ele>116</ele>
        <time>2015-02-02T19:54:44.562Z</time>
      </trkpt>
      <trkpt lat="48.82392" lon="2.33107">
        <ele>116.1</ele>
        <time>2015-02-02T19:54:54.602Z</time>
      </trkpt>
      <trkpt lat="48.82392" lon="2.33107">
        <ele>116.7</ele>
        <time>2015-02-02T19:54:55.511Z</time>
      </trkpt>
      <trkpt lat="48.82392" lon="2.33107">
        <ele>116.7</ele>
        <time>2015-02-02T19:54:56.549Z</time>
      </trkpt>
      <trkpt lat="48.82392" lon="2.33108">
        <ele>116.5</ele>
        <time>2015-02-02T19:54:57.593Z</time>
      </trkpt>
      <trkpt lat="48.82392" lon="2.33108">
        <ele>116.6</ele>
        <time>2015-02-02T19:54:58.536Z</time>
      </trkpt>
      <trkpt lat="48.82392" lon="2.33108">
        <ele>116.7</ele>
        <time>2015-02-02T19:54:59.490Z</time>
      </trkpt>
      <trkpt lat="48.82391" lon="2.33108">
        <ele>116.9</ele>
        <time>2015-02-02T19:55:00.500Z</time>
      </trkpt>
      <trkpt lat="48.82392" lon="2.33108">
        <ele>116.9</ele>
        <time>2015-02-02T19:55:15.518Z</time>
      </trkpt>
      <trkpt lat="48.82393" lon="2.33107">
        <ele>117.5</ele>
        <time>2015-02-02T19:55:16.550Z</time>
      </trkpt>
      <trkpt lat="48.82397" lon="2.33097">
        <ele>119.6</ele>
        <time>2015-02-02T19:55:23.593Z</time>
      </trkpt>
      <trkpt lat="48.82398" lon="2.33094">
        <ele>119.5</ele>
        <time>2015-02-02T19:55:24.590Z</time>
      </trkpt>
      <trkpt lat="48.82402" lon="2.33083">
        <ele>119</ele>
        <time>2015-02-02T19:55:28.606Z</time>
      </trkpt>
      <trkpt lat="48.82403" lon="2.33079">
        <ele>118.6</ele>
        <time>2015-02-02T19:55:29.582Z</time>
      </trkpt>
      <trkpt lat="48.82404" lon="2.33067">
        <ele>118.4</ele>
        <time>2015-02-02T19:55:32.539Z</time>
      </trkpt>
      <trkpt lat="48.82404" lon="2.33063">
        <ele>118.2</ele>
        <time>2015-02-02T19:55:33.557Z</time>
      </trkpt>
      <trkpt lat="48.82407" lon="2.33054">
        <ele>118.2</ele>
        <time>2015-02-02T19:55:35.513Z</time>
      </trkpt>
      <trkpt lat="48.82408" lon="2.33049">
        <ele>118.2</ele>
        <time>2015-02-02T19:55:36.508Z</time>
      </trkpt>
      <trkpt lat="48.8241" lon="2.33039">
        <ele>118.2</ele>
        <time>2015-02-02T19:55:38.533Z</time>
      </trkpt>
      <trkpt lat="48.82411" lon="2.33034">
        <ele>118.1</ele>
        <time>2015-02-02T19:55:39.485Z</time>
      </trkpt>
      <trkpt lat="48.82415" lon="2.33022">
        <ele>117.9</ele>
        <time>2015-02-02T19:55:42.585Z</time>
      </trkpt>
      <trkpt lat="48.82417" lon="2.33018">
        <ele>117.9</ele>
        <time>2015-02-02T19:55:43.593Z</time>
      </trkpt>
      <trkpt lat="48.82418" lon="2.33009">
        <ele>117.7</ele>
        <time>2015-02-02T19:55:45.505Z</time>
      </trkpt>
      <trkpt lat="48.82419" lon="2.33004">
        <ele>117.6</ele>
        <time>2015-02-02T19:55:46.529Z</time>
      </trkpt>
      <trkpt lat="48.82421" lon="2.32993">
        <ele>117.5</ele>
        <time>2015-02-02T19:55:48.544Z</time>
      </trkpt>
      <trkpt lat="48.82422" lon="2.32988">
        <ele>117.5</ele>
        <time>2015-02-02T19:55:49.662Z</time>
      </trkpt>
      <trkpt lat="48.82425" lon="2.32976">
        <ele>117.4</ele>
        <time>2015-02-02T19:55:51.578Z</time>
      </trkpt>
      <trkpt lat="48.82427" lon="2.3297">
        <ele>117.2</ele>
        <time>2015-02-02T19:55:52.579Z</time>
      </trkpt>
      <trkpt lat="48.82431" lon="2.32959">
        <ele>117</ele>
        <time>2015-02-02T19:55:54.513Z</time>
      </trkpt>
      <trkpt lat="48.82433" lon="2.32955">
        <ele>116.9</ele>
        <time>2015-02-02T19:55:55.544Z</time>
      </trkpt>
      <trkpt lat="48.82438" lon="2.32947">
        <ele>116.7</ele>
        <time>2015-02-02T19:55:57.584Z</time>
      </trkpt>
      <trkpt lat="48.82441" lon="2.32943">
        <ele>116.6</ele>
        <time>2015-02-02T19:55:58.589Z</time>
      </trkpt>
      <trkpt lat="48.82446" lon="2.32934">
        <ele>116.6</ele>
        <time>2015-02-02T19:56:00.500Z</time>
      </trkpt>
      <trkpt lat="48.82448" lon="2.32929">
        <ele>116.6</ele>
        <time>2015-02-02T19:56:01.506Z</time>
      </trkpt>
      <trkpt lat="48.82449" lon="2.32921">
        <ele>116.5</ele>
        <time>2015-02-02T19:56:03.591Z</time>
      </trkpt>
      <trkpt lat="48.8245" lon="2.32916">
        <ele>116.4</ele>
        <time>2015-02-02T19:56:04.504Z</time>
      </trkpt>
      <trkpt lat="48.82451" lon="2.32905">
        <ele>116.2</ele>
        <time>2015-02-02T19:56:06.481Z</time>
      </trkpt>
      <trkpt lat="48.82453" lon="2.329">
        <ele>116.2</ele>
        <time>2015-02-02T19:56:07.520Z</time>
      </trkpt>
      <trkpt lat="48.82455" lon="2.3289">
        <ele>116</ele>
        <time>2015-02-02T19:56:09.502Z</time>
      </trkpt>
      <trkpt lat="48.82455" lon="2.32886">
        <ele>116</ele>
        <time>2015-02-02T19:56:10.573Z</time>
      </trkpt>
      <trkpt lat="48.82456" lon="2.32883">
        <ele>116</ele>
        <time>2015-02-02T19:56:11.479Z</time>
      </trkpt>
      <trkpt lat="48.82447" lon="2.32857">
        <ele>116</ele>
        <time>2015-02-02T19:56:15.506Z</time>
      </trkpt>
      <trkpt lat="48.82445" lon="2.32846">
        <ele>116.6</ele>
        <time>2015-02-02T19:56:18.551Z</time>
      </trkpt>
      <trkpt lat="48.82446" lon="2.32844">
        <ele>116.5</ele>
        <time>2015-02-02T19:56:19.633Z</time>
      </trkpt>
      <trkpt lat="48.82448" lon="2.32835">
        <ele>116.4</ele>
        <time>2015-02-02T19:56:22.568Z</time>
      </trkpt>
      <trkpt lat="48.8245" lon="2.32831">
        <ele>116.6</ele>
        <time>2015-02-02T19:56:23.510Z</time>
      </trkpt>
      <trkpt lat="48.82454" lon="2.32823">
        <ele>116.7</ele>
        <time>2015-02-02T19:56:25.533Z</time>
      </trkpt>
      <trkpt lat="48.82455" lon="2.32819">
        <ele>116.8</ele>
        <time>2015-02-02T19:56:26.544Z</time>
      </trkpt>
      <trkpt lat="48.82459" lon="2.3281">
        <ele>116.7</ele>
        <time>2015-02-02T19:56:28.546Z</time>
      </trkpt>
      <trkpt lat="48.82459" lon="2.32804">
        <ele>115.6</ele>
        <time>2015-02-02T19:56:29.561Z</time>
      </trkpt>
      <trkpt lat="48.8246" lon="2.32793">
        <ele>115.3</ele>
        <time>2015-02-02T19:56:31.498Z</time>
      </trkpt>
      <trkpt lat="48.82456" lon="2.32784">
        <ele>114.4</ele>
        <time>2015-02-02T19:56:32.510Z</time>
      </trkpt>
      <trkpt lat="48.82455" lon="2.32771">
        <ele>113.4</ele>
        <time>2015-02-02T19:56:34.584Z</time>
      </trkpt>
      <trkpt lat="48.82456" lon="2.32763">
        <ele>112.5</ele>
        <time>2015-02-02T19:56:35.505Z</time>
      </trkpt>
      <trkpt lat="48.82457" lon="2.32755">
        <ele>111.9</ele>
        <time>2015-02-02T19:56:36.572Z</time>
      </trkpt>
      <trkpt lat="48.82458" lon="2.32748">
        <ele>110.9</ele>
        <time>2015-02-02T19:56:37.586Z</time>
      </trkpt>
      <trkpt lat="48.82462" lon="2.32736">
        <ele>110.8</ele>
        <time>2015-02-02T19:56:39.527Z</time>
      </trkpt>
      <trkpt lat="48.82463" lon="2.32732">
        <ele>110.8</ele>
        <time>2015-02-02T19:56:40.550Z</time>
      </trkpt>
      <trkpt lat="48.82467" lon="2.32719">
        <ele>109.9</ele>
        <time>2015-02-02T19:56:42.515Z</time>
      </trkpt>
      <trkpt lat="48.82468" lon="2.32713">
        <ele>109.6</ele>
        <time>2015-02-02T19:56:43.530Z</time>
      </trkpt>
      <trkpt lat="48.82468" lon="2.32706">
        <ele>109.3</ele>
        <time>2015-02-02T19:56:44.492Z</time>
      </trkpt>
      <trkpt lat="48.82468" lon="2.32698">
        <ele>109.3</ele>
        <time>2015-02-02T19:56:45.511Z</time>
      </trkpt>
      <trkpt lat="48.82468" lon="2.32691">
        <ele>109</ele>
        <time>2015-02-02T19:56:46.650Z</time>
      </trkpt>
      <trkpt lat="48.82467" lon="2.32684">
        <ele>108.6</ele>
        <time>2015-02-02T19:56:47.514Z</time>
      </trkpt>
      <trkpt lat="48.82467" lon="2.32671">
        <ele>108.4</ele>
        <time>2015-02-02T19:56:49.497Z</time>
      </trkpt>
      <trkpt lat="48.82467" lon="2.32664">
        <ele>108.5</ele>
        <time>2015-02-02T19:56:50.512Z</time>
      </trkpt>
      <trkpt lat="48.82467" lon="2.32651">
        <ele>108.9</ele>
        <time>2015-02-02T19:56:52.533Z</time>
      </trkpt>
      <trkpt lat="48.82468" lon="2.32645">
        <ele>108.8</ele>
        <time>2015-02-02T19:56:53.585Z</time>
      </trkpt>
      <trkpt lat="48.82468" lon="2.32633">
        <ele>108.3</ele>
        <time>2015-02-02T19:56:55.494Z</time>
      </trkpt>
      <trkpt lat="48.82468" lon="2.32627">
        <ele>108.3</ele>
        <time>2015-02-02T19:56:56.509Z</time>
      </trkpt>
      <trkpt lat="48.82469" lon="2.32618">
        <ele>109</ele>
        <time>2015-02-02T19:56:58.548Z</time>
      </trkpt>
      <trkpt lat="48.82469" lon="2.32614">
        <ele>109.7</ele>
        <time>2015-02-02T19:56:59.556Z</time>
      </trkpt>
      <trkpt lat="48.82466" lon="2.32602">
        <ele>110.7</ele>
        <time>2015-02-02T19:57:03.533Z</time>
      </trkpt>
      <trkpt lat="48.82465" lon="2.326">
        <ele>110.6</ele>
        <time>2015-02-02T19:57:04.555Z</time>
      </trkpt>
      <trkpt lat="48.82465" lon="2.32599">
        <ele>110.7</ele>
        <time>2015-02-02T19:57:05.571Z</time>
      </trkpt>
      <trkpt lat="48.82465" lon="2.32598">
        <ele>110.9</ele>
        <time>2015-02-02T19:57:06.585Z</time>
      </trkpt>
      <trkpt lat="48.82465" lon="2.32597">
        <ele>111.1</ele>
        <time>2015-02-02T19:57:07.599Z</time>
      </trkpt>
      <trkpt lat="48.82464" lon="2.32585">
        <ele>112.5</ele>
        <time>2015-02-02T19:57:13.522Z</time>
      </trkpt>
      <trkpt lat="48.82459" lon="2.32584">
        <ele>111.7</ele>
        <time>2015-02-02T19:57:14.540Z</time>
      </trkpt>
      <trkpt lat="48.82454" lon="2.32582">
        <ele>111.6</ele>
        <time>2015-02-02T19:57:16.544Z</time>
      </trkpt>
      <trkpt lat="48.82451" lon="2.32581">
        <ele>111.6</ele>
        <time>2015-02-02T19:57:17.542Z</time>
      </trkpt>
      <trkpt lat="48.82442" lon="2.32584">
        <ele>111.7</ele>
        <time>2015-02-02T19:57:20.527Z</time>
      </trkpt>
      <trkpt lat="48.8244" lon="2.32583">
        <ele>111.7</ele>
        <time>2015-02-02T19:57:21.538Z</time>
      </trkpt>
      <trkpt lat="48.82445" lon="2.32572">
        <ele>111.6</ele>
        <time>2015-02-02T19:57:26.575Z</time>
      </trkpt>
      <trkpt lat="48.82447" lon="2.3257">
        <ele>111.6</ele>
        <time>2015-02-02T19:57:27.642Z</time>
      </trkpt>
      <trkpt lat="48.82451" lon="2.32563">
        <ele>111.6</ele>
        <time>2015-02-02T19:57:30.577Z</time>
      </trkpt>
      <trkpt lat="48.82453" lon="2.32559">
        <ele>111.5</ele>
        <time>2015-02-02T19:57:31.542Z</time>
      </trkpt>
      <trkpt lat="48.82457" lon="2.32548">
        <ele>111.1</ele>
        <time>2015-02-02T19:57:34.685Z</time>
      </trkpt>
      <trkpt lat="48.82459" lon="2.32545">
        <ele>110.9</ele>
        <time>2015-02-02T19:57:35.619Z</time>
      </trkpt>
      <trkpt lat="48.82465" lon="2.32537">
        <ele>110.7</ele>
        <time>2015-02-02T19:57:37.517Z</time>
      </trkpt>
      <trkpt lat="48.82468" lon="2.32533">
        <ele>110.5</ele>
        <time>2015-02-02T19:57:38.541Z</time>
      </trkpt>
      <trkpt lat="48.82476" lon="2.32527">
        <ele>110.4</ele>
        <time>2015-02-02T19:57:40.641Z</time>
      </trkpt>
      <trkpt lat="48.8248" lon="2.32524">
        <ele>110.2</ele>
        <time>2015-02-02T19:57:41.501Z</time>
      </trkpt>
      <trkpt lat="48.82484" lon="2.32521">
        <ele>110.1</ele>
        <time>2015-02-02T19:57:42.534Z</time>
      </trkpt>
      <trkpt lat="48.82488" lon="2.32519">
        <ele>110.2</ele>
        <time>2015-02-02T19:57:43.544Z</time>
      </trkpt>
      <trkpt lat="48.82493" lon="2.32516">
        <ele>110.3</ele>
        <time>2015-02-02T19:57:45.297Z</time>
      </trkpt>
      <trkpt lat="48.82497" lon="2.32512">
        <ele>110.3</ele>
        <time>2015-02-02T19:57:45.594Z</time>
      </trkpt>
      <trkpt lat="48.82501" lon="2.32508">
        <ele>110.4</ele>
        <time>2015-02-02T19:57:46.599Z</time>
      </trkpt>
      <trkpt lat="48.82504" lon="2.32502">
        <ele>110.4</ele>
        <time>2015-02-02T19:57:47.514Z</time>
      </trkpt>
      <trkpt lat="48.82507" lon="2.32496">
        <ele>110.5</ele>
        <time>2015-02-02T19:57:48.510Z</time>
      </trkpt>
      <trkpt lat="48.8251" lon="2.32491">
        <ele>110.7</ele>
        <time>2015-02-02T19:57:49.530Z</time>
      </trkpt>
      <trkpt lat="48.82514" lon="2.3248">
        <ele>111.3</ele>
        <time>2015-02-02T19:57:51.539Z</time>
      </trkpt>
      <trkpt lat="48.82515" lon="2.32476">
        <ele>111.5</ele>
        <time>2015-02-02T19:57:52.581Z</time>
      </trkpt>
      <trkpt lat="48.82516" lon="2.32463">
        <ele>112.2</ele>
        <time>2015-02-02T19:57:54.524Z</time>
      </trkpt>
      <trkpt lat="48.82516" lon="2.32457">
        <ele>112.5</ele>
        <time>2015-02-02T19:57:55.553Z</time>
      </trkpt>
      <trkpt lat="48.82517" lon="2.32448">
        <ele>112.4</ele>
        <time>2015-02-02T19:57:58.277Z</time>
      </trkpt>
      <trkpt lat="48.82518" lon="2.32444">
        <ele>112.3</ele>
        <time>2015-02-02T19:57:58.601Z</time>
      </trkpt>
      <trkpt lat="48.82518" lon="2.32433">
        <ele>112.7</ele>
        <time>2015-02-02T19:58:00.497Z</time>
      </trkpt>
      <trkpt lat="48.82517" lon="2.32427">
        <ele>112.9</ele>
        <time>2015-02-02T19:58:01.506Z</time>
      </trkpt>
      <trkpt lat="48.82516" lon="2.32416">
        <ele>112.1</ele>
        <time>2015-02-02T19:58:04.644Z</time>
      </trkpt>
      <trkpt lat="48.82517" lon="2.32412">
        <ele>112.3</ele>
        <time>2015-02-02T19:58:05.489Z</time>
      </trkpt>
      <trkpt lat="48.82524" lon="2.32411">
        <ele>113.7</ele>
        <time>2015-02-02T19:58:09.571Z</time>
      </trkpt>
      <trkpt lat="48.82526" lon="2.32413">
        <ele>113.9</ele>
        <time>2015-02-02T19:58:10.592Z</time>
      </trkpt>
      <trkpt lat="48.82532" lon="2.32417">
        <ele>114.3</ele>
        <time>2015-02-02T19:58:13.427Z</time>
      </trkpt>
      <trkpt lat="48.82535" lon="2.3242">
        <ele>114.4</ele>
        <time>2015-02-02T19:58:13.532Z</time>
      </trkpt>
      <trkpt lat="48.82538" lon="2.32428">
        <ele>114.7</ele>
        <time>2015-02-02T19:58:15.569Z</time>
      </trkpt>
      <trkpt lat="48.8254" lon="2.32432">
        <ele>114.9</ele>
        <time>2015-02-02T19:58:16.635Z</time>
      </trkpt>
      <trkpt lat="48.82545" lon="2.32437">
        <ele>115.3</ele>
        <time>2015-02-02T19:58:18.500Z</time>
      </trkpt>
      <trkpt lat="48.82548" lon="2.3244">
        <ele>115.5</ele>
        <time>2015-02-02T19:58:19.518Z</time>
      </trkpt>
      <trkpt lat="48.82554" lon="2.32446">
        <ele>115.8</ele>
        <time>2015-02-02T19:58:21.508Z</time>
      </trkpt>
      <trkpt lat="48.82558" lon="2.32448">
        <ele>116.1</ele>
        <time>2015-02-02T19:58:22.534Z</time>
      </trkpt>
      <trkpt lat="48.82564" lon="2.32454">
        <ele>115.9</ele>
        <time>2015-02-02T19:58:24.642Z</time>
      </trkpt>
      <trkpt lat="48.82568" lon="2.32456">
        <ele>115.9</ele>
        <time>2015-02-02T19:58:25.502Z</time>
      </trkpt>
      <trkpt lat="48.82576" lon="2.3246">
        <ele>116.1</ele>
        <time>2015-02-02T19:58:27.532Z</time>
      </trkpt>
      <trkpt lat="48.8258" lon="2.32463">
        <ele>116.3</ele>
        <time>2015-02-02T19:58:28.673Z</time>
      </trkpt>
      <trkpt lat="48.82584" lon="2.32466">
        <ele>116.4</ele>
        <time>2015-02-02T19:58:30.475Z</time>
      </trkpt>
      <trkpt lat="48.82588" lon="2.3247">
        <ele>116.5</ele>
        <time>2015-02-02T19:58:30.526Z</time>
      </trkpt>
      <trkpt lat="48.82593" lon="2.32473">
        <ele>116.5</ele>
        <time>2015-02-02T19:58:31.555Z</time>
      </trkpt>
      <trkpt lat="48.82598" lon="2.32476">
        <ele>116.5</ele>
        <time>2015-02-02T19:58:32.565Z</time>
      </trkpt>
      <trkpt lat="48.82603" lon="2.32479">
        <ele>116.4</ele>
        <time>2015-02-02T19:58:33.776Z</time>
      </trkpt>
      <trkpt lat="48.82608" lon="2.32482">
        <ele>116.4</ele>
        <time>2015-02-02T19:58:34.582Z</time>
      </trkpt>
      <trkpt lat="48.82612" lon="2.32485">
        <ele>116.4</ele>
        <time>2015-02-02T19:58:35.485Z</time>
      </trkpt>
      <trkpt lat="48.82616" lon="2.32488">
        <ele>116.4</ele>
        <time>2015-02-02T19:58:36.493Z</time>
      </trkpt>
      <trkpt lat="48.82632" lon="2.32501">
        <ele>116.1</ele>
        <time>2015-02-02T19:58:40.527Z</time>
      </trkpt>
      <trkpt lat="48.82637" lon="2.32504">
        <ele>116.2</ele>
        <time>2015-02-02T19:58:41.488Z</time>
      </trkpt>
      <trkpt lat="48.82641" lon="2.32506">
        <ele>116.2</ele>
        <time>2015-02-02T19:58:42.542Z</time>
      </trkpt>
      <trkpt lat="48.82646" lon="2.32508">
        <ele>116.1</ele>
        <time>2015-02-02T19:58:43.455Z</time>
      </trkpt>
      <trkpt lat="48.8265" lon="2.32511">
        <ele>116.2</ele>
        <time>2015-02-02T19:58:44.470Z</time>
      </trkpt>
      <trkpt lat="48.82658" lon="2.32516">
        <ele>116.2</ele>
        <time>2015-02-02T19:58:46.504Z</time>
      </trkpt>
      <trkpt lat="48.82664" lon="2.32516">
        <ele>116</ele>
        <time>2015-02-02T19:58:47.563Z</time>
      </trkpt>
      <trkpt lat="48.82668" lon="2.32518">
        <ele>116</ele>
        <time>2015-02-02T19:58:48.506Z</time>
      </trkpt>
      <trkpt lat="48.82673" lon="2.32522">
        <ele>115.3</ele>
        <time>2015-02-02T19:58:49.509Z</time>
      </trkpt>
      <trkpt lat="48.82681" lon="2.32518">
        <ele>113.8</ele>
        <time>2015-02-02T19:58:53.592Z</time>
      </trkpt>
      <trkpt lat="48.82682" lon="2.32518">
        <ele>113.7</ele>
        <time>2015-02-02T19:58:54.561Z</time>
      </trkpt>
      <trkpt lat="48.82691" lon="2.32514">
        <ele>114.1</ele>
        <time>2015-02-02T19:58:57.511Z</time>
      </trkpt>
      <trkpt lat="48.82698" lon="2.32509">
        <ele>114.7</ele>
        <time>2015-02-02T19:58:58.541Z</time>
      </trkpt>
      <trkpt lat="48.82706" lon="2.32503">
        <ele>115</ele>
        <time>2015-02-02T19:59:00.492Z</time>
      </trkpt>
      <trkpt lat="48.82709" lon="2.32499">
        <ele>115</ele>
        <time>2015-02-02T19:59:01.588Z</time>
      </trkpt>
      <trkpt lat="48.82713" lon="2.32489">
        <ele>115.1</ele>
        <time>2015-02-02T19:59:03.482Z</time>
      </trkpt>
      <trkpt lat="48.82715" lon="2.32483">
        <ele>115</ele>
        <time>2015-02-02T19:59:04.604Z</time>
      </trkpt>
      <trkpt lat="48.82719" lon="2.32473">
        <ele>115.1</ele>
        <time>2015-02-02T19:59:06.536Z</time>
      </trkpt>
      <trkpt lat="48.82721" lon="2.32468">
        <ele>115</ele>
        <time>2015-02-02T19:59:07.545Z</time>
      </trkpt>
      <trkpt lat="48.82724" lon="2.32455">
        <ele>115</ele>
        <time>2015-02-02T19:59:09.497Z</time>
      </trkpt>
      <trkpt lat="48.82726" lon="2.3245">
        <ele>115.2</ele>
        <time>2015-02-02T19:59:10.598Z</time>
      </trkpt>
      <trkpt lat="48.82729" lon="2.32444">
        <ele>115.3</ele>
        <time>2015-02-02T19:59:11.496Z</time>
      </trkpt>
      <trkpt lat="48.82732" lon="2.32438">
        <ele>115.5</ele>
        <time>2015-02-02T19:59:12.498Z</time>
      </trkpt>
      <trkpt lat="48.82734" lon="2.32432">
        <ele>115.4</ele>
        <time>2015-02-02T19:59:13.552Z</time>
      </trkpt>
      <trkpt lat="48.82737" lon="2.32425">
        <ele>115.2</ele>
        <time>2015-02-02T19:59:14.449Z</time>
      </trkpt>
      <trkpt lat="48.82739" lon="2.32418">
        <ele>115.2</ele>
        <time>2015-02-02T19:59:15.505Z</time>
      </trkpt>
      <trkpt lat="48.82741" lon="2.32412">
        <ele>115.1</ele>
        <time>2015-02-02T19:59:16.590Z</time>
      </trkpt>
      <trkpt lat="48.82747" lon="2.32403">
        <ele>115.1</ele>
        <time>2015-02-02T19:59:18.473Z</time>
      </trkpt>
      <trkpt lat="48.8275" lon="2.32398">
        <ele>115.1</ele>
        <time>2015-02-02T19:59:19.490Z</time>
      </trkpt>
      <trkpt lat="48.82753" lon="2.32387">
        <ele>115</ele>
        <time>2015-02-02T19:59:21.542Z</time>
      </trkpt>
      <trkpt lat="48.82756" lon="2.32382">
        <ele>114.9</ele>
        <time>2015-02-02T19:59:22.596Z</time>
      </trkpt>
      <trkpt lat="48.8276" lon="2.3237">
        <ele>114.8</ele>
        <time>2015-02-02T19:59:24.502Z</time>
      </trkpt>
      <trkpt lat="48.8276" lon="2.32362">
        <ele>114.6</ele>
        <time>2015-02-02T19:59:25.525Z</time>
      </trkpt>
      <trkpt lat="48.82763" lon="2.32351">
        <ele>114.6</ele>
        <time>2015-02-02T19:59:27.551Z</time>
      </trkpt>
      <trkpt lat="48.82766" lon="2.32345">
        <ele>114.5</ele>
        <time>2015-02-02T19:59:28.606Z</time>
      </trkpt>
      <trkpt lat="48.8277" lon="2.32333">
        <ele>114.5</ele>
        <time>2015-02-02T19:59:30.483Z</time>
      </trkpt>
      <trkpt lat="48.82772" lon="2.32326">
        <ele>114.6</ele>
        <time>2015-02-02T19:59:31.500Z</time>
      </trkpt>
      <trkpt lat="48.82775" lon="2.3232">
        <ele>114.7</ele>
        <time>2015-02-02T19:59:32.521Z</time>
      </trkpt>
      <trkpt lat="48.82778" lon="2.32314">
        <ele>114.9</ele>
        <time>2015-02-02T19:59:33.527Z</time>
      </trkpt>
      <trkpt lat="48.82778" lon="2.32305">
        <ele>115</ele>
        <time>2015-02-02T19:59:34.539Z</time>
      </trkpt>
      <trkpt lat="48.82778" lon="2.32296">
        <ele>115</ele>
        <time>2015-02-02T19:59:35.555Z</time>
      </trkpt>
      <trkpt lat="48.82779" lon="2.32288">
        <ele>115.1</ele>
        <time>2015-02-02T19:59:36.564Z</time>
      </trkpt>
      <trkpt lat="48.82781" lon="2.32282">
        <ele>115.4</ele>
        <time>2015-02-02T19:59:37.567Z</time>
      </trkpt>
      <trkpt lat="48.82783" lon="2.32275">
        <ele>115.6</ele>
        <time>2015-02-02T19:59:38.576Z</time>
      </trkpt>
      <trkpt lat="48.82785" lon="2.32268">
        <ele>115.6</ele>
        <time>2015-02-02T19:59:39.588Z</time>
      </trkpt>
      <trkpt lat="48.82789" lon="2.32257">
        <ele>116</ele>
        <time>2015-02-02T19:59:41.503Z</time>
      </trkpt>
      <trkpt lat="48.82791" lon="2.32251">
        <ele>115.9</ele>
        <time>2015-02-02T19:59:42.547Z</time>
      </trkpt>
      <trkpt lat="48.82794" lon="2.32246">
        <ele>116.1</ele>
        <time>2015-02-02T19:59:43.575Z</time>
      </trkpt>
      <trkpt lat="48.82796" lon="2.3224">
        <ele>116.1</ele>
        <time>2015-02-02T19:59:44.581Z</time>
      </trkpt>
      <trkpt lat="48.828" lon="2.32232">
        <ele>116.2</ele>
        <time>2015-02-02T19:59:45.587Z</time>
      </trkpt>
      <trkpt lat="48.82803" lon="2.32226">
        <ele>116.3</ele>
        <time>2015-02-02T19:59:46.530Z</time>
      </trkpt>
      <trkpt lat="48.82805" lon="2.32219">
        <ele>116.3</ele>
        <time>2015-02-02T19:59:47.536Z</time>
      </trkpt>
      <trkpt lat="48.82807" lon="2.32212">
        <ele>116.3</ele>
        <time>2015-02-02T19:59:48.563Z</time>
      </trkpt>
      <trkpt lat="48.82809" lon="2.32206">
        <ele>116.5</ele>
        <time>2015-02-02T19:59:49.482Z</time>
      </trkpt>
      <trkpt lat="48.82811" lon="2.322">
        <ele>116.6</ele>
        <time>2015-02-02T19:59:50.482Z</time>
      </trkpt>
      <trkpt lat="48.82814" lon="2.32189">
        <ele>116.8</ele>
        <time>2015-02-02T19:59:52.526Z</time>
      </trkpt>
      <trkpt lat="48.82813" lon="2.32184">
        <ele>116.7</ele>
        <time>2015-02-02T19:59:53.485Z</time>
      </trkpt>
      <trkpt lat="48.8281" lon="2.32171">
        <ele>117</ele>
        <time>2015-02-02T19:59:56.524Z</time>
      </trkpt>
      <trkpt lat="48.8281" lon="2.32166">
        <ele>117.6</ele>
        <time>2015-02-02T19:59:57.535Z</time>
      </trkpt>
      <trkpt lat="48.82807" lon="2.32161">
        <ele>117.7</ele>
        <time>2015-02-02T19:59:58.551Z</time>
      </trkpt>
      <trkpt lat="48.82804" lon="2.32154">
        <ele>117.5</ele>
        <time>2015-02-02T19:59:59.554Z</time>
      </trkpt>
      <trkpt lat="48.82799" lon="2.32146">
        <ele>117.2</ele>
        <time>2015-02-02T20:00:01.480Z</time>
      </trkpt>
      <trkpt lat="48.82796" lon="2.32143">
        <ele>117.2</ele>
        <time>2015-02-02T20:00:02.499Z</time>
      </trkpt>
      <trkpt lat="48.8279" lon="2.32135">
        <ele>116.7</ele>
        <time>2015-02-02T20:00:04.526Z</time>
      </trkpt>
      <trkpt lat="48.82787" lon="2.32132">
        <ele>116.6</ele>
        <time>2015-02-02T20:00:05.574Z</time>
      </trkpt>
      <trkpt lat="48.82781" lon="2.32124">
        <ele>116.3</ele>
        <time>2015-02-02T20:00:07.519Z</time>
      </trkpt>
      <trkpt lat="48.8278" lon="2.32118">
        <ele>116.3</ele>
        <time>2015-02-02T20:00:08.566Z</time>
      </trkpt>
      <trkpt lat="48.82775" lon="2.32109">
        <ele>116.3</ele>
        <time>2015-02-02T20:00:10.539Z</time>
      </trkpt>
      <trkpt lat="48.82776" lon="2.32102">
        <ele>117.6</ele>
        <time>2015-02-02T20:00:11.568Z</time>
      </trkpt>
      <trkpt lat="48.82778" lon="2.32092">
        <ele>117.8</ele>
        <time>2015-02-02T20:00:13.525Z</time>
      </trkpt>
      <trkpt lat="48.8278" lon="2.32087">
        <ele>117.8</ele>
        <time>2015-02-02T20:00:14.585Z</time>
      </trkpt>
      <trkpt lat="48.82785" lon="2.32077">
        <ele>118.3</ele>
        <time>2015-02-02T20:00:16.531Z</time>
      </trkpt>
      <trkpt lat="48.82788" lon="2.32072">
        <ele>118.4</ele>
        <time>2015-02-02T20:00:17.535Z</time>
      </trkpt>
      <trkpt lat="48.82794" lon="2.32062">
        <ele>118.5</ele>
        <time>2015-02-02T20:00:19.566Z</time>
      </trkpt>
      <trkpt lat="48.82797" lon="2.32056">
        <ele>118.4</ele>
        <time>2015-02-02T20:00:20.484Z</time>
      </trkpt>
      <trkpt lat="48.82801" lon="2.32045">
        <ele>118.4</ele>
        <time>2015-02-02T20:00:22.544Z</time>
      </trkpt>
      <trkpt lat="48.82804" lon="2.32039">
        <ele>118.6</ele>
        <time>2015-02-02T20:00:23.558Z</time>
      </trkpt>
      <trkpt lat="48.82809" lon="2.32028">
        <ele>118.9</ele>
        <time>2015-02-02T20:00:25.581Z</time>
      </trkpt>
      <trkpt lat="48.82812" lon="2.32023">
        <ele>119.1</ele>
        <time>2015-02-02T20:00:26.509Z</time>
      </trkpt>
      <trkpt lat="48.82817" lon="2.32012">
        <ele>119.2</ele>
        <time>2015-02-02T20:00:28.646Z</time>
      </trkpt>
      <trkpt lat="48.82818" lon="2.32007">
        <ele>118.9</ele>
        <time>2015-02-02T20:00:29.508Z</time>
      </trkpt>
      <trkpt lat="48.82822" lon="2.31996">
        <ele>118.3</ele>
        <time>2015-02-02T20:00:31.562Z</time>
      </trkpt>
      <trkpt lat="48.82825" lon="2.3199">
        <ele>118.2</ele>
        <time>2015-02-02T20:00:32.488Z</time>
      </trkpt>
      <trkpt lat="48.82827" lon="2.31984">
        <ele>118.1</ele>
        <time>2015-02-02T20:00:33.510Z</time>
      </trkpt>
      <trkpt lat="48.82828" lon="2.31976">
        <ele>118.3</ele>
        <time>2015-02-02T20:00:34.548Z</time>
      </trkpt>
      <trkpt lat="48.8283" lon="2.3197">
        <ele>118.5</ele>
        <time>2015-02-02T20:00:35.549Z</time>
      </trkpt>
      <trkpt lat="48.82832" lon="2.31963">
        <ele>118.7</ele>
        <time>2015-02-02T20:00:36.492Z</time>
      </trkpt>
      <trkpt lat="48.82834" lon="2.31957">
        <ele>119</ele>
        <time>2015-02-02T20:00:37.504Z</time>
      </trkpt>
      <trkpt lat="48.82837" lon="2.3195">
        <ele>119.2</ele>
        <time>2015-02-02T20:00:38.513Z</time>
      </trkpt>
      <trkpt lat="48.82839" lon="2.31944">
        <ele>119.4</ele>
        <time>2015-02-02T20:00:39.534Z</time>
      </trkpt>
      <trkpt lat="48.82842" lon="2.31937">
        <ele>119.7</ele>
        <time>2015-02-02T20:00:40.545Z</time>
      </trkpt>
      <trkpt lat="48.82845" lon="2.31932">
        <ele>119.7</ele>
        <time>2015-02-02T20:00:41.580Z</time>
      </trkpt>
      <trkpt lat="48.82847" lon="2.31925">
        <ele>119.7</ele>
        <time>2015-02-02T20:00:42.504Z</time>
      </trkpt>
      <trkpt lat="48.8285" lon="2.31919">
        <ele>119.8</ele>
        <time>2015-02-02T20:00:43.537Z</time>
      </trkpt>
      <trkpt lat="48.82852" lon="2.31912">
        <ele>119.9</ele>
        <time>2015-02-02T20:00:44.547Z</time>
      </trkpt>
      <trkpt lat="48.82855" lon="2.31905">
        <ele>120.1</ele>
        <time>2015-02-02T20:00:45.566Z</time>
      </trkpt>
      <trkpt lat="48.82858" lon="2.31898">
        <ele>120.3</ele>
        <time>2015-02-02T20:00:46.573Z</time>
      </trkpt>
      <trkpt lat="48.8286" lon="2.31892">
        <ele>120.6</ele>
        <time>2015-02-02T20:00:47.595Z</time>
      </trkpt>
      <trkpt lat="48.82863" lon="2.31884">
        <ele>120.8</ele>
        <time>2015-02-02T20:00:48.472Z</time>
      </trkpt>
      <trkpt lat="48.82866" lon="2.31877">
        <ele>121</ele>
        <time>2015-02-02T20:00:49.520Z</time>
      </trkpt>
      <trkpt lat="48.82868" lon="2.31869">
        <ele>121</ele>
        <time>2015-02-02T20:00:50.542Z</time>
      </trkpt>
      <trkpt lat="48.82871" lon="2.31863">
        <ele>121.2</ele>
        <time>2015-02-02T20:00:51.570Z</time>
      </trkpt>
      <trkpt lat="48.82873" lon="2.31856">
        <ele>121.4</ele>
        <time>2015-02-02T20:00:52.584Z</time>
      </trkpt>
      <trkpt lat="48.82876" lon="2.31849">
        <ele>121.7</ele>
        <time>2015-02-02T20:00:53.634Z</time>
      </trkpt>
      <trkpt lat="48.82878" lon="2.31843">
        <ele>121.8</ele>
        <time>2015-02-02T20:00:54.510Z</time>
      </trkpt>
      <trkpt lat="48.82881" lon="2.31837">
        <ele>122.1</ele>
        <time>2015-02-02T20:00:55.529Z</time>
      </trkpt>
      <trkpt lat="48.82883" lon="2.3183">
        <ele>122.3</ele>
        <time>2015-02-02T20:00:56.531Z</time>
      </trkpt>
      <trkpt lat="48.82889" lon="2.31821">
        <ele>121.9</ele>
        <time>2015-02-02T20:00:58.567Z</time>
      </trkpt>
      <trkpt lat="48.82891" lon="2.31816">
        <ele>121.8</ele>
        <time>2015-02-02T20:00:59.580Z</time>
      </trkpt>
      <trkpt lat="48.82896" lon="2.31807">
        <ele>121.5</ele>
        <time>2015-02-02T20:01:01.506Z</time>
      </trkpt>
      <trkpt lat="48.82897" lon="2.31803">
        <ele>121.3</ele>
        <time>2015-02-02T20:01:02.520Z</time>
      </trkpt>
      <trkpt lat="48.82902" lon="2.31795">
        <ele>120.9</ele>
        <time>2015-02-02T20:01:04.573Z</time>
      </trkpt>
      <trkpt lat="48.82904" lon="2.31791">
        <ele>120.7</ele>
        <time>2015-02-02T20:01:05.591Z</time>
      </trkpt>
      <trkpt lat="48.8291" lon="2.31782">
        <ele>120.4</ele>
        <time>2015-02-02T20:01:07.481Z</time>
      </trkpt>
      <trkpt lat="48.82913" lon="2.31777">
        <ele>120.3</ele>
        <time>2015-02-02T20:01:08.495Z</time>
      </trkpt>
      <trkpt lat="48.82918" lon="2.31768">
        <ele>119.6</ele>
        <time>2015-02-02T20:01:10.526Z</time>
      </trkpt>
      <trkpt lat="48.8292" lon="2.31764">
        <ele>119.4</ele>
        <time>2015-02-02T20:01:11.543Z</time>
      </trkpt>
      <trkpt lat="48.82925" lon="2.31755">
        <ele>119.1</ele>
        <time>2015-02-02T20:01:13.480Z</time>
      </trkpt>
      <trkpt lat="48.82926" lon="2.3175">
        <ele>119.2</ele>
        <time>2015-02-02T20:01:14.493Z</time>
      </trkpt>
      <trkpt lat="48.82924" lon="2.31736">
        <ele>118.9</ele>
        <time>2015-02-02T20:01:16.527Z</time>
      </trkpt>
      <trkpt lat="48.82925" lon="2.31734">
        <ele>118.5</ele>
        <time>2015-02-02T20:01:17.556Z</time>
      </trkpt>
      <trkpt lat="48.82926" lon="2.31733">
        <ele>118.2</ele>
        <time>2015-02-02T20:01:20.587Z</time>
      </trkpt>
      <trkpt lat="48.82927" lon="2.31733">
        <ele>118.2</ele>
        <time>2015-02-02T20:01:21.507Z</time>
      </trkpt>
      <trkpt lat="48.82927" lon="2.31733">
        <ele>118.1</ele>
        <time>2015-02-02T20:01:28.629Z</time>
      </trkpt>
      <trkpt lat="48.82928" lon="2.31733">
        <ele>117.8</ele>
        <time>2015-02-02T20:01:29.505Z</time>
      </trkpt>
      <trkpt lat="48.82934" lon="2.31728">
        <ele>117.7</ele>
        <time>2015-02-02T20:01:32.546Z</time>
      </trkpt>
      <trkpt lat="48.82938" lon="2.31725">
        <ele>117.5</ele>
        <time>2015-02-02T20:01:33.584Z</time>
      </trkpt>
      <trkpt lat="48.82945" lon="2.3172">
        <ele>117.2</ele>
        <time>2015-02-02T20:01:35.477Z</time>
      </trkpt>
      <trkpt lat="48.82949" lon="2.31716">
        <ele>117.2</ele>
        <time>2015-02-02T20:01:36.488Z</time>
      </trkpt>
      <trkpt lat="48.82956" lon="2.3171">
        <ele>117.1</ele>
        <time>2015-02-02T20:01:38.573Z</time>
      </trkpt>
      <trkpt lat="48.83005" lon="2.31629">
        <ele>116.5</ele>
        <time>2015-02-02T20:01:53.511Z</time>
      </trkpt>
      <trkpt lat="48.83072" lon="2.3143">
        <ele>112.8</ele>
        <time>2015-02-02T20:02:28.529Z</time>
      </trkpt>
      <trkpt lat="48.83069" lon="2.31423">
        <ele>112.8</ele>
        <time>2015-02-02T20:02:29.507Z</time>
      </trkpt>
      <trkpt lat="48.83065" lon="2.31418">
        <ele>112.6</ele>
        <time>2015-02-02T20:02:30.532Z</time>
      </trkpt>
      <trkpt lat="48.8306" lon="2.31413">
        <ele>112.7</ele>
        <time>2015-02-02T20:02:31.517Z</time>
      </trkpt>
      <trkpt lat="48.83056" lon="2.31407">
        <ele>112.9</ele>
        <time>2015-02-02T20:02:32.518Z</time>
      </trkpt>
      <trkpt lat="48.83052" lon="2.31401">
        <ele>113.2</ele>
        <time>2015-02-02T20:02:33.534Z</time>
      </trkpt>
      <trkpt lat="48.83048" lon="2.31395">
        <ele>113.4</ele>
        <time>2015-02-02T20:02:34.575Z</time>
      </trkpt>
      <trkpt lat="48.83043" lon="2.31389">
        <ele>113.6</ele>
        <time>2015-02-02T20:02:35.590Z</time>
      </trkpt>
      <trkpt lat="48.83039" lon="2.31384">
        <ele>114.1</ele>
        <time>2015-02-02T20:02:36.584Z</time>
      </trkpt>
      <trkpt lat="48.83033" lon="2.31379">
        <ele>114.8</ele>
        <time>2015-02-02T20:02:37.526Z</time>
      </trkpt>
      <trkpt lat="48.83027" lon="2.31374">
        <ele>115.1</ele>
        <time>2015-02-02T20:02:38.539Z</time>
      </trkpt>
      <trkpt lat="48.83022" lon="2.31369">
        <ele>115.1</ele>
        <time>2015-02-02T20:02:39.551Z</time>
      </trkpt>
      <trkpt lat="48.83016" lon="2.31364">
        <ele>115.2</ele>
        <time>2015-02-02T20:02:40.569Z</time>
      </trkpt>
      <trkpt lat="48.83011" lon="2.31355">
        <ele>115.4</ele>
        <time>2015-02-02T20:02:42.507Z</time>
      </trkpt>
      <trkpt lat="48.8301" lon="2.3135">
        <ele>115.6</ele>
        <time>2015-02-02T20:02:43.642Z</time>
      </trkpt>
      <trkpt lat="48.83007" lon="2.31337">
        <ele>116.4</ele>
        <time>2015-02-02T20:02:46.586Z</time>
      </trkpt>
      <trkpt lat="48.83037" lon="2.3131">
        <ele>115.7</ele>
        <time>2015-02-02T20:02:52.493Z</time>
      </trkpt>
      <trkpt lat="48.83041" lon="2.31307">
        <ele>115.8</ele>
        <time>2015-02-02T20:02:53.523Z</time>
      </trkpt>
      <trkpt lat="48.83045" lon="2.31301">
        <ele>115.8</ele>
        <time>2015-02-02T20:02:54.536Z</time>
      </trkpt>
      <trkpt lat="48.83049" lon="2.31295">
        <ele>116.1</ele>
        <time>2015-02-02T20:02:55.543Z</time>
      </trkpt>
      <trkpt lat="48.83053" lon="2.31292">
        <ele>116.2</ele>
        <time>2015-02-02T20:02:56.547Z</time>
      </trkpt>
      <trkpt lat="48.83056" lon="2.31288">
        <ele>116.3</ele>
        <time>2015-02-02T20:02:57.492Z</time>
      </trkpt>
      <trkpt lat="48.8306" lon="2.31283">
        <ele>116.7</ele>
        <time>2015-02-02T20:02:58.520Z</time>
      </trkpt>
      <trkpt lat="48.83067" lon="2.31275">
        <ele>117.1</ele>
        <time>2015-02-02T20:03:00.490Z</time>
      </trkpt>
      <trkpt lat="48.8307" lon="2.31271">
        <ele>117.2</ele>
        <time>2015-02-02T20:03:01.490Z</time>
      </trkpt>
      <trkpt lat="48.83075" lon="2.31262">
        <ele>117.8</ele>
        <time>2015-02-02T20:03:04.574Z</time>
      </trkpt>
      <trkpt lat="48.83079" lon="2.31257">
        <ele>118.3</ele>
        <time>2015-02-02T20:03:06.508Z</time>
      </trkpt>
      <trkpt lat="48.83085" lon="2.31249">
        <ele>118.4</ele>
        <time>2015-02-02T20:03:08.488Z</time>
      </trkpt>
      <trkpt lat="48.83089" lon="2.31247">
        <ele>117.7</ele>
        <time>2015-02-02T20:03:09.492Z</time>
      </trkpt>
      <trkpt lat="48.83094" lon="2.31237">
        <ele>117</ele>
        <time>2015-02-02T20:03:11.517Z</time>
      </trkpt>
      <trkpt lat="48.83096" lon="2.31232">
        <ele>117.1</ele>
        <time>2015-02-02T20:03:12.561Z</time>
      </trkpt>
      <trkpt lat="48.83099" lon="2.31223">
        <ele>117.4</ele>
        <time>2015-02-02T20:03:14.458Z</time>
      </trkpt>
      <trkpt lat="48.83101" lon="2.31219">
        <ele>117.5</ele>
        <time>2015-02-02T20:03:15.501Z</time>
      </trkpt>
      <trkpt lat="48.83107" lon="2.31211">
        <ele>117.8</ele>
        <time>2015-02-02T20:03:17.571Z</time>
      </trkpt>
      <trkpt lat="48.8311" lon="2.31207">
        <ele>117.8</ele>
        <time>2015-02-02T20:03:18.490Z</time>
      </trkpt>
      <trkpt lat="48.83115" lon="2.31197">
        <ele>118.1</ele>
        <time>2015-02-02T20:03:20.517Z</time>
      </trkpt>
      <trkpt lat="48.83118" lon="2.31192">
        <ele>118.2</ele>
        <time>2015-02-02T20:03:21.525Z</time>
      </trkpt>
      <trkpt lat="48.83122" lon="2.31186">
        <ele>118.3</ele>
        <time>2015-02-02T20:03:22.542Z</time>
      </trkpt>
      <trkpt lat="48.83125" lon="2.31181">
        <ele>118.3</ele>
        <time>2015-02-02T20:03:23.544Z</time>
      </trkpt>
      <trkpt lat="48.83129" lon="2.31176">
        <ele>118.5</ele>
        <time>2015-02-02T20:03:24.564Z</time>
      </trkpt>
      <trkpt lat="48.83133" lon="2.31172">
        <ele>118.4</ele>
        <time>2015-02-02T20:03:25.563Z</time>
      </trkpt>
      <trkpt lat="48.83137" lon="2.31168">
        <ele>118.2</ele>
        <time>2015-02-02T20:03:26.569Z</time>
      </trkpt>
      <trkpt lat="48.8314" lon="2.31163">
        <ele>118</ele>
        <time>2015-02-02T20:03:27.509Z</time>
      </trkpt>
      <trkpt lat="48.83146" lon="2.31154">
        <ele>117.6</ele>
        <time>2015-02-02T20:03:29.572Z</time>
      </trkpt>
      <trkpt lat="48.83148" lon="2.31151">
        <ele>117.3</ele>
        <time>2015-02-02T20:03:30.497Z</time>
      </trkpt>
      <trkpt lat="48.83154" lon="2.31142">
        <ele>117</ele>
        <time>2015-02-02T20:03:32.485Z</time>
      </trkpt>
      <trkpt lat="48.83162" lon="2.31127">
        <ele>116.7</ele>
        <time>2015-02-02T20:03:35.714Z</time>
      </trkpt>
      <trkpt lat="48.83168" lon="2.31117">
        <ele>115.9</ele>
        <time>2015-02-02T20:03:37.485Z</time>
      </trkpt>
      <trkpt lat="48.8317" lon="2.31112">
        <ele>115.7</ele>
        <time>2015-02-02T20:03:38.611Z</time>
      </trkpt>
      <trkpt lat="48.83173" lon="2.31106">
        <ele>115.4</ele>
        <time>2015-02-02T20:03:39.472Z</time>
      </trkpt>
      <trkpt lat="48.83202" lon="2.31065">
        <ele>114.6</ele>
        <time>2015-02-02T20:03:49.524Z</time>
      </trkpt>
      <trkpt lat="48.83207" lon="2.31053">
        <ele>114.4</ele>
        <time>2015-02-02T20:03:53.381Z</time>
      </trkpt>
      <trkpt lat="48.8321" lon="2.31054">
        <ele>114</ele>
        <time>2015-02-02T20:03:53.461Z</time>
      </trkpt>
      <trkpt lat="48.83213" lon="2.31052">
        <ele>111.5</ele>
        <time>2015-02-02T20:03:56.520Z</time>
      </trkpt>
      <trkpt lat="48.83212" lon="2.31052">
        <ele>110.5</ele>
        <time>2015-02-02T20:03:57.538Z</time>
      </trkpt>
      <trkpt lat="48.8321" lon="2.31051">
        <ele>108.9</ele>
        <time>2015-02-02T20:04:03.610Z</time>
      </trkpt>
      <trkpt lat="48.83212" lon="2.31051">
        <ele>108</ele>
        <time>2015-02-02T20:04:03.657Z</time>
      </trkpt>
      <trkpt lat="48.83219" lon="2.31059">
        <ele>105.1</ele>
        <time>2015-02-02T20:04:08.682Z</time>
      </trkpt>
      <trkpt lat="48.8322" lon="2.31061">
        <ele>104.8</ele>
        <time>2015-02-02T20:04:09.498Z</time>
      </trkpt>
      <trkpt lat="48.83226" lon="2.3107">
        <ele>103.9</ele>
        <time>2015-02-02T20:04:12.551Z</time>
      </trkpt>
      <trkpt lat="48.83228" lon="2.31074">
        <ele>103.8</ele>
        <time>2015-02-02T20:04:13.545Z</time>
      </trkpt>
      <trkpt lat="48.83231" lon="2.31081">
        <ele>103.7</ele>
        <time>2015-02-02T20:04:15.567Z</time>
      </trkpt>
      <trkpt lat="48.83233" lon="2.31085">
        <ele>103.3</ele>
        <time>2015-02-02T20:04:16.518Z</time>
      </trkpt>
      <trkpt lat="48.83236" lon="2.31094">
        <ele>102.8</ele>
        <time>2015-02-02T20:04:18.894Z</time>
      </trkpt>
      <trkpt lat="48.83238" lon="2.31098">
        <ele>102.7</ele>
        <time>2015-02-02T20:04:19.541Z</time>
      </trkpt>
      <trkpt lat="48.83243" lon="2.31108">
        <ele>103.4</ele>
        <time>2015-02-02T20:04:22.563Z</time>
      </trkpt>
      <trkpt lat="48.83246" lon="2.31113">
        <ele>103.5</ele>
        <time>2015-02-02T20:04:23.582Z</time>
      </trkpt>
      <trkpt lat="48.83251" lon="2.31122">
        <ele>103.6</ele>
        <time>2015-02-02T20:04:25.472Z</time>
      </trkpt>
      <trkpt lat="48.83253" lon="2.31126">
        <ele>103.5</ele>
        <time>2015-02-02T20:04:26.501Z</time>
      </trkpt>
      <trkpt lat="48.8326" lon="2.31133">
        <ele>103.7</ele>
        <time>2015-02-02T20:04:29.549Z</time>
      </trkpt>
      <trkpt lat="48.83262" lon="2.31135">
        <ele>103.9</ele>
        <time>2015-02-02T20:04:30.560Z</time>
      </trkpt>
      <trkpt lat="48.83269" lon="2.31129">
        <ele>105.1</ele>
        <time>2015-02-02T20:04:37.520Z</time>
      </trkpt>
      <trkpt lat="48.83269" lon="2.31129">
        <ele>105.3</ele>
        <time>2015-02-02T20:04:38.546Z</time>
      </trkpt>
      <trkpt lat="48.83269" lon="2.31129">
        <ele>105.3</ele>
        <time>2015-02-02T20:04:39.086Z</time>
      </trkpt>
      <trkpt lat="48.8327" lon="2.31128">
        <ele>105.5</ele>
        <time>2015-02-02T20:04:39.566Z</time>
      </trkpt>
      <trkpt lat="48.83265" lon="2.31118">
        <ele>104.7</ele>
        <time>2015-02-02T20:04:44.569Z</time>
      </trkpt>
      <trkpt lat="48.83263" lon="2.31115">
        <ele>104.9</ele>
        <time>2015-02-02T20:04:45.501Z</time>
      </trkpt>
      <trkpt lat="48.83257" lon="2.31106">
        <ele>104.5</ele>
        <time>2015-02-02T20:04:48.532Z</time>
      </trkpt>
      <trkpt lat="48.83255" lon="2.31104">
        <ele>104.4</ele>
        <time>2015-02-02T20:04:49.550Z</time>
      </trkpt>
      <trkpt lat="48.83261" lon="2.31111">
        <ele>104.1</ele>
        <time>2015-02-02T20:04:58.561Z</time>
      </trkpt>
      <trkpt lat="48.83263" lon="2.31113">
        <ele>104.2</ele>
        <time>2015-02-02T20:04:59.608Z</time>
      </trkpt>
      <trkpt lat="48.8327" lon="2.31107">
        <ele>103.5</ele>
        <time>2015-02-02T20:05:06.522Z</time>
      </trkpt>
      <trkpt lat="48.8327" lon="2.31103">
        <ele>103.3</ele>
        <time>2015-02-02T20:05:07.549Z</time>
      </trkpt>
      <trkpt lat="48.83271" lon="2.31092">
        <ele>103.1</ele>
        <time>2015-02-02T20:05:11.518Z</time>
      </trkpt>
      <trkpt lat="48.83273" lon="2.3109">
        <ele>103.5</ele>
        <time>2015-02-02T20:05:12.506Z</time>
      </trkpt>
      <trkpt lat="48.83281" lon="2.31087">
        <ele>103.9</ele>
        <time>2015-02-02T20:05:16.623Z</time>
      </trkpt>
      <trkpt lat="48.83282" lon="2.31086">
        <ele>103.8</ele>
        <time>2015-02-02T20:05:17.525Z</time>
      </trkpt>
      <trkpt lat="48.83286" lon="2.31097">
        <ele>103.8</ele>
        <time>2015-02-02T20:05:25.498Z</time>
      </trkpt>
      <trkpt lat="48.83287" lon="2.31098">
        <ele>103.8</ele>
        <time>2015-02-02T20:05:26.509Z</time>
      </trkpt>
      <trkpt lat="48.83294" lon="2.31103">
        <ele>104.2</ele>
        <time>2015-02-02T20:05:32.476Z</time>
      </trkpt>
      <trkpt lat="48.83296" lon="2.31104">
        <ele>104.5</ele>
        <time>2015-02-02T20:05:33.503Z</time>
      </trkpt>
      <trkpt lat="48.83299" lon="2.31116">
        <ele>105.7</ele>
        <time>2015-02-02T20:05:41.480Z</time>
      </trkpt>
      <trkpt lat="48.83299" lon="2.31118">
        <ele>105.7</ele>
        <time>2015-02-02T20:05:42.498Z</time>
      </trkpt>
      <trkpt lat="48.83297" lon="2.3113">
        <ele>105.3</ele>
        <time>2015-02-02T20:05:50.496Z</time>
      </trkpt>
      <trkpt lat="48.83296" lon="2.31132">
        <ele>105.3</ele>
        <time>2015-02-02T20:05:51.506Z</time>
      </trkpt>
      <trkpt lat="48.83296" lon="2.3114">
        <ele>104.8</ele>
        <time>2015-02-02T20:05:54.568Z</time>
      </trkpt>
      <trkpt lat="48.83299" lon="2.31147">
        <ele>102.9</ele>
        <time>2015-02-02T20:05:55.581Z</time>
      </trkpt>
      <trkpt lat="48.83303" lon="2.31157">
        <ele>102</ele>
        <time>2015-02-02T20:05:58.529Z</time>
      </trkpt>
      <trkpt lat="48.83305" lon="2.3116">
        <ele>102</ele>
        <time>2015-02-02T20:05:59.540Z</time>
      </trkpt>
      <trkpt lat="48.8331" lon="2.31168">
        <ele>102.1</ele>
        <time>2015-02-02T20:06:03.403Z</time>
      </trkpt>
      <trkpt lat="48.83312" lon="2.3117">
        <ele>102.1</ele>
        <time>2015-02-02T20:06:03.467Z</time>
      </trkpt>
      <trkpt lat="48.83318" lon="2.31175">
        <ele>101.4</ele>
        <time>2015-02-02T20:06:09.558Z</time>
      </trkpt>
      <trkpt lat="48.83318" lon="2.31174">
        <ele>100.7</ele>
        <time>2015-02-02T20:06:10.569Z</time>
      </trkpt>
      <trkpt lat="48.83319" lon="2.31173">
        <ele>100.1</ele>
        <time>2015-02-02T20:06:31.524Z</time>
      </trkpt>
      <trkpt lat="48.83319" lon="2.31179">
        <ele>101.4</ele>
        <time>2015-02-02T20:06:32.599Z</time>
      </trkpt>
      <trkpt lat="48.83312" lon="2.31174">
        <ele>101.8</ele>
        <time>2015-02-02T20:06:39.031Z</time>
      </trkpt>
      <trkpt lat="48.83309" lon="2.31171">
        <ele>101.8</ele>
        <time>2015-02-02T20:06:39.536Z</time>
      </trkpt>
      <trkpt lat="48.83303" lon="2.31163">
        <ele>102</ele>
        <time>2015-02-02T20:06:42.613Z</time>
      </trkpt>
      <trkpt lat="48.83301" lon="2.3116">
        <ele>101.8</ele>
        <time>2015-02-02T20:06:43.583Z</time>
      </trkpt>
      <trkpt lat="48.83295" lon="2.31151">
        <ele>101.4</ele>
        <time>2015-02-02T20:06:46.506Z</time>
      </trkpt>
      <trkpt lat="48.83294" lon="2.31148">
        <ele>101.3</ele>
        <time>2015-02-02T20:06:47.560Z</time>
      </trkpt>
      <trkpt lat="48.83293" lon="2.31136">
        <ele>101.6</ele>
        <time>2015-02-02T20:06:53.259Z</time>
      </trkpt>
      <trkpt lat="48.83294" lon="2.31133">
        <ele>101.6</ele>
        <time>2015-02-02T20:06:53.474Z</time>
      </trkpt>
      <trkpt lat="48.83299" lon="2.31123">
        <ele>102</ele>
        <time>2015-02-02T20:06:58.353Z</time>
      </trkpt>
      <trkpt lat="48.833" lon="2.31121">
        <ele>102.1</ele>
        <time>2015-02-02T20:06:58.605Z</time>
      </trkpt>
      <trkpt lat="48.83299" lon="2.31108">
        <ele>102.7</ele>
        <time>2015-02-02T20:07:05.544Z</time>
      </trkpt>
      <trkpt lat="48.83298" lon="2.31106">
        <ele>102.8</ele>
        <time>2015-02-02T20:07:06.560Z</time>
      </trkpt>
      <trkpt lat="48.833" lon="2.31091">
        <ele>103.8</ele>
        <time>2015-02-02T20:07:10.524Z</time>
      </trkpt>
      <trkpt lat="48.83298" lon="2.31082">
        <ele>103.6</ele>
        <time>2015-02-02T20:07:11.569Z</time>
      </trkpt>
      <trkpt lat="48.83295" lon="2.31069">
        <ele>103.5</ele>
        <time>2015-02-02T20:07:12.597Z</time>
      </trkpt>
      <trkpt lat="48.83294" lon="2.31058">
        <ele>103.7</ele>
        <time>2015-02-02T20:07:14.494Z</time>
      </trkpt>
      <trkpt lat="48.83293" lon="2.31055">
        <ele>103.8</ele>
        <time>2015-02-02T20:07:15.526Z</time>
      </trkpt>
      <trkpt lat="48.83293" lon="2.31046">
        <ele>104</ele>
        <time>2015-02-02T20:07:18.592Z</time>
      </trkpt>
      <trkpt lat="48.83296" lon="2.31041">
        <ele>104.4</ele>
        <time>2015-02-02T20:07:18.633Z</time>
      </trkpt>
      <trkpt lat="48.833" lon="2.3103">
        <ele>104.9</ele>
        <time>2015-02-02T20:07:21.489Z</time>
      </trkpt>
      <trkpt lat="48.83302" lon="2.31028">
        <ele>105</ele>
        <time>2015-02-02T20:07:22.523Z</time>
      </trkpt>
      <trkpt lat="48.83307" lon="2.31031">
        <ele>104.8</ele>
        <time>2015-02-02T20:07:24.497Z</time>
      </trkpt>
      <trkpt lat="48.83315" lon="2.31039">
        <ele>103.2</ele>
        <time>2015-02-02T20:07:25.571Z</time>
      </trkpt>
      <trkpt lat="48.83321" lon="2.31043">
        <ele>102.1</ele>
        <time>2015-02-02T20:07:26.490Z</time>
      </trkpt>
      <trkpt lat="48.83326" lon="2.31046">
        <ele>101.4</ele>
        <time>2015-02-02T20:07:27.601Z</time>
      </trkpt>
      <trkpt lat="48.83339" lon="2.31055">
        <ele>100.1</ele>
        <time>2015-02-02T20:07:30.583Z</time>
      </trkpt>
      <trkpt lat="48.83346" lon="2.3106">
        <ele>100.3</ele>
        <time>2015-02-02T20:07:32.462Z</time>
      </trkpt>
      <trkpt lat="48.8335" lon="2.31062">
        <ele>100.5</ele>
        <time>2015-02-02T20:07:33.591Z</time>
      </trkpt>
      <trkpt lat="48.83355" lon="2.31063">
        <ele>100.4</ele>
        <time>2015-02-02T20:07:34.613Z</time>
      </trkpt>
      <trkpt lat="48.8336" lon="2.31062">
        <ele>100.4</ele>
        <time>2015-02-02T20:07:35.484Z</time>
      </trkpt>
      <trkpt lat="48.83365" lon="2.31063">
        <ele>100.3</ele>
        <time>2015-02-02T20:07:36.489Z</time>
      </trkpt>
      <trkpt lat="48.8337" lon="2.31068">
        <ele>100.1</ele>
        <time>2015-02-02T20:07:37.500Z</time>
      </trkpt>
      <trkpt lat="48.83374" lon="2.31074">
        <ele>100</ele>
        <time>2015-02-02T20:07:38.518Z</time>
      </trkpt>
      <trkpt lat="48.83378" lon="2.31081">
        <ele>99.7</ele>
        <time>2015-02-02T20:07:39.521Z</time>
      </trkpt>
      <trkpt lat="48.83382" lon="2.3109">
        <ele>99.1</ele>
        <time>2015-02-02T20:07:40.543Z</time>
      </trkpt>
      <trkpt lat="48.83387" lon="2.311">
        <ele>99.1</ele>
        <time>2015-02-02T20:07:41.572Z</time>
      </trkpt>
      <trkpt lat="48.83398" lon="2.31113">
        <ele>98.1</ele>
        <time>2015-02-02T20:07:43.473Z</time>
      </trkpt>
      <trkpt lat="48.83402" lon="2.31119">
        <ele>97.8</ele>
        <time>2015-02-02T20:07:44.484Z</time>
      </trkpt>
      <trkpt lat="48.83407" lon="2.31123">
        <ele>97.6</ele>
        <time>2015-02-02T20:07:45.579Z</time>
      </trkpt>
      <trkpt lat="48.83412" lon="2.31128">
        <ele>97.4</ele>
        <time>2015-02-02T20:07:46.593Z</time>
      </trkpt>
      <trkpt lat="48.83417" lon="2.31132">
        <ele>97.1</ele>
        <time>2015-02-02T20:07:47.480Z</time>
      </trkpt>
      <trkpt lat="48.83423" lon="2.31135">
        <ele>97</ele>
        <time>2015-02-02T20:07:48.578Z</time>
      </trkpt>
      <trkpt lat="48.83429" lon="2.31138">
        <ele>96.8</ele>
        <time>2015-02-02T20:07:49.477Z</time>
      </trkpt>
      <trkpt lat="48.83434" lon="2.31141">
        <ele>96.6</ele>
        <time>2015-02-02T20:07:50.490Z</time>
      </trkpt>
      <trkpt lat="48.83439" lon="2.31145">
        <ele>96.4</ele>
        <time>2015-02-02T20:07:51.501Z</time>
      </trkpt>
      <trkpt lat="48.83443" lon="2.31149">
        <ele>96.1</ele>
        <time>2015-02-02T20:07:52.534Z</time>
      </trkpt>
      <trkpt lat="48.83448" lon="2.31154">
        <ele>96</ele>
        <time>2015-02-02T20:07:53.548Z</time>
      </trkpt>
      <trkpt lat="48.83453" lon="2.31159">
        <ele>96.4</ele>
        <time>2015-02-02T20:07:54.484Z</time>
      </trkpt>
      <trkpt lat="48.8346" lon="2.31163">
        <ele>96.8</ele>
        <time>2015-02-02T20:07:55.485Z</time>
      </trkpt>
      <trkpt lat="48.83466" lon="2.31168">
        <ele>97</ele>
        <time>2015-02-02T20:07:56.488Z</time>
      </trkpt>
      <trkpt lat="48.83472" lon="2.31172">
        <ele>97.2</ele>
        <time>2015-02-02T20:07:57.493Z</time>
      </trkpt>
      <trkpt lat="48.83485" lon="2.31177">
        <ele>97.6</ele>
        <time>2015-02-02T20:07:59.507Z</time>
      </trkpt>
      <trkpt lat="48.83491" lon="2.3118">
        <ele>97.7</ele>
        <time>2015-02-02T20:08:00.522Z</time>
      </trkpt>
      <trkpt lat="48.83497" lon="2.31182">
        <ele>97.7</ele>
        <time>2015-02-02T20:08:01.537Z</time>
      </trkpt>
      <trkpt lat="48.83503" lon="2.31183">
        <ele>97.8</ele>
        <time>2015-02-02T20:08:02.483Z</time>
      </trkpt>
      <trkpt lat="48.83508" lon="2.31185">
        <ele>98</ele>
        <time>2015-02-02T20:08:03.485Z</time>
      </trkpt>
      <trkpt lat="48.83512" lon="2.31189">
        <ele>98.3</ele>
        <time>2015-02-02T20:08:04.530Z</time>
      </trkpt>
      <trkpt lat="48.83516" lon="2.31193">
        <ele>98.4</ele>
        <time>2015-02-02T20:08:05.524Z</time>
      </trkpt>
      <trkpt lat="48.83521" lon="2.31198">
        <ele>98.5</ele>
        <time>2015-02-02T20:08:07.533Z</time>
      </trkpt>
      <trkpt lat="48.83525" lon="2.31195">
        <ele>98.5</ele>
        <time>2015-02-02T20:08:08.547Z</time>
      </trkpt>
      <trkpt lat="48.83533" lon="2.31189">
        <ele>98.9</ele>
        <time>2015-02-02T20:08:12.496Z</time>
      </trkpt>
      <trkpt lat="48.83534" lon="2.31188">
        <ele>99.3</ele>
        <time>2015-02-02T20:08:13.529Z</time>
      </trkpt>
      <trkpt lat="48.83541" lon="2.31182">
        <ele>102.4</ele>
        <time>2015-02-02T20:08:29.524Z</time>
      </trkpt>
      <trkpt lat="48.83542" lon="2.3118">
        <ele>102.3</ele>
        <time>2015-02-02T20:08:30.536Z</time>
      </trkpt>
      <trkpt lat="48.83546" lon="2.31173">
        <ele>102.6</ele>
        <time>2015-02-02T20:08:34.526Z</time>
      </trkpt>
      <trkpt lat="48.83548" lon="2.3117">
        <ele>102.5</ele>
        <time>2015-02-02T20:08:35.551Z</time>
      </trkpt>
      <trkpt lat="48.8356" lon="2.31156">
        <ele>102.5</ele>
        <time>2015-02-02T20:08:41.563Z</time>
      </trkpt>
      <trkpt lat="48.83565" lon="2.31147">
        <ele>102.5</ele>
        <time>2015-02-02T20:08:43.473Z</time>
      </trkpt>
      <trkpt lat="48.83569" lon="2.31145">
        <ele>102.8</ele>
        <time>2015-02-02T20:08:44.474Z</time>
      </trkpt>
      <trkpt lat="48.83576" lon="2.31139">
        <ele>103.1</ele>
        <time>2015-02-02T20:08:46.643Z</time>
      </trkpt>
      <trkpt lat="48.83579" lon="2.31136">
        <ele>103.2</ele>
        <time>2015-02-02T20:08:47.487Z</time>
      </trkpt>
      <trkpt lat="48.83585" lon="2.3113">
        <ele>103.6</ele>
        <time>2015-02-02T20:08:49.544Z</time>
      </trkpt>
      <trkpt lat="48.83588" lon="2.31127">
        <ele>103.8</ele>
        <time>2015-02-02T20:08:50.612Z</time>
      </trkpt>
      <trkpt lat="48.83596" lon="2.31122">
        <ele>104</ele>
        <time>2015-02-02T20:08:52.507Z</time>
      </trkpt>
      <trkpt lat="48.83599" lon="2.31119">
        <ele>104.1</ele>
        <time>2015-02-02T20:08:53.511Z</time>
      </trkpt>
      <trkpt lat="48.83605" lon="2.31111">
        <ele>104.3</ele>
        <time>2015-02-02T20:08:55.482Z</time>
      </trkpt>
      <trkpt lat="48.83607" lon="2.31107">
        <ele>104.4</ele>
        <time>2015-02-02T20:08:56.485Z</time>
      </trkpt>
      <trkpt lat="48.83612" lon="2.31096">
        <ele>104.6</ele>
        <time>2015-02-02T20:08:58.521Z</time>
      </trkpt>
      <trkpt lat="48.83615" lon="2.31091">
        <ele>104.5</ele>
        <time>2015-02-02T20:08:59.533Z</time>
      </trkpt>
      <trkpt lat="48.8362" lon="2.31084">
        <ele>104.5</ele>
        <time>2015-02-02T20:09:01.558Z</time>
      </trkpt>
      <trkpt lat="48.83623" lon="2.31079">
        <ele>104.7</ele>
        <time>2015-02-02T20:09:02.476Z</time>
      </trkpt>
      <trkpt lat="48.83637" lon="2.31045">
        <ele>104.2</ele>
        <time>2015-02-02T20:09:09.476Z</time>
      </trkpt>
      <trkpt lat="48.83639" lon="2.31033">
        <ele>102.6</ele>
        <time>2015-02-02T20:09:11.510Z</time>
      </trkpt>
      <trkpt lat="48.83639" lon="2.31027">
        <ele>102</ele>
        <time>2015-02-02T20:09:12.595Z</time>
      </trkpt>
      <trkpt lat="48.83636" lon="2.31016">
        <ele>97.8</ele>
        <time>2015-02-02T20:09:13.475Z</time>
      </trkpt>
      <trkpt lat="48.83637" lon="2.31011">
        <ele>97.7</ele>
        <time>2015-02-02T20:09:14.477Z</time>
      </trkpt>
      <trkpt lat="48.8364" lon="2.31006">
        <ele>97.7</ele>
        <time>2015-02-02T20:09:15.496Z</time>
      </trkpt>
      <trkpt lat="48.83644" lon="2.31">
        <ele>99.6</ele>
        <time>2015-02-02T20:09:16.501Z</time>
      </trkpt>
      <trkpt lat="48.83651" lon="2.30991">
        <ele>99.8</ele>
        <time>2015-02-02T20:09:18.518Z</time>
      </trkpt>
      <trkpt lat="48.83654" lon="2.30987">
        <ele>99.8</ele>
        <time>2015-02-02T20:09:19.523Z</time>
      </trkpt>
      <trkpt lat="48.83657" lon="2.30981">
        <ele>99.9</ele>
        <time>2015-02-02T20:09:20.558Z</time>
      </trkpt>
      <trkpt lat="48.8366" lon="2.30975">
        <ele>100</ele>
        <time>2015-02-02T20:09:21.563Z</time>
      </trkpt>
      <trkpt lat="48.83664" lon="2.30969">
        <ele>99.9</ele>
        <time>2015-02-02T20:09:22.585Z</time>
      </trkpt>
      <trkpt lat="48.83667" lon="2.30963">
        <ele>99.8</ele>
        <time>2015-02-02T20:09:23.490Z</time>
      </trkpt>
      <trkpt lat="48.8367" lon="2.30958">
        <ele>99.6</ele>
        <time>2015-02-02T20:09:24.496Z</time>
      </trkpt>
      <trkpt lat="48.83674" lon="2.30953">
        <ele>99.5</ele>
        <time>2015-02-02T20:09:25.498Z</time>
      </trkpt>
      <trkpt lat="48.83677" lon="2.30948">
        <ele>99.5</ele>
        <time>2015-02-02T20:09:26.528Z</time>
      </trkpt>
      <trkpt lat="48.83681" lon="2.30943">
        <ele>99.4</ele>
        <time>2015-02-02T20:09:27.531Z</time>
      </trkpt>
      <trkpt lat="48.83685" lon="2.30938">
        <ele>99.2</ele>
        <time>2015-02-02T20:09:28.547Z</time>
      </trkpt>
      <trkpt lat="48.83688" lon="2.30933">
        <ele>99.2</ele>
        <time>2015-02-02T20:09:29.592Z</time>
      </trkpt>
      <trkpt lat="48.83692" lon="2.30928">
        <ele>99.1</ele>
        <time>2015-02-02T20:09:30.524Z</time>
      </trkpt>
      <trkpt lat="48.83696" lon="2.30923">
        <ele>99.1</ele>
        <time>2015-02-02T20:09:31.537Z</time>
      </trkpt>
      <trkpt lat="48.83699" lon="2.30917">
        <ele>99</ele>
        <time>2015-02-02T20:09:32.495Z</time>
      </trkpt>
      <trkpt lat="48.83703" lon="2.30912">
        <ele>99</ele>
        <time>2015-02-02T20:09:33.511Z</time>
      </trkpt>
      <trkpt lat="48.83707" lon="2.30905">
        <ele>99</ele>
        <time>2015-02-02T20:09:34.565Z</time>
      </trkpt>
      <trkpt lat="48.8371" lon="2.30898">
        <ele>99</ele>
        <time>2015-02-02T20:09:35.655Z</time>
      </trkpt>
      <trkpt lat="48.83714" lon="2.30893">
        <ele>99.1</ele>
        <time>2015-02-02T20:09:36.491Z</time>
      </trkpt>
      <trkpt lat="48.83718" lon="2.30888">
        <ele>99.3</ele>
        <time>2015-02-02T20:09:37.512Z</time>
      </trkpt>
      <trkpt lat="48.83722" lon="2.30883">
        <ele>99.4</ele>
        <time>2015-02-02T20:09:39.317Z</time>
      </trkpt>
      <trkpt lat="48.83727" lon="2.30879">
        <ele>99.4</ele>
        <time>2015-02-02T20:09:39.538Z</time>
      </trkpt>
      <trkpt lat="48.83732" lon="2.30873">
        <ele>99.5</ele>
        <time>2015-02-02T20:09:40.546Z</time>
      </trkpt>
      <trkpt lat="48.83736" lon="2.30868">
        <ele>99.6</ele>
        <time>2015-02-02T20:09:41.551Z</time>
      </trkpt>
      <trkpt lat="48.8374" lon="2.30861">
        <ele>99.8</ele>
        <time>2015-02-02T20:09:42.577Z</time>
      </trkpt>
      <trkpt lat="48.83744" lon="2.30856">
        <ele>99.9</ele>
        <time>2015-02-02T20:09:43.488Z</time>
      </trkpt>
      <trkpt lat="48.83749" lon="2.30849">
        <ele>100</ele>
        <time>2015-02-02T20:09:44.491Z</time>
      </trkpt>
      <trkpt lat="48.83753" lon="2.30844">
        <ele>100.1</ele>
        <time>2015-02-02T20:09:45.496Z</time>
      </trkpt>
      <trkpt lat="48.83758" lon="2.30834">
        <ele>100.3</ele>
        <time>2015-02-02T20:09:47.532Z</time>
      </trkpt>
      <trkpt lat="48.8376" lon="2.3083">
        <ele>100.4</ele>
        <time>2015-02-02T20:09:48.583Z</time>
      </trkpt>
      <trkpt lat="48.83761" lon="2.30819">
        <ele>100.7</ele>
        <time>2015-02-02T20:09:50.495Z</time>
      </trkpt>
      <trkpt lat="48.83761" lon="2.30814">
        <ele>100.8</ele>
        <time>2015-02-02T20:09:51.507Z</time>
      </trkpt>
      <trkpt lat="48.83764" lon="2.30806">
        <ele>101.1</ele>
        <time>2015-02-02T20:09:53.551Z</time>
      </trkpt>
      <trkpt lat="48.83767" lon="2.30803">
        <ele>101.2</ele>
        <time>2015-02-02T20:09:54.571Z</time>
      </trkpt>
      <trkpt lat="48.83774" lon="2.30795">
        <ele>101.1</ele>
        <time>2015-02-02T20:09:56.486Z</time>
      </trkpt>
      <trkpt lat="48.83776" lon="2.30793">
        <ele>101</ele>
        <time>2015-02-02T20:09:57.496Z</time>
      </trkpt>
      <trkpt lat="48.83783" lon="2.30786">
        <ele>101.1</ele>
        <time>2015-02-02T20:09:59.523Z</time>
      </trkpt>
      <trkpt lat="48.83786" lon="2.30781">
        <ele>101</ele>
        <time>2015-02-02T20:10:00.550Z</time>
      </trkpt>
      <trkpt lat="48.8379" lon="2.30776">
        <ele>101</ele>
        <time>2015-02-02T20:10:01.615Z</time>
      </trkpt>
      <trkpt lat="48.83794" lon="2.30772">
        <ele>100.9</ele>
        <time>2015-02-02T20:10:02.468Z</time>
      </trkpt>
      <trkpt lat="48.838" lon="2.30768">
        <ele>100.8</ele>
        <time>2015-02-02T20:10:03.481Z</time>
      </trkpt>
      <trkpt lat="48.83804" lon="2.30763">
        <ele>100.8</ele>
        <time>2015-02-02T20:10:04.551Z</time>
      </trkpt>
      <trkpt lat="48.83808" lon="2.30757">
        <ele>101.1</ele>
        <time>2015-02-02T20:10:05.570Z</time>
      </trkpt>
      <trkpt lat="48.83811" lon="2.30751">
        <ele>101.4</ele>
        <time>2015-02-02T20:10:06.480Z</time>
      </trkpt>
      <trkpt lat="48.83815" lon="2.30744">
        <ele>101.7</ele>
        <time>2015-02-02T20:10:07.483Z</time>
      </trkpt>
      <trkpt lat="48.83819" lon="2.30738">
        <ele>101.9</ele>
        <time>2015-02-02T20:10:08.481Z</time>
      </trkpt>
      <trkpt lat="48.83823" lon="2.30731">
        <ele>102</ele>
        <time>2015-02-02T20:10:09.488Z</time>
      </trkpt>
      <trkpt lat="48.83826" lon="2.30725">
        <ele>102.2</ele>
        <time>2015-02-02T20:10:10.499Z</time>
      </trkpt>
      <trkpt lat="48.8383" lon="2.30719">
        <ele>102.3</ele>
        <time>2015-02-02T20:10:11.521Z</time>
      </trkpt>
      <trkpt lat="48.83833" lon="2.30714">
        <ele>102.5</ele>
        <time>2015-02-02T20:10:12.535Z</time>
      </trkpt>
      <trkpt lat="48.83838" lon="2.30708">
        <ele>102.7</ele>
        <time>2015-02-02T20:10:13.482Z</time>
      </trkpt>
      <trkpt lat="48.83842" lon="2.30703">
        <ele>102.8</ele>
        <time>2015-02-02T20:10:14.485Z</time>
      </trkpt>
      <trkpt lat="48.83846" lon="2.30698">
        <ele>102.8</ele>
        <time>2015-02-02T20:10:15.512Z</time>
      </trkpt>
      <trkpt lat="48.8385" lon="2.30693">
        <ele>102.9</ele>
        <time>2015-02-02T20:10:16.516Z</time>
      </trkpt>
      <trkpt lat="48.83855" lon="2.30689">
        <ele>103</ele>
        <time>2015-02-02T20:10:17.536Z</time>
      </trkpt>
      <trkpt lat="48.83859" lon="2.30684">
        <ele>102.9</ele>
        <time>2015-02-02T20:10:18.544Z</time>
      </trkpt>
      <trkpt lat="48.83864" lon="2.30679">
        <ele>102.9</ele>
        <time>2015-02-02T20:10:19.578Z</time>
      </trkpt>
      <trkpt lat="48.83869" lon="2.30674">
        <ele>102.9</ele>
        <time>2015-02-02T20:10:20.569Z</time>
      </trkpt>
      <trkpt lat="48.83874" lon="2.3067">
        <ele>103</ele>
        <time>2015-02-02T20:10:21.459Z</time>
      </trkpt>
      <trkpt lat="48.83879" lon="2.30666">
        <ele>103.1</ele>
        <time>2015-02-02T20:10:22.494Z</time>
      </trkpt>
      <trkpt lat="48.83884" lon="2.30661">
        <ele>103.1</ele>
        <time>2015-02-02T20:10:23.497Z</time>
      </trkpt>
      <trkpt lat="48.83888" lon="2.30657">
        <ele>103.1</ele>
        <time>2015-02-02T20:10:24.499Z</time>
      </trkpt>
      <trkpt lat="48.83894" lon="2.30649">
        <ele>103.2</ele>
        <time>2015-02-02T20:10:26.501Z</time>
      </trkpt>
      <trkpt lat="48.83896" lon="2.30646">
        <ele>103.3</ele>
        <time>2015-02-02T20:10:27.508Z</time>
      </trkpt>
      <trkpt lat="48.83902" lon="2.30639">
        <ele>103.5</ele>
        <time>2015-02-02T20:10:32.513Z</time>
      </trkpt>
      <trkpt lat="48.83903" lon="2.30639">
        <ele>103.5</ele>
        <time>2015-02-02T20:10:33.539Z</time>
      </trkpt>
      <trkpt lat="48.83911" lon="2.30635">
        <ele>103.5</ele>
        <time>2015-02-02T20:10:36.483Z</time>
      </trkpt>
      <trkpt lat="48.83913" lon="2.30634">
        <ele>103.8</ele>
        <time>2015-02-02T20:10:37.495Z</time>
      </trkpt>
      <trkpt lat="48.8392" lon="2.30626">
        <ele>104.2</ele>
        <time>2015-02-02T20:10:40.603Z</time>
      </trkpt>
      <trkpt lat="48.83927" lon="2.30617">
        <ele>104.3</ele>
        <time>2015-02-02T20:10:42.498Z</time>
      </trkpt>
      <trkpt lat="48.83975" lon="2.30576">
        <ele>103.7</ele>
        <time>2015-02-02T20:10:58.520Z</time>
      </trkpt>
      <trkpt lat="48.83984" lon="2.30574">
        <ele>104.8</ele>
        <time>2015-02-02T20:11:01.515Z</time>
      </trkpt>
      <trkpt lat="48.84" lon="2.30561">
        <ele>104.7</ele>
        <time>2015-02-02T20:11:05.492Z</time>
      </trkpt>
      <trkpt lat="48.84005" lon="2.30555">
        <ele>105.1</ele>
        <time>2015-02-02T20:11:07.561Z</time>
      </trkpt>
      <trkpt lat="48.84008" lon="2.30554">
        <ele>105.3</ele>
        <time>2015-02-02T20:11:08.485Z</time>
      </trkpt>
      <trkpt lat="48.84015" lon="2.30549">
        <ele>105.3</ele>
        <time>2015-02-02T20:11:11.535Z</time>
      </trkpt>
      <trkpt lat="48.84017" lon="2.30547">
        <ele>105.5</ele>
        <time>2015-02-02T20:11:12.549Z</time>
      </trkpt>
      <trkpt lat="48.84021" lon="2.30542">
        <ele>105.8</ele>
        <time>2015-02-02T20:11:14.493Z</time>
      </trkpt>
      <trkpt lat="48.84025" lon="2.30537">
        <ele>106.1</ele>
        <time>2015-02-02T20:11:16.525Z</time>
      </trkpt>
      <trkpt lat="48.84056" lon="2.30508">
        <ele>104.9</ele>
        <time>2015-02-02T20:11:26.497Z</time>
      </trkpt>
      <trkpt lat="48.84063" lon="2.30507">
        <ele>105.8</ele>
        <time>2015-02-02T20:11:33.551Z</time>
      </trkpt>
      <trkpt lat="48.84065" lon="2.30509">
        <ele>106.1</ele>
        <time>2015-02-02T20:11:34.565Z</time>
      </trkpt>
      <trkpt lat="48.84073" lon="2.30516">
        <ele>106.3</ele>
        <time>2015-02-02T20:11:37.491Z</time>
      </trkpt>
      <trkpt lat="48.84075" lon="2.30518">
        <ele>106.2</ele>
        <time>2015-02-02T20:11:38.501Z</time>
      </trkpt>
      <trkpt lat="48.84082" lon="2.30525">
        <ele>106.2</ele>
        <time>2015-02-02T20:11:42.545Z</time>
      </trkpt>
      <trkpt lat="48.84084" lon="2.30525">
        <ele>106.4</ele>
        <time>2015-02-02T20:11:43.479Z</time>
      </trkpt>
      <trkpt lat="48.84217" lon="2.30456">
        <ele>101.9</ele>
        <time>2015-02-02T20:12:32.510Z</time>
      </trkpt>
      <trkpt lat="48.84217" lon="2.3046">
        <ele>102</ele>
        <time>2015-02-02T20:12:34.586Z</time>
      </trkpt>
      <trkpt lat="48.84232" lon="2.30502">
        <ele>101.9</ele>
        <time>2015-02-02T20:12:42.531Z</time>
      </trkpt>
      <trkpt lat="48.84234" lon="2.30512">
        <ele>101.8</ele>
        <time>2015-02-02T20:12:44.676Z</time>
      </trkpt>
      <trkpt lat="48.84236" lon="2.30517">
        <ele>101.8</ele>
        <time>2015-02-02T20:12:45.561Z</time>
      </trkpt>
      <trkpt lat="48.84239" lon="2.30527">
        <ele>101.7</ele>
        <time>2015-02-02T20:12:47.502Z</time>
      </trkpt>
      <trkpt lat="48.84241" lon="2.30532">
        <ele>101.7</ele>
        <time>2015-02-02T20:12:48.611Z</time>
      </trkpt>
      <trkpt lat="48.84244" lon="2.30538">
        <ele>101.7</ele>
        <time>2015-02-02T20:12:49.587Z</time>
      </trkpt>
      <trkpt lat="48.84247" lon="2.30544">
        <ele>101.7</ele>
        <time>2015-02-02T20:12:50.524Z</time>
      </trkpt>
      <trkpt lat="48.84339" lon="2.30671">
        <ele>100.3</ele>
        <time>2015-02-02T20:13:29.496Z</time>
      </trkpt>
      <trkpt lat="48.84344" lon="2.30667">
        <ele>99.2</ele>
        <time>2015-02-02T20:13:30.512Z</time>
      </trkpt>
      <trkpt lat="48.84349" lon="2.30663">
        <ele>98.1</ele>
        <time>2015-02-02T20:13:31.534Z</time>
      </trkpt>
      <trkpt lat="48.84353" lon="2.30652">
        <ele>98.3</ele>
        <time>2015-02-02T20:13:37.562Z</time>
      </trkpt>
      <trkpt lat="48.84352" lon="2.3065">
        <ele>98.5</ele>
        <time>2015-02-02T20:13:38.471Z</time>
      </trkpt>
      <trkpt lat="48.8436" lon="2.30645">
        <ele>101.3</ele>
        <time>2015-02-02T20:13:44.535Z</time>
      </trkpt>
      <trkpt lat="48.8436" lon="2.30644">
        <ele>101.7</ele>
        <time>2015-02-02T20:13:45.555Z</time>
      </trkpt>
      <trkpt lat="48.8436" lon="2.30643">
        <ele>102.1</ele>
        <time>2015-02-02T20:13:46.592Z</time>
      </trkpt>
      <trkpt lat="48.8436" lon="2.30639">
        <ele>104.2</ele>
        <time>2015-02-02T20:13:51.459Z</time>
      </trkpt>
      <trkpt lat="48.84359" lon="2.30638">
        <ele>104.8</ele>
        <time>2015-02-02T20:13:52.496Z</time>
      </trkpt>
      <trkpt lat="48.84359" lon="2.30638">
        <ele>105.5</ele>
        <time>2015-02-02T20:13:53.495Z</time>
      </trkpt>
      <trkpt lat="48.84367" lon="2.30631">
        <ele>107.4</ele>
        <time>2015-02-02T20:14:01.503Z</time>
      </trkpt>
      <trkpt lat="48.84369" lon="2.30631">
        <ele>107.7</ele>
        <time>2015-02-02T20:14:02.523Z</time>
      </trkpt>
      <trkpt lat="48.84376" lon="2.30634">
        <ele>108.3</ele>
        <time>2015-02-02T20:14:05.574Z</time>
      </trkpt>
      <trkpt lat="48.84378" lon="2.30635">
        <ele>108.4</ele>
        <time>2015-02-02T20:14:06.490Z</time>
      </trkpt>
      <trkpt lat="48.84384" lon="2.30625">
        <ele>108.5</ele>
        <time>2015-02-02T20:14:09.511Z</time>
      </trkpt>
      <trkpt lat="48.84386" lon="2.30621">
        <ele>108.4</ele>
        <time>2015-02-02T20:14:10.531Z</time>
      </trkpt>
      <trkpt lat="48.84394" lon="2.30614">
        <ele>108.2</ele>
        <time>2015-02-02T20:14:13.485Z</time>
      </trkpt>
      <trkpt lat="48.84397" lon="2.30614">
        <ele>108.4</ele>
        <time>2015-02-02T20:14:14.518Z</time>
      </trkpt>
      <trkpt lat="48.84403" lon="2.30612">
        <ele>108.8</ele>
        <time>2015-02-02T20:14:16.585Z</time>
      </trkpt>
      <trkpt lat="48.84407" lon="2.30611">
        <ele>109.2</ele>
        <time>2015-02-02T20:14:17.475Z</time>
      </trkpt>
      <trkpt lat="48.84412" lon="2.30611">
        <ele>109.3</ele>
        <time>2015-02-02T20:14:18.525Z</time>
      </trkpt>
      <trkpt lat="48.8442" lon="2.30608">
        <ele>108.5</ele>
        <time>2015-02-02T20:14:19.533Z</time>
      </trkpt>
      <trkpt lat="48.84432" lon="2.30606">
        <ele>107.1</ele>
        <time>2015-02-02T20:14:20.546Z</time>
      </trkpt>
      <trkpt lat="48.84442" lon="2.30604">
        <ele>105.9</ele>
        <time>2015-02-02T20:14:21.553Z</time>
      </trkpt>
      <trkpt lat="48.84448" lon="2.30601">
        <ele>105.3</ele>
        <time>2015-02-02T20:14:22.559Z</time>
      </trkpt>
      <trkpt lat="48.84451" lon="2.30597">
        <ele>105.1</ele>
        <time>2015-02-02T20:14:23.496Z</time>
      </trkpt>
      <trkpt lat="48.84458" lon="2.30594">
        <ele>105.1</ele>
        <time>2015-02-02T20:14:25.508Z</time>
      </trkpt>
      <trkpt lat="48.84463" lon="2.30592">
        <ele>105</ele>
        <time>2015-02-02T20:14:26.522Z</time>
      </trkpt>
      <trkpt lat="48.8447" lon="2.30589">
        <ele>104.9</ele>
        <time>2015-02-02T20:14:28.539Z</time>
      </trkpt>
      <trkpt lat="48.84472" lon="2.30588">
        <ele>104.8</ele>
        <time>2015-02-02T20:14:29.549Z</time>
      </trkpt>
      <trkpt lat="48.84473" lon="2.30583">
        <ele>104.5</ele>
        <time>2015-02-02T20:14:30.569Z</time>
      </trkpt>
      <trkpt lat="48.84486" lon="2.30567">
        <ele>103.6</ele>
        <time>2015-02-02T20:14:35.517Z</time>
      </trkpt>
      <trkpt lat="48.84495" lon="2.30563">
        <ele>103</ele>
        <time>2015-02-02T20:14:38.493Z</time>
      </trkpt>
      <trkpt lat="48.84496" lon="2.30562">
        <ele>102.9</ele>
        <time>2015-02-02T20:14:39.462Z</time>
      </trkpt>
      <trkpt lat="48.84588" lon="2.30495">
        <ele>98.7</ele>
        <time>2015-02-02T20:15:03.483Z</time>
      </trkpt>
      <trkpt lat="48.84596" lon="2.30492">
        <ele>99.2</ele>
        <time>2015-02-02T20:15:06.543Z</time>
      </trkpt>
      <trkpt lat="48.84598" lon="2.30492">
        <ele>99.2</ele>
        <time>2015-02-02T20:15:07.492Z</time>
      </trkpt>
      <trkpt lat="48.84599" lon="2.30493">
        <ele>99.3</ele>
        <time>2015-02-02T20:15:08.575Z</time>
      </trkpt>
      <trkpt lat="48.84691" lon="2.30426">
        <ele>96.4</ele>
        <time>2015-02-02T20:15:53.478Z</time>
      </trkpt>
      <trkpt lat="48.84694" lon="2.30428">
        <ele>96.2</ele>
        <time>2015-02-02T20:15:55.589Z</time>
      </trkpt>
      <trkpt lat="48.84695" lon="2.3043">
        <ele>96.2</ele>
        <time>2015-02-02T20:15:56.520Z</time>
      </trkpt>
      <trkpt lat="48.84697" lon="2.30432">
        <ele>96.3</ele>
        <time>2015-02-02T20:15:58.309Z</time>
      </trkpt>
      <trkpt lat="48.84699" lon="2.30435">
        <ele>96.4</ele>
        <time>2015-02-02T20:15:58.546Z</time>
      </trkpt>
      <trkpt lat="48.84703" lon="2.30438">
        <ele>96.6</ele>
        <time>2015-02-02T20:16:00.475Z</time>
      </trkpt>
      <trkpt lat="48.84708" lon="2.30442">
        <ele>97.1</ele>
        <time>2015-02-02T20:16:01.601Z</time>
      </trkpt>
      <trkpt lat="48.84712" lon="2.30444">
        <ele>97.3</ele>
        <time>2015-02-02T20:16:03.399Z</time>
      </trkpt>
      <trkpt lat="48.84716" lon="2.30448">
        <ele>97.5</ele>
        <time>2015-02-02T20:16:03.486Z</time>
      </trkpt>
      <trkpt lat="48.84722" lon="2.30452">
        <ele>97.4</ele>
        <time>2015-02-02T20:16:14.590Z</time>
      </trkpt>
      <trkpt lat="48.84735" lon="2.30452">
        <ele>94.7</ele>
        <time>2015-02-02T20:16:15.614Z</time>
      </trkpt>
      <trkpt lat="48.84731" lon="2.3044">
        <ele>94.8</ele>
        <time>2015-02-02T20:16:24.529Z</time>
      </trkpt>
      <trkpt lat="48.84732" lon="2.30439">
        <ele>95</ele>
        <time>2015-02-02T20:16:25.620Z</time>
      </trkpt>
      <trkpt lat="48.84727" lon="2.30431">
        <ele>96.5</ele>
        <time>2015-02-02T20:16:30.567Z</time>
      </trkpt>
      <trkpt lat="48.84726" lon="2.30429">
        <ele>97</ele>
        <time>2015-02-02T20:16:31.583Z</time>
      </trkpt>
      <trkpt lat="48.84725" lon="2.30427">
        <ele>97.4</ele>
        <time>2015-02-02T20:16:32.485Z</time>
      </trkpt>
      <trkpt lat="48.84725" lon="2.30425">
        <ele>97.7</ele>
        <time>2015-02-02T20:16:34.513Z</time>
      </trkpt>
      <trkpt lat="48.84725" lon="2.30424">
        <ele>98</ele>
        <time>2015-02-02T20:16:35.515Z</time>
      </trkpt>
      <trkpt lat="48.84726" lon="2.30416">
        <ele>100.3</ele>
        <time>2015-02-02T20:16:44.064Z</time>
      </trkpt>
      <trkpt lat="48.84726" lon="2.30414">
        <ele>100.4</ele>
        <time>2015-02-02T20:16:44.576Z</time>
      </trkpt>
      <trkpt lat="48.84725" lon="2.30412">
        <ele>100.6</ele>
        <time>2015-02-02T20:16:45.492Z</time>
      </trkpt>
      <trkpt lat="48.84722" lon="2.30404">
        <ele>102</ele>
        <time>2015-02-02T20:16:48.552Z</time>
      </trkpt>
      <trkpt lat="48.8472" lon="2.30401">
        <ele>102.5</ele>
        <time>2015-02-02T20:16:49.551Z</time>
      </trkpt>
      <trkpt lat="48.84714" lon="2.30391">
        <ele>104</ele>
        <time>2015-02-02T20:16:53.221Z</time>
      </trkpt>
      <trkpt lat="48.84712" lon="2.30389">
        <ele>104.4</ele>
        <time>2015-02-02T20:16:53.489Z</time>
      </trkpt>
      <trkpt lat="48.84707" lon="2.3038">
        <ele>105.4</ele>
        <time>2015-02-02T20:16:56.544Z</time>
      </trkpt>
      <trkpt lat="48.84705" lon="2.30377">
        <ele>105.7</ele>
        <time>2015-02-02T20:16:57.590Z</time>
      </trkpt>
      <trkpt lat="48.84701" lon="2.30374">
        <ele>106.1</ele>
        <time>2015-02-02T20:17:00.542Z</time>
      </trkpt>
      <trkpt lat="48.84703" lon="2.30363">
        <ele>106.6</ele>
        <time>2015-02-02T20:17:05.478Z</time>
      </trkpt>
      <trkpt lat="48.84707" lon="2.30353">
        <ele>107.7</ele>
        <time>2015-02-02T20:17:09.486Z</time>
      </trkpt>
      <trkpt lat="48.84706" lon="2.30349">
        <ele>107.8</ele>
        <time>2015-02-02T20:17:10.529Z</time>
      </trkpt>
      <trkpt lat="48.84704" lon="2.30339">
        <ele>107.9</ele>
        <time>2015-02-02T20:17:12.544Z</time>
      </trkpt>
      <trkpt lat="48.84704" lon="2.30335">
        <ele>107.6</ele>
        <time>2015-02-02T20:17:13.551Z</time>
      </trkpt>
      <trkpt lat="48.84701" lon="2.30327">
        <ele>106.9</ele>
        <time>2015-02-02T20:17:15.582Z</time>
      </trkpt>
      <trkpt lat="48.84698" lon="2.30323">
        <ele>106.5</ele>
        <time>2015-02-02T20:17:16.585Z</time>
      </trkpt>
      <trkpt lat="48.84694" lon="2.30318">
        <ele>106.1</ele>
        <time>2015-02-02T20:17:17.452Z</time>
      </trkpt>
      <trkpt lat="48.8469" lon="2.30312">
        <ele>105.6</ele>
        <time>2015-02-02T20:17:18.476Z</time>
      </trkpt>
      <trkpt lat="48.8469" lon="2.30312">
        <ele>105.6</ele>
        <time>2015-02-02T20:17:18.842Z</time>
      </trkpt>
      <trkpt lat="48.84642" lon="2.30202">
        <ele>102.1</ele>
        <time>2015-02-02T20:17:37.490Z</time>
      </trkpt>
      <trkpt lat="48.84638" lon="2.30194">
        <ele>99</ele>
        <time>2015-02-02T20:17:42.501Z</time>
      </trkpt>
      <trkpt lat="48.84635" lon="2.30192">
        <ele>98.2</ele>
        <time>2015-02-02T20:17:43.571Z</time>
      </trkpt>
      <trkpt lat="48.84627" lon="2.30189">
        <ele>96.8</ele>
        <time>2015-02-02T20:17:46.522Z</time>
      </trkpt>
      <trkpt lat="48.84624" lon="2.30188">
        <ele>96.5</ele>
        <time>2015-02-02T20:17:47.551Z</time>
      </trkpt>
      <trkpt lat="48.84618" lon="2.30189">
        <ele>95.4</ele>
        <time>2015-02-02T20:17:49.464Z</time>
      </trkpt>
      <trkpt lat="48.84614" lon="2.3019">
        <ele>95.1</ele>
        <time>2015-02-02T20:17:50.500Z</time>
      </trkpt>
      <trkpt lat="48.84606" lon="2.30191">
        <ele>94.9</ele>
        <time>2015-02-02T20:17:53.435Z</time>
      </trkpt>
      <trkpt lat="48.84602" lon="2.30192">
        <ele>94.5</ele>
        <time>2015-02-02T20:17:53.552Z</time>
      </trkpt>
      <trkpt lat="48.84594" lon="2.30194">
        <ele>94.1</ele>
        <time>2015-02-02T20:17:55.477Z</time>
      </trkpt>
      <trkpt lat="48.84591" lon="2.30195">
        <ele>93.8</ele>
        <time>2015-02-02T20:17:56.479Z</time>
      </trkpt>
      <trkpt lat="48.84584" lon="2.30196">
        <ele>93.3</ele>
        <time>2015-02-02T20:17:58.502Z</time>
      </trkpt>
      <trkpt lat="48.8458" lon="2.30195">
        <ele>92.9</ele>
        <time>2015-02-02T20:17:59.515Z</time>
      </trkpt>
      <trkpt lat="48.84573" lon="2.30196">
        <ele>92.2</ele>
        <time>2015-02-02T20:18:01.464Z</time>
      </trkpt>
      <trkpt lat="48.8457" lon="2.30196">
        <ele>91.9</ele>
        <time>2015-02-02T20:18:02.483Z</time>
      </trkpt>
      <trkpt lat="48.84563" lon="2.30188">
        <ele>92.1</ele>
        <time>2015-02-02T20:18:05.521Z</time>
      </trkpt>
      <trkpt lat="48.84563" lon="2.30183">
        <ele>92.2</ele>
        <time>2015-02-02T20:18:06.485Z</time>
      </trkpt>
      <trkpt lat="48.84562" lon="2.30174">
        <ele>92.6</ele>
        <time>2015-02-02T20:18:08.631Z</time>
      </trkpt>
      <trkpt lat="48.8456" lon="2.30169">
        <ele>92.9</ele>
        <time>2015-02-02T20:18:09.499Z</time>
      </trkpt>
      <trkpt lat="48.84559" lon="2.30163">
        <ele>93.1</ele>
        <time>2015-02-02T20:18:10.499Z</time>
      </trkpt>
      <trkpt lat="48.84508" lon="2.29936">
        <ele>96.4</ele>
        <time>2015-02-02T20:19:04.529Z</time>
      </trkpt>
      <trkpt lat="48.84508" lon="2.29923">
        <ele>96.5</ele>
        <time>2015-02-02T20:19:13.489Z</time>
      </trkpt>
      <trkpt lat="48.84508" lon="2.29921">
        <ele>96.5</ele>
        <time>2015-02-02T20:19:13.523Z</time>
      </trkpt>
      <trkpt lat="48.84509" lon="2.29912">
        <ele>96.6</ele>
        <time>2015-02-02T20:19:16.528Z</time>
      </trkpt>
      <trkpt lat="48.84693" lon="2.29617">
        <ele>84.9</ele>
        <time>2015-02-02T20:20:27.477Z</time>
      </trkpt>
      <trkpt lat="48.84699" lon="2.29609">
        <ele>85</ele>
        <time>2015-02-02T20:20:30.510Z</time>
      </trkpt>
      <trkpt lat="48.84701" lon="2.29606">
        <ele>85.2</ele>
        <time>2015-02-02T20:20:31.527Z</time>
      </trkpt>
      <trkpt lat="48.84703" lon="2.29596">
        <ele>85.7</ele>
        <time>2015-02-02T20:20:34.587Z</time>
      </trkpt>
      <trkpt lat="48.84703" lon="2.29593">
        <ele>85.8</ele>
        <time>2015-02-02T20:20:35.495Z</time>
      </trkpt>
      <trkpt lat="48.84707" lon="2.29584">
        <ele>86.1</ele>
        <time>2015-02-02T20:20:39.027Z</time>
      </trkpt>
      <trkpt lat="48.84709" lon="2.29581">
        <ele>85.8</ele>
        <time>2015-02-02T20:20:39.559Z</time>
      </trkpt>
      <trkpt lat="48.84714" lon="2.29576">
        <ele>85.7</ele>
        <time>2015-02-02T20:20:41.476Z</time>
      </trkpt>
      <trkpt lat="48.84875" lon="2.29184">
        <ele>77.7</ele>
        <time>2015-02-02T20:21:52.516Z</time>
      </trkpt>
      <trkpt lat="48.84877" lon="2.29172">
        <ele>79</ele>
        <time>2015-02-02T20:21:54.476Z</time>
      </trkpt>
      <trkpt lat="48.84879" lon="2.29165">
        <ele>79.8</ele>
        <time>2015-02-02T20:21:55.545Z</time>
      </trkpt>
      <trkpt lat="48.8488" lon="2.29158">
        <ele>80.4</ele>
        <time>2015-02-02T20:21:56.455Z</time>
      </trkpt>
      <trkpt lat="48.8488" lon="2.2915">
        <ele>81.1</ele>
        <time>2015-02-02T20:21:57.467Z</time>
      </trkpt>
      <trkpt lat="48.8488" lon="2.29143">
        <ele>81.5</ele>
        <time>2015-02-02T20:21:58.470Z</time>
      </trkpt>
      <trkpt lat="48.8488" lon="2.29136">
        <ele>81.9</ele>
        <time>2015-02-02T20:21:59.483Z</time>
      </trkpt>
      <trkpt lat="48.8488" lon="2.29123">
        <ele>82.4</ele>
        <time>2015-02-02T20:22:01.514Z</time>
      </trkpt>
      <trkpt lat="48.84882" lon="2.29119">
        <ele>82.4</ele>
        <time>2015-02-02T20:22:02.535Z</time>
      </trkpt>
      <trkpt lat="48.84882" lon="2.29119">
        <ele>82.4</ele>
        <time>2015-02-02T20:22:03.389Z</time>
      </trkpt>
      <trkpt lat="48.84892" lon="2.2911">
        <ele>82.2</ele>
        <time>2015-02-02T20:22:05.499Z</time>
      </trkpt>
      <trkpt lat="48.84897" lon="2.29103">
        <ele>83.2</ele>
        <time>2015-02-02T20:22:10.597Z</time>
      </trkpt>
      <trkpt lat="48.84899" lon="2.291">
        <ele>83.3</ele>
        <time>2015-02-02T20:22:11.486Z</time>
      </trkpt>
      <trkpt lat="48.84903" lon="2.29093">
        <ele>83.6</ele>
        <time>2015-02-02T20:22:13.555Z</time>
      </trkpt>
      <trkpt lat="48.84964" lon="2.28624">
        <ele>80.1</ele>
        <time>2015-02-02T20:24:26.506Z</time>
      </trkpt>
      <trkpt lat="48.84957" lon="2.28617">
        <ele>81.7</ele>
        <time>2015-02-02T20:24:34.669Z</time>
      </trkpt>
      <trkpt lat="48.84956" lon="2.28617">
        <ele>81.8</ele>
        <time>2015-02-02T20:24:35.540Z</time>
      </trkpt>
      <trkpt lat="48.84951" lon="2.28612">
        <ele>81.9</ele>
        <time>2015-02-02T20:24:41.543Z</time>
      </trkpt>
      <trkpt lat="48.84947" lon="2.2861">
        <ele>81.9</ele>
        <time>2015-02-02T20:24:42.555Z</time>
      </trkpt>
      <trkpt lat="48.84942" lon="2.28604">
        <ele>81.9</ele>
        <time>2015-02-02T20:24:44.822Z</time>
      </trkpt>
      <trkpt lat="48.8494" lon="2.28598">
        <ele>81.8</ele>
        <time>2015-02-02T20:24:45.488Z</time>
      </trkpt>
      <trkpt lat="48.84935" lon="2.28589">
        <ele>81.8</ele>
        <time>2015-02-02T20:24:48.190Z</time>
      </trkpt>
      <trkpt lat="48.84914" lon="2.28559">
        <ele>81</ele>
        <time>2015-02-02T20:24:54.564Z</time>
      </trkpt>
      <trkpt lat="48.8491" lon="2.28555">
        <ele>81.3</ele>
        <time>2015-02-02T20:24:55.576Z</time>
      </trkpt>
      <trkpt lat="48.84906" lon="2.28551">
        <ele>81.4</ele>
        <time>2015-02-02T20:24:56.578Z</time>
      </trkpt>
      <trkpt lat="48.84899" lon="2.28547">
        <ele>82</ele>
        <time>2015-02-02T20:24:58.286Z</time>
      </trkpt>
      <trkpt lat="48.84895" lon="2.28544">
        <ele>81.9</ele>
        <time>2015-02-02T20:24:58.497Z</time>
      </trkpt>
      <trkpt lat="48.84889" lon="2.28536">
        <ele>82.1</ele>
        <time>2015-02-02T20:25:00.523Z</time>
      </trkpt>
      <trkpt lat="48.84831" lon="2.28471">
        <ele>81.9</ele>
        <time>2015-02-02T20:25:16.590Z</time>
      </trkpt>
      <trkpt lat="48.84825" lon="2.28468">
        <ele>82.1</ele>
        <time>2015-02-02T20:25:18.564Z</time>
      </trkpt>
      <trkpt lat="48.84819" lon="2.28464">
        <ele>82</ele>
        <time>2015-02-02T20:25:18.613Z</time>
      </trkpt>
      <trkpt lat="48.84814" lon="2.28461">
        <ele>82</ele>
        <time>2015-02-02T20:25:19.483Z</time>
      </trkpt>
      <trkpt lat="48.8481" lon="2.28457">
        <ele>81.9</ele>
        <time>2015-02-02T20:25:20.490Z</time>
      </trkpt>
      <trkpt lat="48.84806" lon="2.28453">
        <ele>81.8</ele>
        <time>2015-02-02T20:25:21.507Z</time>
      </trkpt>
      <trkpt lat="48.84799" lon="2.28445">
        <ele>81.8</ele>
        <time>2015-02-02T20:25:23.523Z</time>
      </trkpt>
      <trkpt lat="48.84791" lon="2.28439">
        <ele>81.8</ele>
        <time>2015-02-02T20:25:25.508Z</time>
      </trkpt>
      <trkpt lat="48.84788" lon="2.28436">
        <ele>81.6</ele>
        <time>2015-02-02T20:25:26.521Z</time>
      </trkpt>
      <trkpt lat="48.84782" lon="2.28431">
        <ele>81.3</ele>
        <time>2015-02-02T20:25:28.537Z</time>
      </trkpt>
      <trkpt lat="48.84779" lon="2.28429">
        <ele>81.2</ele>
        <time>2015-02-02T20:25:29.550Z</time>
      </trkpt>
      <trkpt lat="48.84771" lon="2.28424">
        <ele>81.2</ele>
        <time>2015-02-02T20:25:32.500Z</time>
      </trkpt>
      <trkpt lat="48.84769" lon="2.28422">
        <ele>81.4</ele>
        <time>2015-02-02T20:25:33.513Z</time>
      </trkpt>
      <trkpt lat="48.84765" lon="2.28419">
        <ele>81.3</ele>
        <time>2015-02-02T20:25:34.525Z</time>
      </trkpt>
      <trkpt lat="48.8476" lon="2.28415">
        <ele>81.3</ele>
        <time>2015-02-02T20:25:35.543Z</time>
      </trkpt>
      <trkpt lat="48.84756" lon="2.28411">
        <ele>81.2</ele>
        <time>2015-02-02T20:25:36.470Z</time>
      </trkpt>
      <trkpt lat="48.84751" lon="2.28407">
        <ele>81.2</ele>
        <time>2015-02-02T20:25:37.472Z</time>
      </trkpt>
      <trkpt lat="48.84744" lon="2.28403">
        <ele>81.3</ele>
        <time>2015-02-02T20:25:38.485Z</time>
      </trkpt>
      <trkpt lat="48.84739" lon="2.28401">
        <ele>81.3</ele>
        <time>2015-02-02T20:25:39.485Z</time>
      </trkpt>
      <trkpt lat="48.84735" lon="2.28398">
        <ele>81.1</ele>
        <time>2015-02-02T20:25:40.529Z</time>
      </trkpt>
      <trkpt lat="48.84732" lon="2.28393">
        <ele>81.1</ele>
        <time>2015-02-02T20:25:41.538Z</time>
      </trkpt>
      <trkpt lat="48.8472" lon="2.28379">
        <ele>81.2</ele>
        <time>2015-02-02T20:25:44.481Z</time>
      </trkpt>
      <trkpt lat="48.84533" lon="2.28248">
        <ele>80.3</ele>
        <time>2015-02-02T20:26:33.506Z</time>
      </trkpt>
      <trkpt lat="48.84528" lon="2.28244">
        <ele>80.4</ele>
        <time>2015-02-02T20:26:34.524Z</time>
      </trkpt>
      <trkpt lat="48.84517" lon="2.28234">
        <ele>80.8</ele>
        <time>2015-02-02T20:26:37.450Z</time>
      </trkpt>
      <trkpt lat="48.84509" lon="2.28228">
        <ele>81.3</ele>
        <time>2015-02-02T20:26:39.626Z</time>
      </trkpt>
      <trkpt lat="48.84505" lon="2.28225">
        <ele>81.7</ele>
        <time>2015-02-02T20:26:40.503Z</time>
      </trkpt>
      <trkpt lat="48.84497" lon="2.28219">
        <ele>82.2</ele>
        <time>2015-02-02T20:26:42.538Z</time>
      </trkpt>
      <trkpt lat="48.84493" lon="2.28217">
        <ele>82.5</ele>
        <time>2015-02-02T20:26:43.620Z</time>
      </trkpt>
      <trkpt lat="48.84486" lon="2.28211">
        <ele>83</ele>
        <time>2015-02-02T20:26:45.481Z</time>
      </trkpt>
      <trkpt lat="48.84481" lon="2.28208">
        <ele>83.3</ele>
        <time>2015-02-02T20:26:46.623Z</time>
      </trkpt>
      <trkpt lat="48.84474" lon="2.28202">
        <ele>84</ele>
        <time>2015-02-02T20:26:48.461Z</time>
      </trkpt>
      <trkpt lat="48.84469" lon="2.28199">
        <ele>84.4</ele>
        <time>2015-02-02T20:26:49.473Z</time>
      </trkpt>
      <trkpt lat="48.84464" lon="2.28195">
        <ele>84.7</ele>
        <time>2015-02-02T20:26:50.509Z</time>
      </trkpt>
      <trkpt lat="48.84461" lon="2.28192">
        <ele>85.1</ele>
        <time>2015-02-02T20:26:51.529Z</time>
      </trkpt>
      <trkpt lat="48.84456" lon="2.28189">
        <ele>85.3</ele>
        <time>2015-02-02T20:26:52.483Z</time>
      </trkpt>
      <trkpt lat="48.84451" lon="2.28186">
        <ele>85.6</ele>
        <time>2015-02-02T20:26:53.449Z</time>
      </trkpt>
      <trkpt lat="48.84446" lon="2.28182">
        <ele>86.1</ele>
        <time>2015-02-02T20:26:54.451Z</time>
      </trkpt>
      <trkpt lat="48.84439" lon="2.28176">
        <ele>86.6</ele>
        <time>2015-02-02T20:26:55.457Z</time>
      </trkpt>
      <trkpt lat="48.84431" lon="2.2817">
        <ele>87.3</ele>
        <time>2015-02-02T20:26:57.491Z</time>
      </trkpt>
      <trkpt lat="48.84429" lon="2.28167">
        <ele>87.4</ele>
        <time>2015-02-02T20:26:58.519Z</time>
      </trkpt>
      <trkpt lat="48.84424" lon="2.28159">
        <ele>87.3</ele>
        <time>2015-02-02T20:27:00.449Z</time>
      </trkpt>
      <trkpt lat="48.84423" lon="2.28156">
        <ele>87.4</ele>
        <time>2015-02-02T20:27:01.464Z</time>
      </trkpt>
      <trkpt lat="48.84419" lon="2.28147">
        <ele>87.2</ele>
        <time>2015-02-02T20:27:04.572Z</time>
      </trkpt>
      <trkpt lat="48.84225" lon="2.27948">
        <ele>83.9</ele>
        <time>2015-02-02T20:28:29.471Z</time>
      </trkpt>
      <trkpt lat="48.8422" lon="2.27944">
        <ele>84</ele>
        <time>2015-02-02T20:28:30.499Z</time>
      </trkpt>
      <trkpt lat="48.84217" lon="2.27941">
        <ele>83.9</ele>
        <time>2015-02-02T20:28:31.501Z</time>
      </trkpt>
      <trkpt lat="48.8421" lon="2.27935">
        <ele>83.6</ele>
        <time>2015-02-02T20:28:33.461Z</time>
      </trkpt>
      <trkpt lat="48.84205" lon="2.27931">
        <ele>83.6</ele>
        <time>2015-02-02T20:28:34.518Z</time>
      </trkpt>
      <trkpt lat="48.84197" lon="2.27925">
        <ele>83.3</ele>
        <time>2015-02-02T20:28:36.554Z</time>
      </trkpt>
      <trkpt lat="48.8419" lon="2.2792">
        <ele>83.1</ele>
        <time>2015-02-02T20:28:38.496Z</time>
      </trkpt>
      <trkpt lat="48.84185" lon="2.27915">
        <ele>82.9</ele>
        <time>2015-02-02T20:28:40.541Z</time>
      </trkpt>
      <trkpt lat="48.84109" lon="2.27847">
        <ele>82.6</ele>
        <time>2015-02-02T20:29:04.612Z</time>
      </trkpt>
      <trkpt lat="48.84104" lon="2.27843">
        <ele>82.5</ele>
        <time>2015-02-02T20:29:05.482Z</time>
      </trkpt>
      <trkpt lat="48.841" lon="2.2784">
        <ele>82.5</ele>
        <time>2015-02-02T20:29:06.481Z</time>
      </trkpt>
      <trkpt lat="48.84094" lon="2.27832">
        <ele>82.5</ele>
        <time>2015-02-02T20:29:08.503Z</time>
      </trkpt>
      <trkpt lat="48.8409" lon="2.2783">
        <ele>82.6</ele>
        <time>2015-02-02T20:29:09.514Z</time>
      </trkpt>
      <trkpt lat="48.84084" lon="2.2783">
        <ele>82.7</ele>
        <time>2015-02-02T20:29:11.543Z</time>
      </trkpt>
      <trkpt lat="48.84081" lon="2.27829">
        <ele>82.7</ele>
        <time>2015-02-02T20:29:12.569Z</time>
      </trkpt>
      <trkpt lat="48.84074" lon="2.2783">
        <ele>82.8</ele>
        <time>2015-02-02T20:29:15.666Z</time>
      </trkpt>
      <trkpt lat="48.84071" lon="2.2783">
        <ele>82.8</ele>
        <time>2015-02-02T20:29:16.520Z</time>
      </trkpt>
      <trkpt lat="48.84063" lon="2.2783">
        <ele>83</ele>
        <time>2015-02-02T20:29:19.537Z</time>
      </trkpt>
      <trkpt lat="48.84061" lon="2.27831">
        <ele>83</ele>
        <time>2015-02-02T20:29:20.572Z</time>
      </trkpt>
      <trkpt lat="48.84055" lon="2.27827">
        <ele>83.2</ele>
        <time>2015-02-02T20:29:28.544Z</time>
      </trkpt>
      <trkpt lat="48.84053" lon="2.27824">
        <ele>83.3</ele>
        <time>2015-02-02T20:29:29.517Z</time>
      </trkpt>
      <trkpt lat="48.84046" lon="2.27817">
        <ele>84</ele>
        <time>2015-02-02T20:29:34.588Z</time>
      </trkpt>
      <trkpt lat="48.84044" lon="2.27816">
        <ele>83.9</ele>
        <time>2015-02-02T20:29:35.608Z</time>
      </trkpt>
      <trkpt lat="48.84037" lon="2.27812">
        <ele>83.9</ele>
        <time>2015-02-02T20:29:38.502Z</time>
      </trkpt>
      <trkpt lat="48.84034" lon="2.27812">
        <ele>83.9</ele>
        <time>2015-02-02T20:29:39.517Z</time>
      </trkpt>
      <trkpt lat="48.84026" lon="2.27812">
        <ele>83.6</ele>
        <time>2015-02-02T20:29:43.692Z</time>
      </trkpt>
      <trkpt lat="48.84024" lon="2.27812">
        <ele>83.6</ele>
        <time>2015-02-02T20:29:44.508Z</time>
      </trkpt>
      <trkpt lat="48.84016" lon="2.27818">
        <ele>83.6</ele>
        <time>2015-02-02T20:29:48.629Z</time>
      </trkpt>
      <trkpt lat="48.84013" lon="2.27819">
        <ele>83.5</ele>
        <time>2015-02-02T20:29:49.492Z</time>
      </trkpt>
      <trkpt lat="48.84006" lon="2.27822">
        <ele>83.7</ele>
        <time>2015-02-02T20:29:51.497Z</time>
      </trkpt>
      <trkpt lat="48.84002" lon="2.27822">
        <ele>83.6</ele>
        <time>2015-02-02T20:29:52.579Z</time>
      </trkpt>
      <trkpt lat="48.83996" lon="2.27821">
        <ele>83.5</ele>
        <time>2015-02-02T20:29:54.496Z</time>
      </trkpt>
      <trkpt lat="48.83993" lon="2.2782">
        <ele>83.5</ele>
        <time>2015-02-02T20:29:55.511Z</time>
      </trkpt>
      <trkpt lat="48.83985" lon="2.27821">
        <ele>84</ele>
        <time>2015-02-02T20:29:59.491Z</time>
      </trkpt>
      <trkpt lat="48.83984" lon="2.27822">
        <ele>84.2</ele>
        <time>2015-02-02T20:30:00.504Z</time>
      </trkpt>
      <trkpt lat="48.83984" lon="2.27823">
        <ele>84.6</ele>
        <time>2015-02-02T20:30:04.567Z</time>
      </trkpt>
      <trkpt lat="48.83985" lon="2.27823">
        <ele>84.6</ele>
        <time>2015-02-02T20:30:05.487Z</time>
      </trkpt>
      <trkpt lat="48.83985" lon="2.27823">
        <ele>84.6</ele>
        <time>2015-02-02T20:30:06.489Z</time>
      </trkpt>
      <trkpt lat="48.83993" lon="2.27821">
        <ele>84.2</ele>
        <time>2015-02-02T20:30:16.543Z</time>
      </trkpt>
      <trkpt lat="48.83996" lon="2.27821">
        <ele>84.1</ele>
        <time>2015-02-02T20:30:17.572Z</time>
      </trkpt>
      <trkpt lat="48.84002" lon="2.27817">
        <ele>83.2</ele>
        <time>2015-02-02T20:30:19.478Z</time>
      </trkpt>
      <trkpt lat="48.84004" lon="2.27815">
        <ele>82.9</ele>
        <time>2015-02-02T20:30:20.492Z</time>
      </trkpt>
      <trkpt lat="48.8401" lon="2.27816">
        <ele>81.4</ele>
        <time>2015-02-02T20:30:21.483Z</time>
      </trkpt>
      <trkpt lat="48.84019" lon="2.2782">
        <ele>78.9</ele>
        <time>2015-02-02T20:30:22.545Z</time>
      </trkpt>
      <trkpt lat="48.84024" lon="2.27829">
        <ele>78</ele>
        <time>2015-02-02T20:30:24.520Z</time>
      </trkpt>
      <trkpt lat="48.84025" lon="2.27833">
        <ele>77.8</ele>
        <time>2015-02-02T20:30:25.592Z</time>
      </trkpt>
      <trkpt lat="48.84013" lon="2.27851">
        <ele>77.6</ele>
        <time>2015-02-02T20:30:32.505Z</time>
      </trkpt>
      <trkpt lat="48.84015" lon="2.27863">
        <ele>77.6</ele>
        <time>2015-02-02T20:30:34.564Z</time>
      </trkpt>
      <trkpt lat="48.84018" lon="2.27884">
        <ele>78.2</ele>
        <time>2015-02-02T20:30:37.577Z</time>
      </trkpt>
      <trkpt lat="48.84019" lon="2.27891">
        <ele>78.2</ele>
        <time>2015-02-02T20:30:38.473Z</time>
      </trkpt>
      <trkpt lat="48.8402" lon="2.27898">
        <ele>77.9</ele>
        <time>2015-02-02T20:30:39.480Z</time>
      </trkpt>
      <trkpt lat="48.84021" lon="2.2791">
        <ele>78</ele>
        <time>2015-02-02T20:30:41.536Z</time>
      </trkpt>
      <trkpt lat="48.8402" lon="2.27915">
        <ele>78</ele>
        <time>2015-02-02T20:30:42.556Z</time>
      </trkpt>
      <trkpt lat="48.84018" lon="2.2792">
        <ele>78</ele>
        <time>2015-02-02T20:30:43.465Z</time>
      </trkpt>
      <trkpt lat="48.83994" lon="2.27964">
        <ele>77.6</ele>
        <time>2015-02-02T20:30:54.458Z</time>
      </trkpt>
      <trkpt lat="48.83999" lon="2.27974">
        <ele>77.7</ele>
        <time>2015-02-02T20:30:58.408Z</time>
      </trkpt>
      <trkpt lat="48.83999" lon="2.27976">
        <ele>77.7</ele>
        <time>2015-02-02T20:30:59.540Z</time>
      </trkpt>
      <trkpt lat="48.8399" lon="2.27975">
        <ele>77.7</ele>
        <time>2015-02-02T20:31:05.484Z</time>
      </trkpt>
      <trkpt lat="48.83984" lon="2.27971">
        <ele>77.8</ele>
        <time>2015-02-02T20:31:07.500Z</time>
      </trkpt>
      <trkpt lat="48.83976" lon="2.27973">
        <ele>78.3</ele>
        <time>2015-02-02T20:31:10.594Z</time>
      </trkpt>
      <trkpt lat="48.83972" lon="2.27972">
        <ele>78.4</ele>
        <time>2015-02-02T20:31:11.484Z</time>
      </trkpt>
      <trkpt lat="48.83968" lon="2.27968">
        <ele>78.7</ele>
        <time>2015-02-02T20:31:12.501Z</time>
      </trkpt>
      <trkpt lat="48.83962" lon="2.27959">
        <ele>79.1</ele>
        <time>2015-02-02T20:31:14.616Z</time>
      </trkpt>
      <trkpt lat="48.83958" lon="2.27952">
        <ele>79.8</ele>
        <time>2015-02-02T20:31:15.554Z</time>
      </trkpt>
      <trkpt lat="48.83955" lon="2.27946">
        <ele>80</ele>
        <time>2015-02-02T20:31:16.563Z</time>
      </trkpt>
      <trkpt lat="48.83952" lon="2.2794">
        <ele>80.4</ele>
        <time>2015-02-02T20:31:17.457Z</time>
      </trkpt>
      <trkpt lat="48.83948" lon="2.27936">
        <ele>80.6</ele>
        <time>2015-02-02T20:31:18.461Z</time>
      </trkpt>
      <trkpt lat="48.83943" lon="2.27929">
        <ele>80.7</ele>
        <time>2015-02-02T20:31:20.617Z</time>
      </trkpt>
      <trkpt lat="48.83936" lon="2.2792">
        <ele>81.2</ele>
        <time>2015-02-02T20:31:23.506Z</time>
      </trkpt>
      <trkpt lat="48.83928" lon="2.27915">
        <ele>81.6</ele>
        <time>2015-02-02T20:31:25.537Z</time>
      </trkpt>
      <trkpt lat="48.83925" lon="2.27912">
        <ele>81.6</ele>
        <time>2015-02-02T20:31:26.541Z</time>
      </trkpt>
      <trkpt lat="48.83918" lon="2.27911">
        <ele>82.4</ele>
        <time>2015-02-02T20:31:28.678Z</time>
      </trkpt>
      <trkpt lat="48.83913" lon="2.27909">
        <ele>82.6</ele>
        <time>2015-02-02T20:31:29.457Z</time>
      </trkpt>
      <trkpt lat="48.83908" lon="2.27906">
        <ele>82.7</ele>
        <time>2015-02-02T20:31:30.455Z</time>
      </trkpt>
      <trkpt lat="48.83901" lon="2.27903">
        <ele>82.1</ele>
        <time>2015-02-02T20:31:31.483Z</time>
      </trkpt>
      <trkpt lat="48.83895" lon="2.279">
        <ele>81.8</ele>
        <time>2015-02-02T20:31:32.425Z</time>
      </trkpt>
      <trkpt lat="48.8389" lon="2.27896">
        <ele>81.5</ele>
        <time>2015-02-02T20:31:33.454Z</time>
      </trkpt>
      <trkpt lat="48.83885" lon="2.27892">
        <ele>81.2</ele>
        <time>2015-02-02T20:31:34.485Z</time>
      </trkpt>
      <trkpt lat="48.8388" lon="2.27888">
        <ele>80.8</ele>
        <time>2015-02-02T20:31:35.493Z</time>
      </trkpt>
      <trkpt lat="48.83876" lon="2.27885">
        <ele>80.6</ele>
        <time>2015-02-02T20:31:36.538Z</time>
      </trkpt>
      <trkpt lat="48.83871" lon="2.27881">
        <ele>80.4</ele>
        <time>2015-02-02T20:31:37.467Z</time>
      </trkpt>
      <trkpt lat="48.83867" lon="2.27878">
        <ele>80</ele>
        <time>2015-02-02T20:31:38.892Z</time>
      </trkpt>
      <trkpt lat="48.83863" lon="2.27874">
        <ele>79.8</ele>
        <time>2015-02-02T20:31:39.495Z</time>
      </trkpt>
      <trkpt lat="48.83856" lon="2.27867">
        <ele>79.5</ele>
        <time>2015-02-02T20:31:41.527Z</time>
      </trkpt>
      <trkpt lat="48.83853" lon="2.27865">
        <ele>79.4</ele>
        <time>2015-02-02T20:31:42.455Z</time>
      </trkpt>
      <trkpt lat="48.83846" lon="2.27859">
        <ele>79.5</ele>
        <time>2015-02-02T20:31:46.564Z</time>
      </trkpt>
      <trkpt lat="48.83844" lon="2.27859">
        <ele>79.3</ele>
        <time>2015-02-02T20:31:47.457Z</time>
      </trkpt>
      <trkpt lat="48.83837" lon="2.27859">
        <ele>79</ele>
        <time>2015-02-02T20:31:55.489Z</time>
      </trkpt>
      <trkpt lat="48.83837" lon="2.2786">
        <ele>79.1</ele>
        <time>2015-02-02T20:31:56.475Z</time>
      </trkpt>
      <trkpt lat="48.83839" lon="2.2786">
        <ele>79.2</ele>
        <time>2015-02-02T20:31:57.493Z</time>
      </trkpt>
      <trkpt lat="48.8384" lon="2.27872">
        <ele>79.6</ele>
        <time>2015-02-02T20:32:03.434Z</time>
      </trkpt>
      <trkpt lat="48.83841" lon="2.27874">
        <ele>79.5</ele>
        <time>2015-02-02T20:32:04.504Z</time>
      </trkpt>
      <trkpt lat="48.83842" lon="2.27884">
        <ele>79.8</ele>
        <time>2015-02-02T20:32:09.486Z</time>
      </trkpt>
      <trkpt lat="48.83824" lon="2.2786">
        <ele>80.8</ele>
        <time>2015-02-02T20:32:36.589Z</time>
      </trkpt>
      <trkpt lat="48.83823" lon="2.27858">
        <ele>80.8</ele>
        <time>2015-02-02T20:32:37.468Z</time>
      </trkpt>
      <trkpt lat="48.83824" lon="2.27858">
        <ele>81</ele>
        <time>2015-02-02T20:32:38.477Z</time>
      </trkpt>
      <trkpt lat="48.8383" lon="2.27858">
        <ele>81.5</ele>
        <time>2015-02-02T20:32:42.515Z</time>
      </trkpt>
      <trkpt lat="48.83832" lon="2.27854">
        <ele>82.3</ele>
        <time>2015-02-02T20:32:43.603Z</time>
      </trkpt>
      <trkpt lat="48.83825" lon="2.27859">
        <ele>81.5</ele>
        <time>2015-02-02T20:32:48.545Z</time>
      </trkpt>
      <trkpt lat="48.83822" lon="2.27861">
        <ele>81.3</ele>
        <time>2015-02-02T20:32:49.484Z</time>
      </trkpt>
      <trkpt lat="48.83816" lon="2.27863">
        <ele>80.9</ele>
        <time>2015-02-02T20:32:51.491Z</time>
      </trkpt>
      <trkpt lat="48.83812" lon="2.27864">
        <ele>80.7</ele>
        <time>2015-02-02T20:32:52.488Z</time>
      </trkpt>
      <trkpt lat="48.83804" lon="2.27867">
        <ele>80.3</ele>
        <time>2015-02-02T20:32:55.435Z</time>
      </trkpt>
      <trkpt lat="48.83801" lon="2.27868">
        <ele>80.2</ele>
        <time>2015-02-02T20:32:56.432Z</time>
      </trkpt>
      <trkpt lat="48.83794" lon="2.2787">
        <ele>79.8</ele>
        <time>2015-02-02T20:32:58.486Z</time>
      </trkpt>
      <trkpt lat="48.83792" lon="2.2787">
        <ele>79.7</ele>
        <time>2015-02-02T20:32:59.504Z</time>
      </trkpt>
      <trkpt lat="48.83783" lon="2.27868">
        <ele>79.1</ele>
        <time>2015-02-02T20:33:01.525Z</time>
      </trkpt>
      <trkpt lat="48.83779" lon="2.27868">
        <ele>78.8</ele>
        <time>2015-02-02T20:33:02.475Z</time>
      </trkpt>
      <trkpt lat="48.83775" lon="2.27867">
        <ele>78.5</ele>
        <time>2015-02-02T20:33:03.430Z</time>
      </trkpt>
      <trkpt lat="48.8377" lon="2.27866">
        <ele>78.1</ele>
        <time>2015-02-02T20:33:04.527Z</time>
      </trkpt>
      <trkpt lat="48.83763" lon="2.27868">
        <ele>77.4</ele>
        <time>2015-02-02T20:33:06.535Z</time>
      </trkpt>
      <trkpt lat="48.83758" lon="2.27868">
        <ele>76.9</ele>
        <time>2015-02-02T20:33:07.435Z</time>
      </trkpt>
      <trkpt lat="48.83751" lon="2.27866">
        <ele>76</ele>
        <time>2015-02-02T20:33:08.466Z</time>
      </trkpt>
      <trkpt lat="48.83744" lon="2.27863">
        <ele>75</ele>
        <time>2015-02-02T20:33:09.479Z</time>
      </trkpt>
      <trkpt lat="48.83739" lon="2.27861">
        <ele>74.5</ele>
        <time>2015-02-02T20:33:10.487Z</time>
      </trkpt>
      <trkpt lat="48.83731" lon="2.27858">
        <ele>73.7</ele>
        <time>2015-02-02T20:33:11.493Z</time>
      </trkpt>
      <trkpt lat="48.83726" lon="2.27857">
        <ele>73.3</ele>
        <time>2015-02-02T20:33:13.486Z</time>
      </trkpt>
      <trkpt lat="48.83721" lon="2.27856">
        <ele>73</ele>
        <time>2015-02-02T20:33:13.512Z</time>
      </trkpt>
      <trkpt lat="48.83713" lon="2.27853">
        <ele>72.7</ele>
        <time>2015-02-02T20:33:15.523Z</time>
      </trkpt>
      <trkpt lat="48.8371" lon="2.27852">
        <ele>72.6</ele>
        <time>2015-02-02T20:33:16.534Z</time>
      </trkpt>
      <trkpt lat="48.83704" lon="2.2785">
        <ele>72.4</ele>
        <time>2015-02-02T20:33:18.509Z</time>
      </trkpt>
      <trkpt lat="48.83701" lon="2.27849">
        <ele>72.3</ele>
        <time>2015-02-02T20:33:19.490Z</time>
      </trkpt>
      <trkpt lat="48.83693" lon="2.27849">
        <ele>72.1</ele>
        <time>2015-02-02T20:33:22.487Z</time>
      </trkpt>
      <trkpt lat="48.8369" lon="2.27848">
        <ele>72</ele>
        <time>2015-02-02T20:33:23.491Z</time>
      </trkpt>
      <trkpt lat="48.83682" lon="2.27846">
        <ele>72</ele>
        <time>2015-02-02T20:33:26.524Z</time>
      </trkpt>
      <trkpt lat="48.83679" lon="2.27846">
        <ele>72</ele>
        <time>2015-02-02T20:33:27.489Z</time>
      </trkpt>
      <trkpt lat="48.83659" lon="2.27839">
        <ele>74.2</ele>
        <time>2015-02-02T20:33:33.512Z</time>
      </trkpt>
      <trkpt lat="48.83651" lon="2.27839">
        <ele>74.4</ele>
        <time>2015-02-02T20:33:36.466Z</time>
      </trkpt>
      <trkpt lat="48.83647" lon="2.27837">
        <ele>74.3</ele>
        <time>2015-02-02T20:33:37.473Z</time>
      </trkpt>
      <trkpt lat="48.83641" lon="2.27833">
        <ele>74.1</ele>
        <time>2015-02-02T20:33:39.507Z</time>
      </trkpt>
      <trkpt lat="48.83638" lon="2.27831">
        <ele>74.2</ele>
        <time>2015-02-02T20:33:40.524Z</time>
      </trkpt>
      <trkpt lat="48.83631" lon="2.27827">
        <ele>74.4</ele>
        <time>2015-02-02T20:33:42.452Z</time>
      </trkpt>
      <trkpt lat="48.83629" lon="2.27826">
        <ele>74.4</ele>
        <time>2015-02-02T20:33:43.491Z</time>
      </trkpt>
      <trkpt lat="48.83625" lon="2.2782">
        <ele>74.9</ele>
        <time>2015-02-02T20:33:48.524Z</time>
      </trkpt>
      <trkpt lat="48.83626" lon="2.27818">
        <ele>75.6</ele>
        <time>2015-02-02T20:33:49.471Z</time>
      </trkpt>
      <trkpt lat="48.83627" lon="2.27816">
        <ele>76.6</ele>
        <time>2015-02-02T20:33:50.497Z</time>
      </trkpt>
      <trkpt lat="48.83632" lon="2.27808">
        <ele>77.3</ele>
        <time>2015-02-02T20:33:56.535Z</time>
      </trkpt>
      <trkpt lat="48.83633" lon="2.27805">
        <ele>77.6</ele>
        <time>2015-02-02T20:33:57.445Z</time>
      </trkpt>
      <trkpt lat="48.83635" lon="2.27794">
        <ele>78</ele>
        <time>2015-02-02T20:34:01.524Z</time>
      </trkpt>
      <trkpt lat="48.83636" lon="2.2779">
        <ele>77.7</ele>
        <time>2015-02-02T20:34:02.528Z</time>
      </trkpt>
      <trkpt lat="48.83639" lon="2.27778">
        <ele>77.3</ele>
        <time>2015-02-02T20:34:05.504Z</time>
      </trkpt>
      <trkpt lat="48.8364" lon="2.27775">
        <ele>77.3</ele>
        <time>2015-02-02T20:34:06.516Z</time>
      </trkpt>
      <trkpt lat="48.83643" lon="2.27767">
        <ele>77.3</ele>
        <time>2015-02-02T20:34:08.682Z</time>
      </trkpt>
      <trkpt lat="48.83645" lon="2.27763">
        <ele>77.2</ele>
        <time>2015-02-02T20:34:09.560Z</time>
      </trkpt>
      <trkpt lat="48.83647" lon="2.27754">
        <ele>77.8</ele>
        <time>2015-02-02T20:34:11.459Z</time>
      </trkpt>
      <trkpt lat="48.83648" lon="2.2775">
        <ele>77.9</ele>
        <time>2015-02-02T20:34:12.466Z</time>
      </trkpt>
      <trkpt lat="48.83651" lon="2.2774">
        <ele>78.1</ele>
        <time>2015-02-02T20:34:14.481Z</time>
      </trkpt>
      <trkpt lat="48.83653" lon="2.27735">
        <ele>77.8</ele>
        <time>2015-02-02T20:34:15.490Z</time>
      </trkpt>
      <trkpt lat="48.83655" lon="2.27725">
        <ele>77.9</ele>
        <time>2015-02-02T20:34:17.535Z</time>
      </trkpt>
      <trkpt lat="48.83656" lon="2.27719">
        <ele>78</ele>
        <time>2015-02-02T20:34:18.446Z</time>
      </trkpt>
      <trkpt lat="48.83659" lon="2.27711">
        <ele>78.3</ele>
        <time>2015-02-02T20:34:20.460Z</time>
      </trkpt>
      <trkpt lat="48.83661" lon="2.27706">
        <ele>78.4</ele>
        <time>2015-02-02T20:34:21.486Z</time>
      </trkpt>
      <trkpt lat="48.83665" lon="2.27694">
        <ele>78.4</ele>
        <time>2015-02-02T20:34:23.869Z</time>
      </trkpt>
      <trkpt lat="48.83667" lon="2.27689">
        <ele>78.5</ele>
        <time>2015-02-02T20:34:24.459Z</time>
      </trkpt>
      <trkpt lat="48.8367" lon="2.27683">
        <ele>78.5</ele>
        <time>2015-02-02T20:34:25.464Z</time>
      </trkpt>
      <trkpt lat="48.83673" lon="2.27678">
        <ele>78.6</ele>
        <time>2015-02-02T20:34:26.469Z</time>
      </trkpt>
      <trkpt lat="48.83679" lon="2.2767">
        <ele>79</ele>
        <time>2015-02-02T20:34:28.881Z</time>
      </trkpt>
      <trkpt lat="48.83682" lon="2.27665">
        <ele>79.3</ele>
        <time>2015-02-02T20:34:29.512Z</time>
      </trkpt>
      <trkpt lat="48.83686" lon="2.27654">
        <ele>79.6</ele>
        <time>2015-02-02T20:34:31.548Z</time>
      </trkpt>
      <trkpt lat="48.83688" lon="2.27649">
        <ele>79.7</ele>
        <time>2015-02-02T20:34:32.458Z</time>
      </trkpt>
      <trkpt lat="48.83691" lon="2.27639">
        <ele>80</ele>
        <time>2015-02-02T20:34:34.504Z</time>
      </trkpt>
      <trkpt lat="48.83692" lon="2.27632">
        <ele>80</ele>
        <time>2015-02-02T20:34:35.492Z</time>
      </trkpt>
      <trkpt lat="48.83693" lon="2.27626">
        <ele>80</ele>
        <time>2015-02-02T20:34:36.530Z</time>
      </trkpt>
      <trkpt lat="48.83694" lon="2.27618">
        <ele>80.1</ele>
        <time>2015-02-02T20:34:37.438Z</time>
      </trkpt>
      <trkpt lat="48.83695" lon="2.27611">
        <ele>80.2</ele>
        <time>2015-02-02T20:34:39.323Z</time>
      </trkpt>
      <trkpt lat="48.83696" lon="2.27603">
        <ele>79.9</ele>
        <time>2015-02-02T20:34:39.458Z</time>
      </trkpt>
      <trkpt lat="48.83697" lon="2.27595">
        <ele>79.9</ele>
        <time>2015-02-02T20:34:40.491Z</time>
      </trkpt>
      <trkpt lat="48.83698" lon="2.27589">
        <ele>79.9</ele>
        <time>2015-02-02T20:34:41.490Z</time>
      </trkpt>
      <trkpt lat="48.83699" lon="2.2758">
        <ele>79.9</ele>
        <time>2015-02-02T20:34:42.736Z</time>
      </trkpt>
      <trkpt lat="48.837" lon="2.27574">
        <ele>79.9</ele>
        <time>2015-02-02T20:34:43.457Z</time>
      </trkpt>
      <trkpt lat="48.83701" lon="2.27566">
        <ele>80.1</ele>
        <time>2015-02-02T20:34:44.461Z</time>
      </trkpt>
      <trkpt lat="48.83702" lon="2.27558">
        <ele>80.2</ele>
        <time>2015-02-02T20:34:45.489Z</time>
      </trkpt>
      <trkpt lat="48.83704" lon="2.2755">
        <ele>80.4</ele>
        <time>2015-02-02T20:34:46.514Z</time>
      </trkpt>
      <trkpt lat="48.83705" lon="2.27544">
        <ele>80.5</ele>
        <time>2015-02-02T20:34:47.517Z</time>
      </trkpt>
      <trkpt lat="48.83705" lon="2.27536">
        <ele>80.8</ele>
        <time>2015-02-02T20:34:48.470Z</time>
      </trkpt>
      <trkpt lat="48.83707" lon="2.27529">
        <ele>80.8</ele>
        <time>2015-02-02T20:34:49.539Z</time>
      </trkpt>
      <trkpt lat="48.83708" lon="2.27521">
        <ele>80.9</ele>
        <time>2015-02-02T20:34:50.556Z</time>
      </trkpt>
      <trkpt lat="48.8371" lon="2.27514">
        <ele>81</ele>
        <time>2015-02-02T20:34:51.438Z</time>
      </trkpt>
      <trkpt lat="48.83713" lon="2.27503">
        <ele>81.6</ele>
        <time>2015-02-02T20:34:53.574Z</time>
      </trkpt>
      <trkpt lat="48.83715" lon="2.27496">
        <ele>81.9</ele>
        <time>2015-02-02T20:34:54.488Z</time>
      </trkpt>
      <trkpt lat="48.83719" lon="2.27489">
        <ele>82.9</ele>
        <time>2015-02-02T20:34:55.511Z</time>
      </trkpt>
      <trkpt lat="48.8372" lon="2.27478">
        <ele>82.5</ele>
        <time>2015-02-02T20:34:56.516Z</time>
      </trkpt>
      <trkpt lat="48.83721" lon="2.27467">
        <ele>82.6</ele>
        <time>2015-02-02T20:34:57.520Z</time>
      </trkpt>
      <trkpt lat="48.83722" lon="2.27456">
        <ele>82.4</ele>
        <time>2015-02-02T20:34:58.528Z</time>
      </trkpt>
      <trkpt lat="48.83723" lon="2.27446">
        <ele>81.5</ele>
        <time>2015-02-02T20:34:59.557Z</time>
      </trkpt>
      <trkpt lat="48.83726" lon="2.27437">
        <ele>81.7</ele>
        <time>2015-02-02T20:35:00.435Z</time>
      </trkpt>
      <trkpt lat="48.83728" lon="2.27426">
        <ele>81.9</ele>
        <time>2015-02-02T20:35:01.454Z</time>
      </trkpt>
      <trkpt lat="48.83731" lon="2.27417">
        <ele>82</ele>
        <time>2015-02-02T20:35:02.462Z</time>
      </trkpt>
      <trkpt lat="48.83735" lon="2.27409">
        <ele>82</ele>
        <time>2015-02-02T20:35:03.698Z</time>
      </trkpt>
      <trkpt lat="48.83738" lon="2.274">
        <ele>82.2</ele>
        <time>2015-02-02T20:35:04.486Z</time>
      </trkpt>
      <trkpt lat="48.83741" lon="2.27391">
        <ele>82.6</ele>
        <time>2015-02-02T20:35:05.510Z</time>
      </trkpt>
      <trkpt lat="48.83743" lon="2.27382">
        <ele>82.7</ele>
        <time>2015-02-02T20:35:06.520Z</time>
      </trkpt>
      <trkpt lat="48.83744" lon="2.27371">
        <ele>82.7</ele>
        <time>2015-02-02T20:35:07.449Z</time>
      </trkpt>
      <trkpt lat="48.83746" lon="2.27361">
        <ele>83</ele>
        <time>2015-02-02T20:35:08.452Z</time>
      </trkpt>
      <trkpt lat="48.83748" lon="2.27351">
        <ele>83</ele>
        <time>2015-02-02T20:35:09.463Z</time>
      </trkpt>
      <trkpt lat="48.8375" lon="2.27342">
        <ele>83.2</ele>
        <time>2015-02-02T20:35:10.498Z</time>
      </trkpt>
      <trkpt lat="48.83752" lon="2.27333">
        <ele>83.4</ele>
        <time>2015-02-02T20:35:11.529Z</time>
      </trkpt>
      <trkpt lat="48.83755" lon="2.27324">
        <ele>83.6</ele>
        <time>2015-02-02T20:35:12.543Z</time>
      </trkpt>
      <trkpt lat="48.83756" lon="2.27315">
        <ele>83.9</ele>
        <time>2015-02-02T20:35:13.554Z</time>
      </trkpt>
      <trkpt lat="48.83759" lon="2.27306">
        <ele>84</ele>
        <time>2015-02-02T20:35:14.448Z</time>
      </trkpt>
      <trkpt lat="48.83761" lon="2.27297">
        <ele>84</ele>
        <time>2015-02-02T20:35:15.456Z</time>
      </trkpt>
      <trkpt lat="48.83764" lon="2.27288">
        <ele>83.9</ele>
        <time>2015-02-02T20:35:16.495Z</time>
      </trkpt>
      <trkpt lat="48.83767" lon="2.27279">
        <ele>83.7</ele>
        <time>2015-02-02T20:35:17.504Z</time>
      </trkpt>
      <trkpt lat="48.83769" lon="2.27271">
        <ele>83.6</ele>
        <time>2015-02-02T20:35:18.509Z</time>
      </trkpt>
      <trkpt lat="48.83772" lon="2.27263">
        <ele>83.3</ele>
        <time>2015-02-02T20:35:19.528Z</time>
      </trkpt>
      <trkpt lat="48.83775" lon="2.27255">
        <ele>83.2</ele>
        <time>2015-02-02T20:35:20.545Z</time>
      </trkpt>
      <trkpt lat="48.83777" lon="2.27247">
        <ele>83.3</ele>
        <time>2015-02-02T20:35:21.447Z</time>
      </trkpt>
      <trkpt lat="48.8378" lon="2.27239">
        <ele>83.3</ele>
        <time>2015-02-02T20:35:22.487Z</time>
      </trkpt>
      <trkpt lat="48.83782" lon="2.2723">
        <ele>83.2</ele>
        <time>2015-02-02T20:35:23.491Z</time>
      </trkpt>
      <trkpt lat="48.83785" lon="2.27223">
        <ele>82.8</ele>
        <time>2015-02-02T20:35:24.513Z</time>
      </trkpt>
      <trkpt lat="48.83788" lon="2.27216">
        <ele>82.9</ele>
        <time>2015-02-02T20:35:25.539Z</time>
      </trkpt>
      <trkpt lat="48.83791" lon="2.2721">
        <ele>82.8</ele>
        <time>2015-02-02T20:35:26.450Z</time>
      </trkpt>
      <trkpt lat="48.83794" lon="2.27204">
        <ele>82.7</ele>
        <time>2015-02-02T20:35:27.480Z</time>
      </trkpt>
      <trkpt lat="48.83796" lon="2.27197">
        <ele>82.5</ele>
        <time>2015-02-02T20:35:28.542Z</time>
      </trkpt>
      <trkpt lat="48.83799" lon="2.27191">
        <ele>82.4</ele>
        <time>2015-02-02T20:35:29.461Z</time>
      </trkpt>
      <trkpt lat="48.83801" lon="2.27185">
        <ele>82.2</ele>
        <time>2015-02-02T20:35:30.470Z</time>
      </trkpt>
      <trkpt lat="48.83806" lon="2.27175">
        <ele>82.5</ele>
        <time>2015-02-02T20:35:32.481Z</time>
      </trkpt>
      <trkpt lat="48.83809" lon="2.2717">
        <ele>82.7</ele>
        <time>2015-02-02T20:35:33.498Z</time>
      </trkpt>
      <trkpt lat="48.83813" lon="2.27165">
        <ele>83.3</ele>
        <time>2015-02-02T20:35:35.220Z</time>
      </trkpt>
      <trkpt lat="48.83817" lon="2.2716">
        <ele>84.3</ele>
        <time>2015-02-02T20:35:35.551Z</time>
      </trkpt>
      <trkpt lat="48.8382" lon="2.27155">
        <ele>85.4</ele>
        <time>2015-02-02T20:35:36.561Z</time>
      </trkpt>
      <trkpt lat="48.83823" lon="2.27151">
        <ele>85.9</ele>
        <time>2015-02-02T20:35:37.455Z</time>
      </trkpt>
      <trkpt lat="48.83826" lon="2.27146">
        <ele>86.4</ele>
        <time>2015-02-02T20:35:38.509Z</time>
      </trkpt>
      <trkpt lat="48.8383" lon="2.27141">
        <ele>87</ele>
        <time>2015-02-02T20:35:39.556Z</time>
      </trkpt>
      <trkpt lat="48.83835" lon="2.27131">
        <ele>87.2</ele>
        <time>2015-02-02T20:35:41.513Z</time>
      </trkpt>
      <trkpt lat="48.83837" lon="2.27125">
        <ele>87.3</ele>
        <time>2015-02-02T20:35:42.485Z</time>
      </trkpt>
      <trkpt lat="48.83839" lon="2.27114">
        <ele>87.6</ele>
        <time>2015-02-02T20:35:45.364Z</time>
      </trkpt>
      <trkpt lat="48.8384" lon="2.27109">
        <ele>87.7</ele>
        <time>2015-02-02T20:35:45.533Z</time>
      </trkpt>
      <trkpt lat="48.83843" lon="2.27101">
        <ele>88.4</ele>
        <time>2015-02-02T20:35:48.137Z</time>
      </trkpt>
      <trkpt lat="48.83844" lon="2.27097">
        <ele>88.8</ele>
        <time>2015-02-02T20:35:48.473Z</time>
      </trkpt>
      <trkpt lat="48.83846" lon="2.27087">
        <ele>89.5</ele>
        <time>2015-02-02T20:35:50.603Z</time>
      </trkpt>
      <trkpt lat="48.83847" lon="2.27083">
        <ele>89.7</ele>
        <time>2015-02-02T20:35:51.505Z</time>
      </trkpt>
      <trkpt lat="48.83851" lon="2.27072">
        <ele>90.6</ele>
        <time>2015-02-02T20:35:54.489Z</time>
      </trkpt>
      <trkpt lat="48.83852" lon="2.27069">
        <ele>90.7</ele>
        <time>2015-02-02T20:35:55.507Z</time>
      </trkpt>
      <trkpt lat="48.83859" lon="2.27061">
        <ele>88.3</ele>
        <time>2015-02-02T20:35:58.551Z</time>
      </trkpt>
      <trkpt lat="48.83861" lon="2.27058">
        <ele>87.9</ele>
        <time>2015-02-02T20:35:59.493Z</time>
      </trkpt>
      <trkpt lat="48.83866" lon="2.2705">
        <ele>86.5</ele>
        <time>2015-02-02T20:36:03.476Z</time>
      </trkpt>
      <trkpt lat="48.83867" lon="2.27047">
        <ele>86.1</ele>
        <time>2015-02-02T20:36:03.551Z</time>
      </trkpt>
      <trkpt lat="48.8387" lon="2.27037">
        <ele>86.1</ele>
        <time>2015-02-02T20:36:06.512Z</time>
      </trkpt>
      <trkpt lat="48.83871" lon="2.27035">
        <ele>86.4</ele>
        <time>2015-02-02T20:36:07.477Z</time>
      </trkpt>
      <trkpt lat="48.83876" lon="2.27025">
        <ele>86.3</ele>
        <time>2015-02-02T20:36:11.587Z</time>
      </trkpt>
      <trkpt lat="48.83877" lon="2.27022">
        <ele>86.1</ele>
        <time>2015-02-02T20:36:12.475Z</time>
      </trkpt>
      <trkpt lat="48.83876" lon="2.27017">
        <ele>86.2</ele>
        <time>2015-02-02T20:36:15.540Z</time>
      </trkpt>
      <trkpt lat="48.83876" lon="2.27019">
        <ele>87.2</ele>
        <time>2015-02-02T20:36:16.559Z</time>
      </trkpt>
      <trkpt lat="48.83875" lon="2.27023">
        <ele>88</ele>
        <time>2015-02-02T20:36:17.497Z</time>
      </trkpt>
      <trkpt lat="48.83877" lon="2.27011">
        <ele>89.9</ele>
        <time>2015-02-02T20:37:19.541Z</time>
      </trkpt>
      <trkpt lat="48.83878" lon="2.2701">
        <ele>89.8</ele>
        <time>2015-02-02T20:37:20.591Z</time>
      </trkpt>
      <trkpt lat="48.83883" lon="2.27002">
        <ele>89.9</ele>
        <time>2015-02-02T20:37:26.506Z</time>
      </trkpt>
      <trkpt lat="48.83882" lon="2.27001">
        <ele>90.7</ele>
        <time>2015-02-02T20:37:27.478Z</time>
      </trkpt>
      <trkpt lat="48.83882" lon="2.27001">
        <ele>90.7</ele>
        <time>2015-02-02T20:37:31.516Z</time>
      </trkpt>
      <trkpt lat="48.83882" lon="2.27">
        <ele>91.6</ele>
        <time>2015-02-02T20:37:32.567Z</time>
      </trkpt>
      <trkpt lat="48.83886" lon="2.26989">
        <ele>93.4</ele>
        <time>2015-02-02T20:37:36.621Z</time>
      </trkpt>
      <trkpt lat="48.83888" lon="2.26985">
        <ele>93.4</ele>
        <time>2015-02-02T20:37:37.489Z</time>
      </trkpt>
      <trkpt lat="48.83891" lon="2.26978">
        <ele>93.1</ele>
        <time>2015-02-02T20:37:39.543Z</time>
      </trkpt>
      <trkpt lat="48.83892" lon="2.26973">
        <ele>93</ele>
        <time>2015-02-02T20:37:40.556Z</time>
      </trkpt>
      <trkpt lat="48.83895" lon="2.26964">
        <ele>93.4</ele>
        <time>2015-02-02T20:37:42.593Z</time>
      </trkpt>
      <trkpt lat="48.83897" lon="2.26959">
        <ele>93.1</ele>
        <time>2015-02-02T20:37:43.501Z</time>
      </trkpt>
      <trkpt lat="48.83901" lon="2.26951">
        <ele>92.7</ele>
        <time>2015-02-02T20:37:45.521Z</time>
      </trkpt>
      <trkpt lat="48.83903" lon="2.26946">
        <ele>92.6</ele>
        <time>2015-02-02T20:37:46.556Z</time>
      </trkpt>
      <trkpt lat="48.83907" lon="2.26937">
        <ele>92.2</ele>
        <time>2015-02-02T20:37:48.479Z</time>
      </trkpt>
      <trkpt lat="48.83909" lon="2.26933">
        <ele>92</ele>
        <time>2015-02-02T20:37:49.521Z</time>
      </trkpt>
      <trkpt lat="48.83913" lon="2.26925">
        <ele>91.3</ele>
        <time>2015-02-02T20:37:51.535Z</time>
      </trkpt>
      <trkpt lat="48.83915" lon="2.2692">
        <ele>91.1</ele>
        <time>2015-02-02T20:37:52.576Z</time>
      </trkpt>
      <trkpt lat="48.83919" lon="2.2691">
        <ele>90.7</ele>
        <time>2015-02-02T20:37:54.487Z</time>
      </trkpt>
      <trkpt lat="48.83921" lon="2.26905">
        <ele>90.5</ele>
        <time>2015-02-02T20:37:55.524Z</time>
      </trkpt>
      <trkpt lat="48.83925" lon="2.26896">
        <ele>90.2</ele>
        <time>2015-02-02T20:37:58.363Z</time>
      </trkpt>
      <trkpt lat="48.83927" lon="2.26891">
        <ele>90.1</ele>
        <time>2015-02-02T20:37:58.595Z</time>
      </trkpt>
      <trkpt lat="48.83932" lon="2.26881">
        <ele>90</ele>
        <time>2015-02-02T20:38:00.501Z</time>
      </trkpt>
      <trkpt lat="48.83934" lon="2.26876">
        <ele>89.9</ele>
        <time>2015-02-02T20:38:01.551Z</time>
      </trkpt>
      <trkpt lat="48.83939" lon="2.26866">
        <ele>89.8</ele>
        <time>2015-02-02T20:38:03.475Z</time>
      </trkpt>
      <trkpt lat="48.83942" lon="2.2686">
        <ele>89.7</ele>
        <time>2015-02-02T20:38:04.589Z</time>
      </trkpt>
      <trkpt lat="48.83945" lon="2.26854">
        <ele>89.7</ele>
        <time>2015-02-02T20:38:05.582Z</time>
      </trkpt>
      <trkpt lat="48.83947" lon="2.26848">
        <ele>89.6</ele>
        <time>2015-02-02T20:38:06.694Z</time>
      </trkpt>
      <trkpt lat="48.8395" lon="2.26842">
        <ele>89.5</ele>
        <time>2015-02-02T20:38:08.401Z</time>
      </trkpt>
      <trkpt lat="48.83953" lon="2.26837">
        <ele>89.4</ele>
        <time>2015-02-02T20:38:08.506Z</time>
      </trkpt>
      <trkpt lat="48.83956" lon="2.26831">
        <ele>89.4</ele>
        <time>2015-02-02T20:38:09.518Z</time>
      </trkpt>
      <trkpt lat="48.83959" lon="2.26825">
        <ele>89.4</ele>
        <time>2015-02-02T20:38:10.523Z</time>
      </trkpt>
      <trkpt lat="48.83962" lon="2.26819">
        <ele>89.3</ele>
        <time>2015-02-02T20:38:11.521Z</time>
      </trkpt>
      <trkpt lat="48.83965" lon="2.26813">
        <ele>89.3</ele>
        <time>2015-02-02T20:38:12.540Z</time>
      </trkpt>
      <trkpt lat="48.83968" lon="2.26808">
        <ele>89.2</ele>
        <time>2015-02-02T20:38:13.536Z</time>
      </trkpt>
      <trkpt lat="48.83971" lon="2.26802">
        <ele>89.1</ele>
        <time>2015-02-02T20:38:14.548Z</time>
      </trkpt>
      <trkpt lat="48.83975" lon="2.26794">
        <ele>89</ele>
        <time>2015-02-02T20:38:15.565Z</time>
      </trkpt>
      <trkpt lat="48.83977" lon="2.26786">
        <ele>88.9</ele>
        <time>2015-02-02T20:38:16.569Z</time>
      </trkpt>
      <trkpt lat="48.83981" lon="2.26779">
        <ele>88.9</ele>
        <time>2015-02-02T20:38:17.571Z</time>
      </trkpt>
      <trkpt lat="48.83984" lon="2.26771">
        <ele>88.9</ele>
        <time>2015-02-02T20:38:18.489Z</time>
      </trkpt>
      <trkpt lat="48.83987" lon="2.26763">
        <ele>88.8</ele>
        <time>2015-02-02T20:38:19.503Z</time>
      </trkpt>
      <trkpt lat="48.8399" lon="2.26755">
        <ele>88.8</ele>
        <time>2015-02-02T20:38:20.514Z</time>
      </trkpt>
      <trkpt lat="48.83993" lon="2.26747">
        <ele>88.9</ele>
        <time>2015-02-02T20:38:21.522Z</time>
      </trkpt>
      <trkpt lat="48.83996" lon="2.26739">
        <ele>88.8</ele>
        <time>2015-02-02T20:38:22.540Z</time>
      </trkpt>
      <trkpt lat="48.84" lon="2.26731">
        <ele>88.8</ele>
        <time>2015-02-02T20:38:23.546Z</time>
      </trkpt>
      <trkpt lat="48.84004" lon="2.26724">
        <ele>88.7</ele>
        <time>2015-02-02T20:38:24.555Z</time>
      </trkpt>
      <trkpt lat="48.84008" lon="2.26717">
        <ele>88.8</ele>
        <time>2015-02-02T20:38:25.470Z</time>
      </trkpt>
      <trkpt lat="48.84012" lon="2.26708">
        <ele>88.8</ele>
        <time>2015-02-02T20:38:26.472Z</time>
      </trkpt>
      <trkpt lat="48.84016" lon="2.267">
        <ele>88.9</ele>
        <time>2015-02-02T20:38:27.503Z</time>
      </trkpt>
      <trkpt lat="48.8402" lon="2.26691">
        <ele>89</ele>
        <time>2015-02-02T20:38:28.527Z</time>
      </trkpt>
      <trkpt lat="48.84024" lon="2.26684">
        <ele>89</ele>
        <time>2015-02-02T20:38:29.548Z</time>
      </trkpt>
      <trkpt lat="48.84029" lon="2.26677">
        <ele>89.1</ele>
        <time>2015-02-02T20:38:30.561Z</time>
      </trkpt>
      <trkpt lat="48.84035" lon="2.2667">
        <ele>88.9</ele>
        <time>2015-02-02T20:38:31.477Z</time>
      </trkpt>
      <trkpt lat="48.84037" lon="2.2666">
        <ele>89.1</ele>
        <time>2015-02-02T20:38:32.483Z</time>
      </trkpt>
      <trkpt lat="48.84041" lon="2.2665">
        <ele>89.2</ele>
        <time>2015-02-02T20:38:33.485Z</time>
      </trkpt>
      <trkpt lat="48.84046" lon="2.26642">
        <ele>89.3</ele>
        <time>2015-02-02T20:38:34.536Z</time>
      </trkpt>
      <trkpt lat="48.84051" lon="2.26635">
        <ele>89.4</ele>
        <time>2015-02-02T20:38:35.543Z</time>
      </trkpt>
      <trkpt lat="48.84056" lon="2.26627">
        <ele>89.5</ele>
        <time>2015-02-02T20:38:36.453Z</time>
      </trkpt>
      <trkpt lat="48.84061" lon="2.26623">
        <ele>89.6</ele>
        <time>2015-02-02T20:38:37.476Z</time>
      </trkpt>
      <trkpt lat="48.84065" lon="2.26615">
        <ele>89.7</ele>
        <time>2015-02-02T20:38:38.643Z</time>
      </trkpt>
      <trkpt lat="48.84068" lon="2.26607">
        <ele>89.7</ele>
        <time>2015-02-02T20:38:39.480Z</time>
      </trkpt>
      <trkpt lat="48.84069" lon="2.26598">
        <ele>89.7</ele>
        <time>2015-02-02T20:38:40.488Z</time>
      </trkpt>
      <trkpt lat="48.84074" lon="2.26588">
        <ele>89.9</ele>
        <time>2015-02-02T20:38:42.471Z</time>
      </trkpt>
      <trkpt lat="48.84077" lon="2.26581">
        <ele>90</ele>
        <time>2015-02-02T20:38:43.576Z</time>
      </trkpt>
      <trkpt lat="48.84083" lon="2.26573">
        <ele>90.3</ele>
        <time>2015-02-02T20:38:45.480Z</time>
      </trkpt>
      <trkpt lat="48.84085" lon="2.26569">
        <ele>90.4</ele>
        <time>2015-02-02T20:38:46.506Z</time>
      </trkpt>
      <trkpt lat="48.84087" lon="2.26556">
        <ele>90.5</ele>
        <time>2015-02-02T20:38:49.456Z</time>
      </trkpt>
      <trkpt lat="48.84087" lon="2.26553">
        <ele>90.6</ele>
        <time>2015-02-02T20:38:50.474Z</time>
      </trkpt>
      <trkpt lat="48.84092" lon="2.26542">
        <ele>91.4</ele>
        <time>2015-02-02T20:38:54.537Z</time>
      </trkpt>
      <trkpt lat="48.84094" lon="2.2654">
        <ele>91.5</ele>
        <time>2015-02-02T20:38:55.472Z</time>
      </trkpt>
      <trkpt lat="48.84094" lon="2.26527">
        <ele>92.1</ele>
        <time>2015-02-02T20:38:59.539Z</time>
      </trkpt>
      <trkpt lat="48.84095" lon="2.26523">
        <ele>92.2</ele>
        <time>2015-02-02T20:39:00.563Z</time>
      </trkpt>
      <trkpt lat="48.84099" lon="2.26514">
        <ele>92.3</ele>
        <time>2015-02-02T20:39:02.473Z</time>
      </trkpt>
      <trkpt lat="48.841" lon="2.26509">
        <ele>92.4</ele>
        <time>2015-02-02T20:39:03.479Z</time>
      </trkpt>
      <trkpt lat="48.84103" lon="2.26497">
        <ele>92.3</ele>
        <time>2015-02-02T20:39:05.542Z</time>
      </trkpt>
      <trkpt lat="48.84105" lon="2.26492">
        <ele>92.4</ele>
        <time>2015-02-02T20:39:06.556Z</time>
      </trkpt>
      <trkpt lat="48.84108" lon="2.26489">
        <ele>92.5</ele>
        <time>2015-02-02T20:39:07.469Z</time>
      </trkpt>
      <trkpt lat="48.84113" lon="2.26483">
        <ele>89.9</ele>
        <time>2015-02-02T20:39:08.465Z</time>
      </trkpt>
      <trkpt lat="48.84117" lon="2.26479">
        <ele>88.6</ele>
        <time>2015-02-02T20:39:09.469Z</time>
      </trkpt>
      <trkpt lat="48.84122" lon="2.26474">
        <ele>87.2</ele>
        <time>2015-02-02T20:39:10.520Z</time>
      </trkpt>
      <trkpt lat="48.84128" lon="2.26471">
        <ele>86</ele>
        <time>2015-02-02T20:39:11.493Z</time>
      </trkpt>
      <trkpt lat="48.84133" lon="2.26467">
        <ele>85</ele>
        <time>2015-02-02T20:39:12.490Z</time>
      </trkpt>
      <trkpt lat="48.84137" lon="2.26461">
        <ele>84.4</ele>
        <time>2015-02-02T20:39:13.527Z</time>
      </trkpt>
      <trkpt lat="48.84142" lon="2.26457">
        <ele>83.8</ele>
        <time>2015-02-02T20:39:14.535Z</time>
      </trkpt>
      <trkpt lat="48.84146" lon="2.26452">
        <ele>83.5</ele>
        <time>2015-02-02T20:39:15.562Z</time>
      </trkpt>
      <trkpt lat="48.8415" lon="2.26446">
        <ele>83.3</ele>
        <time>2015-02-02T20:39:16.563Z</time>
      </trkpt>
      <trkpt lat="48.84154" lon="2.2644">
        <ele>83.4</ele>
        <time>2015-02-02T20:39:17.473Z</time>
      </trkpt>
      <trkpt lat="48.84157" lon="2.26434">
        <ele>83.3</ele>
        <time>2015-02-02T20:39:18.501Z</time>
      </trkpt>
      <trkpt lat="48.84162" lon="2.26423">
        <ele>83.2</ele>
        <time>2015-02-02T20:39:20.532Z</time>
      </trkpt>
      <trkpt lat="48.84164" lon="2.26418">
        <ele>83.3</ele>
        <time>2015-02-02T20:39:21.540Z</time>
      </trkpt>
      <trkpt lat="48.84167" lon="2.26413">
        <ele>83.3</ele>
        <time>2015-02-02T20:39:22.603Z</time>
      </trkpt>
      <trkpt lat="48.84168" lon="2.26406">
        <ele>83.5</ele>
        <time>2015-02-02T20:39:23.467Z</time>
      </trkpt>
      <trkpt lat="48.84168" lon="2.26398">
        <ele>83</ele>
        <time>2015-02-02T20:39:24.480Z</time>
      </trkpt>
      <trkpt lat="48.84169" lon="2.26391">
        <ele>82.4</ele>
        <time>2015-02-02T20:39:25.547Z</time>
      </trkpt>
      <trkpt lat="48.84171" lon="2.26384">
        <ele>82.7</ele>
        <time>2015-02-02T20:39:26.486Z</time>
      </trkpt>
      <trkpt lat="48.84174" lon="2.26377">
        <ele>82.9</ele>
        <time>2015-02-02T20:39:27.509Z</time>
      </trkpt>
      <trkpt lat="48.84176" lon="2.26369">
        <ele>83.1</ele>
        <time>2015-02-02T20:39:28.524Z</time>
      </trkpt>
      <trkpt lat="48.84179" lon="2.26362">
        <ele>83</ele>
        <time>2015-02-02T20:39:29.545Z</time>
      </trkpt>
      <trkpt lat="48.84181" lon="2.26354">
        <ele>82.9</ele>
        <time>2015-02-02T20:39:30.599Z</time>
      </trkpt>
      <trkpt lat="48.84184" lon="2.26345">
        <ele>82.7</ele>
        <time>2015-02-02T20:39:31.445Z</time>
      </trkpt>
      <trkpt lat="48.84186" lon="2.26338">
        <ele>82.8</ele>
        <time>2015-02-02T20:39:32.470Z</time>
      </trkpt>
      <trkpt lat="48.8419" lon="2.2633">
        <ele>82.7</ele>
        <time>2015-02-02T20:39:33.478Z</time>
      </trkpt>
      <trkpt lat="48.84193" lon="2.26323">
        <ele>82.6</ele>
        <time>2015-02-02T20:39:34.542Z</time>
      </trkpt>
      <trkpt lat="48.84196" lon="2.26316">
        <ele>82.9</ele>
        <time>2015-02-02T20:39:35.568Z</time>
      </trkpt>
      <trkpt lat="48.842" lon="2.26309">
        <ele>83.2</ele>
        <time>2015-02-02T20:39:36.470Z</time>
      </trkpt>
      <trkpt lat="48.84204" lon="2.26303">
        <ele>83.4</ele>
        <time>2015-02-02T20:39:37.468Z</time>
      </trkpt>
      <trkpt lat="48.84207" lon="2.26297">
        <ele>83.6</ele>
        <time>2015-02-02T20:39:38.482Z</time>
      </trkpt>
      <trkpt lat="48.8421" lon="2.2629">
        <ele>83.8</ele>
        <time>2015-02-02T20:39:39.487Z</time>
      </trkpt>
      <trkpt lat="48.84212" lon="2.26284">
        <ele>83.6</ele>
        <time>2015-02-02T20:39:40.506Z</time>
      </trkpt>
      <trkpt lat="48.84216" lon="2.26279">
        <ele>83.8</ele>
        <time>2015-02-02T20:39:41.506Z</time>
      </trkpt>
      <trkpt lat="48.84218" lon="2.26273">
        <ele>84</ele>
        <time>2015-02-02T20:39:42.511Z</time>
      </trkpt>
      <trkpt lat="48.84221" lon="2.26266">
        <ele>84.2</ele>
        <time>2015-02-02T20:39:43.522Z</time>
      </trkpt>
      <trkpt lat="48.84224" lon="2.26257">
        <ele>84.4</ele>
        <time>2015-02-02T20:39:44.533Z</time>
      </trkpt>
      <trkpt lat="48.84227" lon="2.26249">
        <ele>84.6</ele>
        <time>2015-02-02T20:39:45.547Z</time>
      </trkpt>
      <trkpt lat="48.84229" lon="2.26242">
        <ele>84.8</ele>
        <time>2015-02-02T20:39:46.605Z</time>
      </trkpt>
      <trkpt lat="48.84232" lon="2.26234">
        <ele>85</ele>
        <time>2015-02-02T20:39:47.459Z</time>
      </trkpt>
      <trkpt lat="48.84234" lon="2.26227">
        <ele>85.1</ele>
        <time>2015-02-02T20:39:48.481Z</time>
      </trkpt>
      <trkpt lat="48.84236" lon="2.26218">
        <ele>85.3</ele>
        <time>2015-02-02T20:39:49.488Z</time>
      </trkpt>
      <trkpt lat="48.84239" lon="2.2621">
        <ele>85.4</ele>
        <time>2015-02-02T20:39:50.543Z</time>
      </trkpt>
      <trkpt lat="48.8424" lon="2.26203">
        <ele>85.6</ele>
        <time>2015-02-02T20:39:51.557Z</time>
      </trkpt>
      <trkpt lat="48.84243" lon="2.26196">
        <ele>85.7</ele>
        <time>2015-02-02T20:39:52.591Z</time>
      </trkpt>
      <trkpt lat="48.84246" lon="2.26191">
        <ele>85.9</ele>
        <time>2015-02-02T20:39:53.466Z</time>
      </trkpt>
      <trkpt lat="48.84249" lon="2.26185">
        <ele>86</ele>
        <time>2015-02-02T20:39:54.467Z</time>
      </trkpt>
      <trkpt lat="48.84252" lon="2.2618">
        <ele>86.2</ele>
        <time>2015-02-02T20:39:55.466Z</time>
      </trkpt>
      <trkpt lat="48.84256" lon="2.26174">
        <ele>86.4</ele>
        <time>2015-02-02T20:39:56.466Z</time>
      </trkpt>
      <trkpt lat="48.84259" lon="2.2617">
        <ele>86.5</ele>
        <time>2015-02-02T20:39:57.504Z</time>
      </trkpt>
      <trkpt lat="48.84265" lon="2.2616">
        <ele>86.8</ele>
        <time>2015-02-02T20:39:59.531Z</time>
      </trkpt>
      <trkpt lat="48.84268" lon="2.26155">
        <ele>86.9</ele>
        <time>2015-02-02T20:40:00.553Z</time>
      </trkpt>
      <trkpt lat="48.84272" lon="2.2615">
        <ele>87</ele>
        <time>2015-02-02T20:40:01.471Z</time>
      </trkpt>
      <trkpt lat="48.84276" lon="2.26144">
        <ele>87.1</ele>
        <time>2015-02-02T20:40:02.592Z</time>
      </trkpt>
      <trkpt lat="48.8428" lon="2.2614">
        <ele>87.2</ele>
        <time>2015-02-02T20:40:03.485Z</time>
      </trkpt>
      <trkpt lat="48.84283" lon="2.26135">
        <ele>87.4</ele>
        <time>2015-02-02T20:40:04.544Z</time>
      </trkpt>
      <trkpt lat="48.84288" lon="2.26125">
        <ele>87.6</ele>
        <time>2015-02-02T20:40:06.461Z</time>
      </trkpt>
      <trkpt lat="48.8429" lon="2.26115">
        <ele>87.6</ele>
        <time>2015-02-02T20:40:07.514Z</time>
      </trkpt>
      <trkpt lat="48.8429" lon="2.26104">
        <ele>87.5</ele>
        <time>2015-02-02T20:40:08.446Z</time>
      </trkpt>
      <trkpt lat="48.84292" lon="2.26096">
        <ele>87.4</ele>
        <time>2015-02-02T20:40:09.445Z</time>
      </trkpt>
      <trkpt lat="48.84295" lon="2.26085">
        <ele>87.2</ele>
        <time>2015-02-02T20:40:11.534Z</time>
      </trkpt>
      <trkpt lat="48.84297" lon="2.26081">
        <ele>87.3</ele>
        <time>2015-02-02T20:40:12.462Z</time>
      </trkpt>
      <trkpt lat="48.84301" lon="2.2607">
        <ele>87.1</ele>
        <time>2015-02-02T20:40:14.488Z</time>
      </trkpt>
      <trkpt lat="48.84303" lon="2.26065">
        <ele>87.1</ele>
        <time>2015-02-02T20:40:15.517Z</time>
      </trkpt>
      <trkpt lat="48.84306" lon="2.26055">
        <ele>87.3</ele>
        <time>2015-02-02T20:40:17.563Z</time>
      </trkpt>
      <trkpt lat="48.84308" lon="2.2605">
        <ele>87.5</ele>
        <time>2015-02-02T20:40:18.518Z</time>
      </trkpt>
      <trkpt lat="48.84313" lon="2.26041">
        <ele>87.5</ele>
        <time>2015-02-02T20:40:22.491Z</time>
      </trkpt>
      <trkpt lat="48.84315" lon="2.2604">
        <ele>87.8</ele>
        <time>2015-02-02T20:40:23.469Z</time>
      </trkpt>
      <trkpt lat="48.84314" lon="2.26034">
        <ele>87.4</ele>
        <time>2015-02-02T20:40:27.479Z</time>
      </trkpt>
      <trkpt lat="48.84314" lon="2.26034">
        <ele>87.5</ele>
        <time>2015-02-02T20:40:28.494Z</time>
      </trkpt>
      <trkpt lat="48.84313" lon="2.26034">
        <ele>87.4</ele>
        <time>2015-02-02T20:40:47.509Z</time>
      </trkpt>
      <trkpt lat="48.8431" lon="2.26029">
        <ele>89.4</ele>
        <time>2015-02-02T20:40:48.452Z</time>
      </trkpt>
      <trkpt lat="48.84314" lon="2.26021">
        <ele>89.8</ele>
        <time>2015-02-02T20:40:51.526Z</time>
      </trkpt>
      <trkpt lat="48.84315" lon="2.26017">
        <ele>89.9</ele>
        <time>2015-02-02T20:40:52.534Z</time>
      </trkpt>
      <trkpt lat="48.8432" lon="2.2601">
        <ele>89.9</ele>
        <time>2015-02-02T20:40:54.462Z</time>
      </trkpt>
      <trkpt lat="48.84322" lon="2.26007">
        <ele>90.3</ele>
        <time>2015-02-02T20:40:55.471Z</time>
      </trkpt>
      <trkpt lat="48.84326" lon="2.25999">
        <ele>90.5</ele>
        <time>2015-02-02T20:40:57.512Z</time>
      </trkpt>
      <trkpt lat="48.84329" lon="2.25995">
        <ele>90.7</ele>
        <time>2015-02-02T20:40:58.537Z</time>
      </trkpt>
      <trkpt lat="48.84332" lon="2.25991">
        <ele>91.1</ele>
        <time>2015-02-02T20:40:59.458Z</time>
      </trkpt>
      <trkpt lat="48.84336" lon="2.25986">
        <ele>91.4</ele>
        <time>2015-02-02T20:41:00.425Z</time>
      </trkpt>
      <trkpt lat="48.8434" lon="2.25983">
        <ele>91.5</ele>
        <time>2015-02-02T20:41:01.483Z</time>
      </trkpt>
      <trkpt lat="48.84344" lon="2.25979">
        <ele>91.7</ele>
        <time>2015-02-02T20:41:02.493Z</time>
      </trkpt>
      <trkpt lat="48.84352" lon="2.25972">
        <ele>91.9</ele>
        <time>2015-02-02T20:41:04.557Z</time>
      </trkpt>
      <trkpt lat="48.84355" lon="2.25969">
        <ele>92.1</ele>
        <time>2015-02-02T20:41:05.450Z</time>
      </trkpt>
      <trkpt lat="48.84363" lon="2.25964">
        <ele>92.4</ele>
        <time>2015-02-02T20:41:07.492Z</time>
      </trkpt>
      <trkpt lat="48.84367" lon="2.25963">
        <ele>92.6</ele>
        <time>2015-02-02T20:41:08.504Z</time>
      </trkpt>
      <trkpt lat="48.84374" lon="2.25959">
        <ele>92.9</ele>
        <time>2015-02-02T20:41:10.487Z</time>
      </trkpt>
      <trkpt lat="48.84377" lon="2.25956">
        <ele>93.1</ele>
        <time>2015-02-02T20:41:11.478Z</time>
      </trkpt>
      <trkpt lat="48.84381" lon="2.25953">
        <ele>93.4</ele>
        <time>2015-02-02T20:41:12.507Z</time>
      </trkpt>
      <trkpt lat="48.84385" lon="2.2595">
        <ele>93.5</ele>
        <time>2015-02-02T20:41:13.589Z</time>
      </trkpt>
      <trkpt lat="48.8439" lon="2.25947">
        <ele>93.6</ele>
        <time>2015-02-02T20:41:14.528Z</time>
      </trkpt>
      <trkpt lat="48.84394" lon="2.25944">
        <ele>93.7</ele>
        <time>2015-02-02T20:41:15.539Z</time>
      </trkpt>
      <trkpt lat="48.84399" lon="2.2594">
        <ele>93.8</ele>
        <time>2015-02-02T20:41:16.550Z</time>
      </trkpt>
      <trkpt lat="48.84404" lon="2.25937">
        <ele>93.9</ele>
        <time>2015-02-02T20:41:17.449Z</time>
      </trkpt>
      <trkpt lat="48.8441" lon="2.25933">
        <ele>93.8</ele>
        <time>2015-02-02T20:41:18.462Z</time>
      </trkpt>
      <trkpt lat="48.84415" lon="2.25929">
        <ele>93.8</ele>
        <time>2015-02-02T20:41:19.471Z</time>
      </trkpt>
      <trkpt lat="48.84423" lon="2.25924">
        <ele>94.2</ele>
        <time>2015-02-02T20:41:21.492Z</time>
      </trkpt>
      <trkpt lat="48.84427" lon="2.2592">
        <ele>94.5</ele>
        <time>2015-02-02T20:41:22.529Z</time>
      </trkpt>
      <trkpt lat="48.84434" lon="2.25917">
        <ele>94.8</ele>
        <time>2015-02-02T20:41:23.521Z</time>
      </trkpt>
      <trkpt lat="48.84439" lon="2.25914">
        <ele>94.8</ele>
        <time>2015-02-02T20:41:24.530Z</time>
      </trkpt>
      <trkpt lat="48.84445" lon="2.25912">
        <ele>95.1</ele>
        <time>2015-02-02T20:41:25.544Z</time>
      </trkpt>
      <trkpt lat="48.8445" lon="2.2591">
        <ele>95.3</ele>
        <time>2015-02-02T20:41:26.432Z</time>
      </trkpt>
      <trkpt lat="48.84456" lon="2.25905">
        <ele>95.5</ele>
        <time>2015-02-02T20:41:29.214Z</time>
      </trkpt>
      <trkpt lat="48.84459" lon="2.25903">
        <ele>95.8</ele>
        <time>2015-02-02T20:41:29.430Z</time>
      </trkpt>
      <trkpt lat="48.84466" lon="2.25897">
        <ele>96.5</ele>
        <time>2015-02-02T20:41:32.480Z</time>
      </trkpt>
      <trkpt lat="48.8447" lon="2.25894">
        <ele>96.7</ele>
        <time>2015-02-02T20:41:33.504Z</time>
      </trkpt>
      <trkpt lat="48.84475" lon="2.25888">
        <ele>98.1</ele>
        <time>2015-02-02T20:41:36.465Z</time>
      </trkpt>
      <trkpt lat="48.84477" lon="2.25887">
        <ele>98.5</ele>
        <time>2015-02-02T20:41:37.480Z</time>
      </trkpt>
      <trkpt lat="48.84483" lon="2.25884">
        <ele>99.3</ele>
        <time>2015-02-02T20:41:39.449Z</time>
      </trkpt>
      <trkpt lat="48.84487" lon="2.25883">
        <ele>99.6</ele>
        <time>2015-02-02T20:41:40.564Z</time>
      </trkpt>
      <trkpt lat="48.84495" lon="2.25881">
        <ele>99.9</ele>
        <time>2015-02-02T20:41:43.482Z</time>
      </trkpt>
      <trkpt lat="48.84497" lon="2.25882">
        <ele>100.2</ele>
        <time>2015-02-02T20:41:44.517Z</time>
      </trkpt>
      <trkpt lat="48.84504" lon="2.25891">
        <ele>100.7</ele>
        <time>2015-02-02T20:41:48.467Z</time>
      </trkpt>
      <trkpt lat="48.84506" lon="2.25892">
        <ele>101</ele>
        <time>2015-02-02T20:41:49.474Z</time>
      </trkpt>
      <trkpt lat="48.84511" lon="2.25891">
        <ele>101.5</ele>
        <time>2015-02-02T20:41:51.485Z</time>
      </trkpt>
      <trkpt lat="48.84515" lon="2.25888">
        <ele>101.3</ele>
        <time>2015-02-02T20:41:52.500Z</time>
      </trkpt>
      <trkpt lat="48.84522" lon="2.25882">
        <ele>102.5</ele>
        <time>2015-02-02T20:41:54.519Z</time>
      </trkpt>
      <trkpt lat="48.84526" lon="2.25879">
        <ele>103.4</ele>
        <time>2015-02-02T20:41:55.532Z</time>
      </trkpt>
      <trkpt lat="48.84534" lon="2.25879">
        <ele>104.5</ele>
        <time>2015-02-02T20:41:59.457Z</time>
      </trkpt>
      <trkpt lat="48.84537" lon="2.2588">
        <ele>104.8</ele>
        <time>2015-02-02T20:42:00.504Z</time>
      </trkpt>
      <trkpt lat="48.84545" lon="2.25884">
        <ele>105.7</ele>
        <time>2015-02-02T20:42:04.549Z</time>
      </trkpt>
      <trkpt lat="48.84549" lon="2.25885">
        <ele>106</ele>
        <time>2015-02-02T20:42:05.593Z</time>
      </trkpt>
      <trkpt lat="48.84555" lon="2.25886">
        <ele>106.5</ele>
        <time>2015-02-02T20:42:07.467Z</time>
      </trkpt>
      <trkpt lat="48.84559" lon="2.25888">
        <ele>106.9</ele>
        <time>2015-02-02T20:42:08.515Z</time>
      </trkpt>
      <trkpt lat="48.84574" lon="2.25891">
        <ele>107.2</ele>
        <time>2015-02-02T20:42:12.447Z</time>
      </trkpt>
      <trkpt lat="48.84581" lon="2.25894">
        <ele>107.6</ele>
        <time>2015-02-02T20:42:14.507Z</time>
      </trkpt>
      <trkpt lat="48.84584" lon="2.25897">
        <ele>107.7</ele>
        <time>2015-02-02T20:42:15.505Z</time>
      </trkpt>
      <trkpt lat="48.84589" lon="2.259">
        <ele>108</ele>
        <time>2015-02-02T20:42:16.472Z</time>
      </trkpt>
      <trkpt lat="48.84594" lon="2.25903">
        <ele>108.2</ele>
        <time>2015-02-02T20:42:17.469Z</time>
      </trkpt>
      <trkpt lat="48.84599" lon="2.25906">
        <ele>108.5</ele>
        <time>2015-02-02T20:42:18.488Z</time>
      </trkpt>
      <trkpt lat="48.84604" lon="2.2591">
        <ele>108.7</ele>
        <time>2015-02-02T20:42:19.494Z</time>
      </trkpt>
      <trkpt lat="48.84612" lon="2.25915">
        <ele>109</ele>
        <time>2015-02-02T20:42:21.528Z</time>
      </trkpt>
      <trkpt lat="48.84616" lon="2.25916">
        <ele>109.1</ele>
        <time>2015-02-02T20:42:22.543Z</time>
      </trkpt>
      <trkpt lat="48.84623" lon="2.2592">
        <ele>109.4</ele>
        <time>2015-02-02T20:42:24.442Z</time>
      </trkpt>
      <trkpt lat="48.84627" lon="2.25922">
        <ele>109.6</ele>
        <time>2015-02-02T20:42:25.516Z</time>
      </trkpt>
      <trkpt lat="48.84631" lon="2.25924">
        <ele>109.7</ele>
        <time>2015-02-02T20:42:26.493Z</time>
      </trkpt>
      <trkpt lat="48.84636" lon="2.25927">
        <ele>109.8</ele>
        <time>2015-02-02T20:42:27.505Z</time>
      </trkpt>
      <trkpt lat="48.84643" lon="2.25931">
        <ele>110</ele>
        <time>2015-02-02T20:42:28.519Z</time>
      </trkpt>
      <trkpt lat="48.84645" lon="2.25933">
        <ele>110.1</ele>
        <time>2015-02-02T20:42:29.430Z</time>
      </trkpt>
      <trkpt lat="48.84651" lon="2.25939">
        <ele>110.3</ele>
        <time>2015-02-02T20:42:31.456Z</time>
      </trkpt>
      <trkpt lat="48.84655" lon="2.25943">
        <ele>110.4</ele>
        <time>2015-02-02T20:42:32.476Z</time>
      </trkpt>
      <trkpt lat="48.84655" lon="2.25943">
        <ele>110.4</ele>
        <time>2015-02-02T20:42:32.812Z</time>
      </trkpt>
      <trkpt lat="48.84682" lon="2.25956">
        <ele>107.4</ele>
        <time>2015-02-02T20:42:38.485Z</time>
      </trkpt>
      <trkpt lat="48.8469" lon="2.25961">
        <ele>107.5</ele>
        <time>2015-02-02T20:42:39.530Z</time>
      </trkpt>
      <trkpt lat="48.84694" lon="2.25964">
        <ele>107.6</ele>
        <time>2015-02-02T20:42:40.550Z</time>
      </trkpt>
      <trkpt lat="48.847" lon="2.25969">
        <ele>107.6</ele>
        <time>2015-02-02T20:42:41.485Z</time>
      </trkpt>
      <trkpt lat="48.84707" lon="2.25973">
        <ele>107.5</ele>
        <time>2015-02-02T20:42:42.488Z</time>
      </trkpt>
      <trkpt lat="48.84714" lon="2.25976">
        <ele>107.3</ele>
        <time>2015-02-02T20:42:43.518Z</time>
      </trkpt>
      <trkpt lat="48.84726" lon="2.25988">
        <ele>103.8</ele>
        <time>2015-02-02T20:42:44.527Z</time>
      </trkpt>
      <trkpt lat="48.84733" lon="2.25994">
        <ele>102.2</ele>
        <time>2015-02-02T20:42:45.448Z</time>
      </trkpt>
      <trkpt lat="48.84737" lon="2.25995">
        <ele>102.2</ele>
        <time>2015-02-02T20:42:46.553Z</time>
      </trkpt>
      <trkpt lat="48.84741" lon="2.25997">
        <ele>102.2</ele>
        <time>2015-02-02T20:42:47.436Z</time>
      </trkpt>
      <trkpt lat="48.84746" lon="2.26001">
        <ele>102</ele>
        <time>2015-02-02T20:42:48.451Z</time>
      </trkpt>
      <trkpt lat="48.84753" lon="2.26006">
        <ele>101.3</ele>
        <time>2015-02-02T20:42:50.458Z</time>
      </trkpt>
      <trkpt lat="48.84757" lon="2.26008">
        <ele>101</ele>
        <time>2015-02-02T20:42:51.464Z</time>
      </trkpt>
      <trkpt lat="48.84765" lon="2.26008">
        <ele>100</ele>
        <time>2015-02-02T20:42:55.719Z</time>
      </trkpt>
      <trkpt lat="48.84767" lon="2.26009">
        <ele>99.9</ele>
        <time>2015-02-02T20:42:56.476Z</time>
      </trkpt>
      <trkpt lat="48.84772" lon="2.2601">
        <ele>99.8</ele>
        <time>2015-02-02T20:43:00.487Z</time>
      </trkpt>
      <trkpt lat="48.84773" lon="2.2601">
        <ele>99.9</ele>
        <time>2015-02-02T20:43:01.491Z</time>
      </trkpt>
      <trkpt lat="48.84773" lon="2.26009">
        <ele>99.9</ele>
        <time>2015-02-02T20:43:06.477Z</time>
      </trkpt>
      <trkpt lat="48.84776" lon="2.26007">
        <ele>99.3</ele>
        <time>2015-02-02T20:43:07.491Z</time>
      </trkpt>
      <trkpt lat="48.84777" lon="2.26019">
        <ele>101</ele>
        <time>2015-02-02T20:43:14.470Z</time>
      </trkpt>
      <trkpt lat="48.84779" lon="2.2602">
        <ele>101.2</ele>
        <time>2015-02-02T20:43:15.480Z</time>
      </trkpt>
      <trkpt lat="48.84785" lon="2.2603">
        <ele>101.5</ele>
        <time>2015-02-02T20:43:21.477Z</time>
      </trkpt>
      <trkpt lat="48.84787" lon="2.26033">
        <ele>101.4</ele>
        <time>2015-02-02T20:43:22.568Z</time>
      </trkpt>
      <trkpt lat="48.84795" lon="2.26037">
        <ele>101.2</ele>
        <time>2015-02-02T20:43:27.515Z</time>
      </trkpt>
      <trkpt lat="48.84798" lon="2.26036">
        <ele>100.8</ele>
        <time>2015-02-02T20:43:28.525Z</time>
      </trkpt>
      <trkpt lat="48.84806" lon="2.26035">
        <ele>100.6</ele>
        <time>2015-02-02T20:43:31.481Z</time>
      </trkpt>
      <trkpt lat="48.8481" lon="2.26034">
        <ele>100.9</ele>
        <time>2015-02-02T20:43:32.510Z</time>
      </trkpt>
      <trkpt lat="48.84816" lon="2.26029">
        <ele>101.9</ele>
        <time>2015-02-02T20:43:34.526Z</time>
      </trkpt>
      <trkpt lat="48.8482" lon="2.26026">
        <ele>102.9</ele>
        <time>2015-02-02T20:43:35.536Z</time>
      </trkpt>
      <trkpt lat="48.84818" lon="2.26016">
        <ele>104.4</ele>
        <time>2015-02-02T20:43:39.495Z</time>
      </trkpt>
      <trkpt lat="48.84817" lon="2.26013">
        <ele>104.6</ele>
        <time>2015-02-02T20:43:40.569Z</time>
      </trkpt>
      <trkpt lat="48.84815" lon="2.26001">
        <ele>105.6</ele>
        <time>2015-02-02T20:43:43.496Z</time>
      </trkpt>
      <trkpt lat="48.84814" lon="2.25995">
        <ele>105.6</ele>
        <time>2015-02-02T20:43:44.524Z</time>
      </trkpt>
      <trkpt lat="48.84816" lon="2.25983">
        <ele>106.1</ele>
        <time>2015-02-02T20:43:47.477Z</time>
      </trkpt>
      <trkpt lat="48.84817" lon="2.2598">
        <ele>106.2</ele>
        <time>2015-02-02T20:43:48.512Z</time>
      </trkpt>
      <trkpt lat="48.8482" lon="2.2597">
        <ele>106</ele>
        <time>2015-02-02T20:43:51.569Z</time>
      </trkpt>
      <trkpt lat="48.84822" lon="2.25966">
        <ele>105.7</ele>
        <time>2015-02-02T20:43:52.581Z</time>
      </trkpt>
      <trkpt lat="48.84829" lon="2.25959">
        <ele>105.4</ele>
        <time>2015-02-02T20:43:55.485Z</time>
      </trkpt>
      <trkpt lat="48.84832" lon="2.25957">
        <ele>105.2</ele>
        <time>2015-02-02T20:43:56.525Z</time>
      </trkpt>
      <trkpt lat="48.8484" lon="2.25952">
        <ele>105</ele>
        <time>2015-02-02T20:44:01.471Z</time>
      </trkpt>
      <trkpt lat="48.84841" lon="2.25951">
        <ele>105.2</ele>
        <time>2015-02-02T20:44:02.470Z</time>
      </trkpt>
      <trkpt lat="48.84848" lon="2.2595">
        <ele>105.8</ele>
        <time>2015-02-02T20:44:06.635Z</time>
      </trkpt>
      <trkpt lat="48.84851" lon="2.25952">
        <ele>105.3</ele>
        <time>2015-02-02T20:44:07.470Z</time>
      </trkpt>
      <trkpt lat="48.84859" lon="2.25952">
        <ele>105.4</ele>
        <time>2015-02-02T20:44:11.548Z</time>
      </trkpt>
      <trkpt lat="48.84861" lon="2.25952">
        <ele>105.9</ele>
        <time>2015-02-02T20:44:12.462Z</time>
      </trkpt>
      <trkpt lat="48.84869" lon="2.25953">
        <ele>106.1</ele>
        <time>2015-02-02T20:44:15.507Z</time>
      </trkpt>
      <trkpt lat="48.84872" lon="2.25954">
        <ele>105.8</ele>
        <time>2015-02-02T20:44:16.555Z</time>
      </trkpt>
      <trkpt lat="48.84878" lon="2.25956">
        <ele>105.3</ele>
        <time>2015-02-02T20:44:19.501Z</time>
      </trkpt>
      <trkpt lat="48.84881" lon="2.25957">
        <ele>105.2</ele>
        <time>2015-02-02T20:44:20.507Z</time>
      </trkpt>
      <trkpt lat="48.84888" lon="2.2596">
        <ele>105.4</ele>
        <time>2015-02-02T20:44:24.135Z</time>
      </trkpt>
      <trkpt lat="48.8489" lon="2.25961">
        <ele>105.4</ele>
        <time>2015-02-02T20:44:24.459Z</time>
      </trkpt>
      <trkpt lat="48.84898" lon="2.25963">
        <ele>105.4</ele>
        <time>2015-02-02T20:44:27.496Z</time>
      </trkpt>
      <trkpt lat="48.84901" lon="2.25964">
        <ele>105.6</ele>
        <time>2015-02-02T20:44:28.541Z</time>
      </trkpt>
      <trkpt lat="48.84907" lon="2.25965">
        <ele>106.1</ele>
        <time>2015-02-02T20:44:30.471Z</time>
      </trkpt>
      <trkpt lat="48.84911" lon="2.25966">
        <ele>106.4</ele>
        <time>2015-02-02T20:44:31.583Z</time>
      </trkpt>
      <trkpt lat="48.84918" lon="2.25968">
        <ele>106.8</ele>
        <time>2015-02-02T20:44:34.194Z</time>
      </trkpt>
      <trkpt lat="48.84921" lon="2.2597">
        <ele>107.3</ele>
        <time>2015-02-02T20:44:34.508Z</time>
      </trkpt>
      <trkpt lat="48.84929" lon="2.25973">
        <ele>107.6</ele>
        <time>2015-02-02T20:44:36.521Z</time>
      </trkpt>
      <trkpt lat="48.84933" lon="2.25975">
        <ele>107.7</ele>
        <time>2015-02-02T20:44:37.528Z</time>
      </trkpt>
      <trkpt lat="48.84939" lon="2.25979">
        <ele>108.1</ele>
        <time>2015-02-02T20:44:39.429Z</time>
      </trkpt>
      <trkpt lat="48.84941" lon="2.25981">
        <ele>108.2</ele>
        <time>2015-02-02T20:44:40.526Z</time>
      </trkpt>
      <trkpt lat="48.84948" lon="2.25984">
        <ele>108.7</ele>
        <time>2015-02-02T20:44:42.457Z</time>
      </trkpt>
      <trkpt lat="48.84951" lon="2.25985">
        <ele>109.1</ele>
        <time>2015-02-02T20:44:43.460Z</time>
      </trkpt>
      <trkpt lat="48.84957" lon="2.25987">
        <ele>109.8</ele>
        <time>2015-02-02T20:44:45.508Z</time>
      </trkpt>
      <trkpt lat="48.84961" lon="2.25988">
        <ele>110.6</ele>
        <time>2015-02-02T20:44:46.521Z</time>
      </trkpt>
      <trkpt lat="48.84968" lon="2.25993">
        <ele>111</ele>
        <time>2015-02-02T20:44:49.552Z</time>
      </trkpt>
      <trkpt lat="48.84971" lon="2.25995">
        <ele>111.1</ele>
        <time>2015-02-02T20:44:50.575Z</time>
      </trkpt>
      <trkpt lat="48.84976" lon="2.25999">
        <ele>111.5</ele>
        <time>2015-02-02T20:44:53.294Z</time>
      </trkpt>
      <trkpt lat="48.84979" lon="2.26002">
        <ele>111.7</ele>
        <time>2015-02-02T20:44:53.530Z</time>
      </trkpt>
      <trkpt lat="48.84985" lon="2.26007">
        <ele>111.9</ele>
        <time>2015-02-02T20:44:55.577Z</time>
      </trkpt>
      <trkpt lat="48.84987" lon="2.2601">
        <ele>112.1</ele>
        <time>2015-02-02T20:44:56.445Z</time>
      </trkpt>
      <trkpt lat="48.84993" lon="2.26014">
        <ele>112.6</ele>
        <time>2015-02-02T20:44:59.515Z</time>
      </trkpt>
      <trkpt lat="48.84997" lon="2.26017">
        <ele>112.6</ele>
        <time>2015-02-02T20:45:00.531Z</time>
      </trkpt>
      <trkpt lat="48.85004" lon="2.26022">
        <ele>112.7</ele>
        <time>2015-02-02T20:45:03.444Z</time>
      </trkpt>
      <trkpt lat="48.85006" lon="2.26026">
        <ele>112.8</ele>
        <time>2015-02-02T20:45:04.521Z</time>
      </trkpt>
      <trkpt lat="48.85011" lon="2.26031">
        <ele>112.8</ele>
        <time>2015-02-02T20:45:06.441Z</time>
      </trkpt>
      <trkpt lat="48.85013" lon="2.26035">
        <ele>112.8</ele>
        <time>2015-02-02T20:45:07.465Z</time>
      </trkpt>
      <trkpt lat="48.85017" lon="2.26044">
        <ele>112.1</ele>
        <time>2015-02-02T20:45:11.495Z</time>
      </trkpt>
      <trkpt lat="48.85018" lon="2.26046">
        <ele>112</ele>
        <time>2015-02-02T20:45:12.528Z</time>
      </trkpt>
      <trkpt lat="48.8502" lon="2.26058">
        <ele>111.1</ele>
        <time>2015-02-02T20:45:18.371Z</time>
      </trkpt>
      <trkpt lat="48.85021" lon="2.26061">
        <ele>110.9</ele>
        <time>2015-02-02T20:45:18.482Z</time>
      </trkpt>
      <trkpt lat="48.85026" lon="2.26071">
        <ele>110.1</ele>
        <time>2015-02-02T20:45:22.520Z</time>
      </trkpt>
      <trkpt lat="48.85028" lon="2.26074">
        <ele>109.8</ele>
        <time>2015-02-02T20:45:23.540Z</time>
      </trkpt>
      <trkpt lat="48.85031" lon="2.26085">
        <ele>108.5</ele>
        <time>2015-02-02T20:45:26.461Z</time>
      </trkpt>
      <trkpt lat="48.85032" lon="2.2609">
        <ele>107.9</ele>
        <time>2015-02-02T20:45:27.465Z</time>
      </trkpt>
      <trkpt lat="48.85036" lon="2.26099">
        <ele>107.2</ele>
        <time>2015-02-02T20:45:29.528Z</time>
      </trkpt>
      <trkpt lat="48.85038" lon="2.26102">
        <ele>106.8</ele>
        <time>2015-02-02T20:45:30.537Z</time>
      </trkpt>
      <trkpt lat="48.85045" lon="2.26109">
        <ele>103.3</ele>
        <time>2015-02-02T20:45:33.952Z</time>
      </trkpt>
      <trkpt lat="48.85046" lon="2.26113">
        <ele>102.8</ele>
        <time>2015-02-02T20:45:34.516Z</time>
      </trkpt>
      <trkpt lat="48.85051" lon="2.26124">
        <ele>101.7</ele>
        <time>2015-02-02T20:45:38.988Z</time>
      </trkpt>
      <trkpt lat="48.85052" lon="2.26126">
        <ele>101.2</ele>
        <time>2015-02-02T20:45:39.547Z</time>
      </trkpt>
      <trkpt lat="48.85057" lon="2.26137">
        <ele>99.5</ele>
        <time>2015-02-02T20:45:44.103Z</time>
      </trkpt>
      <trkpt lat="48.85059" lon="2.2614">
        <ele>99</ele>
        <time>2015-02-02T20:45:44.478Z</time>
      </trkpt>
      <trkpt lat="48.85065" lon="2.26147">
        <ele>98.3</ele>
        <time>2015-02-02T20:45:46.526Z</time>
      </trkpt>
      <trkpt lat="48.85069" lon="2.2615">
        <ele>98</ele>
        <time>2015-02-02T20:45:47.526Z</time>
      </trkpt>
      <trkpt lat="48.85073" lon="2.26153">
        <ele>97.6</ele>
        <time>2015-02-02T20:45:48.528Z</time>
      </trkpt>
      <trkpt lat="48.85079" lon="2.26155">
        <ele>97.3</ele>
        <time>2015-02-02T20:45:49.456Z</time>
      </trkpt>
      <trkpt lat="48.85085" lon="2.26157">
        <ele>96.9</ele>
        <time>2015-02-02T20:45:50.461Z</time>
      </trkpt>
      <trkpt lat="48.8509" lon="2.2616">
        <ele>96.4</ele>
        <time>2015-02-02T20:45:51.487Z</time>
      </trkpt>
      <trkpt lat="48.85096" lon="2.26162">
        <ele>96.1</ele>
        <time>2015-02-02T20:45:53.246Z</time>
      </trkpt>
      <trkpt lat="48.85103" lon="2.26166">
        <ele>95.3</ele>
        <time>2015-02-02T20:45:53.509Z</time>
      </trkpt>
      <trkpt lat="48.85109" lon="2.26169">
        <ele>94.6</ele>
        <time>2015-02-02T20:45:54.589Z</time>
      </trkpt>
      <trkpt lat="48.85115" lon="2.26172">
        <ele>93.9</ele>
        <time>2015-02-02T20:45:55.458Z</time>
      </trkpt>
      <trkpt lat="48.85122" lon="2.26175">
        <ele>93.6</ele>
        <time>2015-02-02T20:45:56.463Z</time>
      </trkpt>
      <trkpt lat="48.8513" lon="2.26178">
        <ele>93.3</ele>
        <time>2015-02-02T20:45:57.493Z</time>
      </trkpt>
      <trkpt lat="48.85137" lon="2.26181">
        <ele>92.6</ele>
        <time>2015-02-02T20:45:58.514Z</time>
      </trkpt>
      <trkpt lat="48.85144" lon="2.26184">
        <ele>92.1</ele>
        <time>2015-02-02T20:45:59.523Z</time>
      </trkpt>
      <trkpt lat="48.8515" lon="2.26186">
        <ele>91.6</ele>
        <time>2015-02-02T20:46:00.543Z</time>
      </trkpt>
      <trkpt lat="48.85157" lon="2.26188">
        <ele>91.2</ele>
        <time>2015-02-02T20:46:01.553Z</time>
      </trkpt>
      <trkpt lat="48.85163" lon="2.26189">
        <ele>91.1</ele>
        <time>2015-02-02T20:46:03.366Z</time>
      </trkpt>
      <trkpt lat="48.85168" lon="2.2619">
        <ele>91.3</ele>
        <time>2015-02-02T20:46:03.473Z</time>
      </trkpt>
      <trkpt lat="48.85174" lon="2.26191">
        <ele>91.4</ele>
        <time>2015-02-02T20:46:04.519Z</time>
      </trkpt>
      <trkpt lat="48.8518" lon="2.26193">
        <ele>91.4</ele>
        <time>2015-02-02T20:46:05.528Z</time>
      </trkpt>
      <trkpt lat="48.85188" lon="2.26194">
        <ele>89.7</ele>
        <time>2015-02-02T20:46:06.534Z</time>
      </trkpt>
      <trkpt lat="48.85198" lon="2.26195">
        <ele>88.2</ele>
        <time>2015-02-02T20:46:07.550Z</time>
      </trkpt>
      <trkpt lat="48.85206" lon="2.26194">
        <ele>89.2</ele>
        <time>2015-02-02T20:46:08.547Z</time>
      </trkpt>
      <trkpt lat="48.85213" lon="2.26195">
        <ele>90.3</ele>
        <time>2015-02-02T20:46:09.465Z</time>
      </trkpt>
      <trkpt lat="48.85219" lon="2.26194">
        <ele>91.6</ele>
        <time>2015-02-02T20:46:10.489Z</time>
      </trkpt>
      <trkpt lat="48.85224" lon="2.26195">
        <ele>93</ele>
        <time>2015-02-02T20:46:11.498Z</time>
      </trkpt>
      <trkpt lat="48.85232" lon="2.26192">
        <ele>95.5</ele>
        <time>2015-02-02T20:46:12.447Z</time>
      </trkpt>
      <trkpt lat="48.85235" lon="2.26192">
        <ele>96.4</ele>
        <time>2015-02-02T20:46:13.473Z</time>
      </trkpt>
      <trkpt lat="48.85242" lon="2.26191">
        <ele>98.7</ele>
        <time>2015-02-02T20:46:15.509Z</time>
      </trkpt>
      <trkpt lat="48.85245" lon="2.26191">
        <ele>99.7</ele>
        <time>2015-02-02T20:46:16.568Z</time>
      </trkpt>
      <trkpt lat="48.85253" lon="2.26191">
        <ele>104.9</ele>
        <time>2015-02-02T20:46:24.521Z</time>
      </trkpt>
      <trkpt lat="48.85255" lon="2.26191">
        <ele>105.3</ele>
        <time>2015-02-02T20:46:25.544Z</time>
      </trkpt>
      <trkpt lat="48.85258" lon="2.26192">
        <ele>105.7</ele>
        <time>2015-02-02T20:46:28.644Z</time>
      </trkpt>
      <trkpt lat="48.85258" lon="2.26191">
        <ele>106</ele>
        <time>2015-02-02T20:46:29.587Z</time>
      </trkpt>
      <trkpt lat="48.8526" lon="2.26191">
        <ele>106.8</ele>
        <time>2015-02-02T20:46:33.667Z</time>
      </trkpt>
      <trkpt lat="48.85262" lon="2.26195">
        <ele>107.7</ele>
        <time>2015-02-02T20:46:34.609Z</time>
      </trkpt>
      <trkpt lat="48.85262" lon="2.26207">
        <ele>112.4</ele>
        <time>2015-02-02T20:46:40.715Z</time>
      </trkpt>
      <trkpt lat="48.85263" lon="2.2621">
        <ele>113.2</ele>
        <time>2015-02-02T20:46:40.759Z</time>
      </trkpt>
      <trkpt lat="48.85267" lon="2.26221">
        <ele>114.3</ele>
        <time>2015-02-02T20:46:43.749Z</time>
      </trkpt>
      <trkpt lat="48.85267" lon="2.26223">
        <ele>114.3</ele>
        <time>2015-02-02T20:46:44.580Z</time>
      </trkpt>
      <trkpt lat="48.85265" lon="2.26236">
        <ele>112.4</ele>
        <time>2015-02-02T20:46:48.471Z</time>
      </trkpt>
      <trkpt lat="48.85263" lon="2.26239">
        <ele>111.9</ele>
        <time>2015-02-02T20:46:49.477Z</time>
      </trkpt>
      <trkpt lat="48.85259" lon="2.26247">
        <ele>110</ele>
        <time>2015-02-02T20:46:51.550Z</time>
      </trkpt>
      <trkpt lat="48.85256" lon="2.2625">
        <ele>109.4</ele>
        <time>2015-02-02T20:46:52.565Z</time>
      </trkpt>
      <trkpt lat="48.85251" lon="2.26257">
        <ele>108.3</ele>
        <time>2015-02-02T20:46:54.468Z</time>
      </trkpt>
      <trkpt lat="48.85249" lon="2.26262">
        <ele>108</ele>
        <time>2015-02-02T20:46:55.503Z</time>
      </trkpt>
      <trkpt lat="48.85246" lon="2.26273">
        <ele>107.1</ele>
        <time>2015-02-02T20:46:58.384Z</time>
      </trkpt>
      <trkpt lat="48.85245" lon="2.26279">
        <ele>106.8</ele>
        <time>2015-02-02T20:46:58.539Z</time>
      </trkpt>
      <trkpt lat="48.85242" lon="2.26291">
        <ele>106.2</ele>
        <time>2015-02-02T20:47:00.435Z</time>
      </trkpt>
      <trkpt lat="48.85241" lon="2.26297">
        <ele>106.1</ele>
        <time>2015-02-02T20:47:01.501Z</time>
      </trkpt>
      <trkpt lat="48.85238" lon="2.26309">
        <ele>106.2</ele>
        <time>2015-02-02T20:47:03.528Z</time>
      </trkpt>
      <trkpt lat="48.85236" lon="2.26314">
        <ele>106.1</ele>
        <time>2015-02-02T20:47:04.566Z</time>
      </trkpt>
      <trkpt lat="48.85233" lon="2.2632">
        <ele>106.1</ele>
        <time>2015-02-02T20:47:05.451Z</time>
      </trkpt>
      <trkpt lat="48.8523" lon="2.26326">
        <ele>106.2</ele>
        <time>2015-02-02T20:47:06.464Z</time>
      </trkpt>
      <trkpt lat="48.85226" lon="2.26331">
        <ele>106.1</ele>
        <time>2015-02-02T20:47:08.452Z</time>
      </trkpt>
      <trkpt lat="48.85222" lon="2.26336">
        <ele>106.1</ele>
        <time>2015-02-02T20:47:08.486Z</time>
      </trkpt>
      <trkpt lat="48.85218" lon="2.2634">
        <ele>106.1</ele>
        <time>2015-02-02T20:47:09.497Z</time>
      </trkpt>
      <trkpt lat="48.8521" lon="2.26353">
        <ele>106.2</ele>
        <time>2015-02-02T20:47:12.540Z</time>
      </trkpt>
      <trkpt lat="48.85206" lon="2.26358">
        <ele>106.3</ele>
        <time>2015-02-02T20:47:13.450Z</time>
      </trkpt>
      <trkpt lat="48.85202" lon="2.26363">
        <ele>106.3</ele>
        <time>2015-02-02T20:47:14.453Z</time>
      </trkpt>
      <trkpt lat="48.85197" lon="2.26372">
        <ele>106.4</ele>
        <time>2015-02-02T20:47:16.480Z</time>
      </trkpt>
      <trkpt lat="48.85195" lon="2.26376">
        <ele>106.5</ele>
        <time>2015-02-02T20:47:17.502Z</time>
      </trkpt>
      <trkpt lat="48.85191" lon="2.26383">
        <ele>106.7</ele>
        <time>2015-02-02T20:47:19.523Z</time>
      </trkpt>
      <trkpt lat="48.8519" lon="2.26388">
        <ele>106.8</ele>
        <time>2015-02-02T20:47:20.434Z</time>
      </trkpt>
      <trkpt lat="48.85185" lon="2.26395">
        <ele>106.9</ele>
        <time>2015-02-02T20:47:22.468Z</time>
      </trkpt>
      <trkpt lat="48.85183" lon="2.26401">
        <ele>106.3</ele>
        <time>2015-02-02T20:47:23.578Z</time>
      </trkpt>
      <trkpt lat="48.85178" lon="2.2641">
        <ele>106.2</ele>
        <time>2015-02-02T20:47:25.481Z</time>
      </trkpt>
      <trkpt lat="48.85175" lon="2.26415">
        <ele>106.2</ele>
        <time>2015-02-02T20:47:26.572Z</time>
      </trkpt>
      <trkpt lat="48.85173" lon="2.2642">
        <ele>106.1</ele>
        <time>2015-02-02T20:47:27.453Z</time>
      </trkpt>
      <trkpt lat="48.8517" lon="2.26425">
        <ele>106.2</ele>
        <time>2015-02-02T20:47:28.484Z</time>
      </trkpt>
      <trkpt lat="48.85166" lon="2.26431">
        <ele>106.3</ele>
        <time>2015-02-02T20:47:29.581Z</time>
      </trkpt>
      <trkpt lat="48.85163" lon="2.26435">
        <ele>106.5</ele>
        <time>2015-02-02T20:47:30.590Z</time>
      </trkpt>
      <trkpt lat="48.85159" lon="2.2644">
        <ele>106.8</ele>
        <time>2015-02-02T20:47:31.444Z</time>
      </trkpt>
      <trkpt lat="48.85156" lon="2.26447">
        <ele>107.3</ele>
        <time>2015-02-02T20:47:32.449Z</time>
      </trkpt>
      <trkpt lat="48.85154" lon="2.26454">
        <ele>107.8</ele>
        <time>2015-02-02T20:47:33.452Z</time>
      </trkpt>
      <trkpt lat="48.85151" lon="2.26461">
        <ele>108.3</ele>
        <time>2015-02-02T20:47:34.491Z</time>
      </trkpt>
      <trkpt lat="48.85148" lon="2.26466">
        <ele>108.4</ele>
        <time>2015-02-02T20:47:35.490Z</time>
      </trkpt>
      <trkpt lat="48.85145" lon="2.26472">
        <ele>108.5</ele>
        <time>2015-02-02T20:47:36.499Z</time>
      </trkpt>
      <trkpt lat="48.85142" lon="2.26479">
        <ele>108.6</ele>
        <time>2015-02-02T20:47:37.525Z</time>
      </trkpt>
      <trkpt lat="48.85139" lon="2.26484">
        <ele>108.7</ele>
        <time>2015-02-02T20:47:38.426Z</time>
      </trkpt>
      <trkpt lat="48.85135" lon="2.26493">
        <ele>108.9</ele>
        <time>2015-02-02T20:47:40.429Z</time>
      </trkpt>
      <trkpt lat="48.85133" lon="2.26496">
        <ele>108.7</ele>
        <time>2015-02-02T20:47:41.444Z</time>
      </trkpt>
      <trkpt lat="48.85128" lon="2.26501">
        <ele>108.8</ele>
        <time>2015-02-02T20:47:43.470Z</time>
      </trkpt>
      <trkpt lat="48.85124" lon="2.26503">
        <ele>108.9</ele>
        <time>2015-02-02T20:47:44.510Z</time>
      </trkpt>
      <trkpt lat="48.8512" lon="2.26507">
        <ele>109</ele>
        <time>2015-02-02T20:47:45.473Z</time>
      </trkpt>
      <trkpt lat="48.85115" lon="2.26511">
        <ele>108.9</ele>
        <time>2015-02-02T20:47:46.462Z</time>
      </trkpt>
      <trkpt lat="48.85104" lon="2.2652">
        <ele>109.1</ele>
        <time>2015-02-02T20:47:48.552Z</time>
      </trkpt>
      <trkpt lat="48.85099" lon="2.26526">
        <ele>109.3</ele>
        <time>2015-02-02T20:47:49.427Z</time>
      </trkpt>
      <trkpt lat="48.85095" lon="2.26531">
        <ele>109.4</ele>
        <time>2015-02-02T20:47:50.435Z</time>
      </trkpt>
      <trkpt lat="48.85091" lon="2.26534">
        <ele>109.5</ele>
        <time>2015-02-02T20:47:51.441Z</time>
      </trkpt>
      <trkpt lat="48.85087" lon="2.26538">
        <ele>109.6</ele>
        <time>2015-02-02T20:47:52.457Z</time>
      </trkpt>
      <trkpt lat="48.85082" lon="2.26543">
        <ele>109.7</ele>
        <time>2015-02-02T20:47:53.470Z</time>
      </trkpt>
      <trkpt lat="48.85077" lon="2.26547">
        <ele>109.8</ele>
        <time>2015-02-02T20:47:54.485Z</time>
      </trkpt>
      <trkpt lat="48.85073" lon="2.26554">
        <ele>110</ele>
        <time>2015-02-02T20:47:55.519Z</time>
      </trkpt>
      <trkpt lat="48.85067" lon="2.26558">
        <ele>110.1</ele>
        <time>2015-02-02T20:47:56.522Z</time>
      </trkpt>
      <trkpt lat="48.85063" lon="2.26561">
        <ele>110.1</ele>
        <time>2015-02-02T20:47:57.431Z</time>
      </trkpt>
      <trkpt lat="48.85058" lon="2.26564">
        <ele>110.1</ele>
        <time>2015-02-02T20:47:58.453Z</time>
      </trkpt>
      <trkpt lat="48.85051" lon="2.2657">
        <ele>110.1</ele>
        <time>2015-02-02T20:48:00.477Z</time>
      </trkpt>
      <trkpt lat="48.85047" lon="2.26572">
        <ele>110.1</ele>
        <time>2015-02-02T20:48:01.482Z</time>
      </trkpt>
      <trkpt lat="48.85033" lon="2.26572">
        <ele>109.6</ele>
        <time>2015-02-02T20:48:03.530Z</time>
      </trkpt>
      <trkpt lat="48.85027" lon="2.2657">
        <ele>109.4</ele>
        <time>2015-02-02T20:48:04.476Z</time>
      </trkpt>
      <trkpt lat="48.85021" lon="2.2657">
        <ele>109.5</ele>
        <time>2015-02-02T20:48:05.469Z</time>
      </trkpt>
      <trkpt lat="48.85014" lon="2.26569">
        <ele>109.5</ele>
        <time>2015-02-02T20:48:06.479Z</time>
      </trkpt>
      <trkpt lat="48.85009" lon="2.2657">
        <ele>109.4</ele>
        <time>2015-02-02T20:48:07.532Z</time>
      </trkpt>
      <trkpt lat="48.85003" lon="2.26569">
        <ele>109.3</ele>
        <time>2015-02-02T20:48:08.433Z</time>
      </trkpt>
      <trkpt lat="48.84997" lon="2.26568">
        <ele>109.3</ele>
        <time>2015-02-02T20:48:09.430Z</time>
      </trkpt>
      <trkpt lat="48.84991" lon="2.26567">
        <ele>109.2</ele>
        <time>2015-02-02T20:48:10.457Z</time>
      </trkpt>
      <trkpt lat="48.84985" lon="2.26565">
        <ele>109.1</ele>
        <time>2015-02-02T20:48:11.481Z</time>
      </trkpt>
      <trkpt lat="48.8498" lon="2.26561">
        <ele>108.9</ele>
        <time>2015-02-02T20:48:12.481Z</time>
      </trkpt>
      <trkpt lat="48.8497" lon="2.26558">
        <ele>108.9</ele>
        <time>2015-02-02T20:48:14.408Z</time>
      </trkpt>
      <trkpt lat="48.84965" lon="2.26555">
        <ele>108.8</ele>
        <time>2015-02-02T20:48:15.454Z</time>
      </trkpt>
      <trkpt lat="48.84959" lon="2.26552">
        <ele>108.4</ele>
        <time>2015-02-02T20:48:16.457Z</time>
      </trkpt>
      <trkpt lat="48.84951" lon="2.26546">
        <ele>108.3</ele>
        <time>2015-02-02T20:48:18.531Z</time>
      </trkpt>
      <trkpt lat="48.84947" lon="2.26543">
        <ele>108.2</ele>
        <time>2015-02-02T20:48:19.441Z</time>
      </trkpt>
      <trkpt lat="48.84944" lon="2.26539">
        <ele>108.2</ele>
        <time>2015-02-02T20:48:20.474Z</time>
      </trkpt>
      <trkpt lat="48.8494" lon="2.26534">
        <ele>108.1</ele>
        <time>2015-02-02T20:48:21.475Z</time>
      </trkpt>
      <trkpt lat="48.84936" lon="2.26529">
        <ele>108.1</ele>
        <time>2015-02-02T20:48:22.487Z</time>
      </trkpt>
      <trkpt lat="48.84933" lon="2.26525">
        <ele>108</ele>
        <time>2015-02-02T20:48:23.574Z</time>
      </trkpt>
      <trkpt lat="48.84928" lon="2.26521">
        <ele>107.9</ele>
        <time>2015-02-02T20:48:24.441Z</time>
      </trkpt>
      <trkpt lat="48.84924" lon="2.26517">
        <ele>107.9</ele>
        <time>2015-02-02T20:48:25.457Z</time>
      </trkpt>
      <trkpt lat="48.84917" lon="2.26512">
        <ele>107.9</ele>
        <time>2015-02-02T20:48:27.399Z</time>
      </trkpt>
      <trkpt lat="48.84914" lon="2.2651">
        <ele>107.8</ele>
        <time>2015-02-02T20:48:28.451Z</time>
      </trkpt>
      <trkpt lat="48.84911" lon="2.26508">
        <ele>107.8</ele>
        <time>2015-02-02T20:48:29.453Z</time>
      </trkpt>
      <trkpt lat="48.84905" lon="2.26504">
        <ele>107.9</ele>
        <time>2015-02-02T20:48:31.464Z</time>
      </trkpt>
      <trkpt lat="48.84899" lon="2.26508">
        <ele>108.1</ele>
        <time>2015-02-02T20:48:33.504Z</time>
      </trkpt>
      <trkpt lat="48.84896" lon="2.26509">
        <ele>108.2</ele>
        <time>2015-02-02T20:48:34.530Z</time>
      </trkpt>
      <trkpt lat="48.84888" lon="2.26506">
        <ele>108</ele>
        <time>2015-02-02T20:48:38.459Z</time>
      </trkpt>
      <trkpt lat="48.84887" lon="2.26503">
        <ele>107.9</ele>
        <time>2015-02-02T20:48:39.488Z</time>
      </trkpt>
      <trkpt lat="48.84885" lon="2.26492">
        <ele>108</ele>
        <time>2015-02-02T20:48:43.460Z</time>
      </trkpt>
      <trkpt lat="48.84885" lon="2.26488">
        <ele>108</ele>
        <time>2015-02-02T20:48:44.489Z</time>
      </trkpt>
      <trkpt lat="48.8488" lon="2.26476">
        <ele>107.7</ele>
        <time>2015-02-02T20:48:49.621Z</time>
      </trkpt>
      <trkpt lat="48.84879" lon="2.26476">
        <ele>107.6</ele>
        <time>2015-02-02T20:48:50.446Z</time>
      </trkpt>
      <trkpt lat="48.84871" lon="2.26474">
        <ele>107.3</ele>
        <time>2015-02-02T20:48:55.475Z</time>
      </trkpt>
      <trkpt lat="48.84866" lon="2.26473">
        <ele>106.7</ele>
        <time>2015-02-02T20:48:56.486Z</time>
      </trkpt>
      <trkpt lat="48.84858" lon="2.26475">
        <ele>105.9</ele>
        <time>2015-02-02T20:48:58.546Z</time>
      </trkpt>
      <trkpt lat="48.84855" lon="2.26474">
        <ele>105.4</ele>
        <time>2015-02-02T20:48:59.533Z</time>
      </trkpt>
      <trkpt lat="48.84848" lon="2.26474">
        <ele>104.7</ele>
        <time>2015-02-02T20:49:01.550Z</time>
      </trkpt>
      <trkpt lat="48.84845" lon="2.26475">
        <ele>104.5</ele>
        <time>2015-02-02T20:49:02.452Z</time>
      </trkpt>
      <trkpt lat="48.84838" lon="2.26474">
        <ele>104</ele>
        <time>2015-02-02T20:49:06.533Z</time>
      </trkpt>
      <trkpt lat="48.84836" lon="2.26474">
        <ele>103.8</ele>
        <time>2015-02-02T20:49:07.458Z</time>
      </trkpt>
      <trkpt lat="48.84827" lon="2.26472">
        <ele>102.2</ele>
        <time>2015-02-02T20:49:11.534Z</time>
      </trkpt>
      <trkpt lat="48.84826" lon="2.26471">
        <ele>102.1</ele>
        <time>2015-02-02T20:49:12.423Z</time>
      </trkpt>
      <trkpt lat="48.84818" lon="2.26465">
        <ele>103.3</ele>
        <time>2015-02-02T20:49:17.526Z</time>
      </trkpt>
      <trkpt lat="48.84816" lon="2.26463">
        <ele>103.6</ele>
        <time>2015-02-02T20:49:18.460Z</time>
      </trkpt>
      <trkpt lat="48.84813" lon="2.26453">
        <ele>105.5</ele>
        <time>2015-02-02T20:49:22.519Z</time>
      </trkpt>
      <trkpt lat="48.84811" lon="2.26449">
        <ele>106</ele>
        <time>2015-02-02T20:49:23.488Z</time>
      </trkpt>
      <trkpt lat="48.84807" lon="2.2644">
        <ele>108.5</ele>
        <time>2015-02-02T20:49:26.538Z</time>
      </trkpt>
      <trkpt lat="48.84805" lon="2.26436">
        <ele>108.9</ele>
        <time>2015-02-02T20:49:27.511Z</time>
      </trkpt>
      <trkpt lat="48.84799" lon="2.26429">
        <ele>110.8</ele>
        <time>2015-02-02T20:49:31.533Z</time>
      </trkpt>
      <trkpt lat="48.84798" lon="2.26427">
        <ele>110.9</ele>
        <time>2015-02-02T20:49:32.462Z</time>
      </trkpt>
      <trkpt lat="48.84795" lon="2.26416">
        <ele>108.6</ele>
        <time>2015-02-02T20:49:42.449Z</time>
      </trkpt>
      <trkpt lat="48.84794" lon="2.26414">
        <ele>108.3</ele>
        <time>2015-02-02T20:49:43.460Z</time>
      </trkpt>
      <trkpt lat="48.84787" lon="2.2641">
        <ele>107.3</ele>
        <time>2015-02-02T20:49:47.536Z</time>
      </trkpt>
      <trkpt lat="48.84785" lon="2.26408">
        <ele>107.1</ele>
        <time>2015-02-02T20:49:48.467Z</time>
      </trkpt>
      <trkpt lat="48.84779" lon="2.26402">
        <ele>106.9</ele>
        <time>2015-02-02T20:49:51.461Z</time>
      </trkpt>
      <trkpt lat="48.84775" lon="2.264">
        <ele>106.4</ele>
        <time>2015-02-02T20:49:52.498Z</time>
      </trkpt>
      <trkpt lat="48.84769" lon="2.26398">
        <ele>105.6</ele>
        <time>2015-02-02T20:49:53.518Z</time>
      </trkpt>
      <trkpt lat="48.84763" lon="2.26396">
        <ele>104.9</ele>
        <time>2015-02-02T20:49:54.527Z</time>
      </trkpt>
      <trkpt lat="48.84758" lon="2.26395">
        <ele>104.3</ele>
        <time>2015-02-02T20:49:55.422Z</time>
      </trkpt>
      <trkpt lat="48.84752" lon="2.26393">
        <ele>103.4</ele>
        <time>2015-02-02T20:49:56.443Z</time>
      </trkpt>
      <trkpt lat="48.84748" lon="2.26392">
        <ele>103.2</ele>
        <time>2015-02-02T20:49:57.453Z</time>
      </trkpt>
      <trkpt lat="48.84743" lon="2.26392">
        <ele>102.7</ele>
        <time>2015-02-02T20:49:58.474Z</time>
      </trkpt>
      <trkpt lat="48.84737" lon="2.26391">
        <ele>102.1</ele>
        <time>2015-02-02T20:49:59.481Z</time>
      </trkpt>
      <trkpt lat="48.84732" lon="2.26388">
        <ele>101.7</ele>
        <time>2015-02-02T20:50:00.516Z</time>
      </trkpt>
      <trkpt lat="48.84726" lon="2.26386">
        <ele>101.3</ele>
        <time>2015-02-02T20:50:01.499Z</time>
      </trkpt>
      <trkpt lat="48.84722" lon="2.26383">
        <ele>100.8</ele>
        <time>2015-02-02T20:50:02.503Z</time>
      </trkpt>
      <trkpt lat="48.84717" lon="2.26379">
        <ele>100.4</ele>
        <time>2015-02-02T20:50:03.508Z</time>
      </trkpt>
      <trkpt lat="48.84712" lon="2.26375">
        <ele>100</ele>
        <time>2015-02-02T20:50:04.513Z</time>
      </trkpt>
      <trkpt lat="48.84707" lon="2.26372">
        <ele>99.5</ele>
        <time>2015-02-02T20:50:05.531Z</time>
      </trkpt>
      <trkpt lat="48.84702" lon="2.2637">
        <ele>99.1</ele>
        <time>2015-02-02T20:50:06.435Z</time>
      </trkpt>
      <trkpt lat="48.84698" lon="2.26367">
        <ele>98.8</ele>
        <time>2015-02-02T20:50:07.436Z</time>
      </trkpt>
      <trkpt lat="48.84694" lon="2.26364">
        <ele>98.7</ele>
        <time>2015-02-02T20:50:08.437Z</time>
      </trkpt>
      <trkpt lat="48.84689" lon="2.26361">
        <ele>98.5</ele>
        <time>2015-02-02T20:50:09.451Z</time>
      </trkpt>
      <trkpt lat="48.84684" lon="2.26356">
        <ele>98.2</ele>
        <time>2015-02-02T20:50:10.459Z</time>
      </trkpt>
      <trkpt lat="48.84679" lon="2.26353">
        <ele>97.9</ele>
        <time>2015-02-02T20:50:11.483Z</time>
      </trkpt>
      <trkpt lat="48.84675" lon="2.26349">
        <ele>97.6</ele>
        <time>2015-02-02T20:50:12.489Z</time>
      </trkpt>
      <trkpt lat="48.84671" lon="2.26343">
        <ele>97.3</ele>
        <time>2015-02-02T20:50:13.496Z</time>
      </trkpt>
      <trkpt lat="48.84664" lon="2.26337">
        <ele>96.9</ele>
        <time>2015-02-02T20:50:14.503Z</time>
      </trkpt>
      <trkpt lat="48.8466" lon="2.26334">
        <ele>96.8</ele>
        <time>2015-02-02T20:50:15.425Z</time>
      </trkpt>
      <trkpt lat="48.84654" lon="2.26333">
        <ele>96.7</ele>
        <time>2015-02-02T20:50:16.578Z</time>
      </trkpt>
      <trkpt lat="48.84646" lon="2.26329">
        <ele>96.5</ele>
        <time>2015-02-02T20:50:18.457Z</time>
      </trkpt>
      <trkpt lat="48.84642" lon="2.26327">
        <ele>96.3</ele>
        <time>2015-02-02T20:50:19.477Z</time>
      </trkpt>
      <trkpt lat="48.84633" lon="2.26322">
        <ele>96.1</ele>
        <time>2015-02-02T20:50:21.431Z</time>
      </trkpt>
      <trkpt lat="48.84626" lon="2.26323">
        <ele>96.4</ele>
        <time>2015-02-02T20:50:22.491Z</time>
      </trkpt>
      <trkpt lat="48.84621" lon="2.26322">
        <ele>96.4</ele>
        <time>2015-02-02T20:50:23.429Z</time>
      </trkpt>
      <trkpt lat="48.84616" lon="2.26315">
        <ele>96.3</ele>
        <time>2015-02-02T20:50:24.436Z</time>
      </trkpt>
      <trkpt lat="48.8461" lon="2.26306">
        <ele>96.2</ele>
        <time>2015-02-02T20:50:25.500Z</time>
      </trkpt>
      <trkpt lat="48.84603" lon="2.26292">
        <ele>95.9</ele>
        <time>2015-02-02T20:50:26.521Z</time>
      </trkpt>
      <trkpt lat="48.84597" lon="2.26283">
        <ele>95.7</ele>
        <time>2015-02-02T20:50:28.031Z</time>
      </trkpt>
      <trkpt lat="48.84591" lon="2.26273">
        <ele>95.7</ele>
        <time>2015-02-02T20:50:28.475Z</time>
      </trkpt>
      <trkpt lat="48.84585" lon="2.26265">
        <ele>95.7</ele>
        <time>2015-02-02T20:50:29.487Z</time>
      </trkpt>
      <trkpt lat="48.84581" lon="2.26258">
        <ele>95.9</ele>
        <time>2015-02-02T20:50:30.443Z</time>
      </trkpt>
      <trkpt lat="48.84576" lon="2.26253">
        <ele>96.1</ele>
        <time>2015-02-02T20:50:31.469Z</time>
      </trkpt>
      <trkpt lat="48.84571" lon="2.26246">
        <ele>96.5</ele>
        <time>2015-02-02T20:50:32.469Z</time>
      </trkpt>
      <trkpt lat="48.84566" lon="2.26242">
        <ele>96.9</ele>
        <time>2015-02-02T20:50:33.487Z</time>
      </trkpt>
      <trkpt lat="48.84562" lon="2.26239">
        <ele>97.1</ele>
        <time>2015-02-02T20:50:34.494Z</time>
      </trkpt>
      <trkpt lat="48.84557" lon="2.26235">
        <ele>98.3</ele>
        <time>2015-02-02T20:50:35.551Z</time>
      </trkpt>
      <trkpt lat="48.84552" lon="2.26231">
        <ele>98.7</ele>
        <time>2015-02-02T20:50:36.646Z</time>
      </trkpt>
      <trkpt lat="48.84545" lon="2.26223">
        <ele>99.8</ele>
        <time>2015-02-02T20:50:38.535Z</time>
      </trkpt>
      <trkpt lat="48.84542" lon="2.26219">
        <ele>99.9</ele>
        <time>2015-02-02T20:50:39.577Z</time>
      </trkpt>
      <trkpt lat="48.84536" lon="2.2621">
        <ele>100.3</ele>
        <time>2015-02-02T20:50:41.431Z</time>
      </trkpt>
      <trkpt lat="48.84533" lon="2.26207">
        <ele>100.3</ele>
        <time>2015-02-02T20:50:42.466Z</time>
      </trkpt>
      <trkpt lat="48.84529" lon="2.26203">
        <ele>100.4</ele>
        <time>2015-02-02T20:50:43.466Z</time>
      </trkpt>
      <trkpt lat="48.84525" lon="2.26198">
        <ele>101.4</ele>
        <time>2015-02-02T20:50:44.471Z</time>
      </trkpt>
      <trkpt lat="48.84519" lon="2.26188">
        <ele>103.6</ele>
        <time>2015-02-02T20:50:47.498Z</time>
      </trkpt>
      <trkpt lat="48.84518" lon="2.26186">
        <ele>104</ele>
        <time>2015-02-02T20:50:48.581Z</time>
      </trkpt>
      <trkpt lat="48.84509" lon="2.26183">
        <ele>103.3</ele>
        <time>2015-02-02T20:50:52.485Z</time>
      </trkpt>
      <trkpt lat="48.84507" lon="2.26182">
        <ele>103.1</ele>
        <time>2015-02-02T20:50:53.490Z</time>
      </trkpt>
      <trkpt lat="48.84499" lon="2.26178">
        <ele>102.8</ele>
        <time>2015-02-02T20:50:56.443Z</time>
      </trkpt>
      <trkpt lat="48.84496" lon="2.26177">
        <ele>102.8</ele>
        <time>2015-02-02T20:50:57.446Z</time>
      </trkpt>
      <trkpt lat="48.84488" lon="2.26174">
        <ele>103</ele>
        <time>2015-02-02T20:51:00.527Z</time>
      </trkpt>
      <trkpt lat="48.84485" lon="2.26171">
        <ele>102.9</ele>
        <time>2015-02-02T20:51:01.443Z</time>
      </trkpt>
      <trkpt lat="48.84478" lon="2.26168">
        <ele>102.6</ele>
        <time>2015-02-02T20:51:03.459Z</time>
      </trkpt>
      <trkpt lat="48.84475" lon="2.26166">
        <ele>102.5</ele>
        <time>2015-02-02T20:51:04.529Z</time>
      </trkpt>
      <trkpt lat="48.84466" lon="2.26162">
        <ele>102.2</ele>
        <time>2015-02-02T20:51:06.420Z</time>
      </trkpt>
      <trkpt lat="48.84462" lon="2.2616">
        <ele>102.1</ele>
        <time>2015-02-02T20:51:07.516Z</time>
      </trkpt>
      <trkpt lat="48.84457" lon="2.26158">
        <ele>102</ele>
        <time>2015-02-02T20:51:08.428Z</time>
      </trkpt>
      <trkpt lat="48.84452" lon="2.26155">
        <ele>101.7</ele>
        <time>2015-02-02T20:51:09.431Z</time>
      </trkpt>
      <trkpt lat="48.84448" lon="2.26153">
        <ele>101.6</ele>
        <time>2015-02-02T20:51:10.453Z</time>
      </trkpt>
      <trkpt lat="48.84443" lon="2.26151">
        <ele>101.5</ele>
        <time>2015-02-02T20:51:11.462Z</time>
      </trkpt>
      <trkpt lat="48.84438" lon="2.26148">
        <ele>101.2</ele>
        <time>2015-02-02T20:51:12.472Z</time>
      </trkpt>
      <trkpt lat="48.84432" lon="2.26145">
        <ele>100.9</ele>
        <time>2015-02-02T20:51:13.470Z</time>
      </trkpt>
      <trkpt lat="48.84427" lon="2.26141">
        <ele>100.6</ele>
        <time>2015-02-02T20:51:14.490Z</time>
      </trkpt>
      <trkpt lat="48.84422" lon="2.26133">
        <ele>100.1</ele>
        <time>2015-02-02T20:51:15.499Z</time>
      </trkpt>
      <trkpt lat="48.84417" lon="2.26125">
        <ele>99.8</ele>
        <time>2015-02-02T20:51:16.508Z</time>
      </trkpt>
      <trkpt lat="48.84413" lon="2.26116">
        <ele>99.9</ele>
        <time>2015-02-02T20:51:17.517Z</time>
      </trkpt>
      <trkpt lat="48.84408" lon="2.26107">
        <ele>100.6</ele>
        <time>2015-02-02T20:51:18.411Z</time>
      </trkpt>
      <trkpt lat="48.84405" lon="2.261">
        <ele>100.5</ele>
        <time>2015-02-02T20:51:19.429Z</time>
      </trkpt>
      <trkpt lat="48.84401" lon="2.26093">
        <ele>100.7</ele>
        <time>2015-02-02T20:51:20.273Z</time>
      </trkpt>
      <trkpt lat="48.84397" lon="2.26087">
        <ele>101</ele>
        <time>2015-02-02T20:51:21.457Z</time>
      </trkpt>
      <trkpt lat="48.84393" lon="2.26083">
        <ele>101.2</ele>
        <time>2015-02-02T20:51:22.472Z</time>
      </trkpt>
      <trkpt lat="48.84388" lon="2.26078">
        <ele>101.4</ele>
        <time>2015-02-02T20:51:23.475Z</time>
      </trkpt>
      <trkpt lat="48.84384" lon="2.26072">
        <ele>101.7</ele>
        <time>2015-02-02T20:51:24.485Z</time>
      </trkpt>
      <trkpt lat="48.8438" lon="2.26068">
        <ele>101.7</ele>
        <time>2015-02-02T20:51:25.493Z</time>
      </trkpt>
      <trkpt lat="48.84376" lon="2.26064">
        <ele>101.7</ele>
        <time>2015-02-02T20:51:26.497Z</time>
      </trkpt>
      <trkpt lat="48.84371" lon="2.2606">
        <ele>101.7</ele>
        <time>2015-02-02T20:51:27.500Z</time>
      </trkpt>
      <trkpt lat="48.84365" lon="2.26056">
        <ele>101.6</ele>
        <time>2015-02-02T20:51:28.523Z</time>
      </trkpt>
      <trkpt lat="48.8436" lon="2.26053">
        <ele>101.6</ele>
        <time>2015-02-02T20:51:29.434Z</time>
      </trkpt>
      <trkpt lat="48.84354" lon="2.26049">
        <ele>101.4</ele>
        <time>2015-02-02T20:51:30.434Z</time>
      </trkpt>
      <trkpt lat="48.84349" lon="2.26045">
        <ele>101.3</ele>
        <time>2015-02-02T20:51:31.440Z</time>
      </trkpt>
      <trkpt lat="48.84345" lon="2.26041">
        <ele>101.2</ele>
        <time>2015-02-02T20:51:32.458Z</time>
      </trkpt>
      <trkpt lat="48.8434" lon="2.26039">
        <ele>101.1</ele>
        <time>2015-02-02T20:51:33.465Z</time>
      </trkpt>
      <trkpt lat="48.84332" lon="2.26035">
        <ele>100.8</ele>
        <time>2015-02-02T20:51:35.534Z</time>
      </trkpt>
      <trkpt lat="48.84329" lon="2.26032">
        <ele>100.8</ele>
        <time>2015-02-02T20:51:36.436Z</time>
      </trkpt>
      <trkpt lat="48.84321" lon="2.26027">
        <ele>100.4</ele>
        <time>2015-02-02T20:51:39.423Z</time>
      </trkpt>
      <trkpt lat="48.84318" lon="2.26025">
        <ele>100.3</ele>
        <time>2015-02-02T20:51:40.526Z</time>
      </trkpt>
      <trkpt lat="48.84311" lon="2.2602">
        <ele>99.9</ele>
        <time>2015-02-02T20:51:43.429Z</time>
      </trkpt>
      <trkpt lat="48.84309" lon="2.26019">
        <ele>99.7</ele>
        <time>2015-02-02T20:51:44.468Z</time>
      </trkpt>
      <trkpt lat="48.84302" lon="2.26018">
        <ele>99.6</ele>
        <time>2015-02-02T20:51:49.474Z</time>
      </trkpt>
      <trkpt lat="48.84301" lon="2.26018">
        <ele>99.7</ele>
        <time>2015-02-02T20:51:50.488Z</time>
      </trkpt>
      <trkpt lat="48.84302" lon="2.26018">
        <ele>99.6</ele>
        <time>2015-02-02T20:52:11.591Z</time>
      </trkpt>
      <trkpt lat="48.84296" lon="2.26013">
        <ele>101.9</ele>
        <time>2015-02-02T20:52:12.449Z</time>
      </trkpt>
      <trkpt lat="48.84288" lon="2.26007">
        <ele>103.1</ele>
        <time>2015-02-02T20:52:17.506Z</time>
      </trkpt>
      <trkpt lat="48.84286" lon="2.26006">
        <ele>102.7</ele>
        <time>2015-02-02T20:52:18.551Z</time>
      </trkpt>
      <trkpt lat="48.84281" lon="2.25998">
        <ele>102.4</ele>
        <time>2015-02-02T20:52:21.484Z</time>
      </trkpt>
      <trkpt lat="48.8428" lon="2.25996">
        <ele>102.5</ele>
        <time>2015-02-02T20:52:22.496Z</time>
      </trkpt>
      <trkpt lat="48.84274" lon="2.25987">
        <ele>102.7</ele>
        <time>2015-02-02T20:52:25.445Z</time>
      </trkpt>
      <trkpt lat="48.84272" lon="2.25983">
        <ele>102.7</ele>
        <time>2015-02-02T20:52:26.492Z</time>
      </trkpt>
      <trkpt lat="48.84266" lon="2.25977">
        <ele>102.5</ele>
        <time>2015-02-02T20:52:28.484Z</time>
      </trkpt>
      <trkpt lat="48.84263" lon="2.25974">
        <ele>102.6</ele>
        <time>2015-02-02T20:52:29.449Z</time>
      </trkpt>
      <trkpt lat="48.84257" lon="2.25969">
        <ele>102.6</ele>
        <time>2015-02-02T20:52:31.594Z</time>
      </trkpt>
      <trkpt lat="48.84254" lon="2.25965">
        <ele>102.5</ele>
        <time>2015-02-02T20:52:32.445Z</time>
      </trkpt>
      <trkpt lat="48.84249" lon="2.25959">
        <ele>102.5</ele>
        <time>2015-02-02T20:52:34.525Z</time>
      </trkpt>
      <trkpt lat="48.84246" lon="2.25955">
        <ele>102.5</ele>
        <time>2015-02-02T20:52:35.624Z</time>
      </trkpt>
      <trkpt lat="48.8424" lon="2.2595">
        <ele>102.4</ele>
        <time>2015-02-02T20:52:37.620Z</time>
      </trkpt>
      <trkpt lat="48.84236" lon="2.25948">
        <ele>102.5</ele>
        <time>2015-02-02T20:52:38.551Z</time>
      </trkpt>
      <trkpt lat="48.84229" lon="2.25945">
        <ele>102.5</ele>
        <time>2015-02-02T20:52:40.588Z</time>
      </trkpt>
      <trkpt lat="48.84225" lon="2.25944">
        <ele>102.5</ele>
        <time>2015-02-02T20:52:41.625Z</time>
      </trkpt>
      <trkpt lat="48.84218" lon="2.25941">
        <ele>102.4</ele>
        <time>2015-02-02T20:52:43.435Z</time>
      </trkpt>
      <trkpt lat="48.84214" lon="2.2594">
        <ele>102.4</ele>
        <time>2015-02-02T20:52:44.519Z</time>
      </trkpt>
      <trkpt lat="48.84207" lon="2.25934">
        <ele>102.4</ele>
        <time>2015-02-02T20:52:46.480Z</time>
      </trkpt>
      <trkpt lat="48.84203" lon="2.25931">
        <ele>102.3</ele>
        <time>2015-02-02T20:52:47.503Z</time>
      </trkpt>
      <trkpt lat="48.84196" lon="2.25926">
        <ele>102.4</ele>
        <time>2015-02-02T20:52:49.426Z</time>
      </trkpt>
      <trkpt lat="48.84192" lon="2.25924">
        <ele>102.4</ele>
        <time>2015-02-02T20:52:50.439Z</time>
      </trkpt>
      <trkpt lat="48.84185" lon="2.25922">
        <ele>102.5</ele>
        <time>2015-02-02T20:52:52.512Z</time>
      </trkpt>
      <trkpt lat="48.84182" lon="2.2592">
        <ele>102.5</ele>
        <time>2015-02-02T20:52:53.574Z</time>
      </trkpt>
      <trkpt lat="48.84176" lon="2.25912">
        <ele>102.2</ele>
        <time>2015-02-02T20:52:55.421Z</time>
      </trkpt>
      <trkpt lat="48.84174" lon="2.25907">
        <ele>102.1</ele>
        <time>2015-02-02T20:52:56.535Z</time>
      </trkpt>
      <trkpt lat="48.84167" lon="2.25898">
        <ele>102.5</ele>
        <time>2015-02-02T20:52:58.521Z</time>
      </trkpt>
      <trkpt lat="48.84164" lon="2.25894">
        <ele>102.6</ele>
        <time>2015-02-02T20:52:59.435Z</time>
      </trkpt>
      <trkpt lat="48.84159" lon="2.25892">
        <ele>102.6</ele>
        <time>2015-02-02T20:53:00.453Z</time>
      </trkpt>
      <trkpt lat="48.84155" lon="2.25891">
        <ele>102.6</ele>
        <time>2015-02-02T20:53:01.463Z</time>
      </trkpt>
      <trkpt lat="48.84146" lon="2.2589">
        <ele>102.6</ele>
        <time>2015-02-02T20:53:03.492Z</time>
      </trkpt>
      <trkpt lat="48.84141" lon="2.25888">
        <ele>102.6</ele>
        <time>2015-02-02T20:53:04.506Z</time>
      </trkpt>
      <trkpt lat="48.84133" lon="2.25884">
        <ele>102.8</ele>
        <time>2015-02-02T20:53:06.548Z</time>
      </trkpt>
      <trkpt lat="48.84129" lon="2.25882">
        <ele>102.9</ele>
        <time>2015-02-02T20:53:07.562Z</time>
      </trkpt>
      <trkpt lat="48.84122" lon="2.25873">
        <ele>108.2</ele>
        <time>2015-02-02T20:53:08.576Z</time>
      </trkpt>
      <trkpt lat="48.84116" lon="2.25867">
        <ele>111.4</ele>
        <time>2015-02-02T20:53:09.617Z</time>
      </trkpt>
      <trkpt lat="48.84111" lon="2.25864">
        <ele>112.6</ele>
        <time>2015-02-02T20:53:10.444Z</time>
      </trkpt>
      <trkpt lat="48.84106" lon="2.2586">
        <ele>113.5</ele>
        <time>2015-02-02T20:53:11.447Z</time>
      </trkpt>
      <trkpt lat="48.84101" lon="2.25858">
        <ele>114</ele>
        <time>2015-02-02T20:53:12.454Z</time>
      </trkpt>
      <trkpt lat="48.84098" lon="2.25853">
        <ele>113.9</ele>
        <time>2015-02-02T20:53:13.475Z</time>
      </trkpt>
      <trkpt lat="48.84094" lon="2.25849">
        <ele>113.8</ele>
        <time>2015-02-02T20:53:14.478Z</time>
      </trkpt>
      <trkpt lat="48.84088" lon="2.25841">
        <ele>113.6</ele>
        <time>2015-02-02T20:53:16.655Z</time>
      </trkpt>
      <trkpt lat="48.84085" lon="2.25836">
        <ele>113.3</ele>
        <time>2015-02-02T20:53:17.508Z</time>
      </trkpt>
      <trkpt lat="48.8408" lon="2.25828">
        <ele>113.2</ele>
        <time>2015-02-02T20:53:19.526Z</time>
      </trkpt>
      <trkpt lat="48.84076" lon="2.25826">
        <ele>113.1</ele>
        <time>2015-02-02T20:53:20.422Z</time>
      </trkpt>
      <trkpt lat="48.84071" lon="2.25828">
        <ele>113.3</ele>
        <time>2015-02-02T20:53:21.453Z</time>
      </trkpt>
      <trkpt lat="48.84064" lon="2.25831">
        <ele>113.6</ele>
        <time>2015-02-02T20:53:22.479Z</time>
      </trkpt>
      <trkpt lat="48.84059" lon="2.25832">
        <ele>113.8</ele>
        <time>2015-02-02T20:53:23.532Z</time>
      </trkpt>
      <trkpt lat="48.84053" lon="2.25833">
        <ele>113.8</ele>
        <time>2015-02-02T20:53:24.445Z</time>
      </trkpt>
      <trkpt lat="48.84045" lon="2.25832">
        <ele>113.7</ele>
        <time>2015-02-02T20:53:26.526Z</time>
      </trkpt>
      <trkpt lat="48.8404" lon="2.25833">
        <ele>113.7</ele>
        <time>2015-02-02T20:53:27.446Z</time>
      </trkpt>
      <trkpt lat="48.84035" lon="2.25831">
        <ele>113.3</ele>
        <time>2015-02-02T20:53:28.547Z</time>
      </trkpt>
      <trkpt lat="48.8403" lon="2.25829">
        <ele>113.1</ele>
        <time>2015-02-02T20:53:29.417Z</time>
      </trkpt>
      <trkpt lat="48.84024" lon="2.25828">
        <ele>112.7</ele>
        <time>2015-02-02T20:53:30.475Z</time>
      </trkpt>
      <trkpt lat="48.84019" lon="2.25825">
        <ele>112.6</ele>
        <time>2015-02-02T20:53:31.562Z</time>
      </trkpt>
      <trkpt lat="48.84014" lon="2.25823">
        <ele>112.7</ele>
        <time>2015-02-02T20:53:33.231Z</time>
      </trkpt>
      <trkpt lat="48.84009" lon="2.25821">
        <ele>112.6</ele>
        <time>2015-02-02T20:53:33.476Z</time>
      </trkpt>
      <trkpt lat="48.84003" lon="2.25818">
        <ele>112.5</ele>
        <time>2015-02-02T20:53:34.548Z</time>
      </trkpt>
      <trkpt lat="48.83998" lon="2.25814">
        <ele>112.5</ele>
        <time>2015-02-02T20:53:35.603Z</time>
      </trkpt>
      <trkpt lat="48.83993" lon="2.25812">
        <ele>112.4</ele>
        <time>2015-02-02T20:53:36.631Z</time>
      </trkpt>
      <trkpt lat="48.83987" lon="2.2581">
        <ele>112.3</ele>
        <time>2015-02-02T20:53:37.533Z</time>
      </trkpt>
      <trkpt lat="48.83982" lon="2.25808">
        <ele>112.1</ele>
        <time>2015-02-02T20:53:38.548Z</time>
      </trkpt>
      <trkpt lat="48.83977" lon="2.25805">
        <ele>112</ele>
        <time>2015-02-02T20:53:39.569Z</time>
      </trkpt>
      <trkpt lat="48.83973" lon="2.258">
        <ele>111.5</ele>
        <time>2015-02-02T20:53:40.578Z</time>
      </trkpt>
      <trkpt lat="48.83968" lon="2.25794">
        <ele>111.2</ele>
        <time>2015-02-02T20:53:41.445Z</time>
      </trkpt>
      <trkpt lat="48.83964" lon="2.2579">
        <ele>111.2</ele>
        <time>2015-02-02T20:53:42.466Z</time>
      </trkpt>
      <trkpt lat="48.8396" lon="2.25786">
        <ele>111.2</ele>
        <time>2015-02-02T20:53:43.485Z</time>
      </trkpt>
      <trkpt lat="48.83955" lon="2.25783">
        <ele>111.2</ele>
        <time>2015-02-02T20:53:44.504Z</time>
      </trkpt>
      <trkpt lat="48.83951" lon="2.25781">
        <ele>111.3</ele>
        <time>2015-02-02T20:53:45.512Z</time>
      </trkpt>
      <trkpt lat="48.83945" lon="2.25777">
        <ele>111.2</ele>
        <time>2015-02-02T20:53:46.538Z</time>
      </trkpt>
      <trkpt lat="48.8394" lon="2.25774">
        <ele>111.1</ele>
        <time>2015-02-02T20:53:47.450Z</time>
      </trkpt>
      <trkpt lat="48.83935" lon="2.25771">
        <ele>111.1</ele>
        <time>2015-02-02T20:53:48.466Z</time>
      </trkpt>
      <trkpt lat="48.83931" lon="2.25768">
        <ele>111.1</ele>
        <time>2015-02-02T20:53:49.490Z</time>
      </trkpt>
      <trkpt lat="48.83926" lon="2.25766">
        <ele>111.1</ele>
        <time>2015-02-02T20:53:50.489Z</time>
      </trkpt>
      <trkpt lat="48.83922" lon="2.25763">
        <ele>111.1</ele>
        <time>2015-02-02T20:53:51.499Z</time>
      </trkpt>
      <trkpt lat="48.83917" lon="2.2576">
        <ele>111.1</ele>
        <time>2015-02-02T20:53:52.464Z</time>
      </trkpt>
      <trkpt lat="48.83913" lon="2.25758">
        <ele>111.1</ele>
        <time>2015-02-02T20:53:53.462Z</time>
      </trkpt>
      <trkpt lat="48.83905" lon="2.25754">
        <ele>111.1</ele>
        <time>2015-02-02T20:53:55.594Z</time>
      </trkpt>
      <trkpt lat="48.83901" lon="2.25752">
        <ele>111.1</ele>
        <time>2015-02-02T20:53:56.446Z</time>
      </trkpt>
      <trkpt lat="48.83894" lon="2.25748">
        <ele>111.2</ele>
        <time>2015-02-02T20:53:58.465Z</time>
      </trkpt>
      <trkpt lat="48.8389" lon="2.25748">
        <ele>111.5</ele>
        <time>2015-02-02T20:53:59.492Z</time>
      </trkpt>
      <trkpt lat="48.83884" lon="2.25746">
        <ele>111.6</ele>
        <time>2015-02-02T20:54:01.455Z</time>
      </trkpt>
      <trkpt lat="48.83881" lon="2.25746">
        <ele>111.7</ele>
        <time>2015-02-02T20:54:02.480Z</time>
      </trkpt>
      <trkpt lat="48.83874" lon="2.25747">
        <ele>111.8</ele>
        <time>2015-02-02T20:54:04.506Z</time>
      </trkpt>
      <trkpt lat="48.83864" lon="2.25744">
        <ele>111.9</ele>
        <time>2015-02-02T20:54:07.440Z</time>
      </trkpt>
      <trkpt lat="48.83857" lon="2.25744">
        <ele>112</ele>
        <time>2015-02-02T20:54:09.471Z</time>
      </trkpt>
      <trkpt lat="48.83854" lon="2.25744">
        <ele>112</ele>
        <time>2015-02-02T20:54:10.492Z</time>
      </trkpt>
      <trkpt lat="48.83846" lon="2.25743">
        <ele>112</ele>
        <time>2015-02-02T20:54:13.463Z</time>
      </trkpt>
      <trkpt lat="48.83842" lon="2.25743">
        <ele>111.9</ele>
        <time>2015-02-02T20:54:14.441Z</time>
      </trkpt>
      <trkpt lat="48.83834" lon="2.25744">
        <ele>111.9</ele>
        <time>2015-02-02T20:54:17.475Z</time>
      </trkpt>
      <trkpt lat="48.83832" lon="2.25742">
        <ele>112</ele>
        <time>2015-02-02T20:54:18.490Z</time>
      </trkpt>
      <trkpt lat="48.83827" lon="2.25737">
        <ele>113.3</ele>
        <time>2015-02-02T20:54:22.469Z</time>
      </trkpt>
      <trkpt lat="48.83828" lon="2.25736">
        <ele>113.4</ele>
        <time>2015-02-02T20:54:23.493Z</time>
      </trkpt>
      <trkpt lat="48.83828" lon="2.25735">
        <ele>113.5</ele>
        <time>2015-02-02T20:54:24.508Z</time>
      </trkpt>
      <trkpt lat="48.83829" lon="2.25734">
        <ele>113.5</ele>
        <time>2015-02-02T20:54:25.516Z</time>
      </trkpt>
      <trkpt lat="48.8383" lon="2.25734">
        <ele>113.3</ele>
        <time>2015-02-02T20:54:26.537Z</time>
      </trkpt>
      <trkpt lat="48.8383" lon="2.25734">
        <ele>113</ele>
        <time>2015-02-02T20:54:27.455Z</time>
      </trkpt>
      <trkpt lat="48.8383" lon="2.25733">
        <ele>112.6</ele>
        <time>2015-02-02T20:54:29.451Z</time>
      </trkpt>
      <trkpt lat="48.83829" lon="2.25732">
        <ele>112.3</ele>
        <time>2015-02-02T20:54:30.471Z</time>
      </trkpt>
      <trkpt lat="48.83826" lon="2.25723">
        <ele>112.9</ele>
        <time>2015-02-02T20:54:33.464Z</time>
      </trkpt>
      <trkpt lat="48.83825" lon="2.25719">
        <ele>113.3</ele>
        <time>2015-02-02T20:54:34.518Z</time>
      </trkpt>
      <trkpt lat="48.83825" lon="2.2571">
        <ele>114.2</ele>
        <time>2015-02-02T20:54:36.459Z</time>
      </trkpt>
      <trkpt lat="48.83824" lon="2.25704">
        <ele>114.5</ele>
        <time>2015-02-02T20:54:37.467Z</time>
      </trkpt>
      <trkpt lat="48.83823" lon="2.25693">
        <ele>115.4</ele>
        <time>2015-02-02T20:54:39.449Z</time>
      </trkpt>
      <trkpt lat="48.83822" lon="2.25688">
        <ele>115.7</ele>
        <time>2015-02-02T20:54:40.606Z</time>
      </trkpt>
      <trkpt lat="48.83819" lon="2.25677">
        <ele>115.8</ele>
        <time>2015-02-02T20:54:42.456Z</time>
      </trkpt>
      <trkpt lat="48.83817" lon="2.25671">
        <ele>116.1</ele>
        <time>2015-02-02T20:54:43.502Z</time>
      </trkpt>
      <trkpt lat="48.83814" lon="2.25666">
        <ele>116.5</ele>
        <time>2015-02-02T20:54:44.516Z</time>
      </trkpt>
      <trkpt lat="48.83811" lon="2.25661">
        <ele>116.8</ele>
        <time>2015-02-02T20:54:45.527Z</time>
      </trkpt>
      <trkpt lat="48.83806" lon="2.25657">
        <ele>117</ele>
        <time>2015-02-02T20:54:46.725Z</time>
      </trkpt>
      <trkpt lat="48.83801" lon="2.25653">
        <ele>116.9</ele>
        <time>2015-02-02T20:54:47.499Z</time>
      </trkpt>
      <trkpt lat="48.83796" lon="2.25651">
        <ele>117</ele>
        <time>2015-02-02T20:54:48.510Z</time>
      </trkpt>
      <trkpt lat="48.83792" lon="2.2565">
        <ele>116.5</ele>
        <time>2015-02-02T20:54:49.531Z</time>
      </trkpt>
      <trkpt lat="48.83787" lon="2.25654">
        <ele>114</ele>
        <time>2015-02-02T20:54:50.467Z</time>
      </trkpt>
      <trkpt lat="48.83783" lon="2.25659">
        <ele>110.8</ele>
        <time>2015-02-02T20:54:51.491Z</time>
      </trkpt>
      <trkpt lat="48.83778" lon="2.25663">
        <ele>109.1</ele>
        <time>2015-02-02T20:54:53.177Z</time>
      </trkpt>
      <trkpt lat="48.83772" lon="2.25667">
        <ele>107.8</ele>
        <time>2015-02-02T20:54:53.451Z</time>
      </trkpt>
      <trkpt lat="48.83767" lon="2.25672">
        <ele>106.4</ele>
        <time>2015-02-02T20:54:54.449Z</time>
      </trkpt>
      <trkpt lat="48.83761" lon="2.25678">
        <ele>105.7</ele>
        <time>2015-02-02T20:54:55.475Z</time>
      </trkpt>
      <trkpt lat="48.83759" lon="2.25686">
        <ele>103.2</ele>
        <time>2015-02-02T20:54:56.486Z</time>
      </trkpt>
      <trkpt lat="48.83757" lon="2.25696">
        <ele>100.8</ele>
        <time>2015-02-02T20:54:57.523Z</time>
      </trkpt>
      <trkpt lat="48.83755" lon="2.25705">
        <ele>100</ele>
        <time>2015-02-02T20:54:58.517Z</time>
      </trkpt>
      <trkpt lat="48.83754" lon="2.25711">
        <ele>97.9</ele>
        <time>2015-02-02T20:54:59.529Z</time>
      </trkpt>
      <trkpt lat="48.83754" lon="2.25724">
        <ele>94.5</ele>
        <time>2015-02-02T20:55:01.470Z</time>
      </trkpt>
      <trkpt lat="48.83754" lon="2.25732">
        <ele>93.9</ele>
        <time>2015-02-02T20:55:02.478Z</time>
      </trkpt>
      <trkpt lat="48.83755" lon="2.25745">
        <ele>91.1</ele>
        <time>2015-02-02T20:55:04.553Z</time>
      </trkpt>
      <trkpt lat="48.83755" lon="2.25752">
        <ele>90.3</ele>
        <time>2015-02-02T20:55:05.593Z</time>
      </trkpt>
      <trkpt lat="48.83755" lon="2.25759">
        <ele>89.8</ele>
        <time>2015-02-02T20:55:06.644Z</time>
      </trkpt>
      <trkpt lat="48.83754" lon="2.25766">
        <ele>89.5</ele>
        <time>2015-02-02T20:55:07.547Z</time>
      </trkpt>
      <trkpt lat="48.83752" lon="2.25777">
        <ele>89.4</ele>
        <time>2015-02-02T20:55:09.606Z</time>
      </trkpt>
      <trkpt lat="48.83751" lon="2.25783">
        <ele>89.2</ele>
        <time>2015-02-02T20:55:10.672Z</time>
      </trkpt>
      <trkpt lat="48.83745" lon="2.2579">
        <ele>89.1</ele>
        <time>2015-02-02T20:55:12.572Z</time>
      </trkpt>
      <trkpt lat="48.83742" lon="2.25793">
        <ele>89.1</ele>
        <time>2015-02-02T20:55:13.569Z</time>
      </trkpt>
      <trkpt lat="48.83739" lon="2.25803">
        <ele>88.5</ele>
        <time>2015-02-02T20:55:15.603Z</time>
      </trkpt>
      <trkpt lat="48.83739" lon="2.25809">
        <ele>88.7</ele>
        <time>2015-02-02T20:55:16.487Z</time>
      </trkpt>
      <trkpt lat="48.8374" lon="2.25817">
        <ele>88.3</ele>
        <time>2015-02-02T20:55:17.503Z</time>
      </trkpt>
      <trkpt lat="48.8374" lon="2.25825">
        <ele>87.9</ele>
        <time>2015-02-02T20:55:18.514Z</time>
      </trkpt>
      <trkpt lat="48.83738" lon="2.25834">
        <ele>87.4</ele>
        <time>2015-02-02T20:55:19.451Z</time>
      </trkpt>
      <trkpt lat="48.83737" lon="2.25841">
        <ele>86.9</ele>
        <time>2015-02-02T20:55:20.460Z</time>
      </trkpt>
      <trkpt lat="48.83736" lon="2.25848">
        <ele>86.8</ele>
        <time>2015-02-02T20:55:21.458Z</time>
      </trkpt>
      <trkpt lat="48.83734" lon="2.25857">
        <ele>86.7</ele>
        <time>2015-02-02T20:55:22.564Z</time>
      </trkpt>
      <trkpt lat="48.83734" lon="2.25864">
        <ele>86.4</ele>
        <time>2015-02-02T20:55:23.529Z</time>
      </trkpt>
      <trkpt lat="48.83732" lon="2.25871">
        <ele>86.1</ele>
        <time>2015-02-02T20:55:24.443Z</time>
      </trkpt>
      <trkpt lat="48.83731" lon="2.25879">
        <ele>86.2</ele>
        <time>2015-02-02T20:55:25.451Z</time>
      </trkpt>
      <trkpt lat="48.83729" lon="2.25886">
        <ele>85.8</ele>
        <time>2015-02-02T20:55:26.453Z</time>
      </trkpt>
      <trkpt lat="48.83727" lon="2.25894">
        <ele>85.6</ele>
        <time>2015-02-02T20:55:27.511Z</time>
      </trkpt>
      <trkpt lat="48.83725" lon="2.25902">
        <ele>85.2</ele>
        <time>2015-02-02T20:55:28.521Z</time>
      </trkpt>
      <trkpt lat="48.83724" lon="2.2591">
        <ele>84.8</ele>
        <time>2015-02-02T20:55:29.550Z</time>
      </trkpt>
      <trkpt lat="48.83722" lon="2.25919">
        <ele>84.6</ele>
        <time>2015-02-02T20:55:30.523Z</time>
      </trkpt>
      <trkpt lat="48.83721" lon="2.25928">
        <ele>84.4</ele>
        <time>2015-02-02T20:55:31.468Z</time>
      </trkpt>
      <trkpt lat="48.83722" lon="2.25939">
        <ele>83.9</ele>
        <time>2015-02-02T20:55:32.482Z</time>
      </trkpt>
      <trkpt lat="48.83721" lon="2.25949">
        <ele>83.5</ele>
        <time>2015-02-02T20:55:33.507Z</time>
      </trkpt>
      <trkpt lat="48.8372" lon="2.25959">
        <ele>83.3</ele>
        <time>2015-02-02T20:55:34.559Z</time>
      </trkpt>
      <trkpt lat="48.83719" lon="2.25969">
        <ele>83.2</ele>
        <time>2015-02-02T20:55:35.622Z</time>
      </trkpt>
      <trkpt lat="48.83718" lon="2.25978">
        <ele>83.3</ele>
        <time>2015-02-02T20:55:36.629Z</time>
      </trkpt>
      <trkpt lat="48.83718" lon="2.25988">
        <ele>83.5</ele>
        <time>2015-02-02T20:55:37.554Z</time>
      </trkpt>
      <trkpt lat="48.83717" lon="2.25997">
        <ele>83.8</ele>
        <time>2015-02-02T20:55:38.521Z</time>
      </trkpt>
      <trkpt lat="48.83717" lon="2.26005">
        <ele>84.1</ele>
        <time>2015-02-02T20:55:39.588Z</time>
      </trkpt>
      <trkpt lat="48.83716" lon="2.26013">
        <ele>84.3</ele>
        <time>2015-02-02T20:55:40.603Z</time>
      </trkpt>
      <trkpt lat="48.83715" lon="2.26021">
        <ele>84.5</ele>
        <time>2015-02-02T20:55:41.635Z</time>
      </trkpt>
      <trkpt lat="48.83714" lon="2.2603">
        <ele>84.7</ele>
        <time>2015-02-02T20:55:42.540Z</time>
      </trkpt>
      <trkpt lat="48.83714" lon="2.26038">
        <ele>84.8</ele>
        <time>2015-02-02T20:55:43.557Z</time>
      </trkpt>
      <trkpt lat="48.83712" lon="2.26045">
        <ele>85.2</ele>
        <time>2015-02-02T20:55:44.560Z</time>
      </trkpt>
      <trkpt lat="48.83711" lon="2.26052">
        <ele>85.5</ele>
        <time>2015-02-02T20:55:45.595Z</time>
      </trkpt>
      <trkpt lat="48.8371" lon="2.26059">
        <ele>85.8</ele>
        <time>2015-02-02T20:55:46.417Z</time>
      </trkpt>
      <trkpt lat="48.83709" lon="2.26066">
        <ele>86</ele>
        <time>2015-02-02T20:55:47.448Z</time>
      </trkpt>
      <trkpt lat="48.83708" lon="2.26073">
        <ele>86</ele>
        <time>2015-02-02T20:55:48.443Z</time>
      </trkpt>
      <trkpt lat="48.83706" lon="2.26086">
        <ele>85.9</ele>
        <time>2015-02-02T20:55:50.523Z</time>
      </trkpt>
      <trkpt lat="48.83704" lon="2.26092">
        <ele>85.8</ele>
        <time>2015-02-02T20:55:51.551Z</time>
      </trkpt>
      <trkpt lat="48.83703" lon="2.26099">
        <ele>85.9</ele>
        <time>2015-02-02T20:55:52.479Z</time>
      </trkpt>
      <trkpt lat="48.83701" lon="2.26105">
        <ele>85.9</ele>
        <time>2015-02-02T20:55:53.491Z</time>
      </trkpt>
      <trkpt lat="48.83699" lon="2.26112">
        <ele>85.7</ele>
        <time>2015-02-02T20:55:54.498Z</time>
      </trkpt>
      <trkpt lat="48.83699" lon="2.2612">
        <ele>86</ele>
        <time>2015-02-02T20:55:55.498Z</time>
      </trkpt>
      <trkpt lat="48.83698" lon="2.26129">
        <ele>86.4</ele>
        <time>2015-02-02T20:55:56.557Z</time>
      </trkpt>
      <trkpt lat="48.83697" lon="2.26136">
        <ele>86.4</ele>
        <time>2015-02-02T20:55:57.450Z</time>
      </trkpt>
      <trkpt lat="48.83696" lon="2.26149">
        <ele>86.1</ele>
        <time>2015-02-02T20:55:59.505Z</time>
      </trkpt>
      <trkpt lat="48.83696" lon="2.26154">
        <ele>85.7</ele>
        <time>2015-02-02T20:56:00.537Z</time>
      </trkpt>
      <trkpt lat="48.83698" lon="2.26163">
        <ele>85.4</ele>
        <time>2015-02-02T20:56:02.454Z</time>
      </trkpt>
      <trkpt lat="48.83699" lon="2.26167">
        <ele>85.3</ele>
        <time>2015-02-02T20:56:03.434Z</time>
      </trkpt>
      <trkpt lat="48.83705" lon="2.26177">
        <ele>85.6</ele>
        <time>2015-02-02T20:56:05.481Z</time>
      </trkpt>
      <trkpt lat="48.83707" lon="2.2618">
        <ele>85.7</ele>
        <time>2015-02-02T20:56:06.547Z</time>
      </trkpt>
      <trkpt lat="48.83713" lon="2.26187">
        <ele>85.8</ele>
        <time>2015-02-02T20:56:08.467Z</time>
      </trkpt>
      <trkpt lat="48.83715" lon="2.26191">
        <ele>85.7</ele>
        <time>2015-02-02T20:56:09.477Z</time>
      </trkpt>
      <trkpt lat="48.8372" lon="2.26199">
        <ele>85.4</ele>
        <time>2015-02-02T20:56:11.511Z</time>
      </trkpt>
      <trkpt lat="48.83722" lon="2.26204">
        <ele>85.5</ele>
        <time>2015-02-02T20:56:12.625Z</time>
      </trkpt>
      <trkpt lat="48.83727" lon="2.26212">
        <ele>85.7</ele>
        <time>2015-02-02T20:56:14.449Z</time>
      </trkpt>
      <trkpt lat="48.83729" lon="2.26216">
        <ele>85.8</ele>
        <time>2015-02-02T20:56:15.470Z</time>
      </trkpt>
      <trkpt lat="48.83732" lon="2.26221">
        <ele>85.8</ele>
        <time>2015-02-02T20:56:16.491Z</time>
      </trkpt>
      <trkpt lat="48.83737" lon="2.26228">
        <ele>84.9</ele>
        <time>2015-02-02T20:56:17.572Z</time>
      </trkpt>
      <trkpt lat="48.83743" lon="2.26232">
        <ele>84.7</ele>
        <time>2015-02-02T20:56:18.428Z</time>
      </trkpt>
      <trkpt lat="48.83747" lon="2.26238">
        <ele>84.4</ele>
        <time>2015-02-02T20:56:19.431Z</time>
      </trkpt>
      <trkpt lat="48.83751" lon="2.26244">
        <ele>84.2</ele>
        <time>2015-02-02T20:56:20.436Z</time>
      </trkpt>
      <trkpt lat="48.83755" lon="2.26249">
        <ele>84.2</ele>
        <time>2015-02-02T20:56:21.445Z</time>
      </trkpt>
      <trkpt lat="48.8376" lon="2.26253">
        <ele>84.1</ele>
        <time>2015-02-02T20:56:22.492Z</time>
      </trkpt>
      <trkpt lat="48.83766" lon="2.26258">
        <ele>83.9</ele>
        <time>2015-02-02T20:56:23.509Z</time>
      </trkpt>
      <trkpt lat="48.8377" lon="2.26264">
        <ele>83.9</ele>
        <time>2015-02-02T20:56:24.448Z</time>
      </trkpt>
      <trkpt lat="48.83774" lon="2.26269">
        <ele>83.9</ele>
        <time>2015-02-02T20:56:25.478Z</time>
      </trkpt>
      <trkpt lat="48.83779" lon="2.26273">
        <ele>83.9</ele>
        <time>2015-02-02T20:56:26.500Z</time>
      </trkpt>
      <trkpt lat="48.83782" lon="2.26278">
        <ele>84.3</ele>
        <time>2015-02-02T20:56:27.516Z</time>
      </trkpt>
      <trkpt lat="48.83786" lon="2.26283">
        <ele>84.6</ele>
        <time>2015-02-02T20:56:28.561Z</time>
      </trkpt>
      <trkpt lat="48.8379" lon="2.26288">
        <ele>84.7</ele>
        <time>2015-02-02T20:56:29.435Z</time>
      </trkpt>
      <trkpt lat="48.83794" lon="2.26293">
        <ele>84.9</ele>
        <time>2015-02-02T20:56:30.452Z</time>
      </trkpt>
      <trkpt lat="48.83799" lon="2.26301">
        <ele>84.6</ele>
        <time>2015-02-02T20:56:31.481Z</time>
      </trkpt>
      <trkpt lat="48.83804" lon="2.26307">
        <ele>84.2</ele>
        <time>2015-02-02T20:56:32.496Z</time>
      </trkpt>
      <trkpt lat="48.83808" lon="2.26313">
        <ele>83.9</ele>
        <time>2015-02-02T20:56:33.509Z</time>
      </trkpt>
      <trkpt lat="48.83812" lon="2.26319">
        <ele>83.6</ele>
        <time>2015-02-02T20:56:34.524Z</time>
      </trkpt>
      <trkpt lat="48.83819" lon="2.26325">
        <ele>83.1</ele>
        <time>2015-02-02T20:56:35.536Z</time>
      </trkpt>
      <trkpt lat="48.83823" lon="2.26331">
        <ele>83</ele>
        <time>2015-02-02T20:56:36.580Z</time>
      </trkpt>
      <trkpt lat="48.83828" lon="2.26337">
        <ele>83.1</ele>
        <time>2015-02-02T20:56:37.590Z</time>
      </trkpt>
      <trkpt lat="48.83834" lon="2.26343">
        <ele>83.1</ele>
        <time>2015-02-02T20:56:38.612Z</time>
      </trkpt>
      <trkpt lat="48.83839" lon="2.26349">
        <ele>83</ele>
        <time>2015-02-02T20:56:39.629Z</time>
      </trkpt>
      <trkpt lat="48.83844" lon="2.26354">
        <ele>82.7</ele>
        <time>2015-02-02T20:56:40.507Z</time>
      </trkpt>
      <trkpt lat="48.8385" lon="2.26359">
        <ele>82.5</ele>
        <time>2015-02-02T20:56:41.522Z</time>
      </trkpt>
      <trkpt lat="48.83856" lon="2.26365">
        <ele>82.2</ele>
        <time>2015-02-02T20:56:42.542Z</time>
      </trkpt>
      <trkpt lat="48.8386" lon="2.2637">
        <ele>82.1</ele>
        <time>2015-02-02T20:56:43.558Z</time>
      </trkpt>
      <trkpt lat="48.83865" lon="2.26376">
        <ele>81.9</ele>
        <time>2015-02-02T20:56:44.594Z</time>
      </trkpt>
      <trkpt lat="48.83869" lon="2.26382">
        <ele>81.8</ele>
        <time>2015-02-02T20:56:45.634Z</time>
      </trkpt>
      <trkpt lat="48.83872" lon="2.26388">
        <ele>82</ele>
        <time>2015-02-02T20:56:46.535Z</time>
      </trkpt>
      <trkpt lat="48.83876" lon="2.26393">
        <ele>82.2</ele>
        <time>2015-02-02T20:56:47.538Z</time>
      </trkpt>
      <trkpt lat="48.8388" lon="2.264">
        <ele>83</ele>
        <time>2015-02-02T20:56:48.554Z</time>
      </trkpt>
      <trkpt lat="48.83882" lon="2.26408">
        <ele>83.5</ele>
        <time>2015-02-02T20:56:49.567Z</time>
      </trkpt>
      <trkpt lat="48.83884" lon="2.26415">
        <ele>83.9</ele>
        <time>2015-02-02T20:56:50.579Z</time>
      </trkpt>
      <trkpt lat="48.83888" lon="2.26422">
        <ele>83.6</ele>
        <time>2015-02-02T20:56:51.587Z</time>
      </trkpt>
      <trkpt lat="48.83892" lon="2.2643">
        <ele>83.5</ele>
        <time>2015-02-02T20:56:52.606Z</time>
      </trkpt>
      <trkpt lat="48.83895" lon="2.26434">
        <ele>83.7</ele>
        <time>2015-02-02T20:56:53.506Z</time>
      </trkpt>
      <trkpt lat="48.83901" lon="2.26441">
        <ele>83.9</ele>
        <time>2015-02-02T20:56:55.538Z</time>
      </trkpt>
      <trkpt lat="48.83904" lon="2.26445">
        <ele>84.1</ele>
        <time>2015-02-02T20:56:56.549Z</time>
      </trkpt>
      <trkpt lat="48.83908" lon="2.2645">
        <ele>84.7</ele>
        <time>2015-02-02T20:56:57.583Z</time>
      </trkpt>
      <trkpt lat="48.83912" lon="2.26454">
        <ele>84.8</ele>
        <time>2015-02-02T20:56:58.586Z</time>
      </trkpt>
      <trkpt lat="48.83915" lon="2.2646">
        <ele>85.1</ele>
        <time>2015-02-02T20:57:03.620Z</time>
      </trkpt>
      <trkpt lat="48.83914" lon="2.2646">
        <ele>85</ele>
        <time>2015-02-02T20:57:04.594Z</time>
      </trkpt>
      <trkpt lat="48.83913" lon="2.2646">
        <ele>85</ele>
        <time>2015-02-02T20:57:13.646Z</time>
      </trkpt>
      <trkpt lat="48.83913" lon="2.2646">
        <ele>85.4</ele>
        <time>2015-02-02T20:57:14.529Z</time>
      </trkpt>
      <trkpt lat="48.83921" lon="2.26455">
        <ele>85.5</ele>
        <time>2015-02-02T20:57:22.625Z</time>
      </trkpt>
      <trkpt lat="48.83924" lon="2.26453">
        <ele>85.3</ele>
        <time>2015-02-02T20:57:23.637Z</time>
      </trkpt>
      <trkpt lat="48.83929" lon="2.26446">
        <ele>85.1</ele>
        <time>2015-02-02T20:57:25.549Z</time>
      </trkpt>
      <trkpt lat="48.83931" lon="2.26442">
        <ele>85</ele>
        <time>2015-02-02T20:57:26.563Z</time>
      </trkpt>
      <trkpt lat="48.83936" lon="2.26435">
        <ele>84.5</ele>
        <time>2015-02-02T20:57:28.630Z</time>
      </trkpt>
      <trkpt lat="48.83938" lon="2.26431">
        <ele>84.5</ele>
        <time>2015-02-02T20:57:29.640Z</time>
      </trkpt>
      <trkpt lat="48.83942" lon="2.26424">
        <ele>84.3</ele>
        <time>2015-02-02T20:57:31.543Z</time>
      </trkpt>
      <trkpt lat="48.83943" lon="2.26419">
        <ele>84.3</ele>
        <time>2015-02-02T20:57:32.553Z</time>
      </trkpt>
      <trkpt lat="48.83945" lon="2.2641">
        <ele>83.8</ele>
        <time>2015-02-02T20:57:34.578Z</time>
      </trkpt>
      <trkpt lat="48.83946" lon="2.26404">
        <ele>83.6</ele>
        <time>2015-02-02T20:57:35.588Z</time>
      </trkpt>
      <trkpt lat="48.83949" lon="2.26394">
        <ele>83.6</ele>
        <time>2015-02-02T20:57:37.513Z</time>
      </trkpt>
      <trkpt lat="48.83951" lon="2.26388">
        <ele>83.6</ele>
        <time>2015-02-02T20:57:38.554Z</time>
      </trkpt>
      <trkpt lat="48.83955" lon="2.26377">
        <ele>83.5</ele>
        <time>2015-02-02T20:57:40.585Z</time>
      </trkpt>
      <trkpt lat="48.83956" lon="2.26371">
        <ele>83.3</ele>
        <time>2015-02-02T20:57:41.515Z</time>
      </trkpt>
      <trkpt lat="48.83957" lon="2.26361">
        <ele>83.4</ele>
        <time>2015-02-02T20:57:43.584Z</time>
      </trkpt>
      <trkpt lat="48.83958" lon="2.26356">
        <ele>83.4</ele>
        <time>2015-02-02T20:57:44.610Z</time>
      </trkpt>
      <trkpt lat="48.83958" lon="2.26344">
        <ele>83.5</ele>
        <time>2015-02-02T20:57:47.553Z</time>
      </trkpt>
      <trkpt lat="48.83959" lon="2.2634">
        <ele>83.7</ele>
        <time>2015-02-02T20:57:48.566Z</time>
      </trkpt>
      <trkpt lat="48.83962" lon="2.26329">
        <ele>85</ele>
        <time>2015-02-02T20:57:51.623Z</time>
      </trkpt>
      <trkpt lat="48.83963" lon="2.26325">
        <ele>85.3</ele>
        <time>2015-02-02T20:57:52.638Z</time>
      </trkpt>
      <trkpt lat="48.83969" lon="2.26315">
        <ele>87.2</ele>
        <time>2015-02-02T20:57:56.597Z</time>
      </trkpt>
      <trkpt lat="48.8397" lon="2.26313">
        <ele>87.8</ele>
        <time>2015-02-02T20:57:57.649Z</time>
      </trkpt>
      <trkpt lat="48.83972" lon="2.26305">
        <ele>89.5</ele>
        <time>2015-02-02T20:58:00.593Z</time>
      </trkpt>
      <trkpt lat="48.83975" lon="2.26301">
        <ele>90.1</ele>
        <time>2015-02-02T20:58:01.608Z</time>
      </trkpt>
      <trkpt lat="48.8398" lon="2.26295">
        <ele>92</ele>
        <time>2015-02-02T20:58:06.576Z</time>
      </trkpt>
      <trkpt lat="48.83983" lon="2.26297">
        <ele>92.6</ele>
        <time>2015-02-02T20:58:07.611Z</time>
      </trkpt>
      <trkpt lat="48.83989" lon="2.263">
        <ele>92.9</ele>
        <time>2015-02-02T20:58:09.576Z</time>
      </trkpt>
      <trkpt lat="48.83992" lon="2.26301">
        <ele>93</ele>
        <time>2015-02-02T20:58:10.515Z</time>
      </trkpt>
      <trkpt lat="48.83999" lon="2.26308">
        <ele>93.2</ele>
        <time>2015-02-02T20:58:13.624Z</time>
      </trkpt>
      <trkpt lat="48.84001" lon="2.26311">
        <ele>93.3</ele>
        <time>2015-02-02T20:58:14.644Z</time>
      </trkpt>
      <trkpt lat="48.84009" lon="2.26317">
        <ele>93.6</ele>
        <time>2015-02-02T20:58:18.608Z</time>
      </trkpt>
      <trkpt lat="48.84011" lon="2.26318">
        <ele>93.7</ele>
        <time>2015-02-02T20:58:19.616Z</time>
      </trkpt>
      <trkpt lat="48.8402" lon="2.26319">
        <ele>94.1</ele>
        <time>2015-02-02T20:58:22.618Z</time>
      </trkpt>
      <trkpt lat="48.84023" lon="2.2632">
        <ele>94.3</ele>
        <time>2015-02-02T20:58:23.534Z</time>
      </trkpt>
      <trkpt lat="48.8403" lon="2.26324">
        <ele>94.5</ele>
        <time>2015-02-02T20:58:25.556Z</time>
      </trkpt>
      <trkpt lat="48.84033" lon="2.26325">
        <ele>94.6</ele>
        <time>2015-02-02T20:58:26.559Z</time>
      </trkpt>
      <trkpt lat="48.84039" lon="2.26329">
        <ele>94.7</ele>
        <time>2015-02-02T20:58:28.544Z</time>
      </trkpt>
      <trkpt lat="48.84041" lon="2.26331">
        <ele>94.8</ele>
        <time>2015-02-02T20:58:29.553Z</time>
      </trkpt>
      <trkpt lat="48.84047" lon="2.26335">
        <ele>94.9</ele>
        <time>2015-02-02T20:58:31.596Z</time>
      </trkpt>
      <trkpt lat="48.84049" lon="2.26338">
        <ele>95</ele>
        <time>2015-02-02T20:58:32.627Z</time>
      </trkpt>
      <trkpt lat="48.84056" lon="2.26341">
        <ele>95.2</ele>
        <time>2015-02-02T20:58:34.550Z</time>
      </trkpt>
      <trkpt lat="48.8406" lon="2.26343">
        <ele>95.2</ele>
        <time>2015-02-02T20:58:35.583Z</time>
      </trkpt>
      <trkpt lat="48.84064" lon="2.26344">
        <ele>95.1</ele>
        <time>2015-02-02T20:58:36.676Z</time>
      </trkpt>
      <trkpt lat="48.84069" lon="2.26345">
        <ele>95.2</ele>
        <time>2015-02-02T20:58:37.606Z</time>
      </trkpt>
      <trkpt lat="48.84074" lon="2.26347">
        <ele>95.2</ele>
        <time>2015-02-02T20:58:38.537Z</time>
      </trkpt>
      <trkpt lat="48.84078" lon="2.2635">
        <ele>94.8</ele>
        <time>2015-02-02T20:58:39.573Z</time>
      </trkpt>
      <trkpt lat="48.84085" lon="2.26356">
        <ele>93.8</ele>
        <time>2015-02-02T20:58:42.609Z</time>
      </trkpt>
      <trkpt lat="48.84088" lon="2.26356">
        <ele>94.1</ele>
        <time>2015-02-02T20:58:43.625Z</time>
      </trkpt>
      <trkpt lat="48.84095" lon="2.26358">
        <ele>94.5</ele>
        <time>2015-02-02T20:58:45.573Z</time>
      </trkpt>
      <trkpt lat="48.84098" lon="2.26359">
        <ele>94.4</ele>
        <time>2015-02-02T20:58:46.590Z</time>
      </trkpt>
      <trkpt lat="48.84106" lon="2.26363">
        <ele>94.7</ele>
        <time>2015-02-02T20:58:48.625Z</time>
      </trkpt>
      <trkpt lat="48.8411" lon="2.26363">
        <ele>95</ele>
        <time>2015-02-02T20:58:49.636Z</time>
      </trkpt>
      <trkpt lat="48.84115" lon="2.26362">
        <ele>93.2</ele>
        <time>2015-02-02T20:58:50.536Z</time>
      </trkpt>
      <trkpt lat="48.84121" lon="2.26363">
        <ele>92.2</ele>
        <time>2015-02-02T20:58:51.580Z</time>
      </trkpt>
      <trkpt lat="48.84128" lon="2.26365">
        <ele>92</ele>
        <time>2015-02-02T20:58:52.555Z</time>
      </trkpt>
      <trkpt lat="48.84135" lon="2.26366">
        <ele>91.4</ele>
        <time>2015-02-02T20:58:53.620Z</time>
      </trkpt>
      <trkpt lat="48.84141" lon="2.26368">
        <ele>91.3</ele>
        <time>2015-02-02T20:58:54.617Z</time>
      </trkpt>
      <trkpt lat="48.84145" lon="2.2637">
        <ele>90.9</ele>
        <time>2015-02-02T20:58:55.625Z</time>
      </trkpt>
      <trkpt lat="48.84152" lon="2.26374">
        <ele>90.4</ele>
        <time>2015-02-02T20:58:57.589Z</time>
      </trkpt>
      <trkpt lat="48.84154" lon="2.26376">
        <ele>90.6</ele>
        <time>2015-02-02T20:58:58.615Z</time>
      </trkpt>
      <trkpt lat="48.8416" lon="2.26383">
        <ele>91.3</ele>
        <time>2015-02-02T20:59:01.553Z</time>
      </trkpt>
      <trkpt lat="48.84162" lon="2.26385">
        <ele>91.4</ele>
        <time>2015-02-02T20:59:02.613Z</time>
      </trkpt>
      <trkpt lat="48.84169" lon="2.26391">
        <ele>92.3</ele>
        <time>2015-02-02T20:59:05.632Z</time>
      </trkpt>
      <trkpt lat="48.84171" lon="2.26394">
        <ele>92.5</ele>
        <time>2015-02-02T20:59:06.620Z</time>
      </trkpt>
      <trkpt lat="48.84179" lon="2.26401">
        <ele>93.4</ele>
        <time>2015-02-02T20:59:09.554Z</time>
      </trkpt>
      <trkpt lat="48.8418" lon="2.26403">
        <ele>93.7</ele>
        <time>2015-02-02T20:59:10.567Z</time>
      </trkpt>
      <trkpt lat="48.84186" lon="2.26411">
        <ele>94.1</ele>
        <time>2015-02-02T20:59:13.545Z</time>
      </trkpt>
      <trkpt lat="48.84188" lon="2.26413">
        <ele>94.4</ele>
        <time>2015-02-02T20:59:14.576Z</time>
      </trkpt>
      <trkpt lat="48.84194" lon="2.26417">
        <ele>94.7</ele>
        <time>2015-02-02T20:59:16.625Z</time>
      </trkpt>
      <trkpt lat="48.84197" lon="2.26419">
        <ele>94.8</ele>
        <time>2015-02-02T20:59:17.635Z</time>
      </trkpt>
      <trkpt lat="48.84204" lon="2.26424">
        <ele>95.2</ele>
        <time>2015-02-02T20:59:20.616Z</time>
      </trkpt>
      <trkpt lat="48.84207" lon="2.26425">
        <ele>95.4</ele>
        <time>2015-02-02T20:59:21.630Z</time>
      </trkpt>
      <trkpt lat="48.84213" lon="2.26429">
        <ele>95.7</ele>
        <time>2015-02-02T20:59:24.549Z</time>
      </trkpt>
      <trkpt lat="48.84216" lon="2.26431">
        <ele>95.8</ele>
        <time>2015-02-02T20:59:25.561Z</time>
      </trkpt>
      <trkpt lat="48.8422" lon="2.26434">
        <ele>95.9</ele>
        <time>2015-02-02T20:59:27.601Z</time>
      </trkpt>
      <trkpt lat="48.84224" lon="2.26437">
        <ele>96.1</ele>
        <time>2015-02-02T20:59:28.628Z</time>
      </trkpt>
      <trkpt lat="48.84232" lon="2.26443">
        <ele>96.6</ele>
        <time>2015-02-02T20:59:30.530Z</time>
      </trkpt>
      <trkpt lat="48.84235" lon="2.26444">
        <ele>96.7</ele>
        <time>2015-02-02T20:59:31.553Z</time>
      </trkpt>
      <trkpt lat="48.84242" lon="2.26448">
        <ele>96.9</ele>
        <time>2015-02-02T20:59:33.606Z</time>
      </trkpt>
      <trkpt lat="48.84245" lon="2.26449">
        <ele>97</ele>
        <time>2015-02-02T20:59:34.617Z</time>
      </trkpt>
      <trkpt lat="48.84253" lon="2.26454">
        <ele>97</ele>
        <time>2015-02-02T20:59:37.575Z</time>
      </trkpt>
      <trkpt lat="48.84255" lon="2.26455">
        <ele>97.1</ele>
        <time>2015-02-02T20:59:38.611Z</time>
      </trkpt>
      <trkpt lat="48.84262" lon="2.26456">
        <ele>97.2</ele>
        <time>2015-02-02T20:59:42.590Z</time>
      </trkpt>
      <trkpt lat="48.84264" lon="2.26457">
        <ele>97.2</ele>
        <time>2015-02-02T20:59:43.592Z</time>
      </trkpt>
      <trkpt lat="48.84271" lon="2.26463">
        <ele>97.3</ele>
        <time>2015-02-02T20:59:46.584Z</time>
      </trkpt>
      <trkpt lat="48.84274" lon="2.26467">
        <ele>96.8</ele>
        <time>2015-02-02T20:59:47.610Z</time>
      </trkpt>
      <trkpt lat="48.8428" lon="2.26472">
        <ele>95.4</ele>
        <time>2015-02-02T20:59:49.565Z</time>
      </trkpt>
      <trkpt lat="48.84282" lon="2.26475">
        <ele>95</ele>
        <time>2015-02-02T20:59:50.513Z</time>
      </trkpt>
      <trkpt lat="48.84287" lon="2.26484">
        <ele>95.3</ele>
        <time>2015-02-02T20:59:53.612Z</time>
      </trkpt>
      <trkpt lat="48.84289" lon="2.26489">
        <ele>95.5</ele>
        <time>2015-02-02T20:59:54.619Z</time>
      </trkpt>
      <trkpt lat="48.84296" lon="2.26497">
        <ele>96.1</ele>
        <time>2015-02-02T20:59:58.378Z</time>
      </trkpt>
      <trkpt lat="48.843" lon="2.26498">
        <ele>96.3</ele>
        <time>2015-02-02T20:59:58.527Z</time>
      </trkpt>
      <trkpt lat="48.84305" lon="2.26501">
        <ele>96.3</ele>
        <time>2015-02-02T20:59:59.547Z</time>
      </trkpt>
      <trkpt lat="48.8431" lon="2.26504">
        <ele>96.3</ele>
        <time>2015-02-02T21:00:00.549Z</time>
      </trkpt>
      <trkpt lat="48.84316" lon="2.26507">
        <ele>96.2</ele>
        <time>2015-02-02T21:00:01.564Z</time>
      </trkpt>
      <trkpt lat="48.84322" lon="2.26509">
        <ele>96.2</ele>
        <time>2015-02-02T21:00:02.575Z</time>
      </trkpt>
      <trkpt lat="48.84329" lon="2.26513">
        <ele>96.1</ele>
        <time>2015-02-02T21:00:03.603Z</time>
      </trkpt>
      <trkpt lat="48.84335" lon="2.26517">
        <ele>95.9</ele>
        <time>2015-02-02T21:00:04.620Z</time>
      </trkpt>
      <trkpt lat="48.8434" lon="2.2652">
        <ele>96.1</ele>
        <time>2015-02-02T21:00:05.510Z</time>
      </trkpt>
      <trkpt lat="48.84345" lon="2.26524">
        <ele>96</ele>
        <time>2015-02-02T21:00:06.536Z</time>
      </trkpt>
      <trkpt lat="48.84349" lon="2.26527">
        <ele>96</ele>
        <time>2015-02-02T21:00:08.471Z</time>
      </trkpt>
      <trkpt lat="48.84354" lon="2.2653">
        <ele>96.1</ele>
        <time>2015-02-02T21:00:08.547Z</time>
      </trkpt>
      <trkpt lat="48.84358" lon="2.26535">
        <ele>96.2</ele>
        <time>2015-02-02T21:00:09.573Z</time>
      </trkpt>
      <trkpt lat="48.84362" lon="2.26539">
        <ele>96.2</ele>
        <time>2015-02-02T21:00:10.572Z</time>
      </trkpt>
      <trkpt lat="48.84366" lon="2.26544">
        <ele>96.3</ele>
        <time>2015-02-02T21:00:11.573Z</time>
      </trkpt>
      <trkpt lat="48.84369" lon="2.26549">
        <ele>96.4</ele>
        <time>2015-02-02T21:00:12.586Z</time>
      </trkpt>
      <trkpt lat="48.84373" lon="2.26553">
        <ele>96.5</ele>
        <time>2015-02-02T21:00:13.602Z</time>
      </trkpt>
      <trkpt lat="48.84379" lon="2.26558">
        <ele>96.2</ele>
        <time>2015-02-02T21:00:14.608Z</time>
      </trkpt>
      <trkpt lat="48.84389" lon="2.26565">
        <ele>93.9</ele>
        <time>2015-02-02T21:00:15.618Z</time>
      </trkpt>
      <trkpt lat="48.84398" lon="2.26573">
        <ele>91.6</ele>
        <time>2015-02-02T21:00:16.533Z</time>
      </trkpt>
      <trkpt lat="48.84406" lon="2.2658">
        <ele>90.2</ele>
        <time>2015-02-02T21:00:17.553Z</time>
      </trkpt>
      <trkpt lat="48.84413" lon="2.26586">
        <ele>89.1</ele>
        <time>2015-02-02T21:00:18.568Z</time>
      </trkpt>
      <trkpt lat="48.84422" lon="2.26593">
        <ele>89.4</ele>
        <time>2015-02-02T21:00:19.579Z</time>
      </trkpt>
      <trkpt lat="48.84428" lon="2.26598">
        <ele>89</ele>
        <time>2015-02-02T21:00:20.603Z</time>
      </trkpt>
      <trkpt lat="48.84436" lon="2.26604">
        <ele>89.3</ele>
        <time>2015-02-02T21:00:21.609Z</time>
      </trkpt>
      <trkpt lat="48.84444" lon="2.2661">
        <ele>89.3</ele>
        <time>2015-02-02T21:00:22.538Z</time>
      </trkpt>
      <trkpt lat="48.8445" lon="2.26615">
        <ele>89.1</ele>
        <time>2015-02-02T21:00:23.514Z</time>
      </trkpt>
      <trkpt lat="48.84456" lon="2.26619">
        <ele>88.9</ele>
        <time>2015-02-02T21:00:24.536Z</time>
      </trkpt>
      <trkpt lat="48.84464" lon="2.26624">
        <ele>88.8</ele>
        <time>2015-02-02T21:00:25.548Z</time>
      </trkpt>
      <trkpt lat="48.84467" lon="2.26631">
        <ele>88.9</ele>
        <time>2015-02-02T21:00:26.572Z</time>
      </trkpt>
      <trkpt lat="48.8447" lon="2.26637">
        <ele>88.7</ele>
        <time>2015-02-02T21:00:27.580Z</time>
      </trkpt>
      <trkpt lat="48.84473" lon="2.26643">
        <ele>88.6</ele>
        <time>2015-02-02T21:00:28.577Z</time>
      </trkpt>
      <trkpt lat="48.84479" lon="2.26653">
        <ele>88.4</ele>
        <time>2015-02-02T21:00:30.513Z</time>
      </trkpt>
      <trkpt lat="48.84483" lon="2.26658">
        <ele>88.4</ele>
        <time>2015-02-02T21:00:31.547Z</time>
      </trkpt>
      <trkpt lat="48.84486" lon="2.26663">
        <ele>88.3</ele>
        <time>2015-02-02T21:00:32.584Z</time>
      </trkpt>
      <trkpt lat="48.84489" lon="2.26668">
        <ele>88.2</ele>
        <time>2015-02-02T21:00:33.594Z</time>
      </trkpt>
      <trkpt lat="48.84493" lon="2.26673">
        <ele>87.9</ele>
        <time>2015-02-02T21:00:34.543Z</time>
      </trkpt>
      <trkpt lat="48.84496" lon="2.26677">
        <ele>87.7</ele>
        <time>2015-02-02T21:00:35.669Z</time>
      </trkpt>
      <trkpt lat="48.84501" lon="2.26685">
        <ele>87.1</ele>
        <time>2015-02-02T21:00:37.624Z</time>
      </trkpt>
      <trkpt lat="48.84504" lon="2.26688">
        <ele>86.5</ele>
        <time>2015-02-02T21:00:38.635Z</time>
      </trkpt>
      <trkpt lat="48.84507" lon="2.26696">
        <ele>86.6</ele>
        <time>2015-02-02T21:00:40.558Z</time>
      </trkpt>
      <trkpt lat="48.84508" lon="2.267">
        <ele>86.5</ele>
        <time>2015-02-02T21:00:41.580Z</time>
      </trkpt>
      <trkpt lat="48.8451" lon="2.26708">
        <ele>86.2</ele>
        <time>2015-02-02T21:00:43.600Z</time>
      </trkpt>
      <trkpt lat="48.84512" lon="2.26713">
        <ele>86.1</ele>
        <time>2015-02-02T21:00:44.619Z</time>
      </trkpt>
      <trkpt lat="48.84515" lon="2.26723">
        <ele>85.7</ele>
        <time>2015-02-02T21:00:46.530Z</time>
      </trkpt>
      <trkpt lat="48.84519" lon="2.26727">
        <ele>85.9</ele>
        <time>2015-02-02T21:00:47.549Z</time>
      </trkpt>
      <trkpt lat="48.84523" lon="2.26737">
        <ele>85.9</ele>
        <time>2015-02-02T21:00:50.555Z</time>
      </trkpt>
      <trkpt lat="48.84524" lon="2.2674">
        <ele>86</ele>
        <time>2015-02-02T21:00:51.609Z</time>
      </trkpt>
      <trkpt lat="48.8453" lon="2.26746">
        <ele>86.2</ele>
        <time>2015-02-02T21:00:54.564Z</time>
      </trkpt>
      <trkpt lat="48.84532" lon="2.26748">
        <ele>86.4</ele>
        <time>2015-02-02T21:00:55.578Z</time>
      </trkpt>
      <trkpt lat="48.84539" lon="2.2675">
        <ele>87.2</ele>
        <time>2015-02-02T21:00:58.535Z</time>
      </trkpt>
      <trkpt lat="48.84541" lon="2.26753">
        <ele>87.4</ele>
        <time>2015-02-02T21:00:59.559Z</time>
      </trkpt>
      <trkpt lat="48.84546" lon="2.2676">
        <ele>86.8</ele>
        <time>2015-02-02T21:01:01.566Z</time>
      </trkpt>
      <trkpt lat="48.84547" lon="2.26763">
        <ele>87.1</ele>
        <time>2015-02-02T21:01:02.571Z</time>
      </trkpt>
      <trkpt lat="48.84553" lon="2.26772">
        <ele>88.3</ele>
        <time>2015-02-02T21:01:05.703Z</time>
      </trkpt>
      <trkpt lat="48.84553" lon="2.26775">
        <ele>88.5</ele>
        <time>2015-02-02T21:01:06.660Z</time>
      </trkpt>
      <trkpt lat="48.84558" lon="2.26784">
        <ele>88.8</ele>
        <time>2015-02-02T21:01:09.674Z</time>
      </trkpt>
      <trkpt lat="48.8456" lon="2.26789">
        <ele>89.1</ele>
        <time>2015-02-02T21:01:10.533Z</time>
      </trkpt>
      <trkpt lat="48.84562" lon="2.26801">
        <ele>87.9</ele>
        <time>2015-02-02T21:01:12.564Z</time>
      </trkpt>
      <trkpt lat="48.84565" lon="2.26807">
        <ele>87.4</ele>
        <time>2015-02-02T21:01:13.620Z</time>
      </trkpt>
      <trkpt lat="48.84568" lon="2.26815">
        <ele>87.2</ele>
        <time>2015-02-02T21:01:15.576Z</time>
      </trkpt>
      <trkpt lat="48.8457" lon="2.26819">
        <ele>87.5</ele>
        <time>2015-02-02T21:01:16.573Z</time>
      </trkpt>
      <trkpt lat="48.84574" lon="2.26825">
        <ele>87.8</ele>
        <time>2015-02-02T21:01:18.541Z</time>
      </trkpt>
      <trkpt lat="48.84577" lon="2.26829">
        <ele>88</ele>
        <time>2015-02-02T21:01:19.560Z</time>
      </trkpt>
      <trkpt lat="48.8458" lon="2.26838">
        <ele>88.4</ele>
        <time>2015-02-02T21:01:21.695Z</time>
      </trkpt>
      <trkpt lat="48.84583" lon="2.26844">
        <ele>88.8</ele>
        <time>2015-02-02T21:01:22.544Z</time>
      </trkpt>
      <trkpt lat="48.84587" lon="2.26854">
        <ele>89.4</ele>
        <time>2015-02-02T21:01:24.564Z</time>
      </trkpt>
      <trkpt lat="48.84589" lon="2.2686">
        <ele>89.5</ele>
        <time>2015-02-02T21:01:25.610Z</time>
      </trkpt>
      <trkpt lat="48.84592" lon="2.26872">
        <ele>89.8</ele>
        <time>2015-02-02T21:01:27.569Z</time>
      </trkpt>
      <trkpt lat="48.84597" lon="2.2688">
        <ele>88.2</ele>
        <time>2015-02-02T21:01:28.572Z</time>
      </trkpt>
      <trkpt lat="48.84601" lon="2.26888">
        <ele>87.1</ele>
        <time>2015-02-02T21:01:29.589Z</time>
      </trkpt>
      <trkpt lat="48.84603" lon="2.26894">
        <ele>87.2</ele>
        <time>2015-02-02T21:01:30.599Z</time>
      </trkpt>
      <trkpt lat="48.84602" lon="2.26903">
        <ele>86.4</ele>
        <time>2015-02-02T21:01:31.603Z</time>
      </trkpt>
      <trkpt lat="48.84603" lon="2.2691">
        <ele>86.2</ele>
        <time>2015-02-02T21:01:32.552Z</time>
      </trkpt>
      <trkpt lat="48.84605" lon="2.26917">
        <ele>86.1</ele>
        <time>2015-02-02T21:01:33.639Z</time>
      </trkpt>
      <trkpt lat="48.84607" lon="2.26925">
        <ele>86</ele>
        <time>2015-02-02T21:01:34.536Z</time>
      </trkpt>
      <trkpt lat="48.84608" lon="2.26932">
        <ele>85.6</ele>
        <time>2015-02-02T21:01:35.561Z</time>
      </trkpt>
      <trkpt lat="48.84612" lon="2.2694">
        <ele>84.6</ele>
        <time>2015-02-02T21:01:36.597Z</time>
      </trkpt>
      <trkpt lat="48.84615" lon="2.26948">
        <ele>83.8</ele>
        <time>2015-02-02T21:01:37.551Z</time>
      </trkpt>
      <trkpt lat="48.84619" lon="2.26954">
        <ele>83.2</ele>
        <time>2015-02-02T21:01:38.568Z</time>
      </trkpt>
      <trkpt lat="48.84623" lon="2.26966">
        <ele>83.3</ele>
        <time>2015-02-02T21:01:40.567Z</time>
      </trkpt>
      <trkpt lat="48.84624" lon="2.26971">
        <ele>83.6</ele>
        <time>2015-02-02T21:01:41.573Z</time>
      </trkpt>
      <trkpt lat="48.84626" lon="2.26983">
        <ele>83.6</ele>
        <time>2015-02-02T21:01:43.593Z</time>
      </trkpt>
      <trkpt lat="48.84628" lon="2.26988">
        <ele>83.5</ele>
        <time>2015-02-02T21:01:44.595Z</time>
      </trkpt>
      <trkpt lat="48.84633" lon="2.26999">
        <ele>85.1</ele>
        <time>2015-02-02T21:01:47.544Z</time>
      </trkpt>
      <trkpt lat="48.84636" lon="2.27005">
        <ele>86.4</ele>
        <time>2015-02-02T21:01:48.635Z</time>
      </trkpt>
      <trkpt lat="48.84641" lon="2.27015">
        <ele>87.7</ele>
        <time>2015-02-02T21:01:50.532Z</time>
      </trkpt>
      <trkpt lat="48.84642" lon="2.27022">
        <ele>88.9</ele>
        <time>2015-02-02T21:01:51.600Z</time>
      </trkpt>
      <trkpt lat="48.84643" lon="2.2703">
        <ele>89.1</ele>
        <time>2015-02-02T21:01:52.625Z</time>
      </trkpt>
      <trkpt lat="48.84645" lon="2.27038">
        <ele>89.5</ele>
        <time>2015-02-02T21:01:53.545Z</time>
      </trkpt>
      <trkpt lat="48.84645" lon="2.27048">
        <ele>89</ele>
        <time>2015-02-02T21:01:54.549Z</time>
      </trkpt>
      <trkpt lat="48.84648" lon="2.27057">
        <ele>88.6</ele>
        <time>2015-02-02T21:01:55.555Z</time>
      </trkpt>
      <trkpt lat="48.84649" lon="2.27064">
        <ele>88.4</ele>
        <time>2015-02-02T21:01:56.565Z</time>
      </trkpt>
      <trkpt lat="48.8465" lon="2.27071">
        <ele>88.5</ele>
        <time>2015-02-02T21:01:57.574Z</time>
      </trkpt>
      <trkpt lat="48.84653" lon="2.27078">
        <ele>88.5</ele>
        <time>2015-02-02T21:01:58.593Z</time>
      </trkpt>
      <trkpt lat="48.84655" lon="2.27083">
        <ele>88.4</ele>
        <time>2015-02-02T21:01:59.599Z</time>
      </trkpt>
      <trkpt lat="48.84658" lon="2.27088">
        <ele>88.4</ele>
        <time>2015-02-02T21:02:00.601Z</time>
      </trkpt>
      <trkpt lat="48.84661" lon="2.27094">
        <ele>88.3</ele>
        <time>2015-02-02T21:02:01.599Z</time>
      </trkpt>
      <trkpt lat="48.84665" lon="2.27105">
        <ele>88.3</ele>
        <time>2015-02-02T21:02:03.571Z</time>
      </trkpt>
      <trkpt lat="48.84667" lon="2.27111">
        <ele>88.4</ele>
        <time>2015-02-02T21:02:04.577Z</time>
      </trkpt>
      <trkpt lat="48.84668" lon="2.27117">
        <ele>88.5</ele>
        <time>2015-02-02T21:02:05.535Z</time>
      </trkpt>
      <trkpt lat="48.84671" lon="2.27123">
        <ele>88.6</ele>
        <time>2015-02-02T21:02:06.538Z</time>
      </trkpt>
      <trkpt lat="48.84675" lon="2.2713">
        <ele>89</ele>
        <time>2015-02-02T21:02:07.538Z</time>
      </trkpt>
      <trkpt lat="48.84679" lon="2.27136">
        <ele>89.5</ele>
        <time>2015-02-02T21:02:08.546Z</time>
      </trkpt>
      <trkpt lat="48.84683" lon="2.27143">
        <ele>90</ele>
        <time>2015-02-02T21:02:09.565Z</time>
      </trkpt>
      <trkpt lat="48.84687" lon="2.27148">
        <ele>90.3</ele>
        <time>2015-02-02T21:02:10.579Z</time>
      </trkpt>
      <trkpt lat="48.84692" lon="2.27155">
        <ele>90.6</ele>
        <time>2015-02-02T21:02:11.587Z</time>
      </trkpt>
      <trkpt lat="48.84695" lon="2.27162">
        <ele>90.5</ele>
        <time>2015-02-02T21:02:12.597Z</time>
      </trkpt>
      <trkpt lat="48.84699" lon="2.2717">
        <ele>90.2</ele>
        <time>2015-02-02T21:02:13.608Z</time>
      </trkpt>
      <trkpt lat="48.84702" lon="2.27178">
        <ele>89.9</ele>
        <time>2015-02-02T21:02:14.615Z</time>
      </trkpt>
      <trkpt lat="48.84705" lon="2.27187">
        <ele>89.8</ele>
        <time>2015-02-02T21:02:15.678Z</time>
      </trkpt>
      <trkpt lat="48.84708" lon="2.27195">
        <ele>89.6</ele>
        <time>2015-02-02T21:02:16.543Z</time>
      </trkpt>
      <trkpt lat="48.84712" lon="2.27208">
        <ele>89.4</ele>
        <time>2015-02-02T21:02:17.598Z</time>
      </trkpt>
      <trkpt lat="48.84714" lon="2.27217">
        <ele>89.2</ele>
        <time>2015-02-02T21:02:18.609Z</time>
      </trkpt>
      <trkpt lat="48.84715" lon="2.27225">
        <ele>89.2</ele>
        <time>2015-02-02T21:02:19.616Z</time>
      </trkpt>
      <trkpt lat="48.84717" lon="2.27235">
        <ele>89</ele>
        <time>2015-02-02T21:02:20.524Z</time>
      </trkpt>
      <trkpt lat="48.84718" lon="2.27243">
        <ele>88.9</ele>
        <time>2015-02-02T21:02:21.579Z</time>
      </trkpt>
      <trkpt lat="48.8472" lon="2.27251">
        <ele>88.9</ele>
        <time>2015-02-02T21:02:22.520Z</time>
      </trkpt>
      <trkpt lat="48.84721" lon="2.27258">
        <ele>88.9</ele>
        <time>2015-02-02T21:02:23.574Z</time>
      </trkpt>
      <trkpt lat="48.84723" lon="2.27264">
        <ele>88.8</ele>
        <time>2015-02-02T21:02:24.575Z</time>
      </trkpt>
      <trkpt lat="48.84725" lon="2.27271">
        <ele>88</ele>
        <time>2015-02-02T21:02:25.600Z</time>
      </trkpt>
      <trkpt lat="48.84728" lon="2.27278">
        <ele>87.4</ele>
        <time>2015-02-02T21:02:26.633Z</time>
      </trkpt>
      <trkpt lat="48.84731" lon="2.27285">
        <ele>86.6</ele>
        <time>2015-02-02T21:02:27.650Z</time>
      </trkpt>
      <trkpt lat="48.84734" lon="2.27292">
        <ele>85.9</ele>
        <time>2015-02-02T21:02:28.545Z</time>
      </trkpt>
      <trkpt lat="48.84736" lon="2.273">
        <ele>85.2</ele>
        <time>2015-02-02T21:02:29.553Z</time>
      </trkpt>
      <trkpt lat="48.84738" lon="2.27312">
        <ele>84.9</ele>
        <time>2015-02-02T21:02:30.600Z</time>
      </trkpt>
      <trkpt lat="48.84738" lon="2.27323">
        <ele>84.8</ele>
        <time>2015-02-02T21:02:31.602Z</time>
      </trkpt>
      <trkpt lat="48.84739" lon="2.27332">
        <ele>84.9</ele>
        <time>2015-02-02T21:02:32.595Z</time>
      </trkpt>
      <trkpt lat="48.84739" lon="2.27338">
        <ele>84.7</ele>
        <time>2015-02-02T21:02:33.626Z</time>
      </trkpt>
      <trkpt lat="48.84738" lon="2.27338">
        <ele>84.7</ele>
        <time>2015-02-02T21:02:34.630Z</time>
      </trkpt>
      <trkpt lat="48.84738" lon="2.2734">
        <ele>84.5</ele>
        <time>2015-02-02T21:02:35.640Z</time>
      </trkpt>
      <trkpt lat="48.84739" lon="2.27341">
        <ele>84.5</ele>
        <time>2015-02-02T21:02:36.536Z</time>
      </trkpt>
      <trkpt lat="48.84738" lon="2.27344">
        <ele>84.5</ele>
        <time>2015-02-02T21:02:37.531Z</time>
      </trkpt>
      <trkpt lat="48.84738" lon="2.27347">
        <ele>84.6</ele>
        <time>2015-02-02T21:02:38.554Z</time>
      </trkpt>
      <trkpt lat="48.84739" lon="2.27348">
        <ele>84</ele>
        <time>2015-02-02T21:02:40.543Z</time>
      </trkpt>
      <trkpt lat="48.8474" lon="2.27353">
        <ele>83.7</ele>
        <time>2015-02-02T21:02:41.554Z</time>
      </trkpt>
      <trkpt lat="48.84739" lon="2.27364">
        <ele>83.8</ele>
        <time>2015-02-02T21:02:44.624Z</time>
      </trkpt>
      <trkpt lat="48.8474" lon="2.27367">
        <ele>83.8</ele>
        <time>2015-02-02T21:02:45.646Z</time>
      </trkpt>
      <trkpt lat="48.8474" lon="2.2738">
        <ele>83.7</ele>
        <time>2015-02-02T21:02:49.565Z</time>
      </trkpt>
      <trkpt lat="48.84741" lon="2.27383">
        <ele>83.8</ele>
        <time>2015-02-02T21:02:50.579Z</time>
      </trkpt>
      <trkpt lat="48.84747" lon="2.27391">
        <ele>83.6</ele>
        <time>2015-02-02T21:02:54.552Z</time>
      </trkpt>
      <trkpt lat="48.84749" lon="2.27393">
        <ele>83.6</ele>
        <time>2015-02-02T21:02:55.573Z</time>
      </trkpt>
      <trkpt lat="48.84756" lon="2.27401">
        <ele>84</ele>
        <time>2015-02-02T21:02:57.633Z</time>
      </trkpt>
      <trkpt lat="48.84759" lon="2.27404">
        <ele>84.3</ele>
        <time>2015-02-02T21:02:58.548Z</time>
      </trkpt>
      <trkpt lat="48.84766" lon="2.2741">
        <ele>84.6</ele>
        <time>2015-02-02T21:03:00.600Z</time>
      </trkpt>
      <trkpt lat="48.84771" lon="2.27414">
        <ele>84.5</ele>
        <time>2015-02-02T21:03:01.619Z</time>
      </trkpt>
      <trkpt lat="48.84779" lon="2.2742">
        <ele>84.5</ele>
        <time>2015-02-02T21:03:03.576Z</time>
      </trkpt>
      <trkpt lat="48.84782" lon="2.27423">
        <ele>84.8</ele>
        <time>2015-02-02T21:03:04.580Z</time>
      </trkpt>
      <trkpt lat="48.84788" lon="2.27427">
        <ele>85.3</ele>
        <time>2015-02-02T21:03:06.524Z</time>
      </trkpt>
      <trkpt lat="48.84792" lon="2.27429">
        <ele>85.4</ele>
        <time>2015-02-02T21:03:07.535Z</time>
      </trkpt>
      <trkpt lat="48.84797" lon="2.27434">
        <ele>85.7</ele>
        <time>2015-02-02T21:03:09.578Z</time>
      </trkpt>
      <trkpt lat="48.848" lon="2.27437">
        <ele>85.8</ele>
        <time>2015-02-02T21:03:10.588Z</time>
      </trkpt>
      <trkpt lat="48.84805" lon="2.2744">
        <ele>86</ele>
        <time>2015-02-02T21:03:11.507Z</time>
      </trkpt>
      <trkpt lat="48.84809" lon="2.27445">
        <ele>86.1</ele>
        <time>2015-02-02T21:03:12.563Z</time>
      </trkpt>
      <trkpt lat="48.84812" lon="2.27451">
        <ele>86.2</ele>
        <time>2015-02-02T21:03:13.546Z</time>
      </trkpt>
      <trkpt lat="48.84814" lon="2.27457">
        <ele>86.3</ele>
        <time>2015-02-02T21:03:14.556Z</time>
      </trkpt>
      <trkpt lat="48.84817" lon="2.27463">
        <ele>86.5</ele>
        <time>2015-02-02T21:03:15.599Z</time>
      </trkpt>
      <trkpt lat="48.8482" lon="2.2747">
        <ele>86.6</ele>
        <time>2015-02-02T21:03:16.527Z</time>
      </trkpt>
      <trkpt lat="48.84822" lon="2.27476">
        <ele>86.7</ele>
        <time>2015-02-02T21:03:17.526Z</time>
      </trkpt>
      <trkpt lat="48.84825" lon="2.27483">
        <ele>86.7</ele>
        <time>2015-02-02T21:03:18.537Z</time>
      </trkpt>
      <trkpt lat="48.84828" lon="2.2749">
        <ele>86.9</ele>
        <time>2015-02-02T21:03:19.550Z</time>
      </trkpt>
      <trkpt lat="48.84833" lon="2.27497">
        <ele>86.8</ele>
        <time>2015-02-02T21:03:20.553Z</time>
      </trkpt>
      <trkpt lat="48.84838" lon="2.27504">
        <ele>86.7</ele>
        <time>2015-02-02T21:03:21.593Z</time>
      </trkpt>
      <trkpt lat="48.84845" lon="2.2751">
        <ele>87.1</ele>
        <time>2015-02-02T21:03:22.622Z</time>
      </trkpt>
      <trkpt lat="48.84852" lon="2.27516">
        <ele>87.4</ele>
        <time>2015-02-02T21:03:23.611Z</time>
      </trkpt>
      <trkpt lat="48.84857" lon="2.27523">
        <ele>87.6</ele>
        <time>2015-02-02T21:03:24.627Z</time>
      </trkpt>
      <trkpt lat="48.84862" lon="2.27527">
        <ele>88</ele>
        <time>2015-02-02T21:03:25.548Z</time>
      </trkpt>
      <trkpt lat="48.84871" lon="2.2753">
        <ele>88.4</ele>
        <time>2015-02-02T21:03:26.594Z</time>
      </trkpt>
      <trkpt lat="48.84882" lon="2.27531">
        <ele>89.1</ele>
        <time>2015-02-02T21:03:27.567Z</time>
      </trkpt>
      <trkpt lat="48.84891" lon="2.27533">
        <ele>89.8</ele>
        <time>2015-02-02T21:03:28.569Z</time>
      </trkpt>
      <trkpt lat="48.84902" lon="2.27538">
        <ele>89.8</ele>
        <time>2015-02-02T21:03:29.575Z</time>
      </trkpt>
      <trkpt lat="48.84913" lon="2.27544">
        <ele>90.6</ele>
        <time>2015-02-02T21:03:30.597Z</time>
      </trkpt>
      <trkpt lat="48.84923" lon="2.2755">
        <ele>91.2</ele>
        <time>2015-02-02T21:03:31.611Z</time>
      </trkpt>
      <trkpt lat="48.84933" lon="2.27556">
        <ele>91.9</ele>
        <time>2015-02-02T21:03:32.531Z</time>
      </trkpt>
      <trkpt lat="48.84944" lon="2.27561">
        <ele>92.3</ele>
        <time>2015-02-02T21:03:33.635Z</time>
      </trkpt>
      <trkpt lat="48.84954" lon="2.27568">
        <ele>92.5</ele>
        <time>2015-02-02T21:03:34.650Z</time>
      </trkpt>
      <trkpt lat="48.84964" lon="2.27572">
        <ele>92.7</ele>
        <time>2015-02-02T21:03:35.528Z</time>
      </trkpt>
      <trkpt lat="48.84973" lon="2.27577">
        <ele>93.5</ele>
        <time>2015-02-02T21:03:36.533Z</time>
      </trkpt>
      <trkpt lat="48.8498" lon="2.27582">
        <ele>94</ele>
        <time>2015-02-02T21:03:37.579Z</time>
      </trkpt>
      <trkpt lat="48.84988" lon="2.27587">
        <ele>94.7</ele>
        <time>2015-02-02T21:03:38.591Z</time>
      </trkpt>
      <trkpt lat="48.84994" lon="2.27591">
        <ele>94.9</ele>
        <time>2015-02-02T21:03:39.610Z</time>
      </trkpt>
      <trkpt lat="48.84999" lon="2.27596">
        <ele>95.5</ele>
        <time>2015-02-02T21:03:40.623Z</time>
      </trkpt>
      <trkpt lat="48.85005" lon="2.27601">
        <ele>96</ele>
        <time>2015-02-02T21:03:41.536Z</time>
      </trkpt>
      <trkpt lat="48.8501" lon="2.27608">
        <ele>96.3</ele>
        <time>2015-02-02T21:03:42.546Z</time>
      </trkpt>
      <trkpt lat="48.85012" lon="2.27616">
        <ele>96.9</ele>
        <time>2015-02-02T21:03:43.556Z</time>
      </trkpt>
      <trkpt lat="48.85015" lon="2.27623">
        <ele>97.5</ele>
        <time>2015-02-02T21:03:44.563Z</time>
      </trkpt>
      <trkpt lat="48.85019" lon="2.27631">
        <ele>97.3</ele>
        <time>2015-02-02T21:03:45.592Z</time>
      </trkpt>
      <trkpt lat="48.85024" lon="2.27639">
        <ele>96.2</ele>
        <time>2015-02-02T21:03:46.594Z</time>
      </trkpt>
      <trkpt lat="48.8503" lon="2.27648">
        <ele>95.8</ele>
        <time>2015-02-02T21:03:47.614Z</time>
      </trkpt>
      <trkpt lat="48.85037" lon="2.27656">
        <ele>95.2</ele>
        <time>2015-02-02T21:03:48.633Z</time>
      </trkpt>
      <trkpt lat="48.85044" lon="2.27664">
        <ele>94.9</ele>
        <time>2015-02-02T21:03:49.547Z</time>
      </trkpt>
      <trkpt lat="48.85049" lon="2.27672">
        <ele>95</ele>
        <time>2015-02-02T21:03:50.539Z</time>
      </trkpt>
      <trkpt lat="48.85054" lon="2.27681">
        <ele>95.2</ele>
        <time>2015-02-02T21:03:51.594Z</time>
      </trkpt>
      <trkpt lat="48.85058" lon="2.27689">
        <ele>95.1</ele>
        <time>2015-02-02T21:03:52.642Z</time>
      </trkpt>
      <trkpt lat="48.85063" lon="2.27698">
        <ele>95.1</ele>
        <time>2015-02-02T21:03:53.546Z</time>
      </trkpt>
      <trkpt lat="48.85069" lon="2.27706">
        <ele>94.5</ele>
        <time>2015-02-02T21:03:54.569Z</time>
      </trkpt>
      <trkpt lat="48.85074" lon="2.27714">
        <ele>93.6</ele>
        <time>2015-02-02T21:03:55.584Z</time>
      </trkpt>
      <trkpt lat="48.85079" lon="2.2772">
        <ele>92.5</ele>
        <time>2015-02-02T21:03:56.602Z</time>
      </trkpt>
      <trkpt lat="48.85084" lon="2.27727">
        <ele>92.1</ele>
        <time>2015-02-02T21:03:57.607Z</time>
      </trkpt>
      <trkpt lat="48.85088" lon="2.27734">
        <ele>91.5</ele>
        <time>2015-02-02T21:03:58.622Z</time>
      </trkpt>
      <trkpt lat="48.85093" lon="2.27741">
        <ele>90.6</ele>
        <time>2015-02-02T21:03:59.636Z</time>
      </trkpt>
      <trkpt lat="48.85096" lon="2.27748">
        <ele>89.9</ele>
        <time>2015-02-02T21:04:00.529Z</time>
      </trkpt>
      <trkpt lat="48.851" lon="2.27754">
        <ele>89.4</ele>
        <time>2015-02-02T21:04:01.590Z</time>
      </trkpt>
      <trkpt lat="48.85105" lon="2.27765">
        <ele>89.1</ele>
        <time>2015-02-02T21:04:03.608Z</time>
      </trkpt>
      <trkpt lat="48.85107" lon="2.27769">
        <ele>88.3</ele>
        <time>2015-02-02T21:04:04.676Z</time>
      </trkpt>
      <trkpt lat="48.85111" lon="2.27778">
        <ele>88.1</ele>
        <time>2015-02-02T21:04:06.538Z</time>
      </trkpt>
      <trkpt lat="48.85112" lon="2.27783">
        <ele>87.4</ele>
        <time>2015-02-02T21:04:07.616Z</time>
      </trkpt>
      <trkpt lat="48.85117" lon="2.27792">
        <ele>87.7</ele>
        <time>2015-02-02T21:04:09.588Z</time>
      </trkpt>
      <trkpt lat="48.8512" lon="2.27795">
        <ele>87.8</ele>
        <time>2015-02-02T21:04:10.626Z</time>
      </trkpt>
      <trkpt lat="48.85126" lon="2.27804">
        <ele>87.5</ele>
        <time>2015-02-02T21:04:12.535Z</time>
      </trkpt>
      <trkpt lat="48.85128" lon="2.27808">
        <ele>87.4</ele>
        <time>2015-02-02T21:04:13.549Z</time>
      </trkpt>
      <trkpt lat="48.85131" lon="2.27819">
        <ele>85.6</ele>
        <time>2015-02-02T21:04:16.543Z</time>
      </trkpt>
      <trkpt lat="48.8513" lon="2.27823">
        <ele>85.2</ele>
        <time>2015-02-02T21:04:17.556Z</time>
      </trkpt>
      <trkpt lat="48.85132" lon="2.27834">
        <ele>84.9</ele>
        <time>2015-02-02T21:04:20.637Z</time>
      </trkpt>
      <trkpt lat="48.85134" lon="2.27837">
        <ele>84.5</ele>
        <time>2015-02-02T21:04:21.590Z</time>
      </trkpt>
      <trkpt lat="48.85132" lon="2.2785">
        <ele>83.5</ele>
        <time>2015-02-02T21:04:24.641Z</time>
      </trkpt>
      <trkpt lat="48.85133" lon="2.27853">
        <ele>82.6</ele>
        <time>2015-02-02T21:04:25.555Z</time>
      </trkpt>
      <trkpt lat="48.85136" lon="2.27863">
        <ele>81.4</ele>
        <time>2015-02-02T21:04:29.639Z</time>
      </trkpt>
      <trkpt lat="48.85138" lon="2.27865">
        <ele>81.4</ele>
        <time>2015-02-02T21:04:30.559Z</time>
      </trkpt>
      <trkpt lat="48.85141" lon="2.27876">
        <ele>76.6</ele>
        <time>2015-02-02T21:04:59.623Z</time>
      </trkpt>
      <trkpt lat="48.85142" lon="2.27882">
        <ele>77</ele>
        <time>2015-02-02T21:05:00.650Z</time>
      </trkpt>
      <trkpt lat="48.85146" lon="2.27886">
        <ele>77.8</ele>
        <time>2015-02-02T21:05:01.557Z</time>
      </trkpt>
      <trkpt lat="48.8515" lon="2.27891">
        <ele>78.6</ele>
        <time>2015-02-02T21:05:02.589Z</time>
      </trkpt>
      <trkpt lat="48.85155" lon="2.27897">
        <ele>79.3</ele>
        <time>2015-02-02T21:05:03.592Z</time>
      </trkpt>
      <trkpt lat="48.85162" lon="2.27902">
        <ele>80.1</ele>
        <time>2015-02-02T21:05:04.604Z</time>
      </trkpt>
      <trkpt lat="48.85168" lon="2.27906">
        <ele>80.8</ele>
        <time>2015-02-02T21:05:05.606Z</time>
      </trkpt>
      <trkpt lat="48.85175" lon="2.27911">
        <ele>81.4</ele>
        <time>2015-02-02T21:05:06.538Z</time>
      </trkpt>
      <trkpt lat="48.85181" lon="2.27918">
        <ele>81.5</ele>
        <time>2015-02-02T21:05:07.532Z</time>
      </trkpt>
      <trkpt lat="48.85186" lon="2.27926">
        <ele>81.7</ele>
        <time>2015-02-02T21:05:08.548Z</time>
      </trkpt>
      <trkpt lat="48.85191" lon="2.27933">
        <ele>81.6</ele>
        <time>2015-02-02T21:05:09.569Z</time>
      </trkpt>
      <trkpt lat="48.85196" lon="2.2794">
        <ele>81.9</ele>
        <time>2015-02-02T21:05:10.580Z</time>
      </trkpt>
      <trkpt lat="48.85199" lon="2.27948">
        <ele>82.2</ele>
        <time>2015-02-02T21:05:11.607Z</time>
      </trkpt>
      <trkpt lat="48.85202" lon="2.27954">
        <ele>82.2</ele>
        <time>2015-02-02T21:05:12.532Z</time>
      </trkpt>
      <trkpt lat="48.85203" lon="2.2796">
        <ele>82.4</ele>
        <time>2015-02-02T21:05:13.517Z</time>
      </trkpt>
      <trkpt lat="48.85206" lon="2.27967">
        <ele>82.7</ele>
        <time>2015-02-02T21:05:14.505Z</time>
      </trkpt>
      <trkpt lat="48.85209" lon="2.27974">
        <ele>83.1</ele>
        <time>2015-02-02T21:05:15.612Z</time>
      </trkpt>
      <trkpt lat="48.85211" lon="2.27981">
        <ele>83.5</ele>
        <time>2015-02-02T21:05:16.626Z</time>
      </trkpt>
      <trkpt lat="48.85214" lon="2.27988">
        <ele>83.7</ele>
        <time>2015-02-02T21:05:17.551Z</time>
      </trkpt>
      <trkpt lat="48.85218" lon="2.27995">
        <ele>83.9</ele>
        <time>2015-02-02T21:05:18.604Z</time>
      </trkpt>
      <trkpt lat="48.85223" lon="2.28002">
        <ele>84.2</ele>
        <time>2015-02-02T21:05:19.626Z</time>
      </trkpt>
      <trkpt lat="48.85229" lon="2.28009">
        <ele>84.1</ele>
        <time>2015-02-02T21:05:20.544Z</time>
      </trkpt>
      <trkpt lat="48.85236" lon="2.28016">
        <ele>83.9</ele>
        <time>2015-02-02T21:05:21.569Z</time>
      </trkpt>
      <trkpt lat="48.85245" lon="2.28025">
        <ele>82.5</ele>
        <time>2015-02-02T21:05:22.573Z</time>
      </trkpt>
      <trkpt lat="48.8525" lon="2.28033">
        <ele>82.2</ele>
        <time>2015-02-02T21:05:23.587Z</time>
      </trkpt>
      <trkpt lat="48.85254" lon="2.2804">
        <ele>81.8</ele>
        <time>2015-02-02T21:05:24.594Z</time>
      </trkpt>
      <trkpt lat="48.85258" lon="2.28048">
        <ele>81.9</ele>
        <time>2015-02-02T21:05:25.618Z</time>
      </trkpt>
      <trkpt lat="48.85262" lon="2.28056">
        <ele>81.9</ele>
        <time>2015-02-02T21:05:26.624Z</time>
      </trkpt>
      <trkpt lat="48.85265" lon="2.28063">
        <ele>81.7</ele>
        <time>2015-02-02T21:05:27.678Z</time>
      </trkpt>
      <trkpt lat="48.85268" lon="2.28069">
        <ele>81.4</ele>
        <time>2015-02-02T21:05:28.533Z</time>
      </trkpt>
      <trkpt lat="48.85272" lon="2.28076">
        <ele>81.2</ele>
        <time>2015-02-02T21:05:29.537Z</time>
      </trkpt>
      <trkpt lat="48.85276" lon="2.28083">
        <ele>80.8</ele>
        <time>2015-02-02T21:05:30.549Z</time>
      </trkpt>
      <trkpt lat="48.85279" lon="2.28089">
        <ele>80.7</ele>
        <time>2015-02-02T21:05:31.560Z</time>
      </trkpt>
      <trkpt lat="48.85282" lon="2.28095">
        <ele>80.6</ele>
        <time>2015-02-02T21:05:32.563Z</time>
      </trkpt>
      <trkpt lat="48.85284" lon="2.281">
        <ele>80.5</ele>
        <time>2015-02-02T21:05:33.587Z</time>
      </trkpt>
      <trkpt lat="48.85287" lon="2.28106">
        <ele>80.4</ele>
        <time>2015-02-02T21:05:34.597Z</time>
      </trkpt>
      <trkpt lat="48.8529" lon="2.2811">
        <ele>80.6</ele>
        <time>2015-02-02T21:05:35.608Z</time>
      </trkpt>
      <trkpt lat="48.85294" lon="2.28115">
        <ele>80.5</ele>
        <time>2015-02-02T21:05:36.619Z</time>
      </trkpt>
      <trkpt lat="48.85298" lon="2.2812">
        <ele>80.7</ele>
        <time>2015-02-02T21:05:37.528Z</time>
      </trkpt>
      <trkpt lat="48.85302" lon="2.28126">
        <ele>81.4</ele>
        <time>2015-02-02T21:05:38.537Z</time>
      </trkpt>
      <trkpt lat="48.85307" lon="2.28132">
        <ele>81.4</ele>
        <time>2015-02-02T21:05:39.555Z</time>
      </trkpt>
      <trkpt lat="48.8531" lon="2.28136">
        <ele>81.9</ele>
        <time>2015-02-02T21:05:40.564Z</time>
      </trkpt>
      <trkpt lat="48.85314" lon="2.28141">
        <ele>82.2</ele>
        <time>2015-02-02T21:05:41.589Z</time>
      </trkpt>
      <trkpt lat="48.85318" lon="2.28145">
        <ele>82.5</ele>
        <time>2015-02-02T21:05:42.547Z</time>
      </trkpt>
      <trkpt lat="48.85322" lon="2.28148">
        <ele>83</ele>
        <time>2015-02-02T21:05:43.562Z</time>
      </trkpt>
      <trkpt lat="48.85326" lon="2.28151">
        <ele>83.5</ele>
        <time>2015-02-02T21:05:44.583Z</time>
      </trkpt>
      <trkpt lat="48.85334" lon="2.28157">
        <ele>85.1</ele>
        <time>2015-02-02T21:05:46.619Z</time>
      </trkpt>
      <trkpt lat="48.85337" lon="2.28161">
        <ele>85.4</ele>
        <time>2015-02-02T21:05:47.544Z</time>
      </trkpt>
      <trkpt lat="48.8534" lon="2.28167">
        <ele>85.6</ele>
        <time>2015-02-02T21:05:48.572Z</time>
      </trkpt>
      <trkpt lat="48.85343" lon="2.28172">
        <ele>85.3</ele>
        <time>2015-02-02T21:05:49.570Z</time>
      </trkpt>
      <trkpt lat="48.85347" lon="2.28177">
        <ele>85</ele>
        <time>2015-02-02T21:05:50.591Z</time>
      </trkpt>
      <trkpt lat="48.8535" lon="2.28183">
        <ele>85.1</ele>
        <time>2015-02-02T21:05:51.608Z</time>
      </trkpt>
      <trkpt lat="48.85356" lon="2.28191">
        <ele>84.8</ele>
        <time>2015-02-02T21:05:52.550Z</time>
      </trkpt>
      <trkpt lat="48.8536" lon="2.28198">
        <ele>84.2</ele>
        <time>2015-02-02T21:05:53.540Z</time>
      </trkpt>
      <trkpt lat="48.85362" lon="2.28206">
        <ele>83.3</ele>
        <time>2015-02-02T21:05:54.584Z</time>
      </trkpt>
      <trkpt lat="48.85365" lon="2.28212">
        <ele>82.8</ele>
        <time>2015-02-02T21:05:55.544Z</time>
      </trkpt>
      <trkpt lat="48.85368" lon="2.28219">
        <ele>82.6</ele>
        <time>2015-02-02T21:05:56.558Z</time>
      </trkpt>
      <trkpt lat="48.85373" lon="2.28226">
        <ele>82.3</ele>
        <time>2015-02-02T21:05:57.597Z</time>
      </trkpt>
      <trkpt lat="48.85377" lon="2.28232">
        <ele>81.7</ele>
        <time>2015-02-02T21:05:58.529Z</time>
      </trkpt>
      <trkpt lat="48.8538" lon="2.28238">
        <ele>81.6</ele>
        <time>2015-02-02T21:05:59.533Z</time>
      </trkpt>
      <trkpt lat="48.85384" lon="2.28244">
        <ele>81.5</ele>
        <time>2015-02-02T21:06:00.532Z</time>
      </trkpt>
      <trkpt lat="48.85387" lon="2.28249">
        <ele>81.3</ele>
        <time>2015-02-02T21:06:01.541Z</time>
      </trkpt>
      <trkpt lat="48.8539" lon="2.28255">
        <ele>81.4</ele>
        <time>2015-02-02T21:06:02.555Z</time>
      </trkpt>
      <trkpt lat="48.85393" lon="2.2826">
        <ele>81.5</ele>
        <time>2015-02-02T21:06:03.572Z</time>
      </trkpt>
      <trkpt lat="48.85397" lon="2.28272">
        <ele>81.7</ele>
        <time>2015-02-02T21:06:05.587Z</time>
      </trkpt>
      <trkpt lat="48.854" lon="2.28277">
        <ele>81.8</ele>
        <time>2015-02-02T21:06:06.611Z</time>
      </trkpt>
      <trkpt lat="48.85403" lon="2.28288">
        <ele>81.7</ele>
        <time>2015-02-02T21:06:08.826Z</time>
      </trkpt>
      <trkpt lat="48.85404" lon="2.28292">
        <ele>81.4</ele>
        <time>2015-02-02T21:06:09.581Z</time>
      </trkpt>
      <trkpt lat="48.85409" lon="2.28297">
        <ele>81.9</ele>
        <time>2015-02-02T21:06:11.595Z</time>
      </trkpt>
      <trkpt lat="48.85412" lon="2.283">
        <ele>81.9</ele>
        <time>2015-02-02T21:06:12.625Z</time>
      </trkpt>
      <trkpt lat="48.85418" lon="2.28306">
        <ele>82.9</ele>
        <time>2015-02-02T21:06:14.518Z</time>
      </trkpt>
      <trkpt lat="48.85421" lon="2.28309">
        <ele>82.9</ele>
        <time>2015-02-02T21:06:15.652Z</time>
      </trkpt>
      <trkpt lat="48.85424" lon="2.28314">
        <ele>83</ele>
        <time>2015-02-02T21:06:16.529Z</time>
      </trkpt>
      <trkpt lat="48.85428" lon="2.28318">
        <ele>83.1</ele>
        <time>2015-02-02T21:06:17.538Z</time>
      </trkpt>
      <trkpt lat="48.85434" lon="2.28323">
        <ele>82.3</ele>
        <time>2015-02-02T21:06:18.554Z</time>
      </trkpt>
      <trkpt lat="48.85439" lon="2.28326">
        <ele>81.6</ele>
        <time>2015-02-02T21:06:19.524Z</time>
      </trkpt>
      <trkpt lat="48.85444" lon="2.28329">
        <ele>81.3</ele>
        <time>2015-02-02T21:06:20.529Z</time>
      </trkpt>
      <trkpt lat="48.85448" lon="2.2833">
        <ele>81</ele>
        <time>2015-02-02T21:06:21.567Z</time>
      </trkpt>
      <trkpt lat="48.85457" lon="2.28335">
        <ele>80.9</ele>
        <time>2015-02-02T21:06:24.526Z</time>
      </trkpt>
      <trkpt lat="48.85459" lon="2.28336">
        <ele>80.6</ele>
        <time>2015-02-02T21:06:25.559Z</time>
      </trkpt>
      <trkpt lat="48.85467" lon="2.2834">
        <ele>79.6</ele>
        <time>2015-02-02T21:06:32.520Z</time>
      </trkpt>
      <trkpt lat="48.85468" lon="2.2834">
        <ele>79.6</ele>
        <time>2015-02-02T21:06:33.553Z</time>
      </trkpt>
      <trkpt lat="48.85475" lon="2.28333">
        <ele>78.9</ele>
        <time>2015-02-02T21:06:36.572Z</time>
      </trkpt>
      <trkpt lat="48.85477" lon="2.28332">
        <ele>79</ele>
        <time>2015-02-02T21:06:37.578Z</time>
      </trkpt>
      <trkpt lat="48.85484" lon="2.28325">
        <ele>78.2</ele>
        <time>2015-02-02T21:06:39.622Z</time>
      </trkpt>
      <trkpt lat="48.85488" lon="2.2832">
        <ele>78.1</ele>
        <time>2015-02-02T21:06:40.519Z</time>
      </trkpt>
      <trkpt lat="48.85492" lon="2.28315">
        <ele>78</ele>
        <time>2015-02-02T21:06:41.561Z</time>
      </trkpt>
      <trkpt lat="48.85494" lon="2.28309">
        <ele>78.2</ele>
        <time>2015-02-02T21:06:42.569Z</time>
      </trkpt>
      <trkpt lat="48.85497" lon="2.28303">
        <ele>78.6</ele>
        <time>2015-02-02T21:06:43.583Z</time>
      </trkpt>
      <trkpt lat="48.855" lon="2.28296">
        <ele>79</ele>
        <time>2015-02-02T21:06:44.596Z</time>
      </trkpt>
      <trkpt lat="48.85503" lon="2.2829">
        <ele>79.3</ele>
        <time>2015-02-02T21:06:45.642Z</time>
      </trkpt>
      <trkpt lat="48.85507" lon="2.28281">
        <ele>79.7</ele>
        <time>2015-02-02T21:06:46.540Z</time>
      </trkpt>
      <trkpt lat="48.8551" lon="2.28272">
        <ele>79.8</ele>
        <time>2015-02-02T21:06:47.558Z</time>
      </trkpt>
      <trkpt lat="48.85514" lon="2.28264">
        <ele>79.8</ele>
        <time>2015-02-02T21:06:48.566Z</time>
      </trkpt>
      <trkpt lat="48.85519" lon="2.28256">
        <ele>79.9</ele>
        <time>2015-02-02T21:06:49.572Z</time>
      </trkpt>
      <trkpt lat="48.85523" lon="2.28249">
        <ele>80.2</ele>
        <time>2015-02-02T21:06:50.584Z</time>
      </trkpt>
      <trkpt lat="48.85526" lon="2.28243">
        <ele>80.2</ele>
        <time>2015-02-02T21:06:51.588Z</time>
      </trkpt>
      <trkpt lat="48.85532" lon="2.28237">
        <ele>80.4</ele>
        <time>2015-02-02T21:06:52.603Z</time>
      </trkpt>
      <trkpt lat="48.85536" lon="2.28231">
        <ele>80.5</ele>
        <time>2015-02-02T21:06:53.531Z</time>
      </trkpt>
      <trkpt lat="48.85539" lon="2.28224">
        <ele>80.7</ele>
        <time>2015-02-02T21:06:54.528Z</time>
      </trkpt>
      <trkpt lat="48.85543" lon="2.28213">
        <ele>80.8</ele>
        <time>2015-02-02T21:06:56.541Z</time>
      </trkpt>
      <trkpt lat="48.85546" lon="2.28208">
        <ele>81</ele>
        <time>2015-02-02T21:06:57.614Z</time>
      </trkpt>
      <trkpt lat="48.85552" lon="2.28199">
        <ele>81.7</ele>
        <time>2015-02-02T21:06:59.543Z</time>
      </trkpt>
      <trkpt lat="48.85553" lon="2.28196">
        <ele>81.9</ele>
        <time>2015-02-02T21:07:00.536Z</time>
      </trkpt>
      <trkpt lat="48.85554" lon="2.28194">
        <ele>82.4</ele>
        <time>2015-02-02T21:07:58.369Z</time>
      </trkpt>
      <trkpt lat="48.8557" lon="2.28195">
        <ele>85.8</ele>
        <time>2015-02-02T21:07:58.592Z</time>
      </trkpt>
      <trkpt lat="48.85576" lon="2.28201">
        <ele>85</ele>
        <time>2015-02-02T21:08:01.571Z</time>
      </trkpt>
      <trkpt lat="48.85577" lon="2.28203">
        <ele>84.6</ele>
        <time>2015-02-02T21:08:02.601Z</time>
      </trkpt>
      <trkpt lat="48.85583" lon="2.2821">
        <ele>84.7</ele>
        <time>2015-02-02T21:08:08.544Z</time>
      </trkpt>
      <trkpt lat="48.85586" lon="2.28211">
        <ele>84.7</ele>
        <time>2015-02-02T21:08:08.576Z</time>
      </trkpt>
      <trkpt lat="48.85592" lon="2.28216">
        <ele>84.6</ele>
        <time>2015-02-02T21:08:11.503Z</time>
      </trkpt>
      <trkpt lat="48.85595" lon="2.2822">
        <ele>84.2</ele>
        <time>2015-02-02T21:08:12.524Z</time>
      </trkpt>
      <trkpt lat="48.856" lon="2.28227">
        <ele>83.8</ele>
        <time>2015-02-02T21:08:14.610Z</time>
      </trkpt>
      <trkpt lat="48.85603" lon="2.28231">
        <ele>83.9</ele>
        <time>2015-02-02T21:08:15.611Z</time>
      </trkpt>
      <trkpt lat="48.85606" lon="2.28238">
        <ele>84.1</ele>
        <time>2015-02-02T21:08:16.538Z</time>
      </trkpt>
      <trkpt lat="48.85608" lon="2.28245">
        <ele>84</ele>
        <time>2015-02-02T21:08:17.593Z</time>
      </trkpt>
      <trkpt lat="48.85615" lon="2.28253">
        <ele>83.8</ele>
        <time>2015-02-02T21:08:19.543Z</time>
      </trkpt>
      <trkpt lat="48.85618" lon="2.28256">
        <ele>83.6</ele>
        <time>2015-02-02T21:08:20.568Z</time>
      </trkpt>
      <trkpt lat="48.85627" lon="2.28259">
        <ele>83.7</ele>
        <time>2015-02-02T21:08:24.091Z</time>
      </trkpt>
      <trkpt lat="48.85629" lon="2.28259">
        <ele>83.9</ele>
        <time>2015-02-02T21:08:24.599Z</time>
      </trkpt>
      <trkpt lat="48.85632" lon="2.28268">
        <ele>84.6</ele>
        <time>2015-02-02T21:08:27.669Z</time>
      </trkpt>
      <trkpt lat="48.85635" lon="2.2827">
        <ele>85.4</ele>
        <time>2015-02-02T21:08:28.534Z</time>
      </trkpt>
      <trkpt lat="48.85643" lon="2.28268">
        <ele>86</ele>
        <time>2015-02-02T21:08:32.561Z</time>
      </trkpt>
      <trkpt lat="48.85645" lon="2.28267">
        <ele>86.1</ele>
        <time>2015-02-02T21:08:33.593Z</time>
      </trkpt>
      <trkpt lat="48.85651" lon="2.28265">
        <ele>86.6</ele>
        <time>2015-02-02T21:08:36.533Z</time>
      </trkpt>
      <trkpt lat="48.85654" lon="2.2827">
        <ele>86.7</ele>
        <time>2015-02-02T21:08:37.544Z</time>
      </trkpt>
      <trkpt lat="48.8566" lon="2.28279">
        <ele>86.3</ele>
        <time>2015-02-02T21:08:39.571Z</time>
      </trkpt>
      <trkpt lat="48.85674" lon="2.28337">
        <ele>88</ele>
        <time>2015-02-02T21:08:48.512Z</time>
      </trkpt>
      <trkpt lat="48.8567" lon="2.2835">
        <ele>88.6</ele>
        <time>2015-02-02T21:08:50.528Z</time>
      </trkpt>
      <trkpt lat="48.85667" lon="2.28358">
        <ele>88.8</ele>
        <time>2015-02-02T21:08:51.582Z</time>
      </trkpt>
      <trkpt lat="48.85663" lon="2.28366">
        <ele>89.2</ele>
        <time>2015-02-02T21:08:52.598Z</time>
      </trkpt>
      <trkpt lat="48.85658" lon="2.28376">
        <ele>90.1</ele>
        <time>2015-02-02T21:08:54.699Z</time>
      </trkpt>
      <trkpt lat="48.85656" lon="2.2838">
        <ele>90.5</ele>
        <time>2015-02-02T21:08:55.575Z</time>
      </trkpt>
      <trkpt lat="48.85658" lon="2.28393">
        <ele>90</ele>
        <time>2015-02-02T21:08:58.460Z</time>
      </trkpt>
      <trkpt lat="48.85662" lon="2.28411">
        <ele>90</ele>
        <time>2015-02-02T21:09:00.549Z</time>
      </trkpt>
      <trkpt lat="48.85668" lon="2.28419">
        <ele>90.8</ele>
        <time>2015-02-02T21:09:05.634Z</time>
      </trkpt>
      <trkpt lat="48.8567" lon="2.28421">
        <ele>91.2</ele>
        <time>2015-02-02T21:09:06.528Z</time>
      </trkpt>
      <trkpt lat="48.85673" lon="2.2843">
        <ele>91.8</ele>
        <time>2015-02-02T21:09:09.548Z</time>
      </trkpt>
      <trkpt lat="48.85675" lon="2.28434">
        <ele>92.2</ele>
        <time>2015-02-02T21:09:10.556Z</time>
      </trkpt>
      <trkpt lat="48.85681" lon="2.28441">
        <ele>93.2</ele>
        <time>2015-02-02T21:09:13.838Z</time>
      </trkpt>
      <trkpt lat="48.85684" lon="2.28444">
        <ele>94</ele>
        <time>2015-02-02T21:09:14.583Z</time>
      </trkpt>
      <trkpt lat="48.85691" lon="2.28449">
        <ele>94.9</ele>
        <time>2015-02-02T21:09:16.555Z</time>
      </trkpt>
      <trkpt lat="48.85695" lon="2.28451">
        <ele>95.6</ele>
        <time>2015-02-02T21:09:17.561Z</time>
      </trkpt>
      <trkpt lat="48.85703" lon="2.28454">
        <ele>96.6</ele>
        <time>2015-02-02T21:09:19.588Z</time>
      </trkpt>
      <trkpt lat="48.85707" lon="2.28455">
        <ele>97.1</ele>
        <time>2015-02-02T21:09:20.617Z</time>
      </trkpt>
      <trkpt lat="48.85715" lon="2.28458">
        <ele>97.7</ele>
        <time>2015-02-02T21:09:22.553Z</time>
      </trkpt>
      <trkpt lat="48.85717" lon="2.2846">
        <ele>98.1</ele>
        <time>2015-02-02T21:09:23.563Z</time>
      </trkpt>
      <trkpt lat="48.85718" lon="2.28465">
        <ele>100.1</ele>
        <time>2015-02-02T21:09:34.627Z</time>
      </trkpt>
      <trkpt lat="48.85722" lon="2.2848">
        <ele>102.2</ele>
        <time>2015-02-02T21:09:35.640Z</time>
      </trkpt>
      <trkpt lat="48.85728" lon="2.2848">
        <ele>102.5</ele>
        <time>2015-02-02T21:09:39.553Z</time>
      </trkpt>
      <trkpt lat="48.85759" lon="2.2838">
        <ele>93.6</ele>
        <time>2015-02-02T21:10:52.538Z</time>
      </trkpt>
      <trkpt lat="48.85759" lon="2.2838">
        <ele>93.6</ele>
        <time>2015-02-02T21:11:00.512Z</time>
      </trkpt>
      <trkpt lat="48.85777" lon="2.28384">
        <ele>96.2</ele>
        <time>2015-02-02T21:11:01.531Z</time>
      </trkpt>
      <trkpt lat="48.85783" lon="2.28392">
        <ele>98.3</ele>
        <time>2015-02-02T21:11:05.585Z</time>
      </trkpt>
      <trkpt lat="48.85785" lon="2.28394">
        <ele>98.9</ele>
        <time>2015-02-02T21:11:06.559Z</time>
      </trkpt>
      <trkpt lat="48.8579" lon="2.284">
        <ele>102</ele>
        <time>2015-02-02T21:11:08.615Z</time>
      </trkpt>
      <trkpt lat="48.85794" lon="2.28404">
        <ele>104.1</ele>
        <time>2015-02-02T21:11:09.567Z</time>
      </trkpt>
      <trkpt lat="48.858" lon="2.28412">
        <ele>106.9</ele>
        <time>2015-02-02T21:11:15.594Z</time>
      </trkpt>
      <trkpt lat="48.85804" lon="2.28416">
        <ele>109.6</ele>
        <time>2015-02-02T21:11:16.490Z</time>
      </trkpt>
      <trkpt lat="48.85809" lon="2.28418">
        <ele>111.2</ele>
        <time>2015-02-02T21:11:25.624Z</time>
      </trkpt>
      <trkpt lat="48.85814" lon="2.2842">
        <ele>111.6</ele>
        <time>2015-02-02T21:11:26.526Z</time>
      </trkpt>
      <trkpt lat="48.85821" lon="2.28424">
        <ele>110</ele>
        <time>2015-02-02T21:11:28.839Z</time>
      </trkpt>
      <trkpt lat="48.85824" lon="2.28426">
        <ele>108.8</ele>
        <time>2015-02-02T21:11:29.560Z</time>
      </trkpt>
      <trkpt lat="48.85831" lon="2.28431">
        <ele>106.7</ele>
        <time>2015-02-02T21:12:31.521Z</time>
      </trkpt>
      <trkpt lat="48.85863" lon="2.28456">
        <ele>114.8</ele>
        <time>2015-02-02T21:12:32.532Z</time>
      </trkpt>
      <trkpt lat="48.85869" lon="2.28455">
        <ele>115</ele>
        <time>2015-02-02T21:12:34.614Z</time>
      </trkpt>
      <trkpt lat="48.85872" lon="2.28454">
        <ele>115.4</ele>
        <time>2015-02-02T21:12:35.501Z</time>
      </trkpt>
      <trkpt lat="48.85877" lon="2.28463">
        <ele>115</ele>
        <time>2015-02-02T21:12:41.534Z</time>
      </trkpt>
      <trkpt lat="48.85878" lon="2.28466">
        <ele>115.1</ele>
        <time>2015-02-02T21:12:42.543Z</time>
      </trkpt>
      <trkpt lat="48.85882" lon="2.28475">
        <ele>117.2</ele>
        <time>2015-02-02T21:12:48.264Z</time>
      </trkpt>
      <trkpt lat="48.85885" lon="2.28476">
        <ele>117.4</ele>
        <time>2015-02-02T21:12:48.618Z</time>
      </trkpt>
      <trkpt lat="48.85893" lon="2.28482">
        <ele>117.4</ele>
        <time>2015-02-02T21:12:51.574Z</time>
      </trkpt>
      <trkpt lat="48.85896" lon="2.28485">
        <ele>117.4</ele>
        <time>2015-02-02T21:12:52.583Z</time>
      </trkpt>
      <trkpt lat="48.85903" lon="2.28491">
        <ele>117.3</ele>
        <time>2015-02-02T21:12:54.585Z</time>
      </trkpt>
      <trkpt lat="48.85906" lon="2.28494">
        <ele>117.3</ele>
        <time>2015-02-02T21:12:55.602Z</time>
      </trkpt>
      <trkpt lat="48.85912" lon="2.285">
        <ele>117.2</ele>
        <time>2015-02-02T21:12:58.284Z</time>
      </trkpt>
      <trkpt lat="48.85916" lon="2.28502">
        <ele>117.2</ele>
        <time>2015-02-02T21:12:58.530Z</time>
      </trkpt>
      <trkpt lat="48.85924" lon="2.28508">
        <ele>117</ele>
        <time>2015-02-02T21:13:00.554Z</time>
      </trkpt>
      <trkpt lat="48.85928" lon="2.28513">
        <ele>116.8</ele>
        <time>2015-02-02T21:13:01.568Z</time>
      </trkpt>
      <trkpt lat="48.85933" lon="2.28522">
        <ele>117</ele>
        <time>2015-02-02T21:13:03.601Z</time>
      </trkpt>
      <trkpt lat="48.85935" lon="2.28526">
        <ele>117.2</ele>
        <time>2015-02-02T21:13:04.655Z</time>
      </trkpt>
      <trkpt lat="48.85942" lon="2.28534">
        <ele>117.7</ele>
        <time>2015-02-02T21:13:06.545Z</time>
      </trkpt>
      <trkpt lat="48.85944" lon="2.28538">
        <ele>117.9</ele>
        <time>2015-02-02T21:13:07.598Z</time>
      </trkpt>
      <trkpt lat="48.85949" lon="2.28541">
        <ele>118.1</ele>
        <time>2015-02-02T21:13:08.615Z</time>
      </trkpt>
      <trkpt lat="48.85954" lon="2.28543">
        <ele>118.2</ele>
        <time>2015-02-02T21:13:09.633Z</time>
      </trkpt>
      <trkpt lat="48.85958" lon="2.28545">
        <ele>118.2</ele>
        <time>2015-02-02T21:13:10.494Z</time>
      </trkpt>
      <trkpt lat="48.85964" lon="2.28548">
        <ele>118.4</ele>
        <time>2015-02-02T21:13:11.526Z</time>
      </trkpt>
      <trkpt lat="48.85971" lon="2.28551">
        <ele>118.3</ele>
        <time>2015-02-02T21:13:13.499Z</time>
      </trkpt>
      <trkpt lat="48.85978" lon="2.28554">
        <ele>117.5</ele>
        <time>2015-02-02T21:13:13.549Z</time>
      </trkpt>
      <trkpt lat="48.85983" lon="2.28556">
        <ele>116.8</ele>
        <time>2015-02-02T21:13:14.581Z</time>
      </trkpt>
      <trkpt lat="48.85989" lon="2.28559">
        <ele>116.2</ele>
        <time>2015-02-02T21:13:15.586Z</time>
      </trkpt>
      <trkpt lat="48.85993" lon="2.28564">
        <ele>116.5</ele>
        <time>2015-02-02T21:13:16.656Z</time>
      </trkpt>
      <trkpt lat="48.85996" lon="2.2857">
        <ele>116.8</ele>
        <time>2015-02-02T21:13:17.530Z</time>
      </trkpt>
      <trkpt lat="48.86" lon="2.28576">
        <ele>116.8</ele>
        <time>2015-02-02T21:13:18.529Z</time>
      </trkpt>
      <trkpt lat="48.86003" lon="2.2858">
        <ele>116.8</ele>
        <time>2015-02-02T21:13:19.540Z</time>
      </trkpt>
      <trkpt lat="48.86009" lon="2.28587">
        <ele>117.2</ele>
        <time>2015-02-02T21:13:21.567Z</time>
      </trkpt>
      <trkpt lat="48.86012" lon="2.28591">
        <ele>116.8</ele>
        <time>2015-02-02T21:13:22.598Z</time>
      </trkpt>
      <trkpt lat="48.86018" lon="2.28595">
        <ele>115.6</ele>
        <time>2015-02-02T21:13:23.562Z</time>
      </trkpt>
      <trkpt lat="48.86024" lon="2.28596">
        <ele>114.9</ele>
        <time>2015-02-02T21:13:24.526Z</time>
      </trkpt>
      <trkpt lat="48.86029" lon="2.28597">
        <ele>115.2</ele>
        <time>2015-02-02T21:13:25.536Z</time>
      </trkpt>
      <trkpt lat="48.86034" lon="2.28598">
        <ele>115.5</ele>
        <time>2015-02-02T21:13:26.543Z</time>
      </trkpt>
      <trkpt lat="48.8604" lon="2.28599">
        <ele>115.6</ele>
        <time>2015-02-02T21:13:28.558Z</time>
      </trkpt>
      <trkpt lat="48.86045" lon="2.28601">
        <ele>115.7</ele>
        <time>2015-02-02T21:13:28.605Z</time>
      </trkpt>
      <trkpt lat="48.86052" lon="2.28604">
        <ele>115.4</ele>
        <time>2015-02-02T21:13:30.499Z</time>
      </trkpt>
      <trkpt lat="48.86055" lon="2.28605">
        <ele>115.3</ele>
        <time>2015-02-02T21:13:31.503Z</time>
      </trkpt>
      <trkpt lat="48.86062" lon="2.28608">
        <ele>114.5</ele>
        <time>2015-02-02T21:13:33.580Z</time>
      </trkpt>
      <trkpt lat="48.86066" lon="2.28609">
        <ele>113.7</ele>
        <time>2015-02-02T21:13:34.543Z</time>
      </trkpt>
      <trkpt lat="48.86072" lon="2.2861">
        <ele>112.2</ele>
        <time>2015-02-02T21:13:36.585Z</time>
      </trkpt>
      <trkpt lat="48.86075" lon="2.28611">
        <ele>111.4</ele>
        <time>2015-02-02T21:13:37.490Z</time>
      </trkpt>
      <trkpt lat="48.86081" lon="2.28619">
        <ele>106.1</ele>
        <time>2015-02-02T21:14:28.765Z</time>
      </trkpt>
      <trkpt lat="48.86085" lon="2.28618">
        <ele>105.9</ele>
        <time>2015-02-02T21:14:29.601Z</time>
      </trkpt>
      <trkpt lat="48.86091" lon="2.28621">
        <ele>105.8</ele>
        <time>2015-02-02T21:14:31.584Z</time>
      </trkpt>
      <trkpt lat="48.86094" lon="2.28623">
        <ele>105.7</ele>
        <time>2015-02-02T21:14:32.599Z</time>
      </trkpt>
      <trkpt lat="48.86102" lon="2.28629">
        <ele>105.8</ele>
        <time>2015-02-02T21:14:34.628Z</time>
      </trkpt>
      <trkpt lat="48.86105" lon="2.28633">
        <ele>106.6</ele>
        <time>2015-02-02T21:14:35.641Z</time>
      </trkpt>
      <trkpt lat="48.86112" lon="2.28638">
        <ele>108.4</ele>
        <time>2015-02-02T21:14:37.577Z</time>
      </trkpt>
      <trkpt lat="48.86114" lon="2.28642">
        <ele>109.1</ele>
        <time>2015-02-02T21:14:38.588Z</time>
      </trkpt>
      <trkpt lat="48.86121" lon="2.28647">
        <ele>110.2</ele>
        <time>2015-02-02T21:14:40.699Z</time>
      </trkpt>
      <trkpt lat="48.86123" lon="2.28651">
        <ele>110.7</ele>
        <time>2015-02-02T21:14:41.524Z</time>
      </trkpt>
      <trkpt lat="48.8613" lon="2.28658">
        <ele>111.7</ele>
        <time>2015-02-02T21:14:44.583Z</time>
      </trkpt>
      <trkpt lat="48.86135" lon="2.28661">
        <ele>112.5</ele>
        <time>2015-02-02T21:14:45.630Z</time>
      </trkpt>
      <trkpt lat="48.86143" lon="2.28665">
        <ele>112.8</ele>
        <time>2015-02-02T21:14:48.447Z</time>
      </trkpt>
      <trkpt lat="48.86149" lon="2.28665">
        <ele>112.3</ele>
        <time>2015-02-02T21:14:48.531Z</time>
      </trkpt>
      <trkpt lat="48.86156" lon="2.28664">
        <ele>111.2</ele>
        <time>2015-02-02T21:14:49.544Z</time>
      </trkpt>
      <trkpt lat="48.86162" lon="2.28666">
        <ele>111.5</ele>
        <time>2015-02-02T21:14:50.561Z</time>
      </trkpt>
      <trkpt lat="48.86171" lon="2.28667">
        <ele>112</ele>
        <time>2015-02-02T21:14:53.461Z</time>
      </trkpt>
      <trkpt lat="48.86175" lon="2.28666">
        <ele>111.8</ele>
        <time>2015-02-02T21:14:53.599Z</time>
      </trkpt>
      <trkpt lat="48.86184" lon="2.28665">
        <ele>110.7</ele>
        <time>2015-02-02T21:14:55.551Z</time>
      </trkpt>
      <trkpt lat="48.86188" lon="2.28664">
        <ele>110.7</ele>
        <time>2015-02-02T21:14:56.556Z</time>
      </trkpt>
      <trkpt lat="48.86195" lon="2.28667">
        <ele>111.4</ele>
        <time>2015-02-02T21:14:59.497Z</time>
      </trkpt>
      <trkpt lat="48.86198" lon="2.28669">
        <ele>111.4</ele>
        <time>2015-02-02T21:15:00.512Z</time>
      </trkpt>
      <trkpt lat="48.86205" lon="2.28676">
        <ele>111.7</ele>
        <time>2015-02-02T21:15:03.767Z</time>
      </trkpt>
      <trkpt lat="48.86208" lon="2.2868">
        <ele>111.4</ele>
        <time>2015-02-02T21:15:04.599Z</time>
      </trkpt>
      <trkpt lat="48.86213" lon="2.28687">
        <ele>111.5</ele>
        <time>2015-02-02T21:15:06.527Z</time>
      </trkpt>
      <trkpt lat="48.86215" lon="2.2869">
        <ele>111.3</ele>
        <time>2015-02-02T21:15:07.527Z</time>
      </trkpt>
      <trkpt lat="48.8622" lon="2.28699">
        <ele>110.8</ele>
        <time>2015-02-02T21:15:10.599Z</time>
      </trkpt>
      <trkpt lat="48.86222" lon="2.28702">
        <ele>110.4</ele>
        <time>2015-02-02T21:15:11.527Z</time>
      </trkpt>
      <trkpt lat="48.86226" lon="2.28707">
        <ele>109.9</ele>
        <time>2015-02-02T21:15:12.521Z</time>
      </trkpt>
      <trkpt lat="48.86229" lon="2.28712">
        <ele>109.6</ele>
        <time>2015-02-02T21:15:13.506Z</time>
      </trkpt>
      <trkpt lat="48.86233" lon="2.28721">
        <ele>109.3</ele>
        <time>2015-02-02T21:15:15.562Z</time>
      </trkpt>
      <trkpt lat="48.86236" lon="2.28725">
        <ele>109.4</ele>
        <time>2015-02-02T21:15:16.576Z</time>
      </trkpt>
      <trkpt lat="48.86241" lon="2.28732">
        <ele>109.8</ele>
        <time>2015-02-02T21:15:18.855Z</time>
      </trkpt>
      <trkpt lat="48.86243" lon="2.28737">
        <ele>109.5</ele>
        <time>2015-02-02T21:15:19.544Z</time>
      </trkpt>
      <trkpt lat="48.86246" lon="2.2875">
        <ele>107.9</ele>
        <time>2015-02-02T21:15:22.565Z</time>
      </trkpt>
      <trkpt lat="48.86247" lon="2.28754">
        <ele>107.5</ele>
        <time>2015-02-02T21:15:23.529Z</time>
      </trkpt>
      <trkpt lat="48.86249" lon="2.28763">
        <ele>107</ele>
        <time>2015-02-02T21:15:25.570Z</time>
      </trkpt>
      <trkpt lat="48.86251" lon="2.28767">
        <ele>106.4</ele>
        <time>2015-02-02T21:15:26.548Z</time>
      </trkpt>
      <trkpt lat="48.86258" lon="2.28774">
        <ele>106.7</ele>
        <time>2015-02-02T21:15:28.971Z</time>
      </trkpt>
      <trkpt lat="48.86261" lon="2.28776">
        <ele>106.9</ele>
        <time>2015-02-02T21:15:29.589Z</time>
      </trkpt>
      <trkpt lat="48.86268" lon="2.28783">
        <ele>108</ele>
        <time>2015-02-02T21:15:32.560Z</time>
      </trkpt>
      <trkpt lat="48.8627" lon="2.28786">
        <ele>107.9</ele>
        <time>2015-02-02T21:15:33.700Z</time>
      </trkpt>
      <trkpt lat="48.86274" lon="2.28797">
        <ele>108.2</ele>
        <time>2015-02-02T21:15:37.598Z</time>
      </trkpt>
      <trkpt lat="48.86276" lon="2.288">
        <ele>107.7</ele>
        <time>2015-02-02T21:15:38.533Z</time>
      </trkpt>
      <trkpt lat="48.86282" lon="2.28805">
        <ele>107.3</ele>
        <time>2015-02-02T21:15:40.515Z</time>
      </trkpt>
      <trkpt lat="48.86285" lon="2.28807">
        <ele>106.8</ele>
        <time>2015-02-02T21:15:41.553Z</time>
      </trkpt>
      <trkpt lat="48.86292" lon="2.28809">
        <ele>105.8</ele>
        <time>2015-02-02T21:15:44.370Z</time>
      </trkpt>
      <trkpt lat="48.86294" lon="2.2881">
        <ele>105.9</ele>
        <time>2015-02-02T21:15:44.494Z</time>
      </trkpt>
      <trkpt lat="48.86301" lon="2.28816">
        <ele>106.5</ele>
        <time>2015-02-02T21:15:48.216Z</time>
      </trkpt>
      <trkpt lat="48.86303" lon="2.28818">
        <ele>106.7</ele>
        <time>2015-02-02T21:15:48.552Z</time>
      </trkpt>
      <trkpt lat="48.86312" lon="2.28818">
        <ele>105.7</ele>
        <time>2015-02-02T21:15:53.356Z</time>
      </trkpt>
      <trkpt lat="48.86314" lon="2.28817">
        <ele>105.3</ele>
        <time>2015-02-02T21:15:53.527Z</time>
      </trkpt>
      <trkpt lat="48.8632" lon="2.28809">
        <ele>105.9</ele>
        <time>2015-02-02T21:15:58.474Z</time>
      </trkpt>
      <trkpt lat="48.86321" lon="2.28807">
        <ele>105.8</ele>
        <time>2015-02-02T21:15:58.551Z</time>
      </trkpt>
      <trkpt lat="48.86329" lon="2.28803">
        <ele>107.1</ele>
        <time>2015-02-02T21:16:08.530Z</time>
      </trkpt>
      <trkpt lat="48.86332" lon="2.28801">
        <ele>107.1</ele>
        <time>2015-02-02T21:16:08.563Z</time>
      </trkpt>
      <trkpt lat="48.86338" lon="2.28792">
        <ele>108</ele>
        <time>2015-02-02T21:16:13.556Z</time>
      </trkpt>
      <trkpt lat="48.8634" lon="2.2879">
        <ele>108.2</ele>
        <time>2015-02-02T21:16:13.590Z</time>
      </trkpt>
      <trkpt lat="48.86344" lon="2.28786">
        <ele>109.9</ele>
        <time>2015-02-02T21:16:22.517Z</time>
      </trkpt>
      <trkpt lat="48.86353" lon="2.28795">
        <ele>113.1</ele>
        <time>2015-02-02T21:16:23.535Z</time>
      </trkpt>
      <trkpt lat="48.8636" lon="2.28803">
        <ele>115.1</ele>
        <time>2015-02-02T21:16:29.569Z</time>
      </trkpt>
      <trkpt lat="48.86361" lon="2.28804">
        <ele>115.2</ele>
        <time>2015-02-02T21:16:30.559Z</time>
      </trkpt>
      <trkpt lat="48.86366" lon="2.28809">
        <ele>114.8</ele>
        <time>2015-02-02T21:16:33.796Z</time>
      </trkpt>
      <trkpt lat="48.86369" lon="2.28813">
        <ele>114.7</ele>
        <time>2015-02-02T21:16:34.586Z</time>
      </trkpt>
      <trkpt lat="48.86374" lon="2.28821">
        <ele>115.2</ele>
        <time>2015-02-02T21:16:37.524Z</time>
      </trkpt>
      <trkpt lat="48.86375" lon="2.28825">
        <ele>115.2</ele>
        <time>2015-02-02T21:16:38.546Z</time>
      </trkpt>
      <trkpt lat="48.86378" lon="2.28833">
        <ele>115.7</ele>
        <time>2015-02-02T21:16:41.585Z</time>
      </trkpt>
      <trkpt lat="48.86379" lon="2.28837">
        <ele>115.9</ele>
        <time>2015-02-02T21:16:42.483Z</time>
      </trkpt>
      <trkpt lat="48.86383" lon="2.28846">
        <ele>116.4</ele>
        <time>2015-02-02T21:16:45.598Z</time>
      </trkpt>
      <trkpt lat="48.86385" lon="2.28849">
        <ele>116.5</ele>
        <time>2015-02-02T21:16:46.512Z</time>
      </trkpt>
      <trkpt lat="48.86389" lon="2.28856">
        <ele>116.5</ele>
        <time>2015-02-02T21:16:48.579Z</time>
      </trkpt>
      <trkpt lat="48.86392" lon="2.28859">
        <ele>116.9</ele>
        <time>2015-02-02T21:16:49.593Z</time>
      </trkpt>
      <trkpt lat="48.86399" lon="2.28862">
        <ele>116.9</ele>
        <time>2015-02-02T21:16:51.581Z</time>
      </trkpt>
      <trkpt lat="48.86401" lon="2.28863">
        <ele>116.9</ele>
        <time>2015-02-02T21:16:52.592Z</time>
      </trkpt>
      <trkpt lat="48.86407" lon="2.28867">
        <ele>116.8</ele>
        <time>2015-02-02T21:16:54.511Z</time>
      </trkpt>
      <trkpt lat="48.86409" lon="2.28869">
        <ele>117.2</ele>
        <time>2015-02-02T21:16:55.521Z</time>
      </trkpt>
      <trkpt lat="48.86415" lon="2.28876">
        <ele>117.3</ele>
        <time>2015-02-02T21:16:57.540Z</time>
      </trkpt>
      <trkpt lat="48.86417" lon="2.28878">
        <ele>117.2</ele>
        <time>2015-02-02T21:16:58.544Z</time>
      </trkpt>
      <trkpt lat="48.86425" lon="2.28881">
        <ele>116.6</ele>
        <time>2015-02-02T21:17:00.490Z</time>
      </trkpt>
      <trkpt lat="48.8643" lon="2.28883">
        <ele>116.6</ele>
        <time>2015-02-02T21:17:01.526Z</time>
      </trkpt>
      <trkpt lat="48.86437" lon="2.28887">
        <ele>116.5</ele>
        <time>2015-02-02T21:17:04.164Z</time>
      </trkpt>
      <trkpt lat="48.8644" lon="2.28889">
        <ele>116.5</ele>
        <time>2015-02-02T21:17:04.555Z</time>
      </trkpt>
      <trkpt lat="48.86447" lon="2.2889">
        <ele>118.1</ele>
        <time>2015-02-02T21:17:06.576Z</time>
      </trkpt>
      <trkpt lat="48.8645" lon="2.28891">
        <ele>118.3</ele>
        <time>2015-02-02T21:17:07.595Z</time>
      </trkpt>
      <trkpt lat="48.86458" lon="2.28895">
        <ele>118.8</ele>
        <time>2015-02-02T21:17:09.616Z</time>
      </trkpt>
      <trkpt lat="48.86464" lon="2.28898">
        <ele>117</ele>
        <time>2015-02-02T21:17:10.487Z</time>
      </trkpt>
      <trkpt lat="48.86469" lon="2.28901">
        <ele>117.1</ele>
        <time>2015-02-02T21:17:11.515Z</time>
      </trkpt>
      <trkpt lat="48.86474" lon="2.28903">
        <ele>117.9</ele>
        <time>2015-02-02T21:17:12.526Z</time>
      </trkpt>
      <trkpt lat="48.86479" lon="2.28905">
        <ele>117.8</ele>
        <time>2015-02-02T21:17:13.733Z</time>
      </trkpt>
      <trkpt lat="48.86483" lon="2.28907">
        <ele>117.7</ele>
        <time>2015-02-02T21:17:14.556Z</time>
      </trkpt>
      <trkpt lat="48.86489" lon="2.28909">
        <ele>119.6</ele>
        <time>2015-02-02T21:17:16.523Z</time>
      </trkpt>
      <trkpt lat="48.86492" lon="2.2891">
        <ele>120.5</ele>
        <time>2015-02-02T21:17:17.525Z</time>
      </trkpt>
      <trkpt lat="48.865" lon="2.28912">
        <ele>122.4</ele>
        <time>2015-02-02T21:17:19.566Z</time>
      </trkpt>
      <trkpt lat="48.86503" lon="2.28914">
        <ele>123.5</ele>
        <time>2015-02-02T21:17:20.586Z</time>
      </trkpt>
      <trkpt lat="48.8651" lon="2.28919">
        <ele>124</ele>
        <time>2015-02-02T21:17:22.601Z</time>
      </trkpt>
      <trkpt lat="48.86513" lon="2.28921">
        <ele>124.1</ele>
        <time>2015-02-02T21:17:23.659Z</time>
      </trkpt>
      <trkpt lat="48.86521" lon="2.28926">
        <ele>127.3</ele>
        <time>2015-02-02T21:17:26.568Z</time>
      </trkpt>
      <trkpt lat="48.86522" lon="2.2893">
        <ele>127.6</ele>
        <time>2015-02-02T21:17:27.568Z</time>
      </trkpt>
      <trkpt lat="48.86523" lon="2.28939">
        <ele>127.9</ele>
        <time>2015-02-02T21:17:29.590Z</time>
      </trkpt>
      <trkpt lat="48.86524" lon="2.28944">
        <ele>128</ele>
        <time>2015-02-02T21:17:30.613Z</time>
      </trkpt>
      <trkpt lat="48.86526" lon="2.28955">
        <ele>128.8</ele>
        <time>2015-02-02T21:17:33.955Z</time>
      </trkpt>
      <trkpt lat="48.86527" lon="2.28958">
        <ele>129.2</ele>
        <time>2015-02-02T21:17:34.616Z</time>
      </trkpt>
      <trkpt lat="48.86533" lon="2.28968">
        <ele>130.1</ele>
        <time>2015-02-02T21:17:36.533Z</time>
      </trkpt>
      <trkpt lat="48.86538" lon="2.2897">
        <ele>130.6</ele>
        <time>2015-02-02T21:17:37.554Z</time>
      </trkpt>
      <trkpt lat="48.86543" lon="2.28973">
        <ele>130.9</ele>
        <time>2015-02-02T21:17:39.273Z</time>
      </trkpt>
      <trkpt lat="48.86549" lon="2.28975">
        <ele>130.5</ele>
        <time>2015-02-02T21:17:39.558Z</time>
      </trkpt>
      <trkpt lat="48.86555" lon="2.28976">
        <ele>129.1</ele>
        <time>2015-02-02T21:17:40.560Z</time>
      </trkpt>
      <trkpt lat="48.86558" lon="2.2898">
        <ele>129.2</ele>
        <time>2015-02-02T21:17:41.565Z</time>
      </trkpt>
      <trkpt lat="48.86562" lon="2.28983">
        <ele>129.3</ele>
        <time>2015-02-02T21:17:42.570Z</time>
      </trkpt>
      <trkpt lat="48.86568" lon="2.28981">
        <ele>131.3</ele>
        <time>2015-02-02T21:17:43.577Z</time>
      </trkpt>
      <trkpt lat="48.86574" lon="2.2898">
        <ele>132.9</ele>
        <time>2015-02-02T21:17:44.591Z</time>
      </trkpt>
      <trkpt lat="48.8658" lon="2.28981">
        <ele>134.1</ele>
        <time>2015-02-02T21:17:45.594Z</time>
      </trkpt>
      <trkpt lat="48.86587" lon="2.28982">
        <ele>134.8</ele>
        <time>2015-02-02T21:17:46.604Z</time>
      </trkpt>
      <trkpt lat="48.86593" lon="2.28984">
        <ele>135</ele>
        <time>2015-02-02T21:17:47.524Z</time>
      </trkpt>
      <trkpt lat="48.86601" lon="2.28985">
        <ele>135.4</ele>
        <time>2015-02-02T21:17:48.526Z</time>
      </trkpt>
      <trkpt lat="48.86609" lon="2.28986">
        <ele>135.9</ele>
        <time>2015-02-02T21:17:49.526Z</time>
      </trkpt>
      <trkpt lat="48.86615" lon="2.28989">
        <ele>135.5</ele>
        <time>2015-02-02T21:17:50.540Z</time>
      </trkpt>
      <trkpt lat="48.86621" lon="2.2899">
        <ele>134.6</ele>
        <time>2015-02-02T21:17:51.560Z</time>
      </trkpt>
      <trkpt lat="48.86626" lon="2.28993">
        <ele>134.8</ele>
        <time>2015-02-02T21:17:53.273Z</time>
      </trkpt>
      <trkpt lat="48.86631" lon="2.28996">
        <ele>135.2</ele>
        <time>2015-02-02T21:17:53.585Z</time>
      </trkpt>
      <trkpt lat="48.86635" lon="2.29001">
        <ele>135.9</ele>
        <time>2015-02-02T21:17:54.597Z</time>
      </trkpt>
      <trkpt lat="48.8664" lon="2.29006">
        <ele>136.9</ele>
        <time>2015-02-02T21:17:55.606Z</time>
      </trkpt>
      <trkpt lat="48.86646" lon="2.29013">
        <ele>136.3</ele>
        <time>2015-02-02T21:17:56.512Z</time>
      </trkpt>
      <trkpt lat="48.86651" lon="2.29019">
        <ele>135.7</ele>
        <time>2015-02-02T21:17:57.580Z</time>
      </trkpt>
      <trkpt lat="48.86657" lon="2.29024">
        <ele>135.1</ele>
        <time>2015-02-02T21:17:58.570Z</time>
      </trkpt>
      <trkpt lat="48.86664" lon="2.29028">
        <ele>134.5</ele>
        <time>2015-02-02T21:17:59.582Z</time>
      </trkpt>
      <trkpt lat="48.8667" lon="2.29031">
        <ele>134.9</ele>
        <time>2015-02-02T21:18:00.584Z</time>
      </trkpt>
      <trkpt lat="48.86674" lon="2.29035">
        <ele>135.1</ele>
        <time>2015-02-02T21:18:01.593Z</time>
      </trkpt>
      <trkpt lat="48.86679" lon="2.29039">
        <ele>135.4</ele>
        <time>2015-02-02T21:18:03.355Z</time>
      </trkpt>
      <trkpt lat="48.86683" lon="2.29043">
        <ele>135.3</ele>
        <time>2015-02-02T21:18:03.611Z</time>
      </trkpt>
      <trkpt lat="48.86688" lon="2.29047">
        <ele>135.4</ele>
        <time>2015-02-02T21:18:04.619Z</time>
      </trkpt>
      <trkpt lat="48.86693" lon="2.2905">
        <ele>135.8</ele>
        <time>2015-02-02T21:18:05.519Z</time>
      </trkpt>
      <trkpt lat="48.86697" lon="2.29053">
        <ele>136.5</ele>
        <time>2015-02-02T21:18:06.524Z</time>
      </trkpt>
      <trkpt lat="48.86703" lon="2.29056">
        <ele>136.9</ele>
        <time>2015-02-02T21:18:07.530Z</time>
      </trkpt>
      <trkpt lat="48.86711" lon="2.29057">
        <ele>138.1</ele>
        <time>2015-02-02T21:18:08.403Z</time>
      </trkpt>
      <trkpt lat="48.86718" lon="2.29061">
        <ele>138.5</ele>
        <time>2015-02-02T21:18:09.557Z</time>
      </trkpt>
      <trkpt lat="48.86727" lon="2.29063">
        <ele>139.4</ele>
        <time>2015-02-02T21:18:10.551Z</time>
      </trkpt>
      <trkpt lat="48.86739" lon="2.29066">
        <ele>137.6</ele>
        <time>2015-02-02T21:18:11.564Z</time>
      </trkpt>
      <trkpt lat="48.86752" lon="2.29068">
        <ele>137.1</ele>
        <time>2015-02-02T21:18:12.575Z</time>
      </trkpt>
      <trkpt lat="48.86752" lon="2.29068">
        <ele>137.1</ele>
        <time>2015-02-02T21:18:13.425Z</time>
      </trkpt>
      <trkpt lat="48.86763" lon="2.29072">
        <ele>138.5</ele>
        <time>2015-02-02T21:18:13.494Z</time>
      </trkpt>
      <trkpt lat="48.86774" lon="2.29077">
        <ele>139.5</ele>
        <time>2015-02-02T21:18:14.493Z</time>
      </trkpt>
      <trkpt lat="48.86809" lon="2.29099">
        <ele>139.9</ele>
        <time>2015-02-02T21:18:15.577Z</time>
      </trkpt>
      <trkpt lat="48.86817" lon="2.291">
        <ele>140.3</ele>
        <time>2015-02-02T21:18:16.588Z</time>
      </trkpt>
      <trkpt lat="48.86824" lon="2.29101">
        <ele>140.6</ele>
        <time>2015-02-02T21:18:17.605Z</time>
      </trkpt>
      <trkpt lat="48.86832" lon="2.29101">
        <ele>140.8</ele>
        <time>2015-02-02T21:18:18.517Z</time>
      </trkpt>
      <trkpt lat="48.86841" lon="2.29103">
        <ele>140.6</ele>
        <time>2015-02-02T21:18:19.518Z</time>
      </trkpt>
      <trkpt lat="48.86847" lon="2.29107">
        <ele>140.4</ele>
        <time>2015-02-02T21:18:20.566Z</time>
      </trkpt>
      <trkpt lat="48.86852" lon="2.2911">
        <ele>140.3</ele>
        <time>2015-02-02T21:18:21.585Z</time>
      </trkpt>
      <trkpt lat="48.86859" lon="2.29114">
        <ele>140.6</ele>
        <time>2015-02-02T21:18:22.578Z</time>
      </trkpt>
      <trkpt lat="48.86865" lon="2.29117">
        <ele>141</ele>
        <time>2015-02-02T21:18:23.589Z</time>
      </trkpt>
      <trkpt lat="48.8687" lon="2.2912">
        <ele>140.5</ele>
        <time>2015-02-02T21:18:24.598Z</time>
      </trkpt>
      <trkpt lat="48.86874" lon="2.29124">
        <ele>140.4</ele>
        <time>2015-02-02T21:18:25.515Z</time>
      </trkpt>
      <trkpt lat="48.86879" lon="2.29128">
        <ele>140.8</ele>
        <time>2015-02-02T21:18:26.513Z</time>
      </trkpt>
      <trkpt lat="48.86884" lon="2.29132">
        <ele>140.8</ele>
        <time>2015-02-02T21:18:27.551Z</time>
      </trkpt>
      <trkpt lat="48.86888" lon="2.29136">
        <ele>140.7</ele>
        <time>2015-02-02T21:18:28.567Z</time>
      </trkpt>
      <trkpt lat="48.86893" lon="2.2914">
        <ele>140.8</ele>
        <time>2015-02-02T21:18:29.575Z</time>
      </trkpt>
      <trkpt lat="48.86898" lon="2.29144">
        <ele>141.1</ele>
        <time>2015-02-02T21:18:30.581Z</time>
      </trkpt>
      <trkpt lat="48.86903" lon="2.29149">
        <ele>141.3</ele>
        <time>2015-02-02T21:18:31.589Z</time>
      </trkpt>
      <trkpt lat="48.86909" lon="2.29154">
        <ele>141.3</ele>
        <time>2015-02-02T21:18:32.514Z</time>
      </trkpt>
      <trkpt lat="48.86916" lon="2.2916">
        <ele>141</ele>
        <time>2015-02-02T21:18:33.551Z</time>
      </trkpt>
      <trkpt lat="48.86921" lon="2.29166">
        <ele>140.8</ele>
        <time>2015-02-02T21:18:34.562Z</time>
      </trkpt>
      <trkpt lat="48.86927" lon="2.29171">
        <ele>140.8</ele>
        <time>2015-02-02T21:18:35.575Z</time>
      </trkpt>
      <trkpt lat="48.86932" lon="2.29175">
        <ele>140.7</ele>
        <time>2015-02-02T21:18:36.594Z</time>
      </trkpt>
      <trkpt lat="48.86939" lon="2.29179">
        <ele>140.9</ele>
        <time>2015-02-02T21:18:37.509Z</time>
      </trkpt>
      <trkpt lat="48.86948" lon="2.29181">
        <ele>141.4</ele>
        <time>2015-02-02T21:18:38.523Z</time>
      </trkpt>
      <trkpt lat="48.86955" lon="2.29185">
        <ele>141.1</ele>
        <time>2015-02-02T21:18:39.560Z</time>
      </trkpt>
      <trkpt lat="48.86963" lon="2.29189">
        <ele>141.6</ele>
        <time>2015-02-02T21:18:40.654Z</time>
      </trkpt>
      <trkpt lat="48.86971" lon="2.29194">
        <ele>141.6</ele>
        <time>2015-02-02T21:18:41.516Z</time>
      </trkpt>
      <trkpt lat="48.86979" lon="2.29198">
        <ele>141.6</ele>
        <time>2015-02-02T21:18:42.524Z</time>
      </trkpt>
      <trkpt lat="48.86987" lon="2.29203">
        <ele>142.3</ele>
        <time>2015-02-02T21:18:43.537Z</time>
      </trkpt>
      <trkpt lat="48.86996" lon="2.29207">
        <ele>142.2</ele>
        <time>2015-02-02T21:18:44.568Z</time>
      </trkpt>
      <trkpt lat="48.87004" lon="2.29212">
        <ele>142.2</ele>
        <time>2015-02-02T21:18:45.574Z</time>
      </trkpt>
      <trkpt lat="48.87011" lon="2.29218">
        <ele>141.4</ele>
        <time>2015-02-02T21:18:46.601Z</time>
      </trkpt>
      <trkpt lat="48.87018" lon="2.29223">
        <ele>141.6</ele>
        <time>2015-02-02T21:18:47.513Z</time>
      </trkpt>
      <trkpt lat="48.87024" lon="2.29227">
        <ele>141.3</ele>
        <time>2015-02-02T21:18:48.515Z</time>
      </trkpt>
      <trkpt lat="48.8703" lon="2.29233">
        <ele>141.2</ele>
        <time>2015-02-02T21:18:49.532Z</time>
      </trkpt>
      <trkpt lat="48.87038" lon="2.29238">
        <ele>141.4</ele>
        <time>2015-02-02T21:18:50.546Z</time>
      </trkpt>
      <trkpt lat="48.87045" lon="2.29243">
        <ele>141.6</ele>
        <time>2015-02-02T21:18:51.591Z</time>
      </trkpt>
      <trkpt lat="48.87051" lon="2.29247">
        <ele>141.8</ele>
        <time>2015-02-02T21:18:52.601Z</time>
      </trkpt>
      <trkpt lat="48.87056" lon="2.29252">
        <ele>141.6</ele>
        <time>2015-02-02T21:18:53.611Z</time>
      </trkpt>
      <trkpt lat="48.87063" lon="2.29256">
        <ele>141.6</ele>
        <time>2015-02-02T21:18:54.526Z</time>
      </trkpt>
      <trkpt lat="48.8707" lon="2.29261">
        <ele>142</ele>
        <time>2015-02-02T21:18:55.575Z</time>
      </trkpt>
      <trkpt lat="48.87076" lon="2.29265">
        <ele>141.1</ele>
        <time>2015-02-02T21:18:56.598Z</time>
      </trkpt>
      <trkpt lat="48.87083" lon="2.2927">
        <ele>140.2</ele>
        <time>2015-02-02T21:18:57.646Z</time>
      </trkpt>
      <trkpt lat="48.8709" lon="2.29274">
        <ele>140.3</ele>
        <time>2015-02-02T21:18:58.513Z</time>
      </trkpt>
      <trkpt lat="48.87096" lon="2.29278">
        <ele>139.7</ele>
        <time>2015-02-02T21:18:59.527Z</time>
      </trkpt>
      <trkpt lat="48.87102" lon="2.29282">
        <ele>139.9</ele>
        <time>2015-02-02T21:19:00.559Z</time>
      </trkpt>
      <trkpt lat="48.87108" lon="2.29287">
        <ele>140.3</ele>
        <time>2015-02-02T21:19:01.569Z</time>
      </trkpt>
      <trkpt lat="48.87113" lon="2.29291">
        <ele>140.1</ele>
        <time>2015-02-02T21:19:02.581Z</time>
      </trkpt>
      <trkpt lat="48.87119" lon="2.29296">
        <ele>139.8</ele>
        <time>2015-02-02T21:19:03.639Z</time>
      </trkpt>
      <trkpt lat="48.87125" lon="2.293">
        <ele>139.3</ele>
        <time>2015-02-02T21:19:04.532Z</time>
      </trkpt>
      <trkpt lat="48.87131" lon="2.29305">
        <ele>138.9</ele>
        <time>2015-02-02T21:19:05.541Z</time>
      </trkpt>
      <trkpt lat="48.87138" lon="2.2931">
        <ele>138.5</ele>
        <time>2015-02-02T21:19:06.563Z</time>
      </trkpt>
      <trkpt lat="48.87144" lon="2.29315">
        <ele>137.8</ele>
        <time>2015-02-02T21:19:07.577Z</time>
      </trkpt>
      <trkpt lat="48.87148" lon="2.29319">
        <ele>137.8</ele>
        <time>2015-02-02T21:19:08.598Z</time>
      </trkpt>
      <trkpt lat="48.87154" lon="2.29328">
        <ele>138.5</ele>
        <time>2015-02-02T21:19:10.549Z</time>
      </trkpt>
      <trkpt lat="48.87158" lon="2.29332">
        <ele>139.2</ele>
        <time>2015-02-02T21:19:11.555Z</time>
      </trkpt>
      <trkpt lat="48.87162" lon="2.29336">
        <ele>139.9</ele>
        <time>2015-02-02T21:19:12.581Z</time>
      </trkpt>
      <trkpt lat="48.87168" lon="2.2934">
        <ele>140.7</ele>
        <time>2015-02-02T21:19:13.594Z</time>
      </trkpt>
      <trkpt lat="48.87173" lon="2.29343">
        <ele>140.7</ele>
        <time>2015-02-02T21:19:14.507Z</time>
      </trkpt>
      <trkpt lat="48.87179" lon="2.29346">
        <ele>140.5</ele>
        <time>2015-02-02T21:19:15.614Z</time>
      </trkpt>
      <trkpt lat="48.87183" lon="2.29349">
        <ele>141.4</ele>
        <time>2015-02-02T21:19:16.527Z</time>
      </trkpt>
      <trkpt lat="48.87188" lon="2.29351">
        <ele>141.7</ele>
        <time>2015-02-02T21:19:17.561Z</time>
      </trkpt>
      <trkpt lat="48.87192" lon="2.29354">
        <ele>141.5</ele>
        <time>2015-02-02T21:19:18.513Z</time>
      </trkpt>
      <trkpt lat="48.87196" lon="2.29357">
        <ele>141.8</ele>
        <time>2015-02-02T21:19:19.518Z</time>
      </trkpt>
      <trkpt lat="48.87201" lon="2.2936">
        <ele>142</ele>
        <time>2015-02-02T21:19:20.559Z</time>
      </trkpt>
      <trkpt lat="48.87205" lon="2.29364">
        <ele>142.5</ele>
        <time>2015-02-02T21:19:21.646Z</time>
      </trkpt>
      <trkpt lat="48.8721" lon="2.29367">
        <ele>142.5</ele>
        <time>2015-02-02T21:19:22.528Z</time>
      </trkpt>
      <trkpt lat="48.87215" lon="2.2937">
        <ele>142.1</ele>
        <time>2015-02-02T21:19:23.550Z</time>
      </trkpt>
      <trkpt lat="48.8722" lon="2.29373">
        <ele>142.2</ele>
        <time>2015-02-02T21:19:24.578Z</time>
      </trkpt>
      <trkpt lat="48.87224" lon="2.29375">
        <ele>142.6</ele>
        <time>2015-02-02T21:19:25.674Z</time>
      </trkpt>
      <trkpt lat="48.87227" lon="2.29379">
        <ele>142.5</ele>
        <time>2015-02-02T21:19:26.526Z</time>
      </trkpt>
      <trkpt lat="48.87232" lon="2.29382">
        <ele>142.4</ele>
        <time>2015-02-02T21:19:27.555Z</time>
      </trkpt>
      <trkpt lat="48.87238" lon="2.29387">
        <ele>141.9</ele>
        <time>2015-02-02T21:19:29.514Z</time>
      </trkpt>
      <trkpt lat="48.8724" lon="2.29391">
        <ele>141</ele>
        <time>2015-02-02T21:19:30.527Z</time>
      </trkpt>
      <trkpt lat="48.87244" lon="2.294">
        <ele>137.7</ele>
        <time>2015-02-02T21:19:32.487Z</time>
      </trkpt>
      <trkpt lat="48.87245" lon="2.29406">
        <ele>137.3</ele>
        <time>2015-02-02T21:19:33.562Z</time>
      </trkpt>
      <trkpt lat="48.87239" lon="2.29416">
        <ele>136.5</ele>
        <time>2015-02-02T21:20:32.525Z</time>
      </trkpt>
      <trkpt lat="48.87231" lon="2.29404">
        <ele>139.7</ele>
        <time>2015-02-02T21:20:33.573Z</time>
      </trkpt>
      <trkpt lat="48.87232" lon="2.29417">
        <ele>138.7</ele>
        <time>2015-02-02T21:20:35.504Z</time>
      </trkpt>
      <trkpt lat="48.87232" lon="2.29426">
        <ele>137.9</ele>
        <time>2015-02-02T21:20:36.518Z</time>
      </trkpt>
      <trkpt lat="48.87233" lon="2.29435">
        <ele>138</ele>
        <time>2015-02-02T21:20:37.540Z</time>
      </trkpt>
      <trkpt lat="48.87234" lon="2.29444">
        <ele>137.8</ele>
        <time>2015-02-02T21:20:38.550Z</time>
      </trkpt>
      <trkpt lat="48.87234" lon="2.29454">
        <ele>137.2</ele>
        <time>2015-02-02T21:20:39.562Z</time>
      </trkpt>
      <trkpt lat="48.87234" lon="2.29461">
        <ele>137</ele>
        <time>2015-02-02T21:20:40.578Z</time>
      </trkpt>
      <trkpt lat="48.87232" lon="2.2947">
        <ele>135.9</ele>
        <time>2015-02-02T21:20:41.582Z</time>
      </trkpt>
      <trkpt lat="48.87231" lon="2.29477">
        <ele>135.5</ele>
        <time>2015-02-02T21:20:42.487Z</time>
      </trkpt>
      <trkpt lat="48.87229" lon="2.29491">
        <ele>135</ele>
        <time>2015-02-02T21:20:44.508Z</time>
      </trkpt>
      <trkpt lat="48.87229" lon="2.29498">
        <ele>134.4</ele>
        <time>2015-02-02T21:20:45.649Z</time>
      </trkpt>
      <trkpt lat="48.87229" lon="2.29506">
        <ele>133.7</ele>
        <time>2015-02-02T21:20:46.516Z</time>
      </trkpt>
      <trkpt lat="48.87228" lon="2.29515">
        <ele>133.7</ele>
        <time>2015-02-02T21:20:47.519Z</time>
      </trkpt>
      <trkpt lat="48.87227" lon="2.29523">
        <ele>133.9</ele>
        <time>2015-02-02T21:20:48.541Z</time>
      </trkpt>
      <trkpt lat="48.87227" lon="2.2953">
        <ele>133.7</ele>
        <time>2015-02-02T21:20:49.542Z</time>
      </trkpt>
      <trkpt lat="48.87228" lon="2.29542">
        <ele>132.1</ele>
        <time>2015-02-02T21:20:51.560Z</time>
      </trkpt>
      <trkpt lat="48.87228" lon="2.29547">
        <ele>131.3</ele>
        <time>2015-02-02T21:20:52.575Z</time>
      </trkpt>
      <trkpt lat="48.87228" lon="2.29558">
        <ele>130.1</ele>
        <time>2015-02-02T21:20:54.508Z</time>
      </trkpt>
      <trkpt lat="48.87228" lon="2.29563">
        <ele>129.4</ele>
        <time>2015-02-02T21:20:55.524Z</time>
      </trkpt>
      <trkpt lat="48.87229" lon="2.29574">
        <ele>129.1</ele>
        <time>2015-02-02T21:20:57.592Z</time>
      </trkpt>
      <trkpt lat="48.87229" lon="2.29581">
        <ele>128.8</ele>
        <time>2015-02-02T21:20:58.611Z</time>
      </trkpt>
      <trkpt lat="48.87229" lon="2.29587">
        <ele>128.7</ele>
        <time>2015-02-02T21:20:59.525Z</time>
      </trkpt>
      <trkpt lat="48.87232" lon="2.29594">
        <ele>126.9</ele>
        <time>2015-02-02T21:21:00.578Z</time>
      </trkpt>
      <trkpt lat="48.87234" lon="2.29602">
        <ele>126.5</ele>
        <time>2015-02-02T21:21:01.595Z</time>
      </trkpt>
      <trkpt lat="48.87236" lon="2.29608">
        <ele>126.6</ele>
        <time>2015-02-02T21:21:02.611Z</time>
      </trkpt>
      <trkpt lat="48.87238" lon="2.29615">
        <ele>126.8</ele>
        <time>2015-02-02T21:21:03.630Z</time>
      </trkpt>
      <trkpt lat="48.8724" lon="2.29622">
        <ele>126.7</ele>
        <time>2015-02-02T21:21:04.508Z</time>
      </trkpt>
      <trkpt lat="48.87243" lon="2.29628">
        <ele>126.4</ele>
        <time>2015-02-02T21:21:05.538Z</time>
      </trkpt>
      <trkpt lat="48.87247" lon="2.29633">
        <ele>126.2</ele>
        <time>2015-02-02T21:21:06.532Z</time>
      </trkpt>
      <trkpt lat="48.87253" lon="2.29639">
        <ele>124.8</ele>
        <time>2015-02-02T21:21:08.541Z</time>
      </trkpt>
      <trkpt lat="48.87257" lon="2.29641">
        <ele>123.1</ele>
        <time>2015-02-02T21:21:09.645Z</time>
      </trkpt>
      <trkpt lat="48.87262" lon="2.29645">
        <ele>121.6</ele>
        <time>2015-02-02T21:21:10.615Z</time>
      </trkpt>
      <trkpt lat="48.87265" lon="2.29648">
        <ele>120.9</ele>
        <time>2015-02-02T21:21:11.517Z</time>
      </trkpt>
      <trkpt lat="48.87272" lon="2.29653">
        <ele>119.2</ele>
        <time>2015-02-02T21:21:13.548Z</time>
      </trkpt>
      <trkpt lat="48.87274" lon="2.29658">
        <ele>118.1</ele>
        <time>2015-02-02T21:21:14.588Z</time>
      </trkpt>
      <trkpt lat="48.8728" lon="2.29666">
        <ele>116.8</ele>
        <time>2015-02-02T21:21:16.504Z</time>
      </trkpt>
      <trkpt lat="48.87284" lon="2.29669">
        <ele>116.3</ele>
        <time>2015-02-02T21:21:17.541Z</time>
      </trkpt>
      <trkpt lat="48.87289" lon="2.29676">
        <ele>115.4</ele>
        <time>2015-02-02T21:21:20.601Z</time>
      </trkpt>
      <trkpt lat="48.87291" lon="2.2968">
        <ele>115</ele>
        <time>2015-02-02T21:21:21.607Z</time>
      </trkpt>
      <trkpt lat="48.87296" lon="2.29689">
        <ele>114.1</ele>
        <time>2015-02-02T21:21:23.575Z</time>
      </trkpt>
      <trkpt lat="48.87298" lon="2.29693">
        <ele>113.2</ele>
        <time>2015-02-02T21:21:24.576Z</time>
      </trkpt>
      <trkpt lat="48.87301" lon="2.29703">
        <ele>108.2</ele>
        <time>2015-02-02T21:22:11.509Z</time>
      </trkpt>
      <trkpt lat="48.87291" lon="2.29717">
        <ele>103.1</ele>
        <time>2015-02-02T21:22:12.507Z</time>
      </trkpt>
      <trkpt lat="48.87287" lon="2.29726">
        <ele>102.2</ele>
        <time>2015-02-02T21:22:15.565Z</time>
      </trkpt>
      <trkpt lat="48.87286" lon="2.29729">
        <ele>102.2</ele>
        <time>2015-02-02T21:22:16.585Z</time>
      </trkpt>
      <trkpt lat="48.87282" lon="2.29738">
        <ele>102.4</ele>
        <time>2015-02-02T21:22:19.530Z</time>
      </trkpt>
      <trkpt lat="48.8728" lon="2.29742">
        <ele>102.6</ele>
        <time>2015-02-02T21:22:20.561Z</time>
      </trkpt>
      <trkpt lat="48.87276" lon="2.2975">
        <ele>103.1</ele>
        <time>2015-02-02T21:22:22.510Z</time>
      </trkpt>
      <trkpt lat="48.87273" lon="2.29754">
        <ele>103.3</ele>
        <time>2015-02-02T21:22:23.539Z</time>
      </trkpt>
      <trkpt lat="48.87269" lon="2.29763">
        <ele>103.5</ele>
        <time>2015-02-02T21:22:25.555Z</time>
      </trkpt>
      <trkpt lat="48.87267" lon="2.29769">
        <ele>103.5</ele>
        <time>2015-02-02T21:22:26.556Z</time>
      </trkpt>
      <trkpt lat="48.87265" lon="2.29775">
        <ele>103.5</ele>
        <time>2015-02-02T21:22:27.602Z</time>
      </trkpt>
      <trkpt lat="48.87263" lon="2.29782">
        <ele>103.5</ele>
        <time>2015-02-02T21:22:28.505Z</time>
      </trkpt>
      <trkpt lat="48.87259" lon="2.29793">
        <ele>103.7</ele>
        <time>2015-02-02T21:22:30.521Z</time>
      </trkpt>
      <trkpt lat="48.87257" lon="2.29799">
        <ele>103.9</ele>
        <time>2015-02-02T21:22:31.581Z</time>
      </trkpt>
      <trkpt lat="48.87255" lon="2.29811">
        <ele>104</ele>
        <time>2015-02-02T21:22:33.620Z</time>
      </trkpt>
      <trkpt lat="48.87254" lon="2.29816">
        <ele>103.8</ele>
        <time>2015-02-02T21:22:34.525Z</time>
      </trkpt>
      <trkpt lat="48.87251" lon="2.29828">
        <ele>103.2</ele>
        <time>2015-02-02T21:22:37.566Z</time>
      </trkpt>
      <trkpt lat="48.87249" lon="2.29834">
        <ele>103</ele>
        <time>2015-02-02T21:22:38.521Z</time>
      </trkpt>
      <trkpt lat="48.87245" lon="2.29845">
        <ele>103.2</ele>
        <time>2015-02-02T21:22:40.533Z</time>
      </trkpt>
      <trkpt lat="48.87243" lon="2.29851">
        <ele>103.4</ele>
        <time>2015-02-02T21:22:41.596Z</time>
      </trkpt>
      <trkpt lat="48.8724" lon="2.29858">
        <ele>103.6</ele>
        <time>2015-02-02T21:22:42.512Z</time>
      </trkpt>
      <trkpt lat="48.87238" lon="2.29863">
        <ele>103.7</ele>
        <time>2015-02-02T21:22:43.522Z</time>
      </trkpt>
      <trkpt lat="48.87232" lon="2.29874">
        <ele>104</ele>
        <time>2015-02-02T21:22:45.588Z</time>
      </trkpt>
      <trkpt lat="48.8723" lon="2.29879">
        <ele>104.1</ele>
        <time>2015-02-02T21:22:46.514Z</time>
      </trkpt>
      <trkpt lat="48.87227" lon="2.29891">
        <ele>104.2</ele>
        <time>2015-02-02T21:22:48.595Z</time>
      </trkpt>
      <trkpt lat="48.87224" lon="2.29897">
        <ele>104.2</ele>
        <time>2015-02-02T21:22:49.608Z</time>
      </trkpt>
      <trkpt lat="48.87219" lon="2.29907">
        <ele>104.1</ele>
        <time>2015-02-02T21:22:51.544Z</time>
      </trkpt>
      <trkpt lat="48.87217" lon="2.29913">
        <ele>103.8</ele>
        <time>2015-02-02T21:22:52.539Z</time>
      </trkpt>
      <trkpt lat="48.87215" lon="2.29926">
        <ele>103</ele>
        <time>2015-02-02T21:22:55.517Z</time>
      </trkpt>
      <trkpt lat="48.87214" lon="2.29931">
        <ele>102.9</ele>
        <time>2015-02-02T21:22:56.597Z</time>
      </trkpt>
      <trkpt lat="48.8721" lon="2.29941">
        <ele>102.9</ele>
        <time>2015-02-02T21:22:58.507Z</time>
      </trkpt>
      <trkpt lat="48.87207" lon="2.29948">
        <ele>103</ele>
        <time>2015-02-02T21:22:59.501Z</time>
      </trkpt>
      <trkpt lat="48.87205" lon="2.29954">
        <ele>103.1</ele>
        <time>2015-02-02T21:23:00.535Z</time>
      </trkpt>
      <trkpt lat="48.87202" lon="2.2996">
        <ele>103.2</ele>
        <time>2015-02-02T21:23:01.556Z</time>
      </trkpt>
      <trkpt lat="48.87199" lon="2.29967">
        <ele>103.2</ele>
        <time>2015-02-02T21:23:02.580Z</time>
      </trkpt>
      <trkpt lat="48.87197" lon="2.29974">
        <ele>103.2</ele>
        <time>2015-02-02T21:23:03.638Z</time>
      </trkpt>
      <trkpt lat="48.87194" lon="2.29981">
        <ele>103.1</ele>
        <time>2015-02-02T21:23:04.502Z</time>
      </trkpt>
      <trkpt lat="48.87192" lon="2.29988">
        <ele>103.3</ele>
        <time>2015-02-02T21:23:05.506Z</time>
      </trkpt>
      <trkpt lat="48.87189" lon="2.29995">
        <ele>103.4</ele>
        <time>2015-02-02T21:23:06.563Z</time>
      </trkpt>
      <trkpt lat="48.87185" lon="2.30002">
        <ele>103.5</ele>
        <time>2015-02-02T21:23:07.569Z</time>
      </trkpt>
      <trkpt lat="48.87182" lon="2.30009">
        <ele>103.5</ele>
        <time>2015-02-02T21:23:08.673Z</time>
      </trkpt>
      <trkpt lat="48.8718" lon="2.30015">
        <ele>103.5</ele>
        <time>2015-02-02T21:23:09.556Z</time>
      </trkpt>
      <trkpt lat="48.87178" lon="2.30025">
        <ele>103.3</ele>
        <time>2015-02-02T21:23:11.666Z</time>
      </trkpt>
      <trkpt lat="48.87177" lon="2.30028">
        <ele>102.9</ele>
        <time>2015-02-02T21:23:12.526Z</time>
      </trkpt>
      <trkpt lat="48.87179" lon="2.30039">
        <ele>99.9</ele>
        <time>2015-02-02T21:23:18.594Z</time>
      </trkpt>
      <trkpt lat="48.8718" lon="2.30042">
        <ele>99.3</ele>
        <time>2015-02-02T21:23:19.521Z</time>
      </trkpt>
      <trkpt lat="48.87176" lon="2.30053">
        <ele>99</ele>
        <time>2015-02-02T21:23:22.529Z</time>
      </trkpt>
      <trkpt lat="48.87176" lon="2.30057">
        <ele>98.9</ele>
        <time>2015-02-02T21:23:23.544Z</time>
      </trkpt>
      <trkpt lat="48.87175" lon="2.3007">
        <ele>98.5</ele>
        <time>2015-02-02T21:23:26.607Z</time>
      </trkpt>
      <trkpt lat="48.87176" lon="2.30074">
        <ele>98.5</ele>
        <time>2015-02-02T21:23:27.530Z</time>
      </trkpt>
      <trkpt lat="48.87175" lon="2.30081">
        <ele>99</ele>
        <time>2015-02-02T21:23:53.538Z</time>
      </trkpt>
      <trkpt lat="48.87175" lon="2.30102">
        <ele>97</ele>
        <time>2015-02-02T21:23:54.550Z</time>
      </trkpt>
      <trkpt lat="48.87172" lon="2.30112">
        <ele>96.6</ele>
        <time>2015-02-02T21:23:57.560Z</time>
      </trkpt>
      <trkpt lat="48.87171" lon="2.30116">
        <ele>96.7</ele>
        <time>2015-02-02T21:23:58.571Z</time>
      </trkpt>
      <trkpt lat="48.87168" lon="2.30124">
        <ele>96.6</ele>
        <time>2015-02-02T21:24:01.540Z</time>
      </trkpt>
      <trkpt lat="48.87166" lon="2.30127">
        <ele>96.6</ele>
        <time>2015-02-02T21:24:02.564Z</time>
      </trkpt>
      <trkpt lat="48.8716" lon="2.30133">
        <ele>95.7</ele>
        <time>2015-02-02T21:24:04.606Z</time>
      </trkpt>
      <trkpt lat="48.87158" lon="2.30137">
        <ele>95.9</ele>
        <time>2015-02-02T21:24:05.585Z</time>
      </trkpt>
      <trkpt lat="48.87155" lon="2.30148">
        <ele>95.6</ele>
        <time>2015-02-02T21:24:07.501Z</time>
      </trkpt>
      <trkpt lat="48.87153" lon="2.30154">
        <ele>95.5</ele>
        <time>2015-02-02T21:24:08.584Z</time>
      </trkpt>
      <trkpt lat="48.87147" lon="2.30165">
        <ele>95.5</ele>
        <time>2015-02-02T21:24:10.510Z</time>
      </trkpt>
      <trkpt lat="48.87144" lon="2.30171">
        <ele>95.4</ele>
        <time>2015-02-02T21:24:11.599Z</time>
      </trkpt>
      <trkpt lat="48.87142" lon="2.30178">
        <ele>95.6</ele>
        <time>2015-02-02T21:24:12.511Z</time>
      </trkpt>
      <trkpt lat="48.87139" lon="2.30185">
        <ele>95.6</ele>
        <time>2015-02-02T21:24:13.515Z</time>
      </trkpt>
      <trkpt lat="48.87138" lon="2.30192">
        <ele>95.5</ele>
        <time>2015-02-02T21:24:14.539Z</time>
      </trkpt>
      <trkpt lat="48.87136" lon="2.30199">
        <ele>95.4</ele>
        <time>2015-02-02T21:24:15.569Z</time>
      </trkpt>
      <trkpt lat="48.87134" lon="2.30205">
        <ele>95.3</ele>
        <time>2015-02-02T21:24:16.574Z</time>
      </trkpt>
      <trkpt lat="48.87131" lon="2.30213">
        <ele>95.2</ele>
        <time>2015-02-02T21:24:17.619Z</time>
      </trkpt>
      <trkpt lat="48.87129" lon="2.3022">
        <ele>94.4</ele>
        <time>2015-02-02T21:24:18.505Z</time>
      </trkpt>
      <trkpt lat="48.87128" lon="2.30227">
        <ele>93.9</ele>
        <time>2015-02-02T21:24:19.505Z</time>
      </trkpt>
      <trkpt lat="48.87126" lon="2.30235">
        <ele>93.9</ele>
        <time>2015-02-02T21:24:20.517Z</time>
      </trkpt>
      <trkpt lat="48.87125" lon="2.30242">
        <ele>94.4</ele>
        <time>2015-02-02T21:24:21.543Z</time>
      </trkpt>
      <trkpt lat="48.87121" lon="2.30253">
        <ele>94.8</ele>
        <time>2015-02-02T21:24:23.482Z</time>
      </trkpt>
      <trkpt lat="48.87121" lon="2.30258">
        <ele>94.6</ele>
        <time>2015-02-02T21:24:24.503Z</time>
      </trkpt>
      <trkpt lat="48.87119" lon="2.30268">
        <ele>94.9</ele>
        <time>2015-02-02T21:24:26.601Z</time>
      </trkpt>
      <trkpt lat="48.87117" lon="2.30272">
        <ele>95.3</ele>
        <time>2015-02-02T21:24:27.632Z</time>
      </trkpt>
      <trkpt lat="48.87112" lon="2.3028">
        <ele>95.1</ele>
        <time>2015-02-02T21:24:29.512Z</time>
      </trkpt>
      <trkpt lat="48.87109" lon="2.30287">
        <ele>95.3</ele>
        <time>2015-02-02T21:24:30.520Z</time>
      </trkpt>
      <trkpt lat="48.87106" lon="2.30294">
        <ele>95.4</ele>
        <time>2015-02-02T21:24:31.541Z</time>
      </trkpt>
      <trkpt lat="48.87104" lon="2.30301">
        <ele>95.7</ele>
        <time>2015-02-02T21:24:32.555Z</time>
      </trkpt>
      <trkpt lat="48.87101" lon="2.30308">
        <ele>95.8</ele>
        <time>2015-02-02T21:24:33.564Z</time>
      </trkpt>
      <trkpt lat="48.87098" lon="2.30315">
        <ele>95.9</ele>
        <time>2015-02-02T21:24:34.571Z</time>
      </trkpt>
      <trkpt lat="48.87094" lon="2.30322">
        <ele>95.7</ele>
        <time>2015-02-02T21:24:35.575Z</time>
      </trkpt>
      <trkpt lat="48.8709" lon="2.30328">
        <ele>95.7</ele>
        <time>2015-02-02T21:24:36.603Z</time>
      </trkpt>
      <trkpt lat="48.87089" lon="2.30338">
        <ele>95.5</ele>
        <time>2015-02-02T21:24:38.533Z</time>
      </trkpt>
      <trkpt lat="48.87089" lon="2.30344">
        <ele>95.5</ele>
        <time>2015-02-02T21:24:39.555Z</time>
      </trkpt>
      <trkpt lat="48.87086" lon="2.30354">
        <ele>95.6</ele>
        <time>2015-02-02T21:24:41.597Z</time>
      </trkpt>
      <trkpt lat="48.87084" lon="2.30358">
        <ele>95.8</ele>
        <time>2015-02-02T21:24:42.606Z</time>
      </trkpt>
      <trkpt lat="48.87077" lon="2.30366">
        <ele>95.4</ele>
        <time>2015-02-02T21:24:45.568Z</time>
      </trkpt>
      <trkpt lat="48.87075" lon="2.30368">
        <ele>95.4</ele>
        <time>2015-02-02T21:24:46.483Z</time>
      </trkpt>
      <trkpt lat="48.87069" lon="2.30379">
        <ele>95</ele>
        <time>2015-02-02T21:24:48.487Z</time>
      </trkpt>
      <trkpt lat="48.87068" lon="2.30385">
        <ele>94.8</ele>
        <time>2015-02-02T21:24:49.500Z</time>
      </trkpt>
      <trkpt lat="48.87067" lon="2.30393">
        <ele>94.6</ele>
        <time>2015-02-02T21:24:50.568Z</time>
      </trkpt>
      <trkpt lat="48.87067" lon="2.30399">
        <ele>94.3</ele>
        <time>2015-02-02T21:24:51.581Z</time>
      </trkpt>
      <trkpt lat="48.87065" lon="2.30407">
        <ele>93.7</ele>
        <time>2015-02-02T21:24:52.592Z</time>
      </trkpt>
      <trkpt lat="48.87062" lon="2.30414">
        <ele>93.2</ele>
        <time>2015-02-02T21:24:53.481Z</time>
      </trkpt>
      <trkpt lat="48.8706" lon="2.30426">
        <ele>92.7</ele>
        <time>2015-02-02T21:24:55.585Z</time>
      </trkpt>
      <trkpt lat="48.8706" lon="2.30432">
        <ele>92.6</ele>
        <time>2015-02-02T21:24:56.595Z</time>
      </trkpt>
      <trkpt lat="48.87059" lon="2.30443">
        <ele>92.6</ele>
        <time>2015-02-02T21:24:58.570Z</time>
      </trkpt>
      <trkpt lat="48.87059" lon="2.30448">
        <ele>92.6</ele>
        <time>2015-02-02T21:24:59.586Z</time>
      </trkpt>
      <trkpt lat="48.87054" lon="2.30459">
        <ele>92.9</ele>
        <time>2015-02-02T21:25:01.526Z</time>
      </trkpt>
      <trkpt lat="48.87052" lon="2.30464">
        <ele>93</ele>
        <time>2015-02-02T21:25:02.540Z</time>
      </trkpt>
      <trkpt lat="48.8705" lon="2.30471">
        <ele>93.1</ele>
        <time>2015-02-02T21:25:03.596Z</time>
      </trkpt>
      <trkpt lat="48.87047" lon="2.30477">
        <ele>93.1</ele>
        <time>2015-02-02T21:25:04.613Z</time>
      </trkpt>
      <trkpt lat="48.87043" lon="2.30482">
        <ele>93.1</ele>
        <time>2015-02-02T21:25:05.482Z</time>
      </trkpt>
      <trkpt lat="48.87041" lon="2.30489">
        <ele>93.1</ele>
        <time>2015-02-02T21:25:06.502Z</time>
      </trkpt>
      <trkpt lat="48.87039" lon="2.30502">
        <ele>93.5</ele>
        <time>2015-02-02T21:25:09.565Z</time>
      </trkpt>
      <trkpt lat="48.8704" lon="2.30505">
        <ele>93.8</ele>
        <time>2015-02-02T21:25:10.561Z</time>
      </trkpt>
      <trkpt lat="48.8704" lon="2.30508">
        <ele>93.9</ele>
        <time>2015-02-02T21:25:16.560Z</time>
      </trkpt>
      <trkpt lat="48.87042" lon="2.30524">
        <ele>93</ele>
        <time>2015-02-02T21:25:17.673Z</time>
      </trkpt>
      <trkpt lat="48.87041" lon="2.30534">
        <ele>92.2</ele>
        <time>2015-02-02T21:25:19.534Z</time>
      </trkpt>
      <trkpt lat="48.87038" lon="2.30539">
        <ele>92.1</ele>
        <time>2015-02-02T21:25:20.550Z</time>
      </trkpt>
      <trkpt lat="48.87035" lon="2.30551">
        <ele>91.8</ele>
        <time>2015-02-02T21:25:22.503Z</time>
      </trkpt>
      <trkpt lat="48.87033" lon="2.30557">
        <ele>91.7</ele>
        <time>2015-02-02T21:25:23.604Z</time>
      </trkpt>
      <trkpt lat="48.87029" lon="2.30563">
        <ele>91.4</ele>
        <time>2015-02-02T21:25:24.504Z</time>
      </trkpt>
      <trkpt lat="48.87026" lon="2.3057">
        <ele>91.7</ele>
        <time>2015-02-02T21:25:25.507Z</time>
      </trkpt>
      <trkpt lat="48.87023" lon="2.30577">
        <ele>91.8</ele>
        <time>2015-02-02T21:25:26.567Z</time>
      </trkpt>
      <trkpt lat="48.87019" lon="2.30583">
        <ele>91.8</ele>
        <time>2015-02-02T21:25:27.586Z</time>
      </trkpt>
      <trkpt lat="48.87015" lon="2.3059">
        <ele>91.7</ele>
        <time>2015-02-02T21:25:28.504Z</time>
      </trkpt>
      <trkpt lat="48.87012" lon="2.30597">
        <ele>91.5</ele>
        <time>2015-02-02T21:25:29.504Z</time>
      </trkpt>
      <trkpt lat="48.8701" lon="2.30603">
        <ele>91.4</ele>
        <time>2015-02-02T21:25:30.520Z</time>
      </trkpt>
      <trkpt lat="48.87008" lon="2.3061">
        <ele>91.3</ele>
        <time>2015-02-02T21:25:31.532Z</time>
      </trkpt>
      <trkpt lat="48.87006" lon="2.30622">
        <ele>90.8</ele>
        <time>2015-02-02T21:25:33.543Z</time>
      </trkpt>
      <trkpt lat="48.87004" lon="2.30629">
        <ele>90.6</ele>
        <time>2015-02-02T21:25:34.570Z</time>
      </trkpt>
      <trkpt lat="48.87001" lon="2.30641">
        <ele>90.3</ele>
        <time>2015-02-02T21:25:36.509Z</time>
      </trkpt>
      <trkpt lat="48.86999" lon="2.30646">
        <ele>90.2</ele>
        <time>2015-02-02T21:25:37.523Z</time>
      </trkpt>
      <trkpt lat="48.86997" lon="2.30655">
        <ele>89.7</ele>
        <time>2015-02-02T21:25:39.564Z</time>
      </trkpt>
      <trkpt lat="48.86996" lon="2.30659">
        <ele>89.1</ele>
        <time>2015-02-02T21:25:40.605Z</time>
      </trkpt>
      <trkpt lat="48.86995" lon="2.3067">
        <ele>89</ele>
        <time>2015-02-02T21:25:43.527Z</time>
      </trkpt>
      <trkpt lat="48.86994" lon="2.30674">
        <ele>89.4</ele>
        <time>2015-02-02T21:25:44.548Z</time>
      </trkpt>
      <trkpt lat="48.8699" lon="2.30682">
        <ele>89.1</ele>
        <time>2015-02-02T21:25:47.603Z</time>
      </trkpt>
      <trkpt lat="48.86988" lon="2.30686">
        <ele>88.8</ele>
        <time>2015-02-02T21:25:48.528Z</time>
      </trkpt>
      <trkpt lat="48.86985" lon="2.30695">
        <ele>89.1</ele>
        <time>2015-02-02T21:25:50.558Z</time>
      </trkpt>
      <trkpt lat="48.86982" lon="2.307">
        <ele>89</ele>
        <time>2015-02-02T21:25:51.574Z</time>
      </trkpt>
      <trkpt lat="48.86977" lon="2.3071">
        <ele>88.5</ele>
        <time>2015-02-02T21:25:53.524Z</time>
      </trkpt>
      <trkpt lat="48.86973" lon="2.30714">
        <ele>88.2</ele>
        <time>2015-02-02T21:25:54.531Z</time>
      </trkpt>
      <trkpt lat="48.86968" lon="2.30724">
        <ele>87.7</ele>
        <time>2015-02-02T21:25:56.518Z</time>
      </trkpt>
      <trkpt lat="48.86965" lon="2.3073">
        <ele>87</ele>
        <time>2015-02-02T21:25:57.544Z</time>
      </trkpt>
      <trkpt lat="48.86964" lon="2.30737">
        <ele>86.4</ele>
        <time>2015-02-02T21:25:58.554Z</time>
      </trkpt>
      <trkpt lat="48.86964" lon="2.30744">
        <ele>85.9</ele>
        <time>2015-02-02T21:25:59.562Z</time>
      </trkpt>
      <trkpt lat="48.86961" lon="2.30757">
        <ele>84.9</ele>
        <time>2015-02-02T21:26:01.503Z</time>
      </trkpt>
      <trkpt lat="48.86959" lon="2.30765">
        <ele>84.5</ele>
        <time>2015-02-02T21:26:02.527Z</time>
      </trkpt>
      <trkpt lat="48.86958" lon="2.30773">
        <ele>84.5</ele>
        <time>2015-02-02T21:26:03.563Z</time>
      </trkpt>
      <trkpt lat="48.86957" lon="2.3078">
        <ele>84.3</ele>
        <time>2015-02-02T21:26:04.483Z</time>
      </trkpt>
      <trkpt lat="48.86955" lon="2.30788">
        <ele>84.1</ele>
        <time>2015-02-02T21:26:05.505Z</time>
      </trkpt>
      <trkpt lat="48.86953" lon="2.30793">
        <ele>83.8</ele>
        <time>2015-02-02T21:26:06.532Z</time>
      </trkpt>
      <trkpt lat="48.86948" lon="2.30804">
        <ele>83.4</ele>
        <time>2015-02-02T21:26:08.568Z</time>
      </trkpt>
      <trkpt lat="48.86946" lon="2.3081">
        <ele>82.7</ele>
        <time>2015-02-02T21:26:09.579Z</time>
      </trkpt>
      <trkpt lat="48.86944" lon="2.30819">
        <ele>82.5</ele>
        <time>2015-02-02T21:26:11.504Z</time>
      </trkpt>
      <trkpt lat="48.86944" lon="2.30823">
        <ele>82.5</ele>
        <time>2015-02-02T21:26:12.510Z</time>
      </trkpt>
      <trkpt lat="48.86945" lon="2.30837">
        <ele>83.8</ele>
        <time>2015-02-02T21:26:18.585Z</time>
      </trkpt>
      <trkpt lat="48.86944" lon="2.30841">
        <ele>83.9</ele>
        <time>2015-02-02T21:26:19.520Z</time>
      </trkpt>
      <trkpt lat="48.86943" lon="2.30849">
        <ele>83.7</ele>
        <time>2015-02-02T21:26:20.482Z</time>
      </trkpt>
      <trkpt lat="48.86941" lon="2.30857">
        <ele>83.3</ele>
        <time>2015-02-02T21:26:21.538Z</time>
      </trkpt>
      <trkpt lat="48.86934" lon="2.30865">
        <ele>82.6</ele>
        <time>2015-02-02T21:26:23.585Z</time>
      </trkpt>
      <trkpt lat="48.86931" lon="2.30865">
        <ele>82.5</ele>
        <time>2015-02-02T21:26:24.590Z</time>
      </trkpt>
      <trkpt lat="48.86929" lon="2.30863">
        <ele>82.7</ele>
        <time>2015-02-02T21:27:50.517Z</time>
      </trkpt>
      <trkpt lat="48.86916" lon="2.30878">
        <ele>80.5</ele>
        <time>2015-02-02T21:27:51.560Z</time>
      </trkpt>
      <trkpt lat="48.86915" lon="2.30887">
        <ele>79.2</ele>
        <time>2015-02-02T21:27:53.597Z</time>
      </trkpt>
      <trkpt lat="48.86914" lon="2.30891">
        <ele>78.6</ele>
        <time>2015-02-02T21:27:54.605Z</time>
      </trkpt>
      <trkpt lat="48.86911" lon="2.30899">
        <ele>78.1</ele>
        <time>2015-02-02T21:27:56.511Z</time>
      </trkpt>
      <trkpt lat="48.8691" lon="2.30904">
        <ele>77.9</ele>
        <time>2015-02-02T21:27:57.587Z</time>
      </trkpt>
      <trkpt lat="48.86903" lon="2.30909">
        <ele>78.5</ele>
        <time>2015-02-02T21:28:00.500Z</time>
      </trkpt>
      <trkpt lat="48.869" lon="2.30909">
        <ele>78.2</ele>
        <time>2015-02-02T21:28:01.525Z</time>
      </trkpt>
      <trkpt lat="48.86894" lon="2.30912">
        <ele>78.3</ele>
        <time>2015-02-02T21:28:03.610Z</time>
      </trkpt>
      <trkpt lat="48.86891" lon="2.30913">
        <ele>78.2</ele>
        <time>2015-02-02T21:28:04.578Z</time>
      </trkpt>
      <trkpt lat="48.86885" lon="2.30915">
        <ele>78.7</ele>
        <time>2015-02-02T21:28:06.500Z</time>
      </trkpt>
      <trkpt lat="48.86882" lon="2.30916">
        <ele>78.8</ele>
        <time>2015-02-02T21:28:07.515Z</time>
      </trkpt>
      <trkpt lat="48.86876" lon="2.30919">
        <ele>79</ele>
        <time>2015-02-02T21:28:09.566Z</time>
      </trkpt>
      <trkpt lat="48.86873" lon="2.30921">
        <ele>78.8</ele>
        <time>2015-02-02T21:28:10.651Z</time>
      </trkpt>
      <trkpt lat="48.86866" lon="2.30925">
        <ele>78.6</ele>
        <time>2015-02-02T21:28:12.525Z</time>
      </trkpt>
      <trkpt lat="48.86863" lon="2.30927">
        <ele>78.6</ele>
        <time>2015-02-02T21:28:13.538Z</time>
      </trkpt>
      <trkpt lat="48.86855" lon="2.3093">
        <ele>79.3</ele>
        <time>2015-02-02T21:28:17.595Z</time>
      </trkpt>
      <trkpt lat="48.86853" lon="2.30932">
        <ele>79.5</ele>
        <time>2015-02-02T21:28:18.607Z</time>
      </trkpt>
      <trkpt lat="48.86849" lon="2.30939">
        <ele>79.3</ele>
        <time>2015-02-02T21:28:21.562Z</time>
      </trkpt>
      <trkpt lat="48.86848" lon="2.30943">
        <ele>79.5</ele>
        <time>2015-02-02T21:28:22.589Z</time>
      </trkpt>
      <trkpt lat="48.86844" lon="2.30955">
        <ele>79.7</ele>
        <time>2015-02-02T21:28:27.568Z</time>
      </trkpt>
      <trkpt lat="48.86843" lon="2.30957">
        <ele>79.6</ele>
        <time>2015-02-02T21:28:28.575Z</time>
      </trkpt>
      <trkpt lat="48.8684" lon="2.30966">
        <ele>79.3</ele>
        <time>2015-02-02T21:28:31.519Z</time>
      </trkpt>
      <trkpt lat="48.86839" lon="2.3097">
        <ele>79.6</ele>
        <time>2015-02-02T21:28:32.551Z</time>
      </trkpt>
      <trkpt lat="48.86838" lon="2.30982">
        <ele>79.2</ele>
        <time>2015-02-02T21:28:35.599Z</time>
      </trkpt>
      <trkpt lat="48.86837" lon="2.30986">
        <ele>78.8</ele>
        <time>2015-02-02T21:28:36.612Z</time>
      </trkpt>
      <trkpt lat="48.86835" lon="2.30995">
        <ele>78.6</ele>
        <time>2015-02-02T21:28:38.523Z</time>
      </trkpt>
      <trkpt lat="48.86834" lon="2.30999">
        <ele>78.6</ele>
        <time>2015-02-02T21:28:39.554Z</time>
      </trkpt>
      <trkpt lat="48.86833" lon="2.31009">
        <ele>78.7</ele>
        <time>2015-02-02T21:28:41.586Z</time>
      </trkpt>
      <trkpt lat="48.86831" lon="2.31013">
        <ele>78.3</ele>
        <time>2015-02-02T21:28:42.602Z</time>
      </trkpt>
      <trkpt lat="48.86825" lon="2.31013">
        <ele>77.6</ele>
        <time>2015-02-02T21:28:45.582Z</time>
      </trkpt>
      <trkpt lat="48.86821" lon="2.31012">
        <ele>77.1</ele>
        <time>2015-02-02T21:28:46.613Z</time>
      </trkpt>
      <trkpt lat="48.86813" lon="2.31009">
        <ele>76.8</ele>
        <time>2015-02-02T21:28:49.659Z</time>
      </trkpt>
      <trkpt lat="48.86808" lon="2.31009">
        <ele>76.4</ele>
        <time>2015-02-02T21:28:50.487Z</time>
      </trkpt>
      <trkpt lat="48.86801" lon="2.3101">
        <ele>76.7</ele>
        <time>2015-02-02T21:28:52.552Z</time>
      </trkpt>
      <trkpt lat="48.86796" lon="2.31011">
        <ele>76.6</ele>
        <time>2015-02-02T21:28:53.564Z</time>
      </trkpt>
      <trkpt lat="48.86788" lon="2.31013">
        <ele>77</ele>
        <time>2015-02-02T21:28:55.499Z</time>
      </trkpt>
      <trkpt lat="48.86783" lon="2.31015">
        <ele>77.5</ele>
        <time>2015-02-02T21:28:56.521Z</time>
      </trkpt>
      <trkpt lat="48.86778" lon="2.31015">
        <ele>77.9</ele>
        <time>2015-02-02T21:28:57.568Z</time>
      </trkpt>
      <trkpt lat="48.86773" lon="2.31015">
        <ele>78</ele>
        <time>2015-02-02T21:28:58.518Z</time>
      </trkpt>
      <trkpt lat="48.86768" lon="2.31016">
        <ele>78.3</ele>
        <time>2015-02-02T21:28:59.555Z</time>
      </trkpt>
      <trkpt lat="48.86763" lon="2.31017">
        <ele>78.7</ele>
        <time>2015-02-02T21:29:00.486Z</time>
      </trkpt>
      <trkpt lat="48.86758" lon="2.3102">
        <ele>79.1</ele>
        <time>2015-02-02T21:29:01.530Z</time>
      </trkpt>
      <trkpt lat="48.86752" lon="2.31023">
        <ele>79.2</ele>
        <time>2015-02-02T21:29:02.542Z</time>
      </trkpt>
      <trkpt lat="48.86745" lon="2.31023">
        <ele>79.4</ele>
        <time>2015-02-02T21:29:04.572Z</time>
      </trkpt>
      <trkpt lat="48.86741" lon="2.31023">
        <ele>80.1</ele>
        <time>2015-02-02T21:29:05.641Z</time>
      </trkpt>
      <trkpt lat="48.86736" lon="2.31023">
        <ele>80.7</ele>
        <time>2015-02-02T21:29:06.499Z</time>
      </trkpt>
      <trkpt lat="48.8673" lon="2.31023">
        <ele>81.2</ele>
        <time>2015-02-02T21:29:07.497Z</time>
      </trkpt>
      <trkpt lat="48.86725" lon="2.31023">
        <ele>81.5</ele>
        <time>2015-02-02T21:29:08.515Z</time>
      </trkpt>
      <trkpt lat="48.86721" lon="2.31024">
        <ele>81.5</ele>
        <time>2015-02-02T21:29:09.552Z</time>
      </trkpt>
      <trkpt lat="48.86716" lon="2.31024">
        <ele>81.6</ele>
        <time>2015-02-02T21:29:10.565Z</time>
      </trkpt>
      <trkpt lat="48.86711" lon="2.31024">
        <ele>81.8</ele>
        <time>2015-02-02T21:29:11.572Z</time>
      </trkpt>
      <trkpt lat="48.86704" lon="2.31025">
        <ele>82.4</ele>
        <time>2015-02-02T21:29:13.510Z</time>
      </trkpt>
      <trkpt lat="48.867" lon="2.31024">
        <ele>82.5</ele>
        <time>2015-02-02T21:29:14.516Z</time>
      </trkpt>
      <trkpt lat="48.86692" lon="2.31024">
        <ele>82.7</ele>
        <time>2015-02-02T21:29:16.501Z</time>
      </trkpt>
      <trkpt lat="48.86687" lon="2.31025">
        <ele>82.8</ele>
        <time>2015-02-02T21:29:17.522Z</time>
      </trkpt>
      <trkpt lat="48.86682" lon="2.31027">
        <ele>82.6</ele>
        <time>2015-02-02T21:29:18.560Z</time>
      </trkpt>
      <trkpt lat="48.86678" lon="2.31028">
        <ele>82.6</ele>
        <time>2015-02-02T21:29:19.564Z</time>
      </trkpt>
      <trkpt lat="48.86669" lon="2.3103">
        <ele>83.1</ele>
        <time>2015-02-02T21:29:21.637Z</time>
      </trkpt>
      <trkpt lat="48.86664" lon="2.31031">
        <ele>83</ele>
        <time>2015-02-02T21:29:22.517Z</time>
      </trkpt>
      <trkpt lat="48.8666" lon="2.31031">
        <ele>83.3</ele>
        <time>2015-02-02T21:29:23.550Z</time>
      </trkpt>
      <trkpt lat="48.86655" lon="2.3103">
        <ele>83.7</ele>
        <time>2015-02-02T21:29:24.589Z</time>
      </trkpt>
      <trkpt lat="48.86647" lon="2.31029">
        <ele>84.6</ele>
        <time>2015-02-02T21:29:26.505Z</time>
      </trkpt>
      <trkpt lat="48.86643" lon="2.3103">
        <ele>85.1</ele>
        <time>2015-02-02T21:29:27.559Z</time>
      </trkpt>
      <trkpt lat="48.86635" lon="2.3103">
        <ele>85.9</ele>
        <time>2015-02-02T21:29:29.589Z</time>
      </trkpt>
      <trkpt lat="48.8663" lon="2.31031">
        <ele>86.2</ele>
        <time>2015-02-02T21:29:30.578Z</time>
      </trkpt>
      <trkpt lat="48.86625" lon="2.31032">
        <ele>86.2</ele>
        <time>2015-02-02T21:29:31.499Z</time>
      </trkpt>
      <trkpt lat="48.86619" lon="2.31033">
        <ele>86.3</ele>
        <time>2015-02-02T21:29:32.527Z</time>
      </trkpt>
      <trkpt lat="48.86614" lon="2.31033">
        <ele>86.7</ele>
        <time>2015-02-02T21:29:33.547Z</time>
      </trkpt>
      <trkpt lat="48.86609" lon="2.31033">
        <ele>87</ele>
        <time>2015-02-02T21:29:34.543Z</time>
      </trkpt>
      <trkpt lat="48.86603" lon="2.31034">
        <ele>87.3</ele>
        <time>2015-02-02T21:29:35.558Z</time>
      </trkpt>
      <trkpt lat="48.86598" lon="2.31036">
        <ele>87.8</ele>
        <time>2015-02-02T21:29:36.565Z</time>
      </trkpt>
      <trkpt lat="48.86589" lon="2.31036">
        <ele>88.8</ele>
        <time>2015-02-02T21:29:38.505Z</time>
      </trkpt>
      <trkpt lat="48.86585" lon="2.31035">
        <ele>89.1</ele>
        <time>2015-02-02T21:29:39.512Z</time>
      </trkpt>
      <trkpt lat="48.86578" lon="2.31035">
        <ele>90.1</ele>
        <time>2015-02-02T21:29:41.536Z</time>
      </trkpt>
      <trkpt lat="48.86574" lon="2.31035">
        <ele>90.7</ele>
        <time>2015-02-02T21:29:42.556Z</time>
      </trkpt>
      <trkpt lat="48.86565" lon="2.31036">
        <ele>91.4</ele>
        <time>2015-02-02T21:29:44.687Z</time>
      </trkpt>
      <trkpt lat="48.86562" lon="2.31035">
        <ele>91.8</ele>
        <time>2015-02-02T21:29:45.574Z</time>
      </trkpt>
      <trkpt lat="48.86555" lon="2.31034">
        <ele>92.7</ele>
        <time>2015-02-02T21:29:47.610Z</time>
      </trkpt>
      <trkpt lat="48.86552" lon="2.31033">
        <ele>92.6</ele>
        <time>2015-02-02T21:29:48.484Z</time>
      </trkpt>
      <trkpt lat="48.86544" lon="2.31037">
        <ele>92.3</ele>
        <time>2015-02-02T21:29:51.078Z</time>
      </trkpt>
      <trkpt lat="48.86541" lon="2.31038">
        <ele>91.8</ele>
        <time>2015-02-02T21:29:51.613Z</time>
      </trkpt>
      <trkpt lat="48.86532" lon="2.31039">
        <ele>90.7</ele>
        <time>2015-02-02T21:29:54.665Z</time>
      </trkpt>
      <trkpt lat="48.86529" lon="2.3104">
        <ele>90.5</ele>
        <time>2015-02-02T21:29:55.507Z</time>
      </trkpt>
      <trkpt lat="48.86522" lon="2.31043">
        <ele>89.4</ele>
        <time>2015-02-02T21:29:58.554Z</time>
      </trkpt>
      <trkpt lat="48.86518" lon="2.31045">
        <ele>88.7</ele>
        <time>2015-02-02T21:29:59.611Z</time>
      </trkpt>
      <trkpt lat="48.8651" lon="2.31049">
        <ele>87.3</ele>
        <time>2015-02-02T21:30:03.732Z</time>
      </trkpt>
      <trkpt lat="48.86506" lon="2.31052">
        <ele>87</ele>
        <time>2015-02-02T21:30:03.769Z</time>
      </trkpt>
      <trkpt lat="48.86497" lon="2.31054">
        <ele>85.9</ele>
        <time>2015-02-02T21:30:06.580Z</time>
      </trkpt>
      <trkpt lat="48.86495" lon="2.31053">
        <ele>85.9</ele>
        <time>2015-02-02T21:30:07.480Z</time>
      </trkpt>
      <trkpt lat="48.86491" lon="2.31057">
        <ele>84.2</ele>
        <time>2015-02-02T21:30:26.554Z</time>
      </trkpt>
      <trkpt lat="48.86484" lon="2.31052">
        <ele>76.8</ele>
        <time>2015-02-02T21:30:27.580Z</time>
      </trkpt>
      <trkpt lat="48.86475" lon="2.31053">
        <ele>76.7</ele>
        <time>2015-02-02T21:30:31.597Z</time>
      </trkpt>
      <trkpt lat="48.86473" lon="2.31053">
        <ele>76.5</ele>
        <time>2015-02-02T21:30:32.555Z</time>
      </trkpt>
      <trkpt lat="48.86465" lon="2.31054">
        <ele>75.6</ele>
        <time>2015-02-02T21:30:59.512Z</time>
      </trkpt>
      <trkpt lat="48.86463" lon="2.31054">
        <ele>75.6</ele>
        <time>2015-02-02T21:31:00.516Z</time>
      </trkpt>
      <trkpt lat="48.86455" lon="2.31054">
        <ele>75.4</ele>
        <time>2015-02-02T21:31:04.590Z</time>
      </trkpt>
      <trkpt lat="48.86453" lon="2.31054">
        <ele>75.4</ele>
        <time>2015-02-02T21:31:05.609Z</time>
      </trkpt>
      <trkpt lat="48.86452" lon="2.31066">
        <ele>74.9</ele>
        <time>2015-02-02T21:31:13.588Z</time>
      </trkpt>
      <trkpt lat="48.86452" lon="2.31068">
        <ele>75.1</ele>
        <time>2015-02-02T21:31:13.629Z</time>
      </trkpt>
      <trkpt lat="48.86452" lon="2.31081">
        <ele>75.7</ele>
        <time>2015-02-02T21:31:17.473Z</time>
      </trkpt>
      <trkpt lat="48.86452" lon="2.31086">
        <ele>76.1</ele>
        <time>2015-02-02T21:31:18.505Z</time>
      </trkpt>
      <trkpt lat="48.86453" lon="2.31095">
        <ele>76.2</ele>
        <time>2015-02-02T21:31:20.564Z</time>
      </trkpt>
      <trkpt lat="48.86453" lon="2.311">
        <ele>76.5</ele>
        <time>2015-02-02T21:31:21.605Z</time>
      </trkpt>
      <trkpt lat="48.86454" lon="2.3111">
        <ele>76.4</ele>
        <time>2015-02-02T21:31:23.660Z</time>
      </trkpt>
      <trkpt lat="48.86456" lon="2.31116">
        <ele>76.5</ele>
        <time>2015-02-02T21:31:24.569Z</time>
      </trkpt>
      <trkpt lat="48.86456" lon="2.31129">
        <ele>76.5</ele>
        <time>2015-02-02T21:31:26.516Z</time>
      </trkpt>
      <trkpt lat="48.86456" lon="2.31135">
        <ele>76.5</ele>
        <time>2015-02-02T21:31:27.527Z</time>
      </trkpt>
      <trkpt lat="48.86456" lon="2.31148">
        <ele>76.1</ele>
        <time>2015-02-02T21:31:29.562Z</time>
      </trkpt>
      <trkpt lat="48.86455" lon="2.31154">
        <ele>76.2</ele>
        <time>2015-02-02T21:31:30.590Z</time>
      </trkpt>
      <trkpt lat="48.86455" lon="2.31167">
        <ele>75.9</ele>
        <time>2015-02-02T21:31:32.522Z</time>
      </trkpt>
      <trkpt lat="48.86455" lon="2.31173">
        <ele>75.9</ele>
        <time>2015-02-02T21:31:33.527Z</time>
      </trkpt>
      <trkpt lat="48.86456" lon="2.31184">
        <ele>75.8</ele>
        <time>2015-02-02T21:31:35.567Z</time>
      </trkpt>
      <trkpt lat="48.86455" lon="2.31191">
        <ele>75.8</ele>
        <time>2015-02-02T21:31:36.582Z</time>
      </trkpt>
      <trkpt lat="48.86454" lon="2.31203">
        <ele>75.7</ele>
        <time>2015-02-02T21:31:38.884Z</time>
      </trkpt>
      <trkpt lat="48.86454" lon="2.31209">
        <ele>75.5</ele>
        <time>2015-02-02T21:31:39.513Z</time>
      </trkpt>
      <trkpt lat="48.86455" lon="2.31222">
        <ele>75.7</ele>
        <time>2015-02-02T21:31:41.610Z</time>
      </trkpt>
      <trkpt lat="48.86455" lon="2.31228">
        <ele>75.8</ele>
        <time>2015-02-02T21:31:42.578Z</time>
      </trkpt>
      <trkpt lat="48.86455" lon="2.3124">
        <ele>76</ele>
        <time>2015-02-02T21:31:44.501Z</time>
      </trkpt>
      <trkpt lat="48.86454" lon="2.31247">
        <ele>75.9</ele>
        <time>2015-02-02T21:31:45.546Z</time>
      </trkpt>
      <trkpt lat="48.86455" lon="2.31259">
        <ele>75.9</ele>
        <time>2015-02-02T21:31:48.266Z</time>
      </trkpt>
      <trkpt lat="48.86455" lon="2.31265">
        <ele>75.5</ele>
        <time>2015-02-02T21:31:48.573Z</time>
      </trkpt>
      <trkpt lat="48.86455" lon="2.31276">
        <ele>74.5</ele>
        <time>2015-02-02T21:31:50.505Z</time>
      </trkpt>
      <trkpt lat="48.86455" lon="2.31282">
        <ele>74.2</ele>
        <time>2015-02-02T21:31:51.581Z</time>
      </trkpt>
      <trkpt lat="48.86455" lon="2.31293">
        <ele>74.1</ele>
        <time>2015-02-02T21:31:53.480Z</time>
      </trkpt>
      <trkpt lat="48.86455" lon="2.31299">
        <ele>74</ele>
        <time>2015-02-02T21:31:54.583Z</time>
      </trkpt>
      <trkpt lat="48.86455" lon="2.31309">
        <ele>73.3</ele>
        <time>2015-02-02T21:31:56.607Z</time>
      </trkpt>
      <trkpt lat="48.86455" lon="2.31314">
        <ele>73.3</ele>
        <time>2015-02-02T21:31:57.668Z</time>
      </trkpt>
      <trkpt lat="48.86455" lon="2.31324">
        <ele>72.5</ele>
        <time>2015-02-02T21:32:00.064Z</time>
      </trkpt>
      <trkpt lat="48.86455" lon="2.31329">
        <ele>72.1</ele>
        <time>2015-02-02T21:32:00.563Z</time>
      </trkpt>
      <trkpt lat="48.86456" lon="2.31339">
        <ele>71.4</ele>
        <time>2015-02-02T21:32:03.473Z</time>
      </trkpt>
      <trkpt lat="48.86456" lon="2.31343">
        <ele>71.1</ele>
        <time>2015-02-02T21:32:03.556Z</time>
      </trkpt>
      <trkpt lat="48.86453" lon="2.31351">
        <ele>70.3</ele>
        <time>2015-02-02T21:33:40.597Z</time>
      </trkpt>
      <trkpt lat="48.86454" lon="2.31366">
        <ele>76.6</ele>
        <time>2015-02-02T21:33:41.491Z</time>
      </trkpt>
      <trkpt lat="48.86455" lon="2.31378">
        <ele>76</ele>
        <time>2015-02-02T21:33:45.604Z</time>
      </trkpt>
      <trkpt lat="48.86455" lon="2.3138">
        <ele>75.8</ele>
        <time>2015-02-02T21:33:46.508Z</time>
      </trkpt>
      <trkpt lat="48.86455" lon="2.31383">
        <ele>75.4</ele>
        <time>2015-02-02T21:34:42.505Z</time>
      </trkpt>
      <trkpt lat="48.8646" lon="2.31403">
        <ele>73.8</ele>
        <time>2015-02-02T21:34:43.529Z</time>
      </trkpt>
      <trkpt lat="48.86461" lon="2.31414">
        <ele>73.1</ele>
        <time>2015-02-02T21:34:46.588Z</time>
      </trkpt>
      <trkpt lat="48.86461" lon="2.31417">
        <ele>73.2</ele>
        <time>2015-02-02T21:34:47.611Z</time>
      </trkpt>
      <trkpt lat="48.86459" lon="2.31428">
        <ele>73.5</ele>
        <time>2015-02-02T21:34:50.557Z</time>
      </trkpt>
      <trkpt lat="48.86459" lon="2.31431">
        <ele>73.6</ele>
        <time>2015-02-02T21:34:51.537Z</time>
      </trkpt>
      <trkpt lat="48.8646" lon="2.31444">
        <ele>73.2</ele>
        <time>2015-02-02T21:34:54.503Z</time>
      </trkpt>
      <trkpt lat="48.86461" lon="2.31449">
        <ele>73.4</ele>
        <time>2015-02-02T21:34:55.526Z</time>
      </trkpt>
      <trkpt lat="48.86461" lon="2.3146">
        <ele>73.3</ele>
        <time>2015-02-02T21:34:58.621Z</time>
      </trkpt>
      <trkpt lat="48.86462" lon="2.31466">
        <ele>73.5</ele>
        <time>2015-02-02T21:34:58.662Z</time>
      </trkpt>
      <trkpt lat="48.86463" lon="2.3148">
        <ele>73.8</ele>
        <time>2015-02-02T21:35:00.511Z</time>
      </trkpt>
      <trkpt lat="48.86462" lon="2.31485">
        <ele>74.2</ele>
        <time>2015-02-02T21:35:01.578Z</time>
      </trkpt>
      <trkpt lat="48.86461" lon="2.31497">
        <ele>74.5</ele>
        <time>2015-02-02T21:35:03.676Z</time>
      </trkpt>
      <trkpt lat="48.86462" lon="2.31503">
        <ele>74.2</ele>
        <time>2015-02-02T21:35:04.591Z</time>
      </trkpt>
      <trkpt lat="48.86464" lon="2.31516">
        <ele>73.9</ele>
        <time>2015-02-02T21:35:06.509Z</time>
      </trkpt>
      <trkpt lat="48.86464" lon="2.31523">
        <ele>73.7</ele>
        <time>2015-02-02T21:35:07.513Z</time>
      </trkpt>
      <trkpt lat="48.86464" lon="2.3153">
        <ele>73.8</ele>
        <time>2015-02-02T21:35:08.822Z</time>
      </trkpt>
      <trkpt lat="48.86465" lon="2.31537">
        <ele>73.8</ele>
        <time>2015-02-02T21:35:09.612Z</time>
      </trkpt>
      <trkpt lat="48.86465" lon="2.3155">
        <ele>74.1</ele>
        <time>2015-02-02T21:35:11.506Z</time>
      </trkpt>
      <trkpt lat="48.86466" lon="2.31558">
        <ele>74.3</ele>
        <time>2015-02-02T21:35:12.601Z</time>
      </trkpt>
      <trkpt lat="48.86466" lon="2.31565">
        <ele>74.3</ele>
        <time>2015-02-02T21:35:13.849Z</time>
      </trkpt>
      <trkpt lat="48.86466" lon="2.31573">
        <ele>74.3</ele>
        <time>2015-02-02T21:35:14.507Z</time>
      </trkpt>
      <trkpt lat="48.86466" lon="2.31581">
        <ele>74.4</ele>
        <time>2015-02-02T21:35:15.544Z</time>
      </trkpt>
      <trkpt lat="48.86466" lon="2.31589">
        <ele>74.3</ele>
        <time>2015-02-02T21:35:16.531Z</time>
      </trkpt>
      <trkpt lat="48.86466" lon="2.31597">
        <ele>74.4</ele>
        <time>2015-02-02T21:35:17.545Z</time>
      </trkpt>
      <trkpt lat="48.86467" lon="2.31604">
        <ele>74.6</ele>
        <time>2015-02-02T21:35:18.558Z</time>
      </trkpt>
      <trkpt lat="48.86467" lon="2.31612">
        <ele>74.2</ele>
        <time>2015-02-02T21:35:19.513Z</time>
      </trkpt>
      <trkpt lat="48.86467" lon="2.31619">
        <ele>73.9</ele>
        <time>2015-02-02T21:35:20.508Z</time>
      </trkpt>
      <trkpt lat="48.86468" lon="2.31628">
        <ele>74.3</ele>
        <time>2015-02-02T21:35:21.539Z</time>
      </trkpt>
      <trkpt lat="48.86468" lon="2.31638">
        <ele>74.5</ele>
        <time>2015-02-02T21:35:22.541Z</time>
      </trkpt>
      <trkpt lat="48.86468" lon="2.31647">
        <ele>74</ele>
        <time>2015-02-02T21:35:23.988Z</time>
      </trkpt>
      <trkpt lat="48.86469" lon="2.31658">
        <ele>73.6</ele>
        <time>2015-02-02T21:35:24.565Z</time>
      </trkpt>
      <trkpt lat="48.86469" lon="2.31669">
        <ele>72.8</ele>
        <time>2015-02-02T21:35:25.588Z</time>
      </trkpt>
      <trkpt lat="48.8647" lon="2.3168">
        <ele>72.7</ele>
        <time>2015-02-02T21:35:26.511Z</time>
      </trkpt>
      <trkpt lat="48.8647" lon="2.31691">
        <ele>72.9</ele>
        <time>2015-02-02T21:35:27.551Z</time>
      </trkpt>
      <trkpt lat="48.86471" lon="2.31701">
        <ele>72.5</ele>
        <time>2015-02-02T21:35:28.470Z</time>
      </trkpt>
      <trkpt lat="48.86472" lon="2.31712">
        <ele>72.4</ele>
        <time>2015-02-02T21:35:29.507Z</time>
      </trkpt>
      <trkpt lat="48.86472" lon="2.31721">
        <ele>72.3</ele>
        <time>2015-02-02T21:35:30.516Z</time>
      </trkpt>
      <trkpt lat="48.86472" lon="2.3173">
        <ele>72.6</ele>
        <time>2015-02-02T21:35:31.576Z</time>
      </trkpt>
      <trkpt lat="48.86473" lon="2.31738">
        <ele>73.1</ele>
        <time>2015-02-02T21:35:32.590Z</time>
      </trkpt>
      <trkpt lat="48.86473" lon="2.31746">
        <ele>73.4</ele>
        <time>2015-02-02T21:35:33.547Z</time>
      </trkpt>
      <trkpt lat="48.86473" lon="2.31754">
        <ele>73.8</ele>
        <time>2015-02-02T21:35:34.562Z</time>
      </trkpt>
      <trkpt lat="48.86473" lon="2.31763">
        <ele>73.9</ele>
        <time>2015-02-02T21:35:35.573Z</time>
      </trkpt>
      <trkpt lat="48.86474" lon="2.3177">
        <ele>73.9</ele>
        <time>2015-02-02T21:35:36.585Z</time>
      </trkpt>
      <trkpt lat="48.86474" lon="2.31783">
        <ele>73.7</ele>
        <time>2015-02-02T21:35:38.493Z</time>
      </trkpt>
      <trkpt lat="48.86474" lon="2.31788">
        <ele>73.8</ele>
        <time>2015-02-02T21:35:39.545Z</time>
      </trkpt>
      <trkpt lat="48.86474" lon="2.31798">
        <ele>73.7</ele>
        <time>2015-02-02T21:35:41.571Z</time>
      </trkpt>
      <trkpt lat="48.86474" lon="2.31803">
        <ele>73.7</ele>
        <time>2015-02-02T21:35:42.513Z</time>
      </trkpt>
      <trkpt lat="48.86473" lon="2.31814">
        <ele>73.6</ele>
        <time>2015-02-02T21:35:44.546Z</time>
      </trkpt>
      <trkpt lat="48.86473" lon="2.31819">
        <ele>73.8</ele>
        <time>2015-02-02T21:35:45.563Z</time>
      </trkpt>
      <trkpt lat="48.86471" lon="2.31832">
        <ele>73.8</ele>
        <time>2015-02-02T21:35:47.511Z</time>
      </trkpt>
      <trkpt lat="48.86469" lon="2.31837">
        <ele>73.5</ele>
        <time>2015-02-02T21:35:48.511Z</time>
      </trkpt>
      <trkpt lat="48.86464" lon="2.31845">
        <ele>73.4</ele>
        <time>2015-02-02T21:35:50.558Z</time>
      </trkpt>
      <trkpt lat="48.86462" lon="2.31848">
        <ele>73.4</ele>
        <time>2015-02-02T21:35:51.635Z</time>
      </trkpt>
      <trkpt lat="48.86456" lon="2.31856">
        <ele>73.5</ele>
        <time>2015-02-02T21:35:54.521Z</time>
      </trkpt>
      <trkpt lat="48.86453" lon="2.31857">
        <ele>73.5</ele>
        <time>2015-02-02T21:35:55.537Z</time>
      </trkpt>
      <trkpt lat="48.86448" lon="2.31866">
        <ele>72.4</ele>
        <time>2015-02-02T21:35:58.471Z</time>
      </trkpt>
      <trkpt lat="48.86447" lon="2.3187">
        <ele>72.2</ele>
        <time>2015-02-02T21:35:59.500Z</time>
      </trkpt>
      <trkpt lat="48.86442" lon="2.31877">
        <ele>72.5</ele>
        <time>2015-02-02T21:36:02.578Z</time>
      </trkpt>
      <trkpt lat="48.8644" lon="2.31881">
        <ele>72.5</ele>
        <time>2015-02-02T21:36:03.593Z</time>
      </trkpt>
      <trkpt lat="48.86437" lon="2.31888">
        <ele>71.9</ele>
        <time>2015-02-02T21:36:05.494Z</time>
      </trkpt>
      <trkpt lat="48.86435" lon="2.31893">
        <ele>71.8</ele>
        <time>2015-02-02T21:36:06.579Z</time>
      </trkpt>
      <trkpt lat="48.86432" lon="2.31903">
        <ele>71.4</ele>
        <time>2015-02-02T21:36:08.556Z</time>
      </trkpt>
      <trkpt lat="48.86431" lon="2.31908">
        <ele>71.4</ele>
        <time>2015-02-02T21:36:09.563Z</time>
      </trkpt>
      <trkpt lat="48.86428" lon="2.3192">
        <ele>71.3</ele>
        <time>2015-02-02T21:36:11.512Z</time>
      </trkpt>
      <trkpt lat="48.86426" lon="2.31926">
        <ele>70.9</ele>
        <time>2015-02-02T21:36:12.529Z</time>
      </trkpt>
      <trkpt lat="48.86423" lon="2.31937">
        <ele>71.3</ele>
        <time>2015-02-02T21:36:14.574Z</time>
      </trkpt>
      <trkpt lat="48.86421" lon="2.31941">
        <ele>71.5</ele>
        <time>2015-02-02T21:36:15.599Z</time>
      </trkpt>
      <trkpt lat="48.86419" lon="2.3195">
        <ele>71.7</ele>
        <time>2015-02-02T21:36:17.490Z</time>
      </trkpt>
      <trkpt lat="48.86418" lon="2.31955">
        <ele>71.8</ele>
        <time>2015-02-02T21:36:18.505Z</time>
      </trkpt>
      <trkpt lat="48.86415" lon="2.31964">
        <ele>71.8</ele>
        <time>2015-02-02T21:36:20.539Z</time>
      </trkpt>
      <trkpt lat="48.86414" lon="2.31969">
        <ele>71.6</ele>
        <time>2015-02-02T21:36:21.551Z</time>
      </trkpt>
      <trkpt lat="48.86411" lon="2.31978">
        <ele>71.8</ele>
        <time>2015-02-02T21:36:23.490Z</time>
      </trkpt>
      <trkpt lat="48.8641" lon="2.31981">
        <ele>72.3</ele>
        <time>2015-02-02T21:36:24.506Z</time>
      </trkpt>
      <trkpt lat="48.86406" lon="2.31988">
        <ele>73.8</ele>
        <time>2015-02-02T21:37:05.489Z</time>
      </trkpt>
      <trkpt lat="48.86408" lon="2.31998">
        <ele>74.9</ele>
        <time>2015-02-02T21:37:06.505Z</time>
      </trkpt>
      <trkpt lat="48.86403" lon="2.32009">
        <ele>73.8</ele>
        <time>2015-02-02T21:37:10.571Z</time>
      </trkpt>
      <trkpt lat="48.86402" lon="2.32012">
        <ele>73.9</ele>
        <time>2015-02-02T21:37:11.474Z</time>
      </trkpt>
      <trkpt lat="48.864" lon="2.32025">
        <ele>73.3</ele>
        <time>2015-02-02T21:37:15.569Z</time>
      </trkpt>
      <trkpt lat="48.86399" lon="2.32028">
        <ele>73.3</ele>
        <time>2015-02-02T21:37:16.467Z</time>
      </trkpt>
      <trkpt lat="48.86395" lon="2.3204">
        <ele>72.8</ele>
        <time>2015-02-02T21:37:19.553Z</time>
      </trkpt>
      <trkpt lat="48.86394" lon="2.32044">
        <ele>72.8</ele>
        <time>2015-02-02T21:37:20.559Z</time>
      </trkpt>
      <trkpt lat="48.86392" lon="2.32053">
        <ele>72.8</ele>
        <time>2015-02-02T21:37:22.466Z</time>
      </trkpt>
      <trkpt lat="48.8639" lon="2.32058">
        <ele>72.7</ele>
        <time>2015-02-02T21:37:23.500Z</time>
      </trkpt>
      <trkpt lat="48.86386" lon="2.32068">
        <ele>72.2</ele>
        <time>2015-02-02T21:37:25.539Z</time>
      </trkpt>
      <trkpt lat="48.86385" lon="2.32073">
        <ele>72</ele>
        <time>2015-02-02T21:37:26.509Z</time>
      </trkpt>
      <trkpt lat="48.86381" lon="2.32085">
        <ele>72</ele>
        <time>2015-02-02T21:37:28.554Z</time>
      </trkpt>
      <trkpt lat="48.86379" lon="2.32091">
        <ele>72.1</ele>
        <time>2015-02-02T21:37:29.561Z</time>
      </trkpt>
      <trkpt lat="48.86378" lon="2.32098">
        <ele>72.2</ele>
        <time>2015-02-02T21:37:30.512Z</time>
      </trkpt>
      <trkpt lat="48.86376" lon="2.32104">
        <ele>72.4</ele>
        <time>2015-02-02T21:37:31.508Z</time>
      </trkpt>
      <trkpt lat="48.86372" lon="2.32115">
        <ele>72.4</ele>
        <time>2015-02-02T21:37:33.516Z</time>
      </trkpt>
      <trkpt lat="48.8637" lon="2.32119">
        <ele>72.4</ele>
        <time>2015-02-02T21:37:34.525Z</time>
      </trkpt>
      <trkpt lat="48.86367" lon="2.32129">
        <ele>72.1</ele>
        <time>2015-02-02T21:37:36.563Z</time>
      </trkpt>
      <trkpt lat="48.86365" lon="2.32134">
        <ele>71.9</ele>
        <time>2015-02-02T21:37:37.572Z</time>
      </trkpt>
      <trkpt lat="48.86363" lon="2.32141">
        <ele>72</ele>
        <time>2015-02-02T21:37:38.480Z</time>
      </trkpt>
      <trkpt lat="48.86361" lon="2.32147">
        <ele>72.2</ele>
        <time>2015-02-02T21:37:39.560Z</time>
      </trkpt>
      <trkpt lat="48.86359" lon="2.32154">
        <ele>72.3</ele>
        <time>2015-02-02T21:37:40.574Z</time>
      </trkpt>
      <trkpt lat="48.86356" lon="2.3216">
        <ele>72.2</ele>
        <time>2015-02-02T21:37:41.578Z</time>
      </trkpt>
      <trkpt lat="48.86354" lon="2.32167">
        <ele>72.3</ele>
        <time>2015-02-02T21:37:42.493Z</time>
      </trkpt>
      <trkpt lat="48.86352" lon="2.32173">
        <ele>72.5</ele>
        <time>2015-02-02T21:37:43.494Z</time>
      </trkpt>
      <trkpt lat="48.8635" lon="2.3218">
        <ele>72.6</ele>
        <time>2015-02-02T21:37:45.055Z</time>
      </trkpt>
      <trkpt lat="48.86347" lon="2.32187">
        <ele>72.6</ele>
        <time>2015-02-02T21:37:45.528Z</time>
      </trkpt>
      <trkpt lat="48.86345" lon="2.32194">
        <ele>72.6</ele>
        <time>2015-02-02T21:37:46.546Z</time>
      </trkpt>
      <trkpt lat="48.86343" lon="2.32202">
        <ele>72.5</ele>
        <time>2015-02-02T21:37:47.555Z</time>
      </trkpt>
      <trkpt lat="48.8634" lon="2.32211">
        <ele>72.4</ele>
        <time>2015-02-02T21:37:48.572Z</time>
      </trkpt>
      <trkpt lat="48.86338" lon="2.32218">
        <ele>72.3</ele>
        <time>2015-02-02T21:37:49.585Z</time>
      </trkpt>
      <trkpt lat="48.86335" lon="2.32227">
        <ele>72.2</ele>
        <time>2015-02-02T21:37:50.590Z</time>
      </trkpt>
      <trkpt lat="48.86332" lon="2.32235">
        <ele>72.2</ele>
        <time>2015-02-02T21:37:51.615Z</time>
      </trkpt>
      <trkpt lat="48.86329" lon="2.32243">
        <ele>72.3</ele>
        <time>2015-02-02T21:37:52.475Z</time>
      </trkpt>
      <trkpt lat="48.86326" lon="2.32252">
        <ele>72.4</ele>
        <time>2015-02-02T21:37:53.507Z</time>
      </trkpt>
      <trkpt lat="48.86324" lon="2.32261">
        <ele>72.6</ele>
        <time>2015-02-02T21:37:54.606Z</time>
      </trkpt>
      <trkpt lat="48.86321" lon="2.32271">
        <ele>72.8</ele>
        <time>2015-02-02T21:37:55.493Z</time>
      </trkpt>
      <trkpt lat="48.86319" lon="2.32281">
        <ele>73</ele>
        <time>2015-02-02T21:37:56.486Z</time>
      </trkpt>
      <trkpt lat="48.86315" lon="2.32291">
        <ele>73</ele>
        <time>2015-02-02T21:37:57.547Z</time>
      </trkpt>
      <trkpt lat="48.86312" lon="2.323">
        <ele>73.1</ele>
        <time>2015-02-02T21:37:58.654Z</time>
      </trkpt>
      <trkpt lat="48.8631" lon="2.3231">
        <ele>73.5</ele>
        <time>2015-02-02T21:37:59.503Z</time>
      </trkpt>
      <trkpt lat="48.86307" lon="2.3232">
        <ele>73.9</ele>
        <time>2015-02-02T21:38:00.518Z</time>
      </trkpt>
      <trkpt lat="48.86305" lon="2.32329">
        <ele>73.9</ele>
        <time>2015-02-02T21:38:01.531Z</time>
      </trkpt>
      <trkpt lat="48.86302" lon="2.32338">
        <ele>73.6</ele>
        <time>2015-02-02T21:38:02.546Z</time>
      </trkpt>
      <trkpt lat="48.86299" lon="2.32348">
        <ele>73.6</ele>
        <time>2015-02-02T21:38:03.552Z</time>
      </trkpt>
      <trkpt lat="48.86295" lon="2.32357">
        <ele>73.5</ele>
        <time>2015-02-02T21:38:04.569Z</time>
      </trkpt>
      <trkpt lat="48.86292" lon="2.32368">
        <ele>73.6</ele>
        <time>2015-02-02T21:38:05.591Z</time>
      </trkpt>
      <trkpt lat="48.86287" lon="2.32378">
        <ele>73.5</ele>
        <time>2015-02-02T21:38:06.551Z</time>
      </trkpt>
      <trkpt lat="48.86283" lon="2.32388">
        <ele>73.7</ele>
        <time>2015-02-02T21:38:07.559Z</time>
      </trkpt>
      <trkpt lat="48.8628" lon="2.32397">
        <ele>74</ele>
        <time>2015-02-02T21:38:08.566Z</time>
      </trkpt>
      <trkpt lat="48.86277" lon="2.32406">
        <ele>74.1</ele>
        <time>2015-02-02T21:38:09.577Z</time>
      </trkpt>
      <trkpt lat="48.86274" lon="2.32416">
        <ele>73.9</ele>
        <time>2015-02-02T21:38:10.504Z</time>
      </trkpt>
      <trkpt lat="48.8627" lon="2.32425">
        <ele>73.9</ele>
        <time>2015-02-02T21:38:11.517Z</time>
      </trkpt>
      <trkpt lat="48.86267" lon="2.32434">
        <ele>73.8</ele>
        <time>2015-02-02T21:38:12.542Z</time>
      </trkpt>
      <trkpt lat="48.86264" lon="2.32442">
        <ele>73.9</ele>
        <time>2015-02-02T21:38:13.504Z</time>
      </trkpt>
      <trkpt lat="48.86261" lon="2.32451">
        <ele>73.9</ele>
        <time>2015-02-02T21:38:14.533Z</time>
      </trkpt>
      <trkpt lat="48.86258" lon="2.32461">
        <ele>74</ele>
        <time>2015-02-02T21:38:15.536Z</time>
      </trkpt>
      <trkpt lat="48.86255" lon="2.3247">
        <ele>73.9</ele>
        <time>2015-02-02T21:38:16.562Z</time>
      </trkpt>
      <trkpt lat="48.86252" lon="2.32479">
        <ele>73.7</ele>
        <time>2015-02-02T21:38:17.569Z</time>
      </trkpt>
      <trkpt lat="48.8625" lon="2.32489">
        <ele>73.8</ele>
        <time>2015-02-02T21:38:18.581Z</time>
      </trkpt>
      <trkpt lat="48.86247" lon="2.32498">
        <ele>73.8</ele>
        <time>2015-02-02T21:38:19.472Z</time>
      </trkpt>
      <trkpt lat="48.86244" lon="2.32508">
        <ele>74</ele>
        <time>2015-02-02T21:38:20.490Z</time>
      </trkpt>
      <trkpt lat="48.86241" lon="2.32517">
        <ele>73.8</ele>
        <time>2015-02-02T21:38:21.526Z</time>
      </trkpt>
      <trkpt lat="48.86237" lon="2.32526">
        <ele>73.6</ele>
        <time>2015-02-02T21:38:22.550Z</time>
      </trkpt>
      <trkpt lat="48.86234" lon="2.32535">
        <ele>73.5</ele>
        <time>2015-02-02T21:38:23.554Z</time>
      </trkpt>
      <trkpt lat="48.86232" lon="2.32544">
        <ele>73.5</ele>
        <time>2015-02-02T21:38:24.564Z</time>
      </trkpt>
      <trkpt lat="48.86229" lon="2.32553">
        <ele>73.2</ele>
        <time>2015-02-02T21:38:25.581Z</time>
      </trkpt>
      <trkpt lat="48.86227" lon="2.32562">
        <ele>73.2</ele>
        <time>2015-02-02T21:38:26.504Z</time>
      </trkpt>
      <trkpt lat="48.86224" lon="2.32571">
        <ele>73.9</ele>
        <time>2015-02-02T21:38:27.549Z</time>
      </trkpt>
      <trkpt lat="48.8622" lon="2.3258">
        <ele>74.5</ele>
        <time>2015-02-02T21:38:28.489Z</time>
      </trkpt>
      <trkpt lat="48.86217" lon="2.32591">
        <ele>74.6</ele>
        <time>2015-02-02T21:38:29.492Z</time>
      </trkpt>
      <trkpt lat="48.86214" lon="2.326">
        <ele>74.7</ele>
        <time>2015-02-02T21:38:30.522Z</time>
      </trkpt>
      <trkpt lat="48.8621" lon="2.32609">
        <ele>74.5</ele>
        <time>2015-02-02T21:38:31.561Z</time>
      </trkpt>
      <trkpt lat="48.86207" lon="2.32619">
        <ele>74.5</ele>
        <time>2015-02-02T21:38:32.489Z</time>
      </trkpt>
      <trkpt lat="48.86203" lon="2.32628">
        <ele>74.7</ele>
        <time>2015-02-02T21:38:33.525Z</time>
      </trkpt>
      <trkpt lat="48.86199" lon="2.32638">
        <ele>74.7</ele>
        <time>2015-02-02T21:38:34.545Z</time>
      </trkpt>
      <trkpt lat="48.86196" lon="2.32649">
        <ele>74.8</ele>
        <time>2015-02-02T21:38:35.552Z</time>
      </trkpt>
      <trkpt lat="48.86192" lon="2.32659">
        <ele>75.3</ele>
        <time>2015-02-02T21:38:36.557Z</time>
      </trkpt>
      <trkpt lat="48.8619" lon="2.32669">
        <ele>75.4</ele>
        <time>2015-02-02T21:38:37.505Z</time>
      </trkpt>
      <trkpt lat="48.86186" lon="2.32679">
        <ele>75.6</ele>
        <time>2015-02-02T21:38:38.503Z</time>
      </trkpt>
      <trkpt lat="48.86182" lon="2.3269">
        <ele>75.6</ele>
        <time>2015-02-02T21:38:39.532Z</time>
      </trkpt>
      <trkpt lat="48.8618" lon="2.32701">
        <ele>75.7</ele>
        <time>2015-02-02T21:38:40.530Z</time>
      </trkpt>
      <trkpt lat="48.86177" lon="2.32711">
        <ele>75.6</ele>
        <time>2015-02-02T21:38:41.472Z</time>
      </trkpt>
      <trkpt lat="48.86173" lon="2.32722">
        <ele>75.3</ele>
        <time>2015-02-02T21:38:42.505Z</time>
      </trkpt>
      <trkpt lat="48.8617" lon="2.32732">
        <ele>75.4</ele>
        <time>2015-02-02T21:38:43.533Z</time>
      </trkpt>
      <trkpt lat="48.86167" lon="2.32743">
        <ele>75.4</ele>
        <time>2015-02-02T21:38:44.549Z</time>
      </trkpt>
      <trkpt lat="48.86164" lon="2.32754">
        <ele>75.5</ele>
        <time>2015-02-02T21:38:45.560Z</time>
      </trkpt>
      <trkpt lat="48.86162" lon="2.32765">
        <ele>75.4</ele>
        <time>2015-02-02T21:38:46.486Z</time>
      </trkpt>
      <trkpt lat="48.86158" lon="2.32776">
        <ele>75.7</ele>
        <time>2015-02-02T21:38:47.490Z</time>
      </trkpt>
      <trkpt lat="48.86155" lon="2.32787">
        <ele>76</ele>
        <time>2015-02-02T21:38:48.560Z</time>
      </trkpt>
      <trkpt lat="48.86151" lon="2.32798">
        <ele>76.1</ele>
        <time>2015-02-02T21:38:49.566Z</time>
      </trkpt>
      <trkpt lat="48.86147" lon="2.32808">
        <ele>76.4</ele>
        <time>2015-02-02T21:38:50.585Z</time>
      </trkpt>
      <trkpt lat="48.86144" lon="2.32818">
        <ele>76.9</ele>
        <time>2015-02-02T21:38:51.521Z</time>
      </trkpt>
      <trkpt lat="48.86139" lon="2.32828">
        <ele>77</ele>
        <time>2015-02-02T21:38:52.537Z</time>
      </trkpt>
      <trkpt lat="48.86135" lon="2.32838">
        <ele>77</ele>
        <time>2015-02-02T21:38:53.510Z</time>
      </trkpt>
      <trkpt lat="48.86131" lon="2.32849">
        <ele>77</ele>
        <time>2015-02-02T21:38:54.492Z</time>
      </trkpt>
      <trkpt lat="48.86127" lon="2.3286">
        <ele>77</ele>
        <time>2015-02-02T21:38:55.494Z</time>
      </trkpt>
      <trkpt lat="48.86123" lon="2.32871">
        <ele>76.9</ele>
        <time>2015-02-02T21:38:56.542Z</time>
      </trkpt>
      <trkpt lat="48.8612" lon="2.32881">
        <ele>76.7</ele>
        <time>2015-02-02T21:38:57.558Z</time>
      </trkpt>
      <trkpt lat="48.86117" lon="2.3289">
        <ele>76.7</ele>
        <time>2015-02-02T21:38:58.493Z</time>
      </trkpt>
      <trkpt lat="48.86114" lon="2.329">
        <ele>76.6</ele>
        <time>2015-02-02T21:38:59.498Z</time>
      </trkpt>
      <trkpt lat="48.86111" lon="2.32908">
        <ele>76.1</ele>
        <time>2015-02-02T21:39:00.517Z</time>
      </trkpt>
      <trkpt lat="48.86108" lon="2.32917">
        <ele>75.3</ele>
        <time>2015-02-02T21:39:01.520Z</time>
      </trkpt>
      <trkpt lat="48.86106" lon="2.32925">
        <ele>74.4</ele>
        <time>2015-02-02T21:39:02.537Z</time>
      </trkpt>
      <trkpt lat="48.86104" lon="2.32933">
        <ele>73.8</ele>
        <time>2015-02-02T21:39:03.555Z</time>
      </trkpt>
      <trkpt lat="48.86102" lon="2.32941">
        <ele>73.3</ele>
        <time>2015-02-02T21:39:04.586Z</time>
      </trkpt>
      <trkpt lat="48.861" lon="2.32948">
        <ele>73</ele>
        <time>2015-02-02T21:39:05.487Z</time>
      </trkpt>
      <trkpt lat="48.86097" lon="2.32956">
        <ele>72.8</ele>
        <time>2015-02-02T21:39:06.503Z</time>
      </trkpt>
      <trkpt lat="48.86095" lon="2.32963">
        <ele>73.2</ele>
        <time>2015-02-02T21:39:07.554Z</time>
      </trkpt>
      <trkpt lat="48.86093" lon="2.32971">
        <ele>73.6</ele>
        <time>2015-02-02T21:39:08.579Z</time>
      </trkpt>
      <trkpt lat="48.86091" lon="2.32977">
        <ele>73.8</ele>
        <time>2015-02-02T21:39:09.583Z</time>
      </trkpt>
      <trkpt lat="48.86086" lon="2.32988">
        <ele>74.4</ele>
        <time>2015-02-02T21:39:11.499Z</time>
      </trkpt>
      <trkpt lat="48.86083" lon="2.3299">
        <ele>74.2</ele>
        <time>2015-02-02T21:39:12.506Z</time>
      </trkpt>
      <trkpt lat="48.86091" lon="2.32991">
        <ele>75.2</ele>
        <time>2015-02-02T21:39:44.588Z</time>
      </trkpt>
      <trkpt lat="48.86093" lon="2.32992">
        <ele>75.1</ele>
        <time>2015-02-02T21:39:45.614Z</time>
      </trkpt>
      <trkpt lat="48.861" lon="2.32996">
        <ele>75.1</ele>
        <time>2015-02-02T21:39:48.665Z</time>
      </trkpt>
      <trkpt lat="48.86102" lon="2.32999">
        <ele>75.2</ele>
        <time>2015-02-02T21:39:49.574Z</time>
      </trkpt>
      <trkpt lat="48.86106" lon="2.33009">
        <ele>75</ele>
        <time>2015-02-02T21:40:18.554Z</time>
      </trkpt>
      <trkpt lat="48.86108" lon="2.33012">
        <ele>74.9</ele>
        <time>2015-02-02T21:40:19.563Z</time>
      </trkpt>
      <trkpt lat="48.86113" lon="2.33019">
        <ele>74.3</ele>
        <time>2015-02-02T21:40:21.535Z</time>
      </trkpt>
      <trkpt lat="48.86117" lon="2.33023">
        <ele>74.2</ele>
        <time>2015-02-02T21:40:22.538Z</time>
      </trkpt>
      <trkpt lat="48.86121" lon="2.33027">
        <ele>74.1</ele>
        <time>2015-02-02T21:40:23.598Z</time>
      </trkpt>
      <trkpt lat="48.86126" lon="2.33031">
        <ele>74.4</ele>
        <time>2015-02-02T21:40:24.556Z</time>
      </trkpt>
      <trkpt lat="48.86132" lon="2.33036">
        <ele>74.7</ele>
        <time>2015-02-02T21:40:25.491Z</time>
      </trkpt>
      <trkpt lat="48.86138" lon="2.3304">
        <ele>74.9</ele>
        <time>2015-02-02T21:40:26.487Z</time>
      </trkpt>
      <trkpt lat="48.86145" lon="2.33045">
        <ele>74.9</ele>
        <time>2015-02-02T21:40:27.539Z</time>
      </trkpt>
      <trkpt lat="48.86152" lon="2.33051">
        <ele>74.8</ele>
        <time>2015-02-02T21:40:28.546Z</time>
      </trkpt>
      <trkpt lat="48.8616" lon="2.33056">
        <ele>75</ele>
        <time>2015-02-02T21:40:29.486Z</time>
      </trkpt>
      <trkpt lat="48.86168" lon="2.33062">
        <ele>75.4</ele>
        <time>2015-02-02T21:40:30.488Z</time>
      </trkpt>
      <trkpt lat="48.86322" lon="2.33164">
        <ele>77.1</ele>
        <time>2015-02-02T21:40:50.539Z</time>
      </trkpt>
      <trkpt lat="48.86332" lon="2.33167">
        <ele>77.1</ele>
        <time>2015-02-02T21:40:51.576Z</time>
      </trkpt>
      <trkpt lat="48.86337" lon="2.33177">
        <ele>77.6</ele>
        <time>2015-02-02T21:40:54.505Z</time>
      </trkpt>
      <trkpt lat="48.86338" lon="2.33181">
        <ele>78</ele>
        <time>2015-02-02T21:40:55.528Z</time>
      </trkpt>
      <trkpt lat="48.86344" lon="2.33185">
        <ele>77.5</ele>
        <time>2015-02-02T21:40:58.294Z</time>
      </trkpt>
      <trkpt lat="48.86347" lon="2.33186">
        <ele>77.1</ele>
        <time>2015-02-02T21:40:58.546Z</time>
      </trkpt>
      <trkpt lat="48.86355" lon="2.33188">
        <ele>82.2</ele>
        <time>2015-02-02T21:41:00.463Z</time>
      </trkpt>
      <trkpt lat="48.86358" lon="2.3319">
        <ele>83.8</ele>
        <time>2015-02-02T21:41:01.472Z</time>
      </trkpt>
      <trkpt lat="48.86365" lon="2.33194">
        <ele>85.8</ele>
        <time>2015-02-02T21:41:03.516Z</time>
      </trkpt>
      <trkpt lat="48.86368" lon="2.33197">
        <ele>88.1</ele>
        <time>2015-02-02T21:41:04.524Z</time>
      </trkpt>
      <trkpt lat="48.86375" lon="2.33202">
        <ele>91</ele>
        <time>2015-02-02T21:41:06.540Z</time>
      </trkpt>
      <trkpt lat="48.86378" lon="2.33203">
        <ele>91.7</ele>
        <time>2015-02-02T21:41:07.554Z</time>
      </trkpt>
      <trkpt lat="48.86381" lon="2.33204">
        <ele>92.6</ele>
        <time>2015-02-02T21:41:49.521Z</time>
      </trkpt>
      <trkpt lat="48.86369" lon="2.33223">
        <ele>103.4</ele>
        <time>2015-02-02T21:41:50.531Z</time>
      </trkpt>
      <trkpt lat="48.86372" lon="2.33229">
        <ele>100.8</ele>
        <time>2015-02-02T21:41:58.487Z</time>
      </trkpt>
      <trkpt lat="48.86369" lon="2.33237">
        <ele>98.7</ele>
        <time>2015-02-02T21:41:58.570Z</time>
      </trkpt>
      <trkpt lat="48.86366" lon="2.33242">
        <ele>98.1</ele>
        <time>2015-02-02T21:41:59.577Z</time>
      </trkpt>
      <trkpt lat="48.86362" lon="2.33247">
        <ele>97.7</ele>
        <time>2015-02-02T21:42:00.504Z</time>
      </trkpt>
      <trkpt lat="48.86358" lon="2.33252">
        <ele>97.3</ele>
        <time>2015-02-02T21:42:01.495Z</time>
      </trkpt>
      <trkpt lat="48.86355" lon="2.33257">
        <ele>96.8</ele>
        <time>2015-02-02T21:42:02.501Z</time>
      </trkpt>
      <trkpt lat="48.86348" lon="2.33264">
        <ele>95.9</ele>
        <time>2015-02-02T21:42:04.580Z</time>
      </trkpt>
      <trkpt lat="48.86345" lon="2.33268">
        <ele>95.3</ele>
        <time>2015-02-02T21:42:05.489Z</time>
      </trkpt>
      <trkpt lat="48.86341" lon="2.33273">
        <ele>95</ele>
        <time>2015-02-02T21:42:06.495Z</time>
      </trkpt>
      <trkpt lat="48.86338" lon="2.33278">
        <ele>94.4</ele>
        <time>2015-02-02T21:42:07.517Z</time>
      </trkpt>
      <trkpt lat="48.86334" lon="2.33284">
        <ele>94</ele>
        <time>2015-02-02T21:42:08.551Z</time>
      </trkpt>
      <trkpt lat="48.86331" lon="2.33289">
        <ele>93.7</ele>
        <time>2015-02-02T21:42:09.575Z</time>
      </trkpt>
      <trkpt lat="48.86325" lon="2.33299">
        <ele>93.1</ele>
        <time>2015-02-02T21:42:11.481Z</time>
      </trkpt>
      <trkpt lat="48.86323" lon="2.33303">
        <ele>92.9</ele>
        <time>2015-02-02T21:42:12.495Z</time>
      </trkpt>
      <trkpt lat="48.86318" lon="2.33312">
        <ele>92.3</ele>
        <time>2015-02-02T21:42:14.518Z</time>
      </trkpt>
      <trkpt lat="48.86316" lon="2.33318">
        <ele>91.9</ele>
        <time>2015-02-02T21:42:15.523Z</time>
      </trkpt>
      <trkpt lat="48.86312" lon="2.33329">
        <ele>91.5</ele>
        <time>2015-02-02T21:42:18.675Z</time>
      </trkpt>
      <trkpt lat="48.8631" lon="2.33333">
        <ele>91.4</ele>
        <time>2015-02-02T21:42:18.714Z</time>
      </trkpt>
      <trkpt lat="48.86307" lon="2.33346">
        <ele>90.6</ele>
        <time>2015-02-02T21:42:21.532Z</time>
      </trkpt>
      <trkpt lat="48.86307" lon="2.33351">
        <ele>90.4</ele>
        <time>2015-02-02T21:42:22.574Z</time>
      </trkpt>
      <trkpt lat="48.86306" lon="2.33363">
        <ele>91.7</ele>
        <time>2015-02-02T21:42:24.479Z</time>
      </trkpt>
      <trkpt lat="48.86309" lon="2.33371">
        <ele>93.3</ele>
        <time>2015-02-02T21:42:25.528Z</time>
      </trkpt>
      <trkpt lat="48.86311" lon="2.33381">
        <ele>95.3</ele>
        <time>2015-02-02T21:42:27.565Z</time>
      </trkpt>
      <trkpt lat="48.86311" lon="2.33385">
        <ele>95.7</ele>
        <time>2015-02-02T21:42:28.584Z</time>
      </trkpt>
      <trkpt lat="48.86307" lon="2.33396">
        <ele>96</ele>
        <time>2015-02-02T21:42:33.823Z</time>
      </trkpt>
      <trkpt lat="48.86306" lon="2.33399">
        <ele>96.1</ele>
        <time>2015-02-02T21:42:34.657Z</time>
      </trkpt>
      <trkpt lat="48.86299" lon="2.33407">
        <ele>96</ele>
        <time>2015-02-02T21:42:37.583Z</time>
      </trkpt>
      <trkpt lat="48.86296" lon="2.33409">
        <ele>96</ele>
        <time>2015-02-02T21:42:38.547Z</time>
      </trkpt>
      <trkpt lat="48.86291" lon="2.33416">
        <ele>95.8</ele>
        <time>2015-02-02T21:42:40.464Z</time>
      </trkpt>
      <trkpt lat="48.8629" lon="2.33421">
        <ele>95.7</ele>
        <time>2015-02-02T21:42:41.511Z</time>
      </trkpt>
      <trkpt lat="48.86288" lon="2.33425">
        <ele>95.7</ele>
        <time>2015-02-02T21:42:43.057Z</time>
      </trkpt>
      <trkpt lat="48.86271" lon="2.33501">
        <ele>94.7</ele>
        <time>2015-02-02T21:42:59.514Z</time>
      </trkpt>
      <trkpt lat="48.86271" lon="2.33506">
        <ele>95</ele>
        <time>2015-02-02T21:43:00.661Z</time>
      </trkpt>
      <trkpt lat="48.86281" lon="2.33514">
        <ele>95.7</ele>
        <time>2015-02-02T21:43:01.469Z</time>
      </trkpt>
      <trkpt lat="48.86287" lon="2.33522">
        <ele>97.3</ele>
        <time>2015-02-02T21:43:04.659Z</time>
      </trkpt>
      <trkpt lat="48.86287" lon="2.33524">
        <ele>97.3</ele>
        <time>2015-02-02T21:43:05.576Z</time>
      </trkpt>
      <trkpt lat="48.86284" lon="2.33528">
        <ele>97.4</ele>
        <time>2015-02-02T21:43:23.786Z</time>
      </trkpt>
      <trkpt lat="48.86274" lon="2.33539">
        <ele>101.3</ele>
        <time>2015-02-02T21:43:24.585Z</time>
      </trkpt>
      <trkpt lat="48.86271" lon="2.33549">
        <ele>99.4</ele>
        <time>2015-02-02T21:43:30.620Z</time>
      </trkpt>
      <trkpt lat="48.8627" lon="2.33554">
        <ele>99.1</ele>
        <time>2015-02-02T21:43:31.744Z</time>
      </trkpt>
      <trkpt lat="48.86265" lon="2.33558">
        <ele>98.7</ele>
        <time>2015-02-02T21:43:34.556Z</time>
      </trkpt>
      <trkpt lat="48.86261" lon="2.33558">
        <ele>98.6</ele>
        <time>2015-02-02T21:43:35.858Z</time>
      </trkpt>
      <trkpt lat="48.86244" lon="2.33586">
        <ele>97.6</ele>
        <time>2015-02-02T21:43:48.557Z</time>
      </trkpt>
      <trkpt lat="48.86248" lon="2.33589">
        <ele>97</ele>
        <time>2015-02-02T21:43:49.594Z</time>
      </trkpt>
      <trkpt lat="48.86251" lon="2.33594">
        <ele>96.4</ele>
        <time>2015-02-02T21:43:50.604Z</time>
      </trkpt>
      <trkpt lat="48.86252" lon="2.33608">
        <ele>94.7</ele>
        <time>2015-02-02T21:43:52.637Z</time>
      </trkpt>
      <trkpt lat="48.8625" lon="2.33615">
        <ele>93.7</ele>
        <time>2015-02-02T21:43:53.647Z</time>
      </trkpt>
      <trkpt lat="48.86249" lon="2.33625">
        <ele>91.2</ele>
        <time>2015-02-02T21:43:54.668Z</time>
      </trkpt>
      <trkpt lat="48.86248" lon="2.33632">
        <ele>89.1</ele>
        <time>2015-02-02T21:43:55.670Z</time>
      </trkpt>
      <trkpt lat="48.86249" lon="2.33644">
        <ele>86.8</ele>
        <time>2015-02-02T21:43:57.602Z</time>
      </trkpt>
      <trkpt lat="48.8625" lon="2.3365">
        <ele>85.5</ele>
        <time>2015-02-02T21:43:58.608Z</time>
      </trkpt>
      <trkpt lat="48.86253" lon="2.3366">
        <ele>84.1</ele>
        <time>2015-02-02T21:44:00.618Z</time>
      </trkpt>
      <trkpt lat="48.86254" lon="2.33664">
        <ele>83.2</ele>
        <time>2015-02-02T21:44:01.642Z</time>
      </trkpt>
      <trkpt lat="48.86258" lon="2.33673">
        <ele>81.7</ele>
        <time>2015-02-02T21:44:03.657Z</time>
      </trkpt>
      <trkpt lat="48.86259" lon="2.33677">
        <ele>81.7</ele>
        <time>2015-02-02T21:44:04.582Z</time>
      </trkpt>
      <trkpt lat="48.86263" lon="2.33689">
        <ele>82.8</ele>
        <time>2015-02-02T21:44:07.677Z</time>
      </trkpt>
      <trkpt lat="48.86263" lon="2.33692">
        <ele>83.1</ele>
        <time>2015-02-02T21:44:08.586Z</time>
      </trkpt>
      <trkpt lat="48.86264" lon="2.33705">
        <ele>83.3</ele>
        <time>2015-02-02T21:44:12.640Z</time>
      </trkpt>
      <trkpt lat="48.86265" lon="2.33709">
        <ele>83.4</ele>
        <time>2015-02-02T21:44:13.657Z</time>
      </trkpt>
      <trkpt lat="48.86266" lon="2.3372">
        <ele>83.6</ele>
        <time>2015-02-02T21:44:16.579Z</time>
      </trkpt>
      <trkpt lat="48.86266" lon="2.33724">
        <ele>83.3</ele>
        <time>2015-02-02T21:44:17.621Z</time>
      </trkpt>
      <trkpt lat="48.86266" lon="2.33733">
        <ele>83.9</ele>
        <time>2015-02-02T21:44:19.685Z</time>
      </trkpt>
      <trkpt lat="48.86266" lon="2.33738">
        <ele>84.6</ele>
        <time>2015-02-02T21:44:20.777Z</time>
      </trkpt>
      <trkpt lat="48.86265" lon="2.33749">
        <ele>85.4</ele>
        <time>2015-02-02T21:44:22.648Z</time>
      </trkpt>
      <trkpt lat="48.86263" lon="2.33754">
        <ele>85.5</ele>
        <time>2015-02-02T21:44:23.670Z</time>
      </trkpt>
      <trkpt lat="48.8626" lon="2.33767">
        <ele>85.8</ele>
        <time>2015-02-02T21:44:25.757Z</time>
      </trkpt>
      <trkpt lat="48.86259" lon="2.33772">
        <ele>85.8</ele>
        <time>2015-02-02T21:44:26.622Z</time>
      </trkpt>
      <trkpt lat="48.86258" lon="2.33785">
        <ele>86.2</ele>
        <time>2015-02-02T21:44:28.660Z</time>
      </trkpt>
      <trkpt lat="48.86257" lon="2.33791">
        <ele>86.5</ele>
        <time>2015-02-02T21:44:29.579Z</time>
      </trkpt>
      <trkpt lat="48.86255" lon="2.33803">
        <ele>86.2</ele>
        <time>2015-02-02T21:44:31.662Z</time>
      </trkpt>
      <trkpt lat="48.86253" lon="2.33811">
        <ele>85.6</ele>
        <time>2015-02-02T21:44:32.661Z</time>
      </trkpt>
      <trkpt lat="48.86252" lon="2.33819">
        <ele>85.5</ele>
        <time>2015-02-02T21:44:33.672Z</time>
      </trkpt>
      <trkpt lat="48.8625" lon="2.33826">
        <ele>85.8</ele>
        <time>2015-02-02T21:44:34.690Z</time>
      </trkpt>
      <trkpt lat="48.86248" lon="2.33833">
        <ele>85.8</ele>
        <time>2015-02-02T21:44:35.608Z</time>
      </trkpt>
      <trkpt lat="48.86247" lon="2.3384">
        <ele>86</ele>
        <time>2015-02-02T21:44:36.604Z</time>
      </trkpt>
      <trkpt lat="48.86244" lon="2.33852">
        <ele>86</ele>
        <time>2015-02-02T21:44:38.672Z</time>
      </trkpt>
      <trkpt lat="48.86242" lon="2.33859">
        <ele>85.8</ele>
        <time>2015-02-02T21:44:39.726Z</time>
      </trkpt>
      <trkpt lat="48.8624" lon="2.33865">
        <ele>85.8</ele>
        <time>2015-02-02T21:44:40.603Z</time>
      </trkpt>
      <trkpt lat="48.86239" lon="2.33872">
        <ele>85.9</ele>
        <time>2015-02-02T21:44:41.607Z</time>
      </trkpt>
      <trkpt lat="48.86238" lon="2.33879">
        <ele>85.7</ele>
        <time>2015-02-02T21:44:42.609Z</time>
      </trkpt>
      <trkpt lat="48.86236" lon="2.33889">
        <ele>86.2</ele>
        <time>2015-02-02T21:44:43.640Z</time>
      </trkpt>
      <trkpt lat="48.86235" lon="2.33897">
        <ele>87.2</ele>
        <time>2015-02-02T21:44:44.649Z</time>
      </trkpt>
      <trkpt lat="48.86234" lon="2.33903">
        <ele>87.9</ele>
        <time>2015-02-02T21:44:45.659Z</time>
      </trkpt>
      <trkpt lat="48.86232" lon="2.33909">
        <ele>89.2</ele>
        <time>2015-02-02T21:44:46.664Z</time>
      </trkpt>
      <trkpt lat="48.86231" lon="2.33916">
        <ele>90.2</ele>
        <time>2015-02-02T21:44:47.664Z</time>
      </trkpt>
      <trkpt lat="48.86229" lon="2.33924">
        <ele>90.5</ele>
        <time>2015-02-02T21:44:49.686Z</time>
      </trkpt>
      <trkpt lat="48.86228" lon="2.33929">
        <ele>90.5</ele>
        <time>2015-02-02T21:44:50.699Z</time>
      </trkpt>
      <trkpt lat="48.86225" lon="2.33938">
        <ele>90.8</ele>
        <time>2015-02-02T21:44:52.602Z</time>
      </trkpt>
      <trkpt lat="48.86224" lon="2.33944">
        <ele>91.2</ele>
        <time>2015-02-02T21:44:53.617Z</time>
      </trkpt>
      <trkpt lat="48.8622" lon="2.33955">
        <ele>91.5</ele>
        <time>2015-02-02T21:44:55.667Z</time>
      </trkpt>
      <trkpt lat="48.86219" lon="2.3396">
        <ele>91.8</ele>
        <time>2015-02-02T21:44:56.774Z</time>
      </trkpt>
      <trkpt lat="48.86214" lon="2.33972">
        <ele>92</ele>
        <time>2015-02-02T21:44:58.600Z</time>
      </trkpt>
      <trkpt lat="48.86211" lon="2.33978">
        <ele>92.2</ele>
        <time>2015-02-02T21:44:59.616Z</time>
      </trkpt>
      <trkpt lat="48.86206" lon="2.33988">
        <ele>92.4</ele>
        <time>2015-02-02T21:45:01.644Z</time>
      </trkpt>
      <trkpt lat="48.86203" lon="2.33993">
        <ele>92.3</ele>
        <time>2015-02-02T21:45:02.655Z</time>
      </trkpt>
      <trkpt lat="48.862" lon="2.34002">
        <ele>91.5</ele>
        <time>2015-02-02T21:45:04.585Z</time>
      </trkpt>
      <trkpt lat="48.862" lon="2.34006">
        <ele>91.4</ele>
        <time>2015-02-02T21:45:05.609Z</time>
      </trkpt>
      <trkpt lat="48.86196" lon="2.34017">
        <ele>91.8</ele>
        <time>2015-02-02T21:45:07.749Z</time>
      </trkpt>
      <trkpt lat="48.86192" lon="2.34022">
        <ele>92.1</ele>
        <time>2015-02-02T21:45:08.702Z</time>
      </trkpt>
      <trkpt lat="48.86187" lon="2.34033">
        <ele>93</ele>
        <time>2015-02-02T21:45:10.611Z</time>
      </trkpt>
      <trkpt lat="48.86183" lon="2.34039">
        <ele>93.6</ele>
        <time>2015-02-02T21:45:11.677Z</time>
      </trkpt>
      <trkpt lat="48.86181" lon="2.34045">
        <ele>93.9</ele>
        <time>2015-02-02T21:45:12.619Z</time>
      </trkpt>
      <trkpt lat="48.86179" lon="2.34052">
        <ele>94.2</ele>
        <time>2015-02-02T21:45:13.638Z</time>
      </trkpt>
      <trkpt lat="48.8618" lon="2.34062">
        <ele>94.2</ele>
        <time>2015-02-02T21:45:14.647Z</time>
      </trkpt>
      <trkpt lat="48.86178" lon="2.34072">
        <ele>94</ele>
        <time>2015-02-02T21:45:15.746Z</time>
      </trkpt>
      <trkpt lat="48.86178" lon="2.34084">
        <ele>94.3</ele>
        <time>2015-02-02T21:45:17.672Z</time>
      </trkpt>
      <trkpt lat="48.86177" lon="2.34089">
        <ele>94.6</ele>
        <time>2015-02-02T21:45:18.588Z</time>
      </trkpt>
      <trkpt lat="48.86176" lon="2.34096">
        <ele>95.2</ele>
        <time>2015-02-02T21:45:19.701Z</time>
      </trkpt>
      <trkpt lat="48.86174" lon="2.34103">
        <ele>96</ele>
        <time>2015-02-02T21:45:20.717Z</time>
      </trkpt>
      <trkpt lat="48.8617" lon="2.34112">
        <ele>96.9</ele>
        <time>2015-02-02T21:45:21.623Z</time>
      </trkpt>
      <trkpt lat="48.86167" lon="2.34119">
        <ele>97.5</ele>
        <time>2015-02-02T21:45:22.646Z</time>
      </trkpt>
      <trkpt lat="48.86166" lon="2.34126">
        <ele>97.7</ele>
        <time>2015-02-02T21:45:23.659Z</time>
      </trkpt>
      <trkpt lat="48.86164" lon="2.34134">
        <ele>98.2</ele>
        <time>2015-02-02T21:45:24.671Z</time>
      </trkpt>
      <trkpt lat="48.86161" lon="2.34147">
        <ele>99.6</ele>
        <time>2015-02-02T21:45:27.619Z</time>
      </trkpt>
      <trkpt lat="48.86161" lon="2.3415">
        <ele>99.9</ele>
        <time>2015-02-02T21:45:28.655Z</time>
      </trkpt>
      <trkpt lat="48.8616" lon="2.3416">
        <ele>100</ele>
        <time>2015-02-02T21:45:31.718Z</time>
      </trkpt>
      <trkpt lat="48.86158" lon="2.34165">
        <ele>100</ele>
        <time>2015-02-02T21:45:32.644Z</time>
      </trkpt>
      <trkpt lat="48.86154" lon="2.34178">
        <ele>100.1</ele>
        <time>2015-02-02T21:45:34.638Z</time>
      </trkpt>
      <trkpt lat="48.86152" lon="2.34185">
        <ele>100.2</ele>
        <time>2015-02-02T21:45:35.651Z</time>
      </trkpt>
      <trkpt lat="48.86148" lon="2.34193">
        <ele>100</ele>
        <time>2015-02-02T21:45:36.672Z</time>
      </trkpt>
      <trkpt lat="48.86146" lon="2.342">
        <ele>100.2</ele>
        <time>2015-02-02T21:45:37.799Z</time>
      </trkpt>
      <trkpt lat="48.86143" lon="2.34213">
        <ele>100.2</ele>
        <time>2015-02-02T21:45:39.675Z</time>
      </trkpt>
      <trkpt lat="48.86143" lon="2.34219">
        <ele>100.5</ele>
        <time>2015-02-02T21:45:40.589Z</time>
      </trkpt>
      <trkpt lat="48.86141" lon="2.34225">
        <ele>101.1</ele>
        <time>2015-02-02T21:45:41.563Z</time>
      </trkpt>
      <trkpt lat="48.86139" lon="2.34236">
        <ele>101.5</ele>
        <time>2015-02-02T21:45:42.586Z</time>
      </trkpt>
      <trkpt lat="48.86136" lon="2.34246">
        <ele>102.1</ele>
        <time>2015-02-02T21:45:43.674Z</time>
      </trkpt>
      <trkpt lat="48.86136" lon="2.34258">
        <ele>101.1</ele>
        <time>2015-02-02T21:45:44.704Z</time>
      </trkpt>
      <trkpt lat="48.86135" lon="2.34267">
        <ele>101</ele>
        <time>2015-02-02T21:45:45.602Z</time>
      </trkpt>
      <trkpt lat="48.86131" lon="2.34277">
        <ele>101.9</ele>
        <time>2015-02-02T21:45:46.616Z</time>
      </trkpt>
      <trkpt lat="48.86127" lon="2.34288">
        <ele>102.7</ele>
        <time>2015-02-02T21:45:47.608Z</time>
      </trkpt>
      <trkpt lat="48.86124" lon="2.34295">
        <ele>103.5</ele>
        <time>2015-02-02T21:45:48.614Z</time>
      </trkpt>
      <trkpt lat="48.86122" lon="2.34303">
        <ele>104.4</ele>
        <time>2015-02-02T21:45:49.630Z</time>
      </trkpt>
      <trkpt lat="48.86122" lon="2.34309">
        <ele>104.8</ele>
        <time>2015-02-02T21:45:50.642Z</time>
      </trkpt>
      <trkpt lat="48.86123" lon="2.34322">
        <ele>105.7</ele>
        <time>2015-02-02T21:45:53.689Z</time>
      </trkpt>
      <trkpt lat="48.86123" lon="2.34326">
        <ele>105.8</ele>
        <time>2015-02-02T21:45:54.610Z</time>
      </trkpt>
      <trkpt lat="48.86118" lon="2.34337">
        <ele>105</ele>
        <time>2015-02-02T21:45:57.696Z</time>
      </trkpt>
      <trkpt lat="48.86117" lon="2.34342">
        <ele>104.6</ele>
        <time>2015-02-02T21:45:58.632Z</time>
      </trkpt>
      <trkpt lat="48.86114" lon="2.34349">
        <ele>103.9</ele>
        <time>2015-02-02T21:46:00.595Z</time>
      </trkpt>
      <trkpt lat="48.86111" lon="2.34353">
        <ele>103.5</ele>
        <time>2015-02-02T21:46:01.640Z</time>
      </trkpt>
      <trkpt lat="48.86108" lon="2.34359">
        <ele>103.3</ele>
        <time>2015-02-02T21:46:02.667Z</time>
      </trkpt>
      <trkpt lat="48.86106" lon="2.34367">
        <ele>102.8</ele>
        <time>2015-02-02T21:46:03.707Z</time>
      </trkpt>
      <trkpt lat="48.86105" lon="2.34377">
        <ele>102.4</ele>
        <time>2015-02-02T21:46:04.592Z</time>
      </trkpt>
      <trkpt lat="48.86103" lon="2.34387">
        <ele>101.9</ele>
        <time>2015-02-02T21:46:05.588Z</time>
      </trkpt>
      <trkpt lat="48.86101" lon="2.34395">
        <ele>101.8</ele>
        <time>2015-02-02T21:46:06.596Z</time>
      </trkpt>
      <trkpt lat="48.861" lon="2.34402">
        <ele>101.6</ele>
        <time>2015-02-02T21:46:07.625Z</time>
      </trkpt>
      <trkpt lat="48.86099" lon="2.34408">
        <ele>101.5</ele>
        <time>2015-02-02T21:46:08.629Z</time>
      </trkpt>
      <trkpt lat="48.86097" lon="2.34415">
        <ele>101.4</ele>
        <time>2015-02-02T21:46:09.642Z</time>
      </trkpt>
      <trkpt lat="48.86095" lon="2.34424">
        <ele>101.8</ele>
        <time>2015-02-02T21:46:10.654Z</time>
      </trkpt>
      <trkpt lat="48.86093" lon="2.34433">
        <ele>102.2</ele>
        <time>2015-02-02T21:46:11.666Z</time>
      </trkpt>
      <trkpt lat="48.86092" lon="2.34441">
        <ele>102.7</ele>
        <time>2015-02-02T21:46:12.676Z</time>
      </trkpt>
      <trkpt lat="48.86091" lon="2.34448">
        <ele>102.7</ele>
        <time>2015-02-02T21:46:13.679Z</time>
      </trkpt>
      <trkpt lat="48.86089" lon="2.34456">
        <ele>102.6</ele>
        <time>2015-02-02T21:46:14.580Z</time>
      </trkpt>
      <trkpt lat="48.86087" lon="2.34466">
        <ele>103</ele>
        <time>2015-02-02T21:46:15.597Z</time>
      </trkpt>
      <trkpt lat="48.86088" lon="2.34474">
        <ele>103.5</ele>
        <time>2015-02-02T21:46:16.610Z</time>
      </trkpt>
      <trkpt lat="48.86087" lon="2.34482">
        <ele>104.3</ele>
        <time>2015-02-02T21:46:17.623Z</time>
      </trkpt>
      <trkpt lat="48.86089" lon="2.34489">
        <ele>103.6</ele>
        <time>2015-02-02T21:46:18.630Z</time>
      </trkpt>
      <trkpt lat="48.8609" lon="2.34498">
        <ele>102.8</ele>
        <time>2015-02-02T21:46:19.651Z</time>
      </trkpt>
      <trkpt lat="48.86088" lon="2.34504">
        <ele>103.2</ele>
        <time>2015-02-02T21:46:20.674Z</time>
      </trkpt>
      <trkpt lat="48.86087" lon="2.34511">
        <ele>103.8</ele>
        <time>2015-02-02T21:46:21.694Z</time>
      </trkpt>
      <trkpt lat="48.86086" lon="2.34523">
        <ele>105.3</ele>
        <time>2015-02-02T21:46:24.615Z</time>
      </trkpt>
      <trkpt lat="48.86087" lon="2.34527">
        <ele>105</ele>
        <time>2015-02-02T21:46:25.647Z</time>
      </trkpt>
      <trkpt lat="48.86087" lon="2.34534">
        <ele>104.8</ele>
        <time>2015-02-02T21:46:26.690Z</time>
      </trkpt>
      <trkpt lat="48.86085" lon="2.34541">
        <ele>104.7</ele>
        <time>2015-02-02T21:46:27.598Z</time>
      </trkpt>
      <trkpt lat="48.86085" lon="2.34549">
        <ele>104.9</ele>
        <time>2015-02-02T21:46:28.758Z</time>
      </trkpt>
      <trkpt lat="48.86083" lon="2.34556">
        <ele>104.1</ele>
        <time>2015-02-02T21:46:29.619Z</time>
      </trkpt>
      <trkpt lat="48.86077" lon="2.34565">
        <ele>102.1</ele>
        <time>2015-02-02T21:46:31.675Z</time>
      </trkpt>
      <trkpt lat="48.86074" lon="2.3457">
        <ele>101.6</ele>
        <time>2015-02-02T21:46:32.666Z</time>
      </trkpt>
      <trkpt lat="48.86071" lon="2.34575">
        <ele>100.9</ele>
        <time>2015-02-02T21:46:33.690Z</time>
      </trkpt>
      <trkpt lat="48.86068" lon="2.3458">
        <ele>100.3</ele>
        <time>2015-02-02T21:46:34.698Z</time>
      </trkpt>
      <trkpt lat="48.86062" lon="2.34589">
        <ele>99.3</ele>
        <time>2015-02-02T21:46:36.597Z</time>
      </trkpt>
      <trkpt lat="48.86059" lon="2.34594">
        <ele>98.7</ele>
        <time>2015-02-02T21:46:37.648Z</time>
      </trkpt>
      <trkpt lat="48.86055" lon="2.34598">
        <ele>98.3</ele>
        <time>2015-02-02T21:46:38.673Z</time>
      </trkpt>
      <trkpt lat="48.86051" lon="2.346">
        <ele>98</ele>
        <time>2015-02-02T21:46:39.684Z</time>
      </trkpt>
      <trkpt lat="48.86043" lon="2.34606">
        <ele>97.1</ele>
        <time>2015-02-02T21:46:41.580Z</time>
      </trkpt>
      <trkpt lat="48.86039" lon="2.3461">
        <ele>96.6</ele>
        <time>2015-02-02T21:46:42.616Z</time>
      </trkpt>
      <trkpt lat="48.86035" lon="2.34614">
        <ele>96.5</ele>
        <time>2015-02-02T21:46:43.644Z</time>
      </trkpt>
      <trkpt lat="48.8603" lon="2.34617">
        <ele>96.5</ele>
        <time>2015-02-02T21:46:44.689Z</time>
      </trkpt>
      <trkpt lat="48.86026" lon="2.3462">
        <ele>96.5</ele>
        <time>2015-02-02T21:46:45.604Z</time>
      </trkpt>
      <trkpt lat="48.86022" lon="2.34624">
        <ele>96.4</ele>
        <time>2015-02-02T21:46:46.602Z</time>
      </trkpt>
      <trkpt lat="48.86015" lon="2.34632">
        <ele>96.3</ele>
        <time>2015-02-02T21:46:48.619Z</time>
      </trkpt>
      <trkpt lat="48.86012" lon="2.34638">
        <ele>96.9</ele>
        <time>2015-02-02T21:46:49.653Z</time>
      </trkpt>
      <trkpt lat="48.86008" lon="2.34646">
        <ele>98.6</ele>
        <time>2015-02-02T21:46:50.620Z</time>
      </trkpt>
      <trkpt lat="48.86005" lon="2.34649">
        <ele>99.3</ele>
        <time>2015-02-02T21:46:51.630Z</time>
      </trkpt>
      <trkpt lat="48.86" lon="2.34655">
        <ele>99.1</ele>
        <time>2015-02-02T21:46:53.665Z</time>
      </trkpt>
      <trkpt lat="48.85997" lon="2.34657">
        <ele>99</ele>
        <time>2015-02-02T21:46:54.673Z</time>
      </trkpt>
      <trkpt lat="48.8599" lon="2.34663">
        <ele>99.3</ele>
        <time>2015-02-02T21:46:56.606Z</time>
      </trkpt>
      <trkpt lat="48.85986" lon="2.34665">
        <ele>99.4</ele>
        <time>2015-02-02T21:46:57.634Z</time>
      </trkpt>
      <trkpt lat="48.85979" lon="2.34671">
        <ele>99.2</ele>
        <time>2015-02-02T21:46:59.684Z</time>
      </trkpt>
      <trkpt lat="48.85976" lon="2.34674">
        <ele>99</ele>
        <time>2015-02-02T21:47:00.602Z</time>
      </trkpt>
      <trkpt lat="48.85971" lon="2.34681">
        <ele>98.1</ele>
        <time>2015-02-02T21:47:02.634Z</time>
      </trkpt>
      <trkpt lat="48.85968" lon="2.34685">
        <ele>97.9</ele>
        <time>2015-02-02T21:47:03.646Z</time>
      </trkpt>
      <trkpt lat="48.85964" lon="2.34692">
        <ele>97.8</ele>
        <time>2015-02-02T21:47:05.615Z</time>
      </trkpt>
      <trkpt lat="48.85962" lon="2.34696">
        <ele>98.1</ele>
        <time>2015-02-02T21:47:06.629Z</time>
      </trkpt>
      <trkpt lat="48.85956" lon="2.34704">
        <ele>98.4</ele>
        <time>2015-02-02T21:47:09.828Z</time>
      </trkpt>
      <trkpt lat="48.85956" lon="2.34706">
        <ele>98.2</ele>
        <time>2015-02-02T21:47:10.681Z</time>
      </trkpt>
      <trkpt lat="48.85958" lon="2.34718">
        <ele>94.9</ele>
        <time>2015-02-02T21:47:18.669Z</time>
      </trkpt>
      <trkpt lat="48.85957" lon="2.3472">
        <ele>95.7</ele>
        <time>2015-02-02T21:47:19.726Z</time>
      </trkpt>
      <trkpt lat="48.85953" lon="2.34719">
        <ele>100</ele>
        <time>2015-02-02T21:48:28.702Z</time>
      </trkpt>
      <trkpt lat="48.85953" lon="2.34719">
        <ele>100</ele>
        <time>2015-02-02T21:48:50.837Z</time>
      </trkpt>
    </trkseg>
  </trk>
</gpx>